<?xml version="1.0" encoding="UTF-8" standalone="no" ?>
<gpx xmlns="http://www.topografix.com/GPX/1/1" xmlns:xsi="http://www.w3.org/2001/XMLSchema-instance" xsi:schemaLocation="http://www.topografix.com/GPX/1/1 http://www.topografix.com/GPX/1/1/gpx.xsd" version="1.1" creator="VisuGPX - https://www.visugpx.com">
  <metadata>
    <name>2019-12-15 09:48</name>
    <desc><![CDATA[<p>Heure de départ: 09:48 15 déc. 2019<br/>Heure d'arrivée: 13:24 15 déc. 2019<br/>Distance: 82,3 km (03:35)<br/>Temps déplacement: 03:29<br/>Vitesse moyenne: 22,93 km/h<br/>Vitesse moyenne mouv.: 23,58 km/h<br/>Vitesse Max.: 46,33 km/h<br/>Altitude minimale: -46 m<br/>Altitude maximale: 43 m<br/>Vitesse de montée: 410,2 m/h<br/>Vitesse de descente: -552,5 m/h<br/>Gain d'altitude: 814 m<br/>Perte d'altitude: -806 m<br/>Temps de montée: 01:59<br/>Temps de descente: 01:27<br/></p><hr align="center" width="480" style="height: 2px; width: 517px"/>]]></desc>
  </metadata>
  <wpt lat="47.27034" lon="-1.63454">
    <ele>-28.04</ele>
    <name><![CDATA[0000019]]></name>
    <type><![CDATA[Point de départ]]></type>
  </wpt>
  <wpt lat="47.2704" lon="-1.63426">
    <ele>-3.93</ele>
    <name><![CDATA[0000020]]></name>
    <desc><![CDATA[<p><br /><h3>Nom: Segment: 1</h3><br />Heure de départ: 09:48 15 déc. 2019<br/>Heure d'arrivée: 13:24 15 déc. 2019<br/>Distance: 82,3km (03:35)<br/>Temps déplacement: 03:29<br/>Vitesse moyenne: 22,93 km/h<br/>Vitesse moyenne mouv.: 23,5 km/h<br/>Vitesse Max.: 46,33 km/h<br/>Altitude minimale: -46 m<br/>Altitude maximale: 43 m<br/>Vitesse de montée: 676,3 m/h<br/>Vitesse de descente: -835,1 m/h<br/>Gain d'altitude: 1317 m<br/>Perte d'altitude: -1293 m<br/>Temps de montée: 01:56<br/>Temps de descente: 01:32<br/></p>]]></desc>
    <type><![CDATA[Point d'arrivée]]></type>
  </wpt>
  <trk>
    <name><![CDATA[2019-12-15 09:48]]></name>
    <desc><![CDATA[<p>Heure de départ: 09:48 15 déc. 2019<br/>Heure d'arrivée: 13:24 15 déc. 2019<br/>Distance: 82,3 km (03:35)<br/>Temps déplacement: 03:29<br/>Vitesse moyenne: 22,93 km/h<br/>Vitesse moyenne mouv.: 23,58 km/h<br/>Vitesse Max.: 46,33 km/h<br/>Altitude minimale: -46 m<br/>Altitude maximale: 43 m<br/>Vitesse de montée: 410,2 m/h<br/>Vitesse de descente: -552,5 m/h<br/>Gain d'altitude: 814 m<br/>Perte d'altitude: -806 m<br/>Temps de montée: 01:59<br/>Temps de descente: 01:27<br/></p><hr align="center" width="480" style="height: 2px; width: 517px"/>]]></desc>
    <trkseg>
      <trkpt lat="47.27034" lon="-1.63454">
        <ele>-28.04</ele>
        <time>2019-12-15T08:48:43.000Z</time>
      </trkpt>
      <trkpt lat="47.27019" lon="-1.63426">
        <ele>1.92</ele>
        <time>2019-12-15T08:48:46.000Z</time>
      </trkpt>
      <trkpt lat="47.27038" lon="-1.63426">
        <ele>1.25</ele>
        <time>2019-12-15T08:49:10.000Z</time>
      </trkpt>
      <trkpt lat="47.27044" lon="-1.63398">
        <ele>-6.12</ele>
        <time>2019-12-15T08:49:21.000Z</time>
      </trkpt>
      <trkpt lat="47.27042" lon="-1.63371">
        <ele>-5.76</ele>
        <time>2019-12-15T08:49:26.000Z</time>
      </trkpt>
      <trkpt lat="47.27043" lon="-1.63344">
        <ele>-5.84</ele>
        <time>2019-12-15T08:49:31.000Z</time>
      </trkpt>
      <trkpt lat="47.27041" lon="-1.63312">
        <ele>-4.17</ele>
        <time>2019-12-15T08:49:37.000Z</time>
      </trkpt>
      <trkpt lat="47.27038" lon="-1.63285">
        <ele>-3.24</ele>
        <time>2019-12-15T08:49:41.000Z</time>
      </trkpt>
      <trkpt lat="47.27034" lon="-1.63252">
        <ele>-4.52</ele>
        <time>2019-12-15T08:49:45.000Z</time>
      </trkpt>
      <trkpt lat="47.27041" lon="-1.63224">
        <ele>-5.83</ele>
        <time>2019-12-15T08:49:49.000Z</time>
      </trkpt>
      <trkpt lat="47.27052" lon="-1.63201">
        <ele>-7.57</ele>
        <time>2019-12-15T08:49:53.000Z</time>
      </trkpt>
      <trkpt lat="47.27058" lon="-1.63174">
        <ele>-8.17</ele>
        <time>2019-12-15T08:49:57.000Z</time>
      </trkpt>
      <trkpt lat="47.27064" lon="-1.63139">
        <ele>-8.76</ele>
        <time>2019-12-15T08:50:01.000Z</time>
      </trkpt>
      <trkpt lat="47.27066" lon="-1.63106">
        <ele>-11.07</ele>
        <time>2019-12-15T08:50:05.000Z</time>
      </trkpt>
      <trkpt lat="47.2707" lon="-1.63077">
        <ele>-13.98</ele>
        <time>2019-12-15T08:50:10.000Z</time>
      </trkpt>
      <trkpt lat="47.27084" lon="-1.63059">
        <ele>-12.97</ele>
        <time>2019-12-15T08:50:17.000Z</time>
      </trkpt>
      <trkpt lat="47.27104" lon="-1.63061">
        <ele>-10.61</ele>
        <time>2019-12-15T08:50:23.000Z</time>
      </trkpt>
      <trkpt lat="47.27124" lon="-1.63063">
        <ele>-9.71</ele>
        <time>2019-12-15T08:50:28.000Z</time>
      </trkpt>
      <trkpt lat="47.27145" lon="-1.63061">
        <ele>-9.2</ele>
        <time>2019-12-15T08:50:33.000Z</time>
      </trkpt>
      <trkpt lat="47.27166" lon="-1.63056">
        <ele>-9.1</ele>
        <time>2019-12-15T08:50:38.000Z</time>
      </trkpt>
      <trkpt lat="47.27184" lon="-1.63049">
        <ele>-8.94</ele>
        <time>2019-12-15T08:50:42.000Z</time>
      </trkpt>
      <trkpt lat="47.27203" lon="-1.63043">
        <ele>-7.99</ele>
        <time>2019-12-15T08:50:46.000Z</time>
      </trkpt>
      <trkpt lat="47.27222" lon="-1.63034">
        <ele>-6.68</ele>
        <time>2019-12-15T08:50:50.000Z</time>
      </trkpt>
      <trkpt lat="47.27242" lon="-1.63025">
        <ele>-5.37</ele>
        <time>2019-12-15T08:50:54.000Z</time>
      </trkpt>
      <trkpt lat="47.27263" lon="-1.63018">
        <ele>-4.82</ele>
        <time>2019-12-15T08:50:58.000Z</time>
      </trkpt>
      <trkpt lat="47.27285" lon="-1.63008">
        <ele>-5.72</ele>
        <time>2019-12-15T08:51:02.000Z</time>
      </trkpt>
      <trkpt lat="47.27304" lon="-1.62993">
        <ele>-5.45</ele>
        <time>2019-12-15T08:51:06.000Z</time>
      </trkpt>
      <trkpt lat="47.27325" lon="-1.62997">
        <ele>-5.65</ele>
        <time>2019-12-15T08:51:10.000Z</time>
      </trkpt>
      <trkpt lat="47.2735" lon="-1.62991">
        <ele>-4.88</ele>
        <time>2019-12-15T08:51:14.000Z</time>
      </trkpt>
      <trkpt lat="47.27372" lon="-1.62981">
        <ele>-5.78</ele>
        <time>2019-12-15T08:51:17.000Z</time>
      </trkpt>
      <trkpt lat="47.27393" lon="-1.6297">
        <ele>-7.84</ele>
        <time>2019-12-15T08:51:20.000Z</time>
      </trkpt>
      <trkpt lat="47.27413" lon="-1.62958">
        <ele>-9.67</ele>
        <time>2019-12-15T08:51:23.000Z</time>
      </trkpt>
      <trkpt lat="47.27431" lon="-1.62945">
        <ele>-12.35</ele>
        <time>2019-12-15T08:51:26.000Z</time>
      </trkpt>
      <trkpt lat="47.27447" lon="-1.62926">
        <ele>-13.91</ele>
        <time>2019-12-15T08:51:29.000Z</time>
      </trkpt>
      <trkpt lat="47.27463" lon="-1.62905">
        <ele>-15.38</ele>
        <time>2019-12-15T08:51:32.000Z</time>
      </trkpt>
      <trkpt lat="47.27478" lon="-1.62883">
        <ele>-15.89</ele>
        <time>2019-12-15T08:51:35.000Z</time>
      </trkpt>
      <trkpt lat="47.27496" lon="-1.62865">
        <ele>-14.12</ele>
        <time>2019-12-15T08:51:38.000Z</time>
      </trkpt>
      <trkpt lat="47.27517" lon="-1.62855">
        <ele>-14.53</ele>
        <time>2019-12-15T08:51:41.000Z</time>
      </trkpt>
      <trkpt lat="47.27539" lon="-1.62852">
        <ele>-15.79</ele>
        <time>2019-12-15T08:51:44.000Z</time>
      </trkpt>
      <trkpt lat="47.27558" lon="-1.62854">
        <ele>-16.32</ele>
        <time>2019-12-15T08:51:47.000Z</time>
      </trkpt>
      <trkpt lat="47.27576" lon="-1.62861">
        <ele>-16.08</ele>
        <time>2019-12-15T08:51:50.000Z</time>
      </trkpt>
      <trkpt lat="47.27598" lon="-1.62872">
        <ele>-15.18</ele>
        <time>2019-12-15T08:51:54.000Z</time>
      </trkpt>
      <trkpt lat="47.27618" lon="-1.62879">
        <ele>-13.5</ele>
        <time>2019-12-15T08:51:58.000Z</time>
      </trkpt>
      <trkpt lat="47.27637" lon="-1.62863">
        <ele>-12.36</ele>
        <time>2019-12-15T08:52:03.000Z</time>
      </trkpt>
      <trkpt lat="47.27643" lon="-1.62831">
        <ele>-11.6</ele>
        <time>2019-12-15T08:52:07.000Z</time>
      </trkpt>
      <trkpt lat="47.27643" lon="-1.62804">
        <ele>-10.98</ele>
        <time>2019-12-15T08:52:10.000Z</time>
      </trkpt>
      <trkpt lat="47.27638" lon="-1.62775">
        <ele>-10.72</ele>
        <time>2019-12-15T08:52:13.000Z</time>
      </trkpt>
      <trkpt lat="47.27633" lon="-1.62747">
        <ele>-9.68</ele>
        <time>2019-12-15T08:52:16.000Z</time>
      </trkpt>
      <trkpt lat="47.27626" lon="-1.62716">
        <ele>-7.99</ele>
        <time>2019-12-15T08:52:19.000Z</time>
      </trkpt>
      <trkpt lat="47.27618" lon="-1.62686">
        <ele>-8.2</ele>
        <time>2019-12-15T08:52:22.000Z</time>
      </trkpt>
      <trkpt lat="47.27608" lon="-1.62654">
        <ele>-9.05</ele>
        <time>2019-12-15T08:52:25.000Z</time>
      </trkpt>
      <trkpt lat="47.27597" lon="-1.62622">
        <ele>-11.26</ele>
        <time>2019-12-15T08:52:28.000Z</time>
      </trkpt>
      <trkpt lat="47.27584" lon="-1.62588">
        <ele>-14.55</ele>
        <time>2019-12-15T08:52:31.000Z</time>
      </trkpt>
      <trkpt lat="47.27571" lon="-1.62556">
        <ele>-17.15</ele>
        <time>2019-12-15T08:52:34.000Z</time>
      </trkpt>
      <trkpt lat="47.27555" lon="-1.62534">
        <ele>-18.62</ele>
        <time>2019-12-15T08:52:37.000Z</time>
      </trkpt>
      <trkpt lat="47.27547" lon="-1.62508">
        <ele>-20.3</ele>
        <time>2019-12-15T08:52:41.000Z</time>
      </trkpt>
      <trkpt lat="47.27564" lon="-1.62493">
        <ele>-22.85</ele>
        <time>2019-12-15T08:52:46.000Z</time>
      </trkpt>
      <trkpt lat="47.27582" lon="-1.62486">
        <ele>-24.09</ele>
        <time>2019-12-15T08:52:50.000Z</time>
      </trkpt>
      <trkpt lat="47.27603" lon="-1.62475">
        <ele>-26.21</ele>
        <time>2019-12-15T08:52:55.000Z</time>
      </trkpt>
      <trkpt lat="47.27623" lon="-1.62464">
        <ele>-27.45</ele>
        <time>2019-12-15T08:53:00.000Z</time>
      </trkpt>
      <trkpt lat="47.27641" lon="-1.62456">
        <ele>-27.3</ele>
        <time>2019-12-15T08:53:04.000Z</time>
      </trkpt>
      <trkpt lat="47.27659" lon="-1.62445">
        <ele>-26.53</ele>
        <time>2019-12-15T08:53:08.000Z</time>
      </trkpt>
      <trkpt lat="47.27676" lon="-1.62437">
        <ele>-25.4</ele>
        <time>2019-12-15T08:53:12.000Z</time>
      </trkpt>
      <trkpt lat="47.27694" lon="-1.6243">
        <ele>-23.57</ele>
        <time>2019-12-15T08:53:16.000Z</time>
      </trkpt>
      <trkpt lat="47.27713" lon="-1.62421">
        <ele>-20.12</ele>
        <time>2019-12-15T08:53:20.000Z</time>
      </trkpt>
      <trkpt lat="47.27733" lon="-1.6241">
        <ele>-16.02</ele>
        <time>2019-12-15T08:53:24.000Z</time>
      </trkpt>
      <trkpt lat="47.27755" lon="-1.62401">
        <ele>-11.3</ele>
        <time>2019-12-15T08:53:28.000Z</time>
      </trkpt>
      <trkpt lat="47.27773" lon="-1.62398">
        <ele>-9.06</ele>
        <time>2019-12-15T08:53:31.000Z</time>
      </trkpt>
      <trkpt lat="47.27793" lon="-1.62396">
        <ele>-7.64</ele>
        <time>2019-12-15T08:53:34.000Z</time>
      </trkpt>
      <trkpt lat="47.27813" lon="-1.624">
        <ele>-6.66</ele>
        <time>2019-12-15T08:53:37.000Z</time>
      </trkpt>
      <trkpt lat="47.27831" lon="-1.62406">
        <ele>-7.24</ele>
        <time>2019-12-15T08:53:40.000Z</time>
      </trkpt>
      <trkpt lat="47.27851" lon="-1.62413">
        <ele>-7.96</ele>
        <time>2019-12-15T08:53:43.000Z</time>
      </trkpt>
      <trkpt lat="47.27872" lon="-1.62416">
        <ele>-8.83</ele>
        <time>2019-12-15T08:53:46.000Z</time>
      </trkpt>
      <trkpt lat="47.27894" lon="-1.62409">
        <ele>-9.18</ele>
        <time>2019-12-15T08:53:49.000Z</time>
      </trkpt>
      <trkpt lat="47.27913" lon="-1.62402">
        <ele>-10.32</ele>
        <time>2019-12-15T08:53:52.000Z</time>
      </trkpt>
      <trkpt lat="47.27934" lon="-1.62392">
        <ele>-11</ele>
        <time>2019-12-15T08:53:55.000Z</time>
      </trkpt>
      <trkpt lat="47.27954" lon="-1.62375">
        <ele>-12.63</ele>
        <time>2019-12-15T08:53:58.000Z</time>
      </trkpt>
      <trkpt lat="47.27962" lon="-1.62347">
        <ele>-14.87</ele>
        <time>2019-12-15T08:54:01.000Z</time>
      </trkpt>
      <trkpt lat="47.27952" lon="-1.62316">
        <ele>-15.35</ele>
        <time>2019-12-15T08:54:05.000Z</time>
      </trkpt>
      <trkpt lat="47.27937" lon="-1.62291">
        <ele>-15.84</ele>
        <time>2019-12-15T08:54:09.000Z</time>
      </trkpt>
      <trkpt lat="47.27929" lon="-1.6226">
        <ele>-17.32</ele>
        <time>2019-12-15T08:54:13.000Z</time>
      </trkpt>
      <trkpt lat="47.27929" lon="-1.6223">
        <ele>-17.4</ele>
        <time>2019-12-15T08:54:17.000Z</time>
      </trkpt>
      <trkpt lat="47.27938" lon="-1.62205">
        <ele>-15.79</ele>
        <time>2019-12-15T08:54:21.000Z</time>
      </trkpt>
      <trkpt lat="47.27941" lon="-1.62174">
        <ele>-15.32</ele>
        <time>2019-12-15T08:54:26.000Z</time>
      </trkpt>
      <trkpt lat="47.27946" lon="-1.62141">
        <ele>-15.14</ele>
        <time>2019-12-15T08:54:31.000Z</time>
      </trkpt>
      <trkpt lat="47.27955" lon="-1.62116">
        <ele>-15.29</ele>
        <time>2019-12-15T08:54:35.000Z</time>
      </trkpt>
      <trkpt lat="47.27974" lon="-1.62099">
        <ele>-17.52</ele>
        <time>2019-12-15T08:54:39.000Z</time>
      </trkpt>
      <trkpt lat="47.27996" lon="-1.62088">
        <ele>-16.5</ele>
        <time>2019-12-15T08:54:43.000Z</time>
      </trkpt>
      <trkpt lat="47.28015" lon="-1.62078">
        <ele>-12.72</ele>
        <time>2019-12-15T08:54:47.000Z</time>
      </trkpt>
      <trkpt lat="47.2803" lon="-1.62054">
        <ele>-7.32</ele>
        <time>2019-12-15T08:54:52.000Z</time>
      </trkpt>
      <trkpt lat="47.28041" lon="-1.62031">
        <ele>-2.74</ele>
        <time>2019-12-15T08:54:56.000Z</time>
      </trkpt>
      <trkpt lat="47.28052" lon="-1.62008">
        <ele>0.02</ele>
        <time>2019-12-15T08:55:00.000Z</time>
      </trkpt>
      <trkpt lat="47.28063" lon="-1.61986">
        <ele>0.4</ele>
        <time>2019-12-15T08:55:04.000Z</time>
      </trkpt>
      <trkpt lat="47.28076" lon="-1.6196">
        <ele>1.12</ele>
        <time>2019-12-15T08:55:09.000Z</time>
      </trkpt>
      <trkpt lat="47.28089" lon="-1.6194">
        <ele>3.62</ele>
        <time>2019-12-15T08:55:14.000Z</time>
      </trkpt>
      <trkpt lat="47.28101" lon="-1.61919">
        <ele>6.18</ele>
        <time>2019-12-15T08:55:19.000Z</time>
      </trkpt>
      <trkpt lat="47.28117" lon="-1.61897">
        <ele>3.74</ele>
        <time>2019-12-15T08:55:24.000Z</time>
      </trkpt>
      <trkpt lat="47.28133" lon="-1.61883">
        <ele>1.71</ele>
        <time>2019-12-15T08:55:28.000Z</time>
      </trkpt>
      <trkpt lat="47.28151" lon="-1.6187">
        <ele>0.78</ele>
        <time>2019-12-15T08:55:32.000Z</time>
      </trkpt>
      <trkpt lat="47.2817" lon="-1.61855">
        <ele>-1.84</ele>
        <time>2019-12-15T08:55:37.000Z</time>
      </trkpt>
      <trkpt lat="47.2819" lon="-1.6184">
        <ele>-5.2</ele>
        <time>2019-12-15T08:55:42.000Z</time>
      </trkpt>
      <trkpt lat="47.28207" lon="-1.61822">
        <ele>-4.93</ele>
        <time>2019-12-15T08:55:47.000Z</time>
      </trkpt>
      <trkpt lat="47.28222" lon="-1.61806">
        <ele>-10.86</ele>
        <time>2019-12-15T08:55:52.000Z</time>
      </trkpt>
      <trkpt lat="47.28238" lon="-1.61793">
        <ele>-9.53</ele>
        <time>2019-12-15T08:55:56.000Z</time>
      </trkpt>
      <trkpt lat="47.28256" lon="-1.61779">
        <ele>-5.98</ele>
        <time>2019-12-15T08:56:00.000Z</time>
      </trkpt>
      <trkpt lat="47.28273" lon="-1.61765">
        <ele>-2.53</ele>
        <time>2019-12-15T08:56:04.000Z</time>
      </trkpt>
      <trkpt lat="47.28292" lon="-1.6175">
        <ele>0.3</ele>
        <time>2019-12-15T08:56:08.000Z</time>
      </trkpt>
      <trkpt lat="47.28311" lon="-1.61734">
        <ele>2.36</ele>
        <time>2019-12-15T08:56:12.000Z</time>
      </trkpt>
      <trkpt lat="47.28331" lon="-1.61719">
        <ele>3.28</ele>
        <time>2019-12-15T08:56:16.000Z</time>
      </trkpt>
      <trkpt lat="47.28352" lon="-1.61703">
        <ele>4.1</ele>
        <time>2019-12-15T08:56:20.000Z</time>
      </trkpt>
      <trkpt lat="47.28371" lon="-1.61687">
        <ele>3.99</ele>
        <time>2019-12-15T08:56:24.000Z</time>
      </trkpt>
      <trkpt lat="47.28389" lon="-1.61671">
        <ele>4.2</ele>
        <time>2019-12-15T08:56:28.000Z</time>
      </trkpt>
      <trkpt lat="47.28408" lon="-1.61654">
        <ele>4.39</ele>
        <time>2019-12-15T08:56:32.000Z</time>
      </trkpt>
      <trkpt lat="47.28425" lon="-1.61639">
        <ele>5.07</ele>
        <time>2019-12-15T08:56:35.000Z</time>
      </trkpt>
      <trkpt lat="47.28444" lon="-1.61626">
        <ele>5.08</ele>
        <time>2019-12-15T08:56:38.000Z</time>
      </trkpt>
      <trkpt lat="47.28466" lon="-1.61618">
        <ele>3.44</ele>
        <time>2019-12-15T08:56:41.000Z</time>
      </trkpt>
      <trkpt lat="47.2849" lon="-1.61612">
        <ele>2.09</ele>
        <time>2019-12-15T08:56:44.000Z</time>
      </trkpt>
      <trkpt lat="47.28508" lon="-1.61603">
        <ele>0.38</ele>
        <time>2019-12-15T08:56:46.000Z</time>
      </trkpt>
      <trkpt lat="47.2853" lon="-1.61581">
        <ele>0.05</ele>
        <time>2019-12-15T08:56:49.000Z</time>
      </trkpt>
      <trkpt lat="47.28548" lon="-1.61553">
        <ele>0.36</ele>
        <time>2019-12-15T08:56:52.000Z</time>
      </trkpt>
      <trkpt lat="47.28564" lon="-1.61528">
        <ele>1.87</ele>
        <time>2019-12-15T08:56:55.000Z</time>
      </trkpt>
      <trkpt lat="47.28576" lon="-1.61507">
        <ele>4.15</ele>
        <time>2019-12-15T08:56:58.000Z</time>
      </trkpt>
      <trkpt lat="47.28592" lon="-1.61485">
        <ele>5.57</ele>
        <time>2019-12-15T08:57:02.000Z</time>
      </trkpt>
      <trkpt lat="47.28609" lon="-1.61466">
        <ele>6.42</ele>
        <time>2019-12-15T08:57:06.000Z</time>
      </trkpt>
      <trkpt lat="47.28629" lon="-1.61451">
        <ele>6.51</ele>
        <time>2019-12-15T08:57:10.000Z</time>
      </trkpt>
      <trkpt lat="47.28651" lon="-1.61438">
        <ele>6.13</ele>
        <time>2019-12-15T08:57:14.000Z</time>
      </trkpt>
      <trkpt lat="47.28673" lon="-1.61426">
        <ele>5.37</ele>
        <time>2019-12-15T08:57:18.000Z</time>
      </trkpt>
      <trkpt lat="47.28689" lon="-1.61415">
        <ele>4.38</ele>
        <time>2019-12-15T08:57:21.000Z</time>
      </trkpt>
      <trkpt lat="47.28705" lon="-1.614">
        <ele>3.21</ele>
        <time>2019-12-15T08:57:24.000Z</time>
      </trkpt>
      <trkpt lat="47.28719" lon="-1.61385">
        <ele>3.8</ele>
        <time>2019-12-15T08:57:27.000Z</time>
      </trkpt>
      <trkpt lat="47.28738" lon="-1.61364">
        <ele>5.27</ele>
        <time>2019-12-15T08:57:31.000Z</time>
      </trkpt>
      <trkpt lat="47.28761" lon="-1.6136">
        <ele>8.07</ele>
        <time>2019-12-15T08:57:35.000Z</time>
      </trkpt>
      <trkpt lat="47.28779" lon="-1.61362">
        <ele>8.65</ele>
        <time>2019-12-15T08:57:38.000Z</time>
      </trkpt>
      <trkpt lat="47.28798" lon="-1.61358">
        <ele>9.2</ele>
        <time>2019-12-15T08:57:41.000Z</time>
      </trkpt>
      <trkpt lat="47.28817" lon="-1.61356">
        <ele>10.24</ele>
        <time>2019-12-15T08:57:44.000Z</time>
      </trkpt>
      <trkpt lat="47.28837" lon="-1.61353">
        <ele>10.52</ele>
        <time>2019-12-15T08:57:47.000Z</time>
      </trkpt>
      <trkpt lat="47.28857" lon="-1.61349">
        <ele>9.78</ele>
        <time>2019-12-15T08:57:50.000Z</time>
      </trkpt>
      <trkpt lat="47.28878" lon="-1.61342">
        <ele>9.25</ele>
        <time>2019-12-15T08:57:53.000Z</time>
      </trkpt>
      <trkpt lat="47.28898" lon="-1.61332">
        <ele>9.32</ele>
        <time>2019-12-15T08:57:56.000Z</time>
      </trkpt>
      <trkpt lat="47.28918" lon="-1.61321">
        <ele>7.28</ele>
        <time>2019-12-15T08:57:59.000Z</time>
      </trkpt>
      <trkpt lat="47.28937" lon="-1.6131">
        <ele>6.95</ele>
        <time>2019-12-15T08:58:02.000Z</time>
      </trkpt>
      <trkpt lat="47.28956" lon="-1.61298">
        <ele>4.94</ele>
        <time>2019-12-15T08:58:05.000Z</time>
      </trkpt>
      <trkpt lat="47.28975" lon="-1.6128">
        <ele>3.68</ele>
        <time>2019-12-15T08:58:08.000Z</time>
      </trkpt>
      <trkpt lat="47.28991" lon="-1.61259">
        <ele>2.85</ele>
        <time>2019-12-15T08:58:11.000Z</time>
      </trkpt>
      <trkpt lat="47.29007" lon="-1.61237">
        <ele>2.91</ele>
        <time>2019-12-15T08:58:14.000Z</time>
      </trkpt>
      <trkpt lat="47.29023" lon="-1.61216">
        <ele>2.91</ele>
        <time>2019-12-15T08:58:17.000Z</time>
      </trkpt>
      <trkpt lat="47.29038" lon="-1.61195">
        <ele>2.96</ele>
        <time>2019-12-15T08:58:20.000Z</time>
      </trkpt>
      <trkpt lat="47.29049" lon="-1.61172">
        <ele>5.16</ele>
        <time>2019-12-15T08:58:23.000Z</time>
      </trkpt>
      <trkpt lat="47.29056" lon="-1.61139">
        <ele>5.82</ele>
        <time>2019-12-15T08:58:27.000Z</time>
      </trkpt>
      <trkpt lat="47.29063" lon="-1.61112">
        <ele>5.6</ele>
        <time>2019-12-15T08:58:31.000Z</time>
      </trkpt>
      <trkpt lat="47.29083" lon="-1.61121">
        <ele>5.21</ele>
        <time>2019-12-15T08:58:36.000Z</time>
      </trkpt>
      <trkpt lat="47.29101" lon="-1.61145">
        <ele>5.06</ele>
        <time>2019-12-15T08:58:40.000Z</time>
      </trkpt>
      <trkpt lat="47.29115" lon="-1.61168">
        <ele>5.75</ele>
        <time>2019-12-15T08:58:43.000Z</time>
      </trkpt>
      <trkpt lat="47.29126" lon="-1.61194">
        <ele>5.85</ele>
        <time>2019-12-15T08:58:46.000Z</time>
      </trkpt>
      <trkpt lat="47.29137" lon="-1.6122">
        <ele>6.13</ele>
        <time>2019-12-15T08:58:49.000Z</time>
      </trkpt>
      <trkpt lat="47.2915" lon="-1.61246">
        <ele>5.85</ele>
        <time>2019-12-15T08:58:52.000Z</time>
      </trkpt>
      <trkpt lat="47.29162" lon="-1.61274">
        <ele>4.61</ele>
        <time>2019-12-15T08:58:55.000Z</time>
      </trkpt>
      <trkpt lat="47.29175" lon="-1.61302">
        <ele>3.85</ele>
        <time>2019-12-15T08:58:58.000Z</time>
      </trkpt>
      <trkpt lat="47.29188" lon="-1.6133">
        <ele>3.61</ele>
        <time>2019-12-15T08:59:01.000Z</time>
      </trkpt>
      <trkpt lat="47.29202" lon="-1.61356">
        <ele>3.79</ele>
        <time>2019-12-15T08:59:04.000Z</time>
      </trkpt>
      <trkpt lat="47.29214" lon="-1.61381">
        <ele>4.29</ele>
        <time>2019-12-15T08:59:07.000Z</time>
      </trkpt>
      <trkpt lat="47.29227" lon="-1.61405">
        <ele>3.75</ele>
        <time>2019-12-15T08:59:10.000Z</time>
      </trkpt>
      <trkpt lat="47.29239" lon="-1.61428">
        <ele>2.94</ele>
        <time>2019-12-15T08:59:13.000Z</time>
      </trkpt>
      <trkpt lat="47.29257" lon="-1.61439">
        <ele>2.24</ele>
        <time>2019-12-15T08:59:16.000Z</time>
      </trkpt>
      <trkpt lat="47.29278" lon="-1.6144">
        <ele>3.16</ele>
        <time>2019-12-15T08:59:19.000Z</time>
      </trkpt>
      <trkpt lat="47.29298" lon="-1.61439">
        <ele>5.11</ele>
        <time>2019-12-15T08:59:22.000Z</time>
      </trkpt>
      <trkpt lat="47.29316" lon="-1.61441">
        <ele>5.76</ele>
        <time>2019-12-15T08:59:25.000Z</time>
      </trkpt>
      <trkpt lat="47.29333" lon="-1.61458">
        <ele>4.73</ele>
        <time>2019-12-15T08:59:28.000Z</time>
      </trkpt>
      <trkpt lat="47.29348" lon="-1.61483">
        <ele>3.19</ele>
        <time>2019-12-15T08:59:31.000Z</time>
      </trkpt>
      <trkpt lat="47.29363" lon="-1.61509">
        <ele>1.4</ele>
        <time>2019-12-15T08:59:34.000Z</time>
      </trkpt>
      <trkpt lat="47.29379" lon="-1.61536">
        <ele>0.81</ele>
        <time>2019-12-15T08:59:37.000Z</time>
      </trkpt>
      <trkpt lat="47.29395" lon="-1.61563">
        <ele>0.33</ele>
        <time>2019-12-15T08:59:40.000Z</time>
      </trkpt>
      <trkpt lat="47.29411" lon="-1.61589">
        <ele>0.51</ele>
        <time>2019-12-15T08:59:43.000Z</time>
      </trkpt>
      <trkpt lat="47.29427" lon="-1.61615">
        <ele>1.21</ele>
        <time>2019-12-15T08:59:46.000Z</time>
      </trkpt>
      <trkpt lat="47.29443" lon="-1.61641">
        <ele>1.16</ele>
        <time>2019-12-15T08:59:49.000Z</time>
      </trkpt>
      <trkpt lat="47.29459" lon="-1.61667">
        <ele>1.41</ele>
        <time>2019-12-15T08:59:52.000Z</time>
      </trkpt>
      <trkpt lat="47.29475" lon="-1.61694">
        <ele>1.83</ele>
        <time>2019-12-15T08:59:55.000Z</time>
      </trkpt>
      <trkpt lat="47.29491" lon="-1.6172">
        <ele>2.35</ele>
        <time>2019-12-15T08:59:58.000Z</time>
      </trkpt>
      <trkpt lat="47.29507" lon="-1.61743">
        <ele>2.91</ele>
        <time>2019-12-15T09:00:01.000Z</time>
      </trkpt>
      <trkpt lat="47.29522" lon="-1.61766">
        <ele>3.73</ele>
        <time>2019-12-15T09:00:04.000Z</time>
      </trkpt>
      <trkpt lat="47.29536" lon="-1.61789">
        <ele>3.77</ele>
        <time>2019-12-15T09:00:07.000Z</time>
      </trkpt>
      <trkpt lat="47.2955" lon="-1.6181">
        <ele>5.01</ele>
        <time>2019-12-15T09:00:10.000Z</time>
      </trkpt>
      <trkpt lat="47.29563" lon="-1.61832">
        <ele>5.18</ele>
        <time>2019-12-15T09:00:13.000Z</time>
      </trkpt>
      <trkpt lat="47.29576" lon="-1.61853">
        <ele>4.85</ele>
        <time>2019-12-15T09:00:16.000Z</time>
      </trkpt>
      <trkpt lat="47.29587" lon="-1.61878">
        <ele>4.83</ele>
        <time>2019-12-15T09:00:19.000Z</time>
      </trkpt>
      <trkpt lat="47.29587" lon="-1.61906">
        <ele>4.5</ele>
        <time>2019-12-15T09:00:22.000Z</time>
      </trkpt>
      <trkpt lat="47.29575" lon="-1.6193">
        <ele>4.25</ele>
        <time>2019-12-15T09:00:25.000Z</time>
      </trkpt>
      <trkpt lat="47.29565" lon="-1.61957">
        <ele>3.76</ele>
        <time>2019-12-15T09:00:28.000Z</time>
      </trkpt>
      <trkpt lat="47.29558" lon="-1.61984">
        <ele>3.31</ele>
        <time>2019-12-15T09:00:31.000Z</time>
      </trkpt>
      <trkpt lat="47.29553" lon="-1.62012">
        <ele>2.6</ele>
        <time>2019-12-15T09:00:34.000Z</time>
      </trkpt>
      <trkpt lat="47.29551" lon="-1.6204">
        <ele>2.58</ele>
        <time>2019-12-15T09:00:37.000Z</time>
      </trkpt>
      <trkpt lat="47.29555" lon="-1.62068">
        <ele>3.76</ele>
        <time>2019-12-15T09:00:40.000Z</time>
      </trkpt>
      <trkpt lat="47.29564" lon="-1.62093">
        <ele>4.46</ele>
        <time>2019-12-15T09:00:43.000Z</time>
      </trkpt>
      <trkpt lat="47.29577" lon="-1.62122">
        <ele>4.78</ele>
        <time>2019-12-15T09:00:47.000Z</time>
      </trkpt>
      <trkpt lat="47.29587" lon="-1.62145">
        <ele>4.73</ele>
        <time>2019-12-15T09:00:50.000Z</time>
      </trkpt>
      <trkpt lat="47.29597" lon="-1.62168">
        <ele>4.33</ele>
        <time>2019-12-15T09:00:53.000Z</time>
      </trkpt>
      <trkpt lat="47.29607" lon="-1.62193">
        <ele>4.03</ele>
        <time>2019-12-15T09:00:56.000Z</time>
      </trkpt>
      <trkpt lat="47.29614" lon="-1.62218">
        <ele>3.92</ele>
        <time>2019-12-15T09:00:59.000Z</time>
      </trkpt>
      <trkpt lat="47.29622" lon="-1.62252">
        <ele>2.99</ele>
        <time>2019-12-15T09:01:03.000Z</time>
      </trkpt>
      <trkpt lat="47.29626" lon="-1.6228">
        <ele>2.43</ele>
        <time>2019-12-15T09:01:06.000Z</time>
      </trkpt>
      <trkpt lat="47.29626" lon="-1.62309">
        <ele>1.63</ele>
        <time>2019-12-15T09:01:09.000Z</time>
      </trkpt>
      <trkpt lat="47.29625" lon="-1.62338">
        <ele>1.54</ele>
        <time>2019-12-15T09:01:12.000Z</time>
      </trkpt>
      <trkpt lat="47.29619" lon="-1.62367">
        <ele>-0.95</ele>
        <time>2019-12-15T09:01:15.000Z</time>
      </trkpt>
      <trkpt lat="47.29616" lon="-1.62398">
        <ele>-2.05</ele>
        <time>2019-12-15T09:01:18.000Z</time>
      </trkpt>
      <trkpt lat="47.29624" lon="-1.6243">
        <ele>-2.2</ele>
        <time>2019-12-15T09:01:21.000Z</time>
      </trkpt>
      <trkpt lat="47.29636" lon="-1.62456">
        <ele>-1.72</ele>
        <time>2019-12-15T09:01:24.000Z</time>
      </trkpt>
      <trkpt lat="47.29646" lon="-1.62481">
        <ele>-2.5</ele>
        <time>2019-12-15T09:01:27.000Z</time>
      </trkpt>
      <trkpt lat="47.29654" lon="-1.62506">
        <ele>-0.74</ele>
        <time>2019-12-15T09:01:30.000Z</time>
      </trkpt>
      <trkpt lat="47.29658" lon="-1.62539">
        <ele>0.92</ele>
        <time>2019-12-15T09:01:34.000Z</time>
      </trkpt>
      <trkpt lat="47.29656" lon="-1.62569">
        <ele>2.24</ele>
        <time>2019-12-15T09:01:38.000Z</time>
      </trkpt>
      <trkpt lat="47.29653" lon="-1.62599">
        <ele>3.25</ele>
        <time>2019-12-15T09:01:42.000Z</time>
      </trkpt>
      <trkpt lat="47.29648" lon="-1.62627">
        <ele>3.65</ele>
        <time>2019-12-15T09:01:46.000Z</time>
      </trkpt>
      <trkpt lat="47.29638" lon="-1.62655">
        <ele>2.87</ele>
        <time>2019-12-15T09:01:53.000Z</time>
      </trkpt>
      <trkpt lat="47.29622" lon="-1.62677">
        <ele>2.87</ele>
        <time>2019-12-15T09:01:58.000Z</time>
      </trkpt>
      <trkpt lat="47.29605" lon="-1.62693">
        <ele>2.76</ele>
        <time>2019-12-15T09:02:02.000Z</time>
      </trkpt>
      <trkpt lat="47.29585" lon="-1.62712">
        <ele>3.44</ele>
        <time>2019-12-15T09:02:06.000Z</time>
      </trkpt>
      <trkpt lat="47.29568" lon="-1.62725">
        <ele>4.43</ele>
        <time>2019-12-15T09:02:09.000Z</time>
      </trkpt>
      <trkpt lat="47.29551" lon="-1.62733">
        <ele>4.8</ele>
        <time>2019-12-15T09:02:12.000Z</time>
      </trkpt>
      <trkpt lat="47.29533" lon="-1.6274">
        <ele>4.81</ele>
        <time>2019-12-15T09:02:15.000Z</time>
      </trkpt>
      <trkpt lat="47.29516" lon="-1.62747">
        <ele>3.75</ele>
        <time>2019-12-15T09:02:18.000Z</time>
      </trkpt>
      <trkpt lat="47.29497" lon="-1.62756">
        <ele>2.04</ele>
        <time>2019-12-15T09:02:21.000Z</time>
      </trkpt>
      <trkpt lat="47.29478" lon="-1.62766">
        <ele>0.93</ele>
        <time>2019-12-15T09:02:24.000Z</time>
      </trkpt>
      <trkpt lat="47.2946" lon="-1.62774">
        <ele>0.7</ele>
        <time>2019-12-15T09:02:27.000Z</time>
      </trkpt>
      <trkpt lat="47.2944" lon="-1.6278">
        <ele>0.06</ele>
        <time>2019-12-15T09:02:30.000Z</time>
      </trkpt>
      <trkpt lat="47.29419" lon="-1.62778">
        <ele>0.51</ele>
        <time>2019-12-15T09:02:33.000Z</time>
      </trkpt>
      <trkpt lat="47.29398" lon="-1.62779">
        <ele>0.24</ele>
        <time>2019-12-15T09:02:36.000Z</time>
      </trkpt>
      <trkpt lat="47.29377" lon="-1.6278">
        <ele>-0.95</ele>
        <time>2019-12-15T09:02:39.000Z</time>
      </trkpt>
      <trkpt lat="47.29356" lon="-1.62781">
        <ele>-3.08</ele>
        <time>2019-12-15T09:02:42.000Z</time>
      </trkpt>
      <trkpt lat="47.29335" lon="-1.62783">
        <ele>-3.72</ele>
        <time>2019-12-15T09:02:45.000Z</time>
      </trkpt>
      <trkpt lat="47.29312" lon="-1.62786">
        <ele>-3.2</ele>
        <time>2019-12-15T09:02:48.000Z</time>
      </trkpt>
      <trkpt lat="47.29291" lon="-1.62788">
        <ele>-2.92</ele>
        <time>2019-12-15T09:02:51.000Z</time>
      </trkpt>
      <trkpt lat="47.29269" lon="-1.62786">
        <ele>-2.81</ele>
        <time>2019-12-15T09:02:54.000Z</time>
      </trkpt>
      <trkpt lat="47.29249" lon="-1.62781">
        <ele>-3.29</ele>
        <time>2019-12-15T09:02:57.000Z</time>
      </trkpt>
      <trkpt lat="47.29229" lon="-1.62773">
        <ele>-2.87</ele>
        <time>2019-12-15T09:03:00.000Z</time>
      </trkpt>
      <trkpt lat="47.29209" lon="-1.62763">
        <ele>-3.08</ele>
        <time>2019-12-15T09:03:03.000Z</time>
      </trkpt>
      <trkpt lat="47.29192" lon="-1.62753">
        <ele>-2.67</ele>
        <time>2019-12-15T09:03:06.000Z</time>
      </trkpt>
      <trkpt lat="47.29174" lon="-1.62745">
        <ele>-2.55</ele>
        <time>2019-12-15T09:03:09.000Z</time>
      </trkpt>
      <trkpt lat="47.29154" lon="-1.62738">
        <ele>-2.61</ele>
        <time>2019-12-15T09:03:12.000Z</time>
      </trkpt>
      <trkpt lat="47.2913" lon="-1.62729">
        <ele>-3.21</ele>
        <time>2019-12-15T09:03:15.000Z</time>
      </trkpt>
      <trkpt lat="47.29113" lon="-1.62723">
        <ele>-3.21</ele>
        <time>2019-12-15T09:03:17.000Z</time>
      </trkpt>
      <trkpt lat="47.29094" lon="-1.62718">
        <ele>-3.68</ele>
        <time>2019-12-15T09:03:19.000Z</time>
      </trkpt>
      <trkpt lat="47.29072" lon="-1.62715">
        <ele>-5.78</ele>
        <time>2019-12-15T09:03:21.000Z</time>
      </trkpt>
      <trkpt lat="47.2905" lon="-1.62721">
        <ele>-8.39</ele>
        <time>2019-12-15T09:03:23.000Z</time>
      </trkpt>
      <trkpt lat="47.2903" lon="-1.62731">
        <ele>-9.92</ele>
        <time>2019-12-15T09:03:25.000Z</time>
      </trkpt>
      <trkpt lat="47.29013" lon="-1.62741">
        <ele>-9.61</ele>
        <time>2019-12-15T09:03:27.000Z</time>
      </trkpt>
      <trkpt lat="47.28992" lon="-1.62751">
        <ele>-10.41</ele>
        <time>2019-12-15T09:03:30.000Z</time>
      </trkpt>
      <trkpt lat="47.28973" lon="-1.62758">
        <ele>-8.5</ele>
        <time>2019-12-15T09:03:33.000Z</time>
      </trkpt>
      <trkpt lat="47.28954" lon="-1.62773">
        <ele>-8.4</ele>
        <time>2019-12-15T09:03:37.000Z</time>
      </trkpt>
      <trkpt lat="47.2894" lon="-1.6279">
        <ele>-7.45</ele>
        <time>2019-12-15T09:03:41.000Z</time>
      </trkpt>
      <trkpt lat="47.28926" lon="-1.62807">
        <ele>-6.39</ele>
        <time>2019-12-15T09:03:45.000Z</time>
      </trkpt>
      <trkpt lat="47.28909" lon="-1.62828">
        <ele>-7.74</ele>
        <time>2019-12-15T09:03:50.000Z</time>
      </trkpt>
      <trkpt lat="47.28895" lon="-1.62846">
        <ele>-6.99</ele>
        <time>2019-12-15T09:03:54.000Z</time>
      </trkpt>
      <trkpt lat="47.2888" lon="-1.62866">
        <ele>-6.79</ele>
        <time>2019-12-15T09:03:58.000Z</time>
      </trkpt>
      <trkpt lat="47.28864" lon="-1.62887">
        <ele>-7.25</ele>
        <time>2019-12-15T09:04:02.000Z</time>
      </trkpt>
      <trkpt lat="47.28846" lon="-1.62903">
        <ele>-6.8</ele>
        <time>2019-12-15T09:04:06.000Z</time>
      </trkpt>
      <trkpt lat="47.28827" lon="-1.62908">
        <ele>-4.33</ele>
        <time>2019-12-15T09:04:10.000Z</time>
      </trkpt>
      <trkpt lat="47.28806" lon="-1.6291">
        <ele>-3.27</ele>
        <time>2019-12-15T09:04:14.000Z</time>
      </trkpt>
      <trkpt lat="47.28786" lon="-1.62911">
        <ele>-2.28</ele>
        <time>2019-12-15T09:04:18.000Z</time>
      </trkpt>
      <trkpt lat="47.28766" lon="-1.62911">
        <ele>-0.02</ele>
        <time>2019-12-15T09:04:22.000Z</time>
      </trkpt>
      <trkpt lat="47.28747" lon="-1.62911">
        <ele>2.05</ele>
        <time>2019-12-15T09:04:26.000Z</time>
      </trkpt>
      <trkpt lat="47.28729" lon="-1.62913">
        <ele>1.14</ele>
        <time>2019-12-15T09:04:30.000Z</time>
      </trkpt>
      <trkpt lat="47.2871" lon="-1.62919">
        <ele>1.16</ele>
        <time>2019-12-15T09:04:34.000Z</time>
      </trkpt>
      <trkpt lat="47.28693" lon="-1.62929">
        <ele>0.81</ele>
        <time>2019-12-15T09:04:38.000Z</time>
      </trkpt>
      <trkpt lat="47.28675" lon="-1.62942">
        <ele>2.08</ele>
        <time>2019-12-15T09:04:43.000Z</time>
      </trkpt>
      <trkpt lat="47.28658" lon="-1.62956">
        <ele>4.1</ele>
        <time>2019-12-15T09:04:47.000Z</time>
      </trkpt>
      <trkpt lat="47.28642" lon="-1.6297">
        <ele>4.66</ele>
        <time>2019-12-15T09:04:51.000Z</time>
      </trkpt>
      <trkpt lat="47.28625" lon="-1.62983">
        <ele>4.88</ele>
        <time>2019-12-15T09:04:55.000Z</time>
      </trkpt>
      <trkpt lat="47.28607" lon="-1.62998">
        <ele>4.4</ele>
        <time>2019-12-15T09:04:59.000Z</time>
      </trkpt>
      <trkpt lat="47.28589" lon="-1.63014">
        <ele>3.43</ele>
        <time>2019-12-15T09:05:03.000Z</time>
      </trkpt>
      <trkpt lat="47.28572" lon="-1.6303">
        <ele>2.63</ele>
        <time>2019-12-15T09:05:07.000Z</time>
      </trkpt>
      <trkpt lat="47.28552" lon="-1.63044">
        <ele>2.98</ele>
        <time>2019-12-15T09:05:11.000Z</time>
      </trkpt>
      <trkpt lat="47.28534" lon="-1.63059">
        <ele>3.5</ele>
        <time>2019-12-15T09:05:15.000Z</time>
      </trkpt>
      <trkpt lat="47.28514" lon="-1.63073">
        <ele>4.42</ele>
        <time>2019-12-15T09:05:19.000Z</time>
      </trkpt>
      <trkpt lat="47.28496" lon="-1.6309">
        <ele>4.54</ele>
        <time>2019-12-15T09:05:23.000Z</time>
      </trkpt>
      <trkpt lat="47.28475" lon="-1.63102">
        <ele>3.6</ele>
        <time>2019-12-15T09:05:27.000Z</time>
      </trkpt>
      <trkpt lat="47.28456" lon="-1.63116">
        <ele>3.01</ele>
        <time>2019-12-15T09:05:31.000Z</time>
      </trkpt>
      <trkpt lat="47.2844" lon="-1.6313">
        <ele>4.72</ele>
        <time>2019-12-15T09:05:36.000Z</time>
      </trkpt>
      <trkpt lat="47.28447" lon="-1.63155">
        <ele>4.77</ele>
        <time>2019-12-15T09:05:40.000Z</time>
      </trkpt>
      <trkpt lat="47.28456" lon="-1.63186">
        <ele>5.16</ele>
        <time>2019-12-15T09:05:44.000Z</time>
      </trkpt>
      <trkpt lat="47.28463" lon="-1.63219">
        <ele>6.07</ele>
        <time>2019-12-15T09:05:48.000Z</time>
      </trkpt>
      <trkpt lat="47.28449" lon="-1.63246">
        <ele>5.95</ele>
        <time>2019-12-15T09:05:52.000Z</time>
      </trkpt>
      <trkpt lat="47.2843" lon="-1.63263">
        <ele>5.97</ele>
        <time>2019-12-15T09:05:56.000Z</time>
      </trkpt>
      <trkpt lat="47.28416" lon="-1.63286">
        <ele>4.96</ele>
        <time>2019-12-15T09:06:00.000Z</time>
      </trkpt>
      <trkpt lat="47.28419" lon="-1.63317">
        <ele>4.93</ele>
        <time>2019-12-15T09:06:04.000Z</time>
      </trkpt>
      <trkpt lat="47.28421" lon="-1.63344">
        <ele>4.8</ele>
        <time>2019-12-15T09:06:07.000Z</time>
      </trkpt>
      <trkpt lat="47.28426" lon="-1.63378">
        <ele>5.34</ele>
        <time>2019-12-15T09:06:11.000Z</time>
      </trkpt>
      <trkpt lat="47.28425" lon="-1.63412">
        <ele>5.33</ele>
        <time>2019-12-15T09:06:15.000Z</time>
      </trkpt>
      <trkpt lat="47.28422" lon="-1.63443">
        <ele>5.51</ele>
        <time>2019-12-15T09:06:19.000Z</time>
      </trkpt>
      <trkpt lat="47.28419" lon="-1.63474">
        <ele>5.72</ele>
        <time>2019-12-15T09:06:23.000Z</time>
      </trkpt>
      <trkpt lat="47.28417" lon="-1.63505">
        <ele>6.42</ele>
        <time>2019-12-15T09:06:27.000Z</time>
      </trkpt>
      <trkpt lat="47.28415" lon="-1.63535">
        <ele>7.04</ele>
        <time>2019-12-15T09:06:31.000Z</time>
      </trkpt>
      <trkpt lat="47.28412" lon="-1.63565">
        <ele>7.54</ele>
        <time>2019-12-15T09:06:35.000Z</time>
      </trkpt>
      <trkpt lat="47.2841" lon="-1.63595">
        <ele>8.45</ele>
        <time>2019-12-15T09:06:39.000Z</time>
      </trkpt>
      <trkpt lat="47.28407" lon="-1.63625">
        <ele>8.95</ele>
        <time>2019-12-15T09:06:43.000Z</time>
      </trkpt>
      <trkpt lat="47.284" lon="-1.63654">
        <ele>9.72</ele>
        <time>2019-12-15T09:06:47.000Z</time>
      </trkpt>
      <trkpt lat="47.2839" lon="-1.63682">
        <ele>9.78</ele>
        <time>2019-12-15T09:06:51.000Z</time>
      </trkpt>
      <trkpt lat="47.28383" lon="-1.63709">
        <ele>9.66</ele>
        <time>2019-12-15T09:06:55.000Z</time>
      </trkpt>
      <trkpt lat="47.28399" lon="-1.63727">
        <ele>11.03</ele>
        <time>2019-12-15T09:06:59.000Z</time>
      </trkpt>
      <trkpt lat="47.28418" lon="-1.63742">
        <ele>12.15</ele>
        <time>2019-12-15T09:07:03.000Z</time>
      </trkpt>
      <trkpt lat="47.28438" lon="-1.63757">
        <ele>13.34</ele>
        <time>2019-12-15T09:07:07.000Z</time>
      </trkpt>
      <trkpt lat="47.28456" lon="-1.63776">
        <ele>14.09</ele>
        <time>2019-12-15T09:07:11.000Z</time>
      </trkpt>
      <trkpt lat="47.28472" lon="-1.63798">
        <ele>14.09</ele>
        <time>2019-12-15T09:07:15.000Z</time>
      </trkpt>
      <trkpt lat="47.28485" lon="-1.63821">
        <ele>14.79</ele>
        <time>2019-12-15T09:07:19.000Z</time>
      </trkpt>
      <trkpt lat="47.28501" lon="-1.63842">
        <ele>15.96</ele>
        <time>2019-12-15T09:07:23.000Z</time>
      </trkpt>
      <trkpt lat="47.28518" lon="-1.63862">
        <ele>16.82</ele>
        <time>2019-12-15T09:07:27.000Z</time>
      </trkpt>
      <trkpt lat="47.28533" lon="-1.63878">
        <ele>16.09</ele>
        <time>2019-12-15T09:07:30.000Z</time>
      </trkpt>
      <trkpt lat="47.28552" lon="-1.63899">
        <ele>14.31</ele>
        <time>2019-12-15T09:07:34.000Z</time>
      </trkpt>
      <trkpt lat="47.28567" lon="-1.63915">
        <ele>12.7</ele>
        <time>2019-12-15T09:07:37.000Z</time>
      </trkpt>
      <trkpt lat="47.28585" lon="-1.63932">
        <ele>12.12</ele>
        <time>2019-12-15T09:07:40.000Z</time>
      </trkpt>
      <trkpt lat="47.28602" lon="-1.63946">
        <ele>11.32</ele>
        <time>2019-12-15T09:07:43.000Z</time>
      </trkpt>
      <trkpt lat="47.28623" lon="-1.63954">
        <ele>11.52</ele>
        <time>2019-12-15T09:07:46.000Z</time>
      </trkpt>
      <trkpt lat="47.28644" lon="-1.63956">
        <ele>11.33</ele>
        <time>2019-12-15T09:07:49.000Z</time>
      </trkpt>
      <trkpt lat="47.28666" lon="-1.63959">
        <ele>11.35</ele>
        <time>2019-12-15T09:07:52.000Z</time>
      </trkpt>
      <trkpt lat="47.28688" lon="-1.63961">
        <ele>10.87</ele>
        <time>2019-12-15T09:07:55.000Z</time>
      </trkpt>
      <trkpt lat="47.28712" lon="-1.63962">
        <ele>10.57</ele>
        <time>2019-12-15T09:07:58.000Z</time>
      </trkpt>
      <trkpt lat="47.28737" lon="-1.63965">
        <ele>9.06</ele>
        <time>2019-12-15T09:08:01.000Z</time>
      </trkpt>
      <trkpt lat="47.28762" lon="-1.63967">
        <ele>7.77</ele>
        <time>2019-12-15T09:08:04.000Z</time>
      </trkpt>
      <trkpt lat="47.28788" lon="-1.63973">
        <ele>6.12</ele>
        <time>2019-12-15T09:08:07.000Z</time>
      </trkpt>
      <trkpt lat="47.28813" lon="-1.63979">
        <ele>4.32</ele>
        <time>2019-12-15T09:08:10.000Z</time>
      </trkpt>
      <trkpt lat="47.28839" lon="-1.63984">
        <ele>3.43</ele>
        <time>2019-12-15T09:08:13.000Z</time>
      </trkpt>
      <trkpt lat="47.28864" lon="-1.63988">
        <ele>2.84</ele>
        <time>2019-12-15T09:08:16.000Z</time>
      </trkpt>
      <trkpt lat="47.28889" lon="-1.63993">
        <ele>2.39</ele>
        <time>2019-12-15T09:08:19.000Z</time>
      </trkpt>
      <trkpt lat="47.28915" lon="-1.63996">
        <ele>1.52</ele>
        <time>2019-12-15T09:08:22.000Z</time>
      </trkpt>
      <trkpt lat="47.28941" lon="-1.63996">
        <ele>-0.74</ele>
        <time>2019-12-15T09:08:25.000Z</time>
      </trkpt>
      <trkpt lat="47.28966" lon="-1.6399">
        <ele>-3.14</ele>
        <time>2019-12-15T09:08:28.000Z</time>
      </trkpt>
      <trkpt lat="47.28988" lon="-1.63983">
        <ele>-4.94</ele>
        <time>2019-12-15T09:08:31.000Z</time>
      </trkpt>
      <trkpt lat="47.2901" lon="-1.63977">
        <ele>-6.09</ele>
        <time>2019-12-15T09:08:34.000Z</time>
      </trkpt>
      <trkpt lat="47.29032" lon="-1.63969">
        <ele>-7.39</ele>
        <time>2019-12-15T09:08:37.000Z</time>
      </trkpt>
      <trkpt lat="47.29055" lon="-1.6396">
        <ele>-8.88</ele>
        <time>2019-12-15T09:08:40.000Z</time>
      </trkpt>
      <trkpt lat="47.29079" lon="-1.63952">
        <ele>-10.58</ele>
        <time>2019-12-15T09:08:43.000Z</time>
      </trkpt>
      <trkpt lat="47.29102" lon="-1.63945">
        <ele>-11.81</ele>
        <time>2019-12-15T09:08:46.000Z</time>
      </trkpt>
      <trkpt lat="47.29122" lon="-1.63938">
        <ele>-11.21</ele>
        <time>2019-12-15T09:08:49.000Z</time>
      </trkpt>
      <trkpt lat="47.2914" lon="-1.63933">
        <ele>-9.23</ele>
        <time>2019-12-15T09:08:52.000Z</time>
      </trkpt>
      <trkpt lat="47.29161" lon="-1.63927">
        <ele>-6.48</ele>
        <time>2019-12-15T09:08:56.000Z</time>
      </trkpt>
      <trkpt lat="47.29181" lon="-1.63921">
        <ele>-2.75</ele>
        <time>2019-12-15T09:09:00.000Z</time>
      </trkpt>
      <trkpt lat="47.29202" lon="-1.63916">
        <ele>0.14</ele>
        <time>2019-12-15T09:09:04.000Z</time>
      </trkpt>
      <trkpt lat="47.29223" lon="-1.63914">
        <ele>1.73</ele>
        <time>2019-12-15T09:09:08.000Z</time>
      </trkpt>
      <trkpt lat="47.29246" lon="-1.63913">
        <ele>3.5</ele>
        <time>2019-12-15T09:09:12.000Z</time>
      </trkpt>
      <trkpt lat="47.29267" lon="-1.63913">
        <ele>4.35</ele>
        <time>2019-12-15T09:09:16.000Z</time>
      </trkpt>
      <trkpt lat="47.29288" lon="-1.63914">
        <ele>5.09</ele>
        <time>2019-12-15T09:09:20.000Z</time>
      </trkpt>
      <trkpt lat="47.29309" lon="-1.63915">
        <ele>7.04</ele>
        <time>2019-12-15T09:09:24.000Z</time>
      </trkpt>
      <trkpt lat="47.2933" lon="-1.63915">
        <ele>6.81</ele>
        <time>2019-12-15T09:09:28.000Z</time>
      </trkpt>
      <trkpt lat="47.29353" lon="-1.63913">
        <ele>5.99</ele>
        <time>2019-12-15T09:09:32.000Z</time>
      </trkpt>
      <trkpt lat="47.29377" lon="-1.6391">
        <ele>6.73</ele>
        <time>2019-12-15T09:09:36.000Z</time>
      </trkpt>
      <trkpt lat="47.294" lon="-1.63908">
        <ele>6.43</ele>
        <time>2019-12-15T09:09:40.000Z</time>
      </trkpt>
      <trkpt lat="47.29424" lon="-1.63906">
        <ele>5.86</ele>
        <time>2019-12-15T09:09:44.000Z</time>
      </trkpt>
      <trkpt lat="47.29443" lon="-1.63904">
        <ele>5.06</ele>
        <time>2019-12-15T09:09:47.000Z</time>
      </trkpt>
      <trkpt lat="47.29462" lon="-1.63902">
        <ele>3.75</ele>
        <time>2019-12-15T09:09:50.000Z</time>
      </trkpt>
      <trkpt lat="47.29481" lon="-1.63898">
        <ele>3.14</ele>
        <time>2019-12-15T09:09:53.000Z</time>
      </trkpt>
      <trkpt lat="47.29501" lon="-1.63896">
        <ele>3.68</ele>
        <time>2019-12-15T09:09:56.000Z</time>
      </trkpt>
      <trkpt lat="47.29521" lon="-1.63894">
        <ele>2.4</ele>
        <time>2019-12-15T09:09:59.000Z</time>
      </trkpt>
      <trkpt lat="47.29537" lon="-1.6388">
        <ele>1.8</ele>
        <time>2019-12-15T09:10:02.000Z</time>
      </trkpt>
      <trkpt lat="47.29545" lon="-1.63854">
        <ele>2.29</ele>
        <time>2019-12-15T09:10:05.000Z</time>
      </trkpt>
      <trkpt lat="47.29552" lon="-1.63826">
        <ele>1.93</ele>
        <time>2019-12-15T09:10:08.000Z</time>
      </trkpt>
      <trkpt lat="47.2956" lon="-1.63796">
        <ele>1.61</ele>
        <time>2019-12-15T09:10:11.000Z</time>
      </trkpt>
      <trkpt lat="47.29569" lon="-1.63764">
        <ele>0.65</ele>
        <time>2019-12-15T09:10:14.000Z</time>
      </trkpt>
      <trkpt lat="47.29577" lon="-1.6373">
        <ele>-0.5</ele>
        <time>2019-12-15T09:10:17.000Z</time>
      </trkpt>
      <trkpt lat="47.29586" lon="-1.63697">
        <ele>-1.39</ele>
        <time>2019-12-15T09:10:20.000Z</time>
      </trkpt>
      <trkpt lat="47.29593" lon="-1.63664">
        <ele>-1.67</ele>
        <time>2019-12-15T09:10:23.000Z</time>
      </trkpt>
      <trkpt lat="47.29602" lon="-1.63633">
        <ele>-1.86</ele>
        <time>2019-12-15T09:10:26.000Z</time>
      </trkpt>
      <trkpt lat="47.29612" lon="-1.63606">
        <ele>-1.54</ele>
        <time>2019-12-15T09:10:29.000Z</time>
      </trkpt>
      <trkpt lat="47.29625" lon="-1.63584">
        <ele>-1.39</ele>
        <time>2019-12-15T09:10:32.000Z</time>
      </trkpt>
      <trkpt lat="47.29642" lon="-1.6356">
        <ele>-0.84</ele>
        <time>2019-12-15T09:10:36.000Z</time>
      </trkpt>
      <trkpt lat="47.29656" lon="-1.63538">
        <ele>2.04</ele>
        <time>2019-12-15T09:10:40.000Z</time>
      </trkpt>
      <trkpt lat="47.2967" lon="-1.63517">
        <ele>4.64</ele>
        <time>2019-12-15T09:10:44.000Z</time>
      </trkpt>
      <trkpt lat="47.29683" lon="-1.63496">
        <ele>5.83</ele>
        <time>2019-12-15T09:10:48.000Z</time>
      </trkpt>
      <trkpt lat="47.29696" lon="-1.63475">
        <ele>7.13</ele>
        <time>2019-12-15T09:10:52.000Z</time>
      </trkpt>
      <trkpt lat="47.29709" lon="-1.63454">
        <ele>7.8</ele>
        <time>2019-12-15T09:10:56.000Z</time>
      </trkpt>
      <trkpt lat="47.29723" lon="-1.63431">
        <ele>8.95</ele>
        <time>2019-12-15T09:11:00.000Z</time>
      </trkpt>
      <trkpt lat="47.29736" lon="-1.63406">
        <ele>9.84</ele>
        <time>2019-12-15T09:11:04.000Z</time>
      </trkpt>
      <trkpt lat="47.2975" lon="-1.63381">
        <ele>9.38</ele>
        <time>2019-12-15T09:11:08.000Z</time>
      </trkpt>
      <trkpt lat="47.29764" lon="-1.63355">
        <ele>9.06</ele>
        <time>2019-12-15T09:11:12.000Z</time>
      </trkpt>
      <trkpt lat="47.29777" lon="-1.63328">
        <ele>8.81</ele>
        <time>2019-12-15T09:11:16.000Z</time>
      </trkpt>
      <trkpt lat="47.29791" lon="-1.63302">
        <ele>9.11</ele>
        <time>2019-12-15T09:11:20.000Z</time>
      </trkpt>
      <trkpt lat="47.29805" lon="-1.63276">
        <ele>8.9</ele>
        <time>2019-12-15T09:11:24.000Z</time>
      </trkpt>
      <trkpt lat="47.2982" lon="-1.6325">
        <ele>9.42</ele>
        <time>2019-12-15T09:11:28.000Z</time>
      </trkpt>
      <trkpt lat="47.29834" lon="-1.63225">
        <ele>10.34</ele>
        <time>2019-12-15T09:11:32.000Z</time>
      </trkpt>
      <trkpt lat="47.29849" lon="-1.63198">
        <ele>11.01</ele>
        <time>2019-12-15T09:11:36.000Z</time>
      </trkpt>
      <trkpt lat="47.2986" lon="-1.63177">
        <ele>11.42</ele>
        <time>2019-12-15T09:11:39.000Z</time>
      </trkpt>
      <trkpt lat="47.29876" lon="-1.63152">
        <ele>12.13</ele>
        <time>2019-12-15T09:11:43.000Z</time>
      </trkpt>
      <trkpt lat="47.29892" lon="-1.63128">
        <ele>12.9</ele>
        <time>2019-12-15T09:11:47.000Z</time>
      </trkpt>
      <trkpt lat="47.29908" lon="-1.63105">
        <ele>12.94</ele>
        <time>2019-12-15T09:11:51.000Z</time>
      </trkpt>
      <trkpt lat="47.29926" lon="-1.63081">
        <ele>12.54</ele>
        <time>2019-12-15T09:11:55.000Z</time>
      </trkpt>
      <trkpt lat="47.29942" lon="-1.63058">
        <ele>12.23</ele>
        <time>2019-12-15T09:11:59.000Z</time>
      </trkpt>
      <trkpt lat="47.29959" lon="-1.63035">
        <ele>12.22</ele>
        <time>2019-12-15T09:12:03.000Z</time>
      </trkpt>
      <trkpt lat="47.29976" lon="-1.63012">
        <ele>12.24</ele>
        <time>2019-12-15T09:12:07.000Z</time>
      </trkpt>
      <trkpt lat="47.29992" lon="-1.62988">
        <ele>12.09</ele>
        <time>2019-12-15T09:12:11.000Z</time>
      </trkpt>
      <trkpt lat="47.30009" lon="-1.62966">
        <ele>12.43</ele>
        <time>2019-12-15T09:12:15.000Z</time>
      </trkpt>
      <trkpt lat="47.30026" lon="-1.62945">
        <ele>13.74</ele>
        <time>2019-12-15T09:12:19.000Z</time>
      </trkpt>
      <trkpt lat="47.30044" lon="-1.62924">
        <ele>14.36</ele>
        <time>2019-12-15T09:12:23.000Z</time>
      </trkpt>
      <trkpt lat="47.30063" lon="-1.62904">
        <ele>14.3</ele>
        <time>2019-12-15T09:12:27.000Z</time>
      </trkpt>
      <trkpt lat="47.30083" lon="-1.62885">
        <ele>13.48</ele>
        <time>2019-12-15T09:12:31.000Z</time>
      </trkpt>
      <trkpt lat="47.30102" lon="-1.62866">
        <ele>13.71</ele>
        <time>2019-12-15T09:12:35.000Z</time>
      </trkpt>
      <trkpt lat="47.30116" lon="-1.62851">
        <ele>14.47</ele>
        <time>2019-12-15T09:12:38.000Z</time>
      </trkpt>
      <trkpt lat="47.30136" lon="-1.6283">
        <ele>14.55</ele>
        <time>2019-12-15T09:12:42.000Z</time>
      </trkpt>
      <trkpt lat="47.30155" lon="-1.6281">
        <ele>14.56</ele>
        <time>2019-12-15T09:12:46.000Z</time>
      </trkpt>
      <trkpt lat="47.30169" lon="-1.62793">
        <ele>13.99</ele>
        <time>2019-12-15T09:12:49.000Z</time>
      </trkpt>
      <trkpt lat="47.30186" lon="-1.62776">
        <ele>13.41</ele>
        <time>2019-12-15T09:12:52.000Z</time>
      </trkpt>
      <trkpt lat="47.30201" lon="-1.62759">
        <ele>13.83</ele>
        <time>2019-12-15T09:12:55.000Z</time>
      </trkpt>
      <trkpt lat="47.30216" lon="-1.62742">
        <ele>14.52</ele>
        <time>2019-12-15T09:12:58.000Z</time>
      </trkpt>
      <trkpt lat="47.30232" lon="-1.62726">
        <ele>13.63</ele>
        <time>2019-12-15T09:13:01.000Z</time>
      </trkpt>
      <trkpt lat="47.30249" lon="-1.62707">
        <ele>12.55</ele>
        <time>2019-12-15T09:13:04.000Z</time>
      </trkpt>
      <trkpt lat="47.30265" lon="-1.62692">
        <ele>10.57</ele>
        <time>2019-12-15T09:13:07.000Z</time>
      </trkpt>
      <trkpt lat="47.30286" lon="-1.62705">
        <ele>9.35</ele>
        <time>2019-12-15T09:13:11.000Z</time>
      </trkpt>
      <trkpt lat="47.30298" lon="-1.62735">
        <ele>9.45</ele>
        <time>2019-12-15T09:13:15.000Z</time>
      </trkpt>
      <trkpt lat="47.30306" lon="-1.62759">
        <ele>8.88</ele>
        <time>2019-12-15T09:13:18.000Z</time>
      </trkpt>
      <trkpt lat="47.30316" lon="-1.62784">
        <ele>8.91</ele>
        <time>2019-12-15T09:13:21.000Z</time>
      </trkpt>
      <trkpt lat="47.30325" lon="-1.62809">
        <ele>9.3</ele>
        <time>2019-12-15T09:13:24.000Z</time>
      </trkpt>
      <trkpt lat="47.30337" lon="-1.6284">
        <ele>10.1</ele>
        <time>2019-12-15T09:13:28.000Z</time>
      </trkpt>
      <trkpt lat="47.30345" lon="-1.62865">
        <ele>9.58</ele>
        <time>2019-12-15T09:13:31.000Z</time>
      </trkpt>
      <trkpt lat="47.30354" lon="-1.62889">
        <ele>10.12</ele>
        <time>2019-12-15T09:13:34.000Z</time>
      </trkpt>
      <trkpt lat="47.30364" lon="-1.62911">
        <ele>11.12</ele>
        <time>2019-12-15T09:13:37.000Z</time>
      </trkpt>
      <trkpt lat="47.30374" lon="-1.62934">
        <ele>11.56</ele>
        <time>2019-12-15T09:13:40.000Z</time>
      </trkpt>
      <trkpt lat="47.30385" lon="-1.62957">
        <ele>10.75</ele>
        <time>2019-12-15T09:13:43.000Z</time>
      </trkpt>
      <trkpt lat="47.30397" lon="-1.62979">
        <ele>10.05</ele>
        <time>2019-12-15T09:13:46.000Z</time>
      </trkpt>
      <trkpt lat="47.30409" lon="-1.62999">
        <ele>9.88</ele>
        <time>2019-12-15T09:13:49.000Z</time>
      </trkpt>
      <trkpt lat="47.3042" lon="-1.63021">
        <ele>10.12</ele>
        <time>2019-12-15T09:13:52.000Z</time>
      </trkpt>
      <trkpt lat="47.30433" lon="-1.63043">
        <ele>9.85</ele>
        <time>2019-12-15T09:13:55.000Z</time>
      </trkpt>
      <trkpt lat="47.30447" lon="-1.63065">
        <ele>9.31</ele>
        <time>2019-12-15T09:13:58.000Z</time>
      </trkpt>
      <trkpt lat="47.30459" lon="-1.63087">
        <ele>10.09</ele>
        <time>2019-12-15T09:14:01.000Z</time>
      </trkpt>
      <trkpt lat="47.30473" lon="-1.63109">
        <ele>10.73</ele>
        <time>2019-12-15T09:14:04.000Z</time>
      </trkpt>
      <trkpt lat="47.30486" lon="-1.63131">
        <ele>10.87</ele>
        <time>2019-12-15T09:14:07.000Z</time>
      </trkpt>
      <trkpt lat="47.30498" lon="-1.63152">
        <ele>11.3</ele>
        <time>2019-12-15T09:14:10.000Z</time>
      </trkpt>
      <trkpt lat="47.30511" lon="-1.63174">
        <ele>12.08</ele>
        <time>2019-12-15T09:14:13.000Z</time>
      </trkpt>
      <trkpt lat="47.30524" lon="-1.63195">
        <ele>12.36</ele>
        <time>2019-12-15T09:14:16.000Z</time>
      </trkpt>
      <trkpt lat="47.30536" lon="-1.63218">
        <ele>13.06</ele>
        <time>2019-12-15T09:14:19.000Z</time>
      </trkpt>
      <trkpt lat="47.30547" lon="-1.63239">
        <ele>13.92</ele>
        <time>2019-12-15T09:14:22.000Z</time>
      </trkpt>
      <trkpt lat="47.30561" lon="-1.63268">
        <ele>14.46</ele>
        <time>2019-12-15T09:14:26.000Z</time>
      </trkpt>
      <trkpt lat="47.30572" lon="-1.63291">
        <ele>14.82</ele>
        <time>2019-12-15T09:14:29.000Z</time>
      </trkpt>
      <trkpt lat="47.30584" lon="-1.63314">
        <ele>14.6</ele>
        <time>2019-12-15T09:14:32.000Z</time>
      </trkpt>
      <trkpt lat="47.30595" lon="-1.63337">
        <ele>11.36</ele>
        <time>2019-12-15T09:14:35.000Z</time>
      </trkpt>
      <trkpt lat="47.30606" lon="-1.6336">
        <ele>10.32</ele>
        <time>2019-12-15T09:14:38.000Z</time>
      </trkpt>
      <trkpt lat="47.30616" lon="-1.63383">
        <ele>9.87</ele>
        <time>2019-12-15T09:14:41.000Z</time>
      </trkpt>
      <trkpt lat="47.30625" lon="-1.63407">
        <ele>10.16</ele>
        <time>2019-12-15T09:14:44.000Z</time>
      </trkpt>
      <trkpt lat="47.30632" lon="-1.63434">
        <ele>9.28</ele>
        <time>2019-12-15T09:14:47.000Z</time>
      </trkpt>
      <trkpt lat="47.30641" lon="-1.63462">
        <ele>8.76</ele>
        <time>2019-12-15T09:14:50.000Z</time>
      </trkpt>
      <trkpt lat="47.30649" lon="-1.63491">
        <ele>8.82</ele>
        <time>2019-12-15T09:14:53.000Z</time>
      </trkpt>
      <trkpt lat="47.30656" lon="-1.63522">
        <ele>9.25</ele>
        <time>2019-12-15T09:14:56.000Z</time>
      </trkpt>
      <trkpt lat="47.3066" lon="-1.63554">
        <ele>9.18</ele>
        <time>2019-12-15T09:14:59.000Z</time>
      </trkpt>
      <trkpt lat="47.30663" lon="-1.63587">
        <ele>7.75</ele>
        <time>2019-12-15T09:15:02.000Z</time>
      </trkpt>
      <trkpt lat="47.30665" lon="-1.63622">
        <ele>6.31</ele>
        <time>2019-12-15T09:15:05.000Z</time>
      </trkpt>
      <trkpt lat="47.30666" lon="-1.63655">
        <ele>5.42</ele>
        <time>2019-12-15T09:15:08.000Z</time>
      </trkpt>
      <trkpt lat="47.30669" lon="-1.63686">
        <ele>5.05</ele>
        <time>2019-12-15T09:15:11.000Z</time>
      </trkpt>
      <trkpt lat="47.30675" lon="-1.63717">
        <ele>5.6</ele>
        <time>2019-12-15T09:15:14.000Z</time>
      </trkpt>
      <trkpt lat="47.30684" lon="-1.63745">
        <ele>6.05</ele>
        <time>2019-12-15T09:15:17.000Z</time>
      </trkpt>
      <trkpt lat="47.30697" lon="-1.63768">
        <ele>6.33</ele>
        <time>2019-12-15T09:15:20.000Z</time>
      </trkpt>
      <trkpt lat="47.30711" lon="-1.63788">
        <ele>6.6</ele>
        <time>2019-12-15T09:15:23.000Z</time>
      </trkpt>
      <trkpt lat="47.30725" lon="-1.63806">
        <ele>7.26</ele>
        <time>2019-12-15T09:15:26.000Z</time>
      </trkpt>
      <trkpt lat="47.30739" lon="-1.63825">
        <ele>8.38</ele>
        <time>2019-12-15T09:15:29.000Z</time>
      </trkpt>
      <trkpt lat="47.30753" lon="-1.63844">
        <ele>9.59</ele>
        <time>2019-12-15T09:15:32.000Z</time>
      </trkpt>
      <trkpt lat="47.30766" lon="-1.63864">
        <ele>10.32</ele>
        <time>2019-12-15T09:15:35.000Z</time>
      </trkpt>
      <trkpt lat="47.30778" lon="-1.63885">
        <ele>10.69</ele>
        <time>2019-12-15T09:15:38.000Z</time>
      </trkpt>
      <trkpt lat="47.3079" lon="-1.63907">
        <ele>11.23</ele>
        <time>2019-12-15T09:15:41.000Z</time>
      </trkpt>
      <trkpt lat="47.308" lon="-1.6393">
        <ele>11.33</ele>
        <time>2019-12-15T09:15:44.000Z</time>
      </trkpt>
      <trkpt lat="47.3081" lon="-1.63955">
        <ele>11.46</ele>
        <time>2019-12-15T09:15:47.000Z</time>
      </trkpt>
      <trkpt lat="47.30818" lon="-1.6398">
        <ele>11.53</ele>
        <time>2019-12-15T09:15:50.000Z</time>
      </trkpt>
      <trkpt lat="47.30827" lon="-1.64006">
        <ele>11.75</ele>
        <time>2019-12-15T09:15:53.000Z</time>
      </trkpt>
      <trkpt lat="47.30836" lon="-1.6403">
        <ele>12.02</ele>
        <time>2019-12-15T09:15:56.000Z</time>
      </trkpt>
      <trkpt lat="47.30845" lon="-1.64054">
        <ele>12.3</ele>
        <time>2019-12-15T09:15:59.000Z</time>
      </trkpt>
      <trkpt lat="47.30853" lon="-1.64078">
        <ele>12.62</ele>
        <time>2019-12-15T09:16:02.000Z</time>
      </trkpt>
      <trkpt lat="47.30862" lon="-1.64101">
        <ele>13.02</ele>
        <time>2019-12-15T09:16:05.000Z</time>
      </trkpt>
      <trkpt lat="47.30871" lon="-1.64125">
        <ele>13.44</ele>
        <time>2019-12-15T09:16:08.000Z</time>
      </trkpt>
      <trkpt lat="47.3088" lon="-1.64149">
        <ele>13.64</ele>
        <time>2019-12-15T09:16:11.000Z</time>
      </trkpt>
      <trkpt lat="47.30889" lon="-1.64172">
        <ele>13.89</ele>
        <time>2019-12-15T09:16:14.000Z</time>
      </trkpt>
      <trkpt lat="47.30901" lon="-1.64194">
        <ele>13.64</ele>
        <time>2019-12-15T09:16:17.000Z</time>
      </trkpt>
      <trkpt lat="47.30913" lon="-1.64216">
        <ele>13.59</ele>
        <time>2019-12-15T09:16:20.000Z</time>
      </trkpt>
      <trkpt lat="47.30926" lon="-1.64237">
        <ele>14.34</ele>
        <time>2019-12-15T09:16:23.000Z</time>
      </trkpt>
      <trkpt lat="47.30939" lon="-1.64255">
        <ele>16.05</ele>
        <time>2019-12-15T09:16:26.000Z</time>
      </trkpt>
      <trkpt lat="47.30953" lon="-1.64274">
        <ele>16.79</ele>
        <time>2019-12-15T09:16:29.000Z</time>
      </trkpt>
      <trkpt lat="47.30966" lon="-1.64292">
        <ele>17.45</ele>
        <time>2019-12-15T09:16:32.000Z</time>
      </trkpt>
      <trkpt lat="47.3098" lon="-1.6431">
        <ele>16.99</ele>
        <time>2019-12-15T09:16:35.000Z</time>
      </trkpt>
      <trkpt lat="47.30997" lon="-1.64332">
        <ele>15.51</ele>
        <time>2019-12-15T09:16:39.000Z</time>
      </trkpt>
      <trkpt lat="47.3101" lon="-1.64352">
        <ele>14.86</ele>
        <time>2019-12-15T09:16:42.000Z</time>
      </trkpt>
      <trkpt lat="47.31025" lon="-1.64373">
        <ele>14.13</ele>
        <time>2019-12-15T09:16:45.000Z</time>
      </trkpt>
      <trkpt lat="47.3104" lon="-1.64394">
        <ele>13.47</ele>
        <time>2019-12-15T09:16:48.000Z</time>
      </trkpt>
      <trkpt lat="47.31056" lon="-1.64414">
        <ele>13.12</ele>
        <time>2019-12-15T09:16:51.000Z</time>
      </trkpt>
      <trkpt lat="47.3107" lon="-1.64436">
        <ele>12.55</ele>
        <time>2019-12-15T09:16:54.000Z</time>
      </trkpt>
      <trkpt lat="47.31086" lon="-1.64456">
        <ele>13.05</ele>
        <time>2019-12-15T09:16:57.000Z</time>
      </trkpt>
      <trkpt lat="47.31103" lon="-1.64475">
        <ele>12.31</ele>
        <time>2019-12-15T09:17:00.000Z</time>
      </trkpt>
      <trkpt lat="47.3112" lon="-1.64495">
        <ele>11.24</ele>
        <time>2019-12-15T09:17:03.000Z</time>
      </trkpt>
      <trkpt lat="47.31138" lon="-1.64513">
        <ele>10.94</ele>
        <time>2019-12-15T09:17:06.000Z</time>
      </trkpt>
      <trkpt lat="47.31158" lon="-1.64531">
        <ele>10.64</ele>
        <time>2019-12-15T09:17:09.000Z</time>
      </trkpt>
      <trkpt lat="47.31175" lon="-1.64549">
        <ele>10.6</ele>
        <time>2019-12-15T09:17:12.000Z</time>
      </trkpt>
      <trkpt lat="47.31192" lon="-1.64567">
        <ele>11.17</ele>
        <time>2019-12-15T09:17:15.000Z</time>
      </trkpt>
      <trkpt lat="47.31208" lon="-1.64587">
        <ele>11.35</ele>
        <time>2019-12-15T09:17:18.000Z</time>
      </trkpt>
      <trkpt lat="47.31225" lon="-1.64606">
        <ele>11.93</ele>
        <time>2019-12-15T09:17:21.000Z</time>
      </trkpt>
      <trkpt lat="47.31243" lon="-1.64624">
        <ele>12.09</ele>
        <time>2019-12-15T09:17:24.000Z</time>
      </trkpt>
      <trkpt lat="47.31261" lon="-1.64641">
        <ele>13.05</ele>
        <time>2019-12-15T09:17:27.000Z</time>
      </trkpt>
      <trkpt lat="47.31278" lon="-1.64658">
        <ele>13.1</ele>
        <time>2019-12-15T09:17:30.000Z</time>
      </trkpt>
      <trkpt lat="47.31296" lon="-1.64676">
        <ele>12.81</ele>
        <time>2019-12-15T09:17:33.000Z</time>
      </trkpt>
      <trkpt lat="47.31314" lon="-1.64694">
        <ele>12.95</ele>
        <time>2019-12-15T09:17:36.000Z</time>
      </trkpt>
      <trkpt lat="47.3133" lon="-1.64713">
        <ele>13.34</ele>
        <time>2019-12-15T09:17:39.000Z</time>
      </trkpt>
      <trkpt lat="47.31344" lon="-1.64734">
        <ele>13.66</ele>
        <time>2019-12-15T09:17:42.000Z</time>
      </trkpt>
      <trkpt lat="47.3136" lon="-1.64754">
        <ele>13.94</ele>
        <time>2019-12-15T09:17:45.000Z</time>
      </trkpt>
      <trkpt lat="47.31379" lon="-1.6477">
        <ele>14.12</ele>
        <time>2019-12-15T09:17:48.000Z</time>
      </trkpt>
      <trkpt lat="47.31397" lon="-1.64785">
        <ele>14.22</ele>
        <time>2019-12-15T09:17:51.000Z</time>
      </trkpt>
      <trkpt lat="47.31413" lon="-1.64797">
        <ele>14.8</ele>
        <time>2019-12-15T09:17:54.000Z</time>
      </trkpt>
      <trkpt lat="47.3143" lon="-1.6481">
        <ele>14.16</ele>
        <time>2019-12-15T09:17:57.000Z</time>
      </trkpt>
      <trkpt lat="47.31446" lon="-1.64827">
        <ele>13.94</ele>
        <time>2019-12-15T09:18:00.000Z</time>
      </trkpt>
      <trkpt lat="47.31463" lon="-1.64844">
        <ele>13.1</ele>
        <time>2019-12-15T09:18:03.000Z</time>
      </trkpt>
      <trkpt lat="47.31481" lon="-1.64859">
        <ele>11.95</ele>
        <time>2019-12-15T09:18:06.000Z</time>
      </trkpt>
      <trkpt lat="47.315" lon="-1.64878">
        <ele>10.35</ele>
        <time>2019-12-15T09:18:09.000Z</time>
      </trkpt>
      <trkpt lat="47.31517" lon="-1.649">
        <ele>9.11</ele>
        <time>2019-12-15T09:18:12.000Z</time>
      </trkpt>
      <trkpt lat="47.31536" lon="-1.64902">
        <ele>7.86</ele>
        <time>2019-12-15T09:18:15.000Z</time>
      </trkpt>
      <trkpt lat="47.31555" lon="-1.64885">
        <ele>6.8</ele>
        <time>2019-12-15T09:18:18.000Z</time>
      </trkpt>
      <trkpt lat="47.31575" lon="-1.6487">
        <ele>6.88</ele>
        <time>2019-12-15T09:18:21.000Z</time>
      </trkpt>
      <trkpt lat="47.31595" lon="-1.64856">
        <ele>6.01</ele>
        <time>2019-12-15T09:18:24.000Z</time>
      </trkpt>
      <trkpt lat="47.31616" lon="-1.6484">
        <ele>3.98</ele>
        <time>2019-12-15T09:18:27.000Z</time>
      </trkpt>
      <trkpt lat="47.31637" lon="-1.64818">
        <ele>2.18</ele>
        <time>2019-12-15T09:18:30.000Z</time>
      </trkpt>
      <trkpt lat="47.31658" lon="-1.64795">
        <ele>0.96</ele>
        <time>2019-12-15T09:18:33.000Z</time>
      </trkpt>
      <trkpt lat="47.31673" lon="-1.64778">
        <ele>0.02</ele>
        <time>2019-12-15T09:18:35.000Z</time>
      </trkpt>
      <trkpt lat="47.31688" lon="-1.64762">
        <ele>0.46</ele>
        <time>2019-12-15T09:18:37.000Z</time>
      </trkpt>
      <trkpt lat="47.31704" lon="-1.64746">
        <ele>0.62</ele>
        <time>2019-12-15T09:18:39.000Z</time>
      </trkpt>
      <trkpt lat="47.31725" lon="-1.64724">
        <ele>0.65</ele>
        <time>2019-12-15T09:18:42.000Z</time>
      </trkpt>
      <trkpt lat="47.31747" lon="-1.64706">
        <ele>0.15</ele>
        <time>2019-12-15T09:18:45.000Z</time>
      </trkpt>
      <trkpt lat="47.31771" lon="-1.64691">
        <ele>-0.91</ele>
        <time>2019-12-15T09:18:48.000Z</time>
      </trkpt>
      <trkpt lat="47.31796" lon="-1.64682">
        <ele>-2.3</ele>
        <time>2019-12-15T09:18:51.000Z</time>
      </trkpt>
      <trkpt lat="47.3182" lon="-1.64672">
        <ele>-1.01</ele>
        <time>2019-12-15T09:18:54.000Z</time>
      </trkpt>
      <trkpt lat="47.31843" lon="-1.64663">
        <ele>0.11</ele>
        <time>2019-12-15T09:18:57.000Z</time>
      </trkpt>
      <trkpt lat="47.31866" lon="-1.64655">
        <ele>-0.12</ele>
        <time>2019-12-15T09:19:00.000Z</time>
      </trkpt>
      <trkpt lat="47.31889" lon="-1.64647">
        <ele>-0.85</ele>
        <time>2019-12-15T09:19:03.000Z</time>
      </trkpt>
      <trkpt lat="47.31914" lon="-1.64638">
        <ele>-1.49</ele>
        <time>2019-12-15T09:19:06.000Z</time>
      </trkpt>
      <trkpt lat="47.31938" lon="-1.64628">
        <ele>-2.05</ele>
        <time>2019-12-15T09:19:09.000Z</time>
      </trkpt>
      <trkpt lat="47.31964" lon="-1.64618">
        <ele>-3.44</ele>
        <time>2019-12-15T09:19:12.000Z</time>
      </trkpt>
      <trkpt lat="47.31981" lon="-1.64612">
        <ele>-4.38</ele>
        <time>2019-12-15T09:19:14.000Z</time>
      </trkpt>
      <trkpt lat="47.32" lon="-1.64606">
        <ele>-6.32</ele>
        <time>2019-12-15T09:19:16.000Z</time>
      </trkpt>
      <trkpt lat="47.32018" lon="-1.646">
        <ele>-7.25</ele>
        <time>2019-12-15T09:19:18.000Z</time>
      </trkpt>
      <trkpt lat="47.32036" lon="-1.64592">
        <ele>-7.15</ele>
        <time>2019-12-15T09:19:20.000Z</time>
      </trkpt>
      <trkpt lat="47.32054" lon="-1.64586">
        <ele>-8.52</ele>
        <time>2019-12-15T09:19:22.000Z</time>
      </trkpt>
      <trkpt lat="47.32079" lon="-1.64577">
        <ele>-10.66</ele>
        <time>2019-12-15T09:19:25.000Z</time>
      </trkpt>
      <trkpt lat="47.32105" lon="-1.64568">
        <ele>-12.03</ele>
        <time>2019-12-15T09:19:28.000Z</time>
      </trkpt>
      <trkpt lat="47.32123" lon="-1.64562">
        <ele>-13.21</ele>
        <time>2019-12-15T09:19:30.000Z</time>
      </trkpt>
      <trkpt lat="47.32141" lon="-1.64556">
        <ele>-13.41</ele>
        <time>2019-12-15T09:19:32.000Z</time>
      </trkpt>
      <trkpt lat="47.32158" lon="-1.64543">
        <ele>-13.94</ele>
        <time>2019-12-15T09:19:34.000Z</time>
      </trkpt>
      <trkpt lat="47.32177" lon="-1.64523">
        <ele>-16.02</ele>
        <time>2019-12-15T09:19:36.000Z</time>
      </trkpt>
      <trkpt lat="47.32193" lon="-1.645">
        <ele>-18</ele>
        <time>2019-12-15T09:19:38.000Z</time>
      </trkpt>
      <trkpt lat="47.32207" lon="-1.64474">
        <ele>-19.14</ele>
        <time>2019-12-15T09:19:40.000Z</time>
      </trkpt>
      <trkpt lat="47.32218" lon="-1.64448">
        <ele>-21.22</ele>
        <time>2019-12-15T09:19:42.000Z</time>
      </trkpt>
      <trkpt lat="47.3223" lon="-1.64422">
        <ele>-22.08</ele>
        <time>2019-12-15T09:19:44.000Z</time>
      </trkpt>
      <trkpt lat="47.3224" lon="-1.64395">
        <ele>-22.87</ele>
        <time>2019-12-15T09:19:46.000Z</time>
      </trkpt>
      <trkpt lat="47.32248" lon="-1.64366">
        <ele>-24.2</ele>
        <time>2019-12-15T09:19:48.000Z</time>
      </trkpt>
      <trkpt lat="47.32254" lon="-1.64338">
        <ele>-26.4</ele>
        <time>2019-12-15T09:19:50.000Z</time>
      </trkpt>
      <trkpt lat="47.32258" lon="-1.64309">
        <ele>-28.84</ele>
        <time>2019-12-15T09:19:53.000Z</time>
      </trkpt>
      <trkpt lat="47.3228" lon="-1.64308">
        <ele>-30.02</ele>
        <time>2019-12-15T09:19:58.000Z</time>
      </trkpt>
      <trkpt lat="47.32298" lon="-1.6432">
        <ele>-30.58</ele>
        <time>2019-12-15T09:20:01.000Z</time>
      </trkpt>
      <trkpt lat="47.32318" lon="-1.64331">
        <ele>-31.3</ele>
        <time>2019-12-15T09:20:04.000Z</time>
      </trkpt>
      <trkpt lat="47.32339" lon="-1.64341">
        <ele>-31.81</ele>
        <time>2019-12-15T09:20:07.000Z</time>
      </trkpt>
      <trkpt lat="47.32362" lon="-1.64345">
        <ele>-31.71</ele>
        <time>2019-12-15T09:20:10.000Z</time>
      </trkpt>
      <trkpt lat="47.32382" lon="-1.64349">
        <ele>-31.45</ele>
        <time>2019-12-15T09:20:13.000Z</time>
      </trkpt>
      <trkpt lat="47.32402" lon="-1.64354">
        <ele>-30.84</ele>
        <time>2019-12-15T09:20:16.000Z</time>
      </trkpt>
      <trkpt lat="47.32423" lon="-1.64356">
        <ele>-30.94</ele>
        <time>2019-12-15T09:20:19.000Z</time>
      </trkpt>
      <trkpt lat="47.32444" lon="-1.64361">
        <ele>-30.73</ele>
        <time>2019-12-15T09:20:22.000Z</time>
      </trkpt>
      <trkpt lat="47.32464" lon="-1.64369">
        <ele>-29.57</ele>
        <time>2019-12-15T09:20:25.000Z</time>
      </trkpt>
      <trkpt lat="47.32483" lon="-1.64381">
        <ele>-29.09</ele>
        <time>2019-12-15T09:20:28.000Z</time>
      </trkpt>
      <trkpt lat="47.32501" lon="-1.64393">
        <ele>-28.18</ele>
        <time>2019-12-15T09:20:31.000Z</time>
      </trkpt>
      <trkpt lat="47.32519" lon="-1.64401">
        <ele>-27.29</ele>
        <time>2019-12-15T09:20:34.000Z</time>
      </trkpt>
      <trkpt lat="47.32543" lon="-1.64401">
        <ele>-26.49</ele>
        <time>2019-12-15T09:20:38.000Z</time>
      </trkpt>
      <trkpt lat="47.32565" lon="-1.64394">
        <ele>-25.34</ele>
        <time>2019-12-15T09:20:42.000Z</time>
      </trkpt>
      <trkpt lat="47.32585" lon="-1.64389">
        <ele>-27.21</ele>
        <time>2019-12-15T09:20:46.000Z</time>
      </trkpt>
      <trkpt lat="47.32603" lon="-1.64384">
        <ele>-26.89</ele>
        <time>2019-12-15T09:20:50.000Z</time>
      </trkpt>
      <trkpt lat="47.32625" lon="-1.64378">
        <ele>-27.43</ele>
        <time>2019-12-15T09:20:55.000Z</time>
      </trkpt>
      <trkpt lat="47.32646" lon="-1.64373">
        <ele>-26.26</ele>
        <time>2019-12-15T09:21:00.000Z</time>
      </trkpt>
      <trkpt lat="47.32668" lon="-1.64367">
        <ele>-26.02</ele>
        <time>2019-12-15T09:21:05.000Z</time>
      </trkpt>
      <trkpt lat="47.32686" lon="-1.64361">
        <ele>-25.13</ele>
        <time>2019-12-15T09:21:09.000Z</time>
      </trkpt>
      <trkpt lat="47.32708" lon="-1.64355">
        <ele>-25.33</ele>
        <time>2019-12-15T09:21:14.000Z</time>
      </trkpt>
      <trkpt lat="47.32726" lon="-1.6435">
        <ele>-25.02</ele>
        <time>2019-12-15T09:21:18.000Z</time>
      </trkpt>
      <trkpt lat="47.32746" lon="-1.64345">
        <ele>-22.84</ele>
        <time>2019-12-15T09:21:23.000Z</time>
      </trkpt>
      <trkpt lat="47.32767" lon="-1.64341">
        <ele>-20.04</ele>
        <time>2019-12-15T09:21:28.000Z</time>
      </trkpt>
      <trkpt lat="47.32786" lon="-1.64339">
        <ele>-16.92</ele>
        <time>2019-12-15T09:21:33.000Z</time>
      </trkpt>
      <trkpt lat="47.32804" lon="-1.64335">
        <ele>-16.78</ele>
        <time>2019-12-15T09:21:38.000Z</time>
      </trkpt>
      <trkpt lat="47.32826" lon="-1.64331">
        <ele>-17.05</ele>
        <time>2019-12-15T09:21:43.000Z</time>
      </trkpt>
      <trkpt lat="47.32846" lon="-1.64329">
        <ele>-17.28</ele>
        <time>2019-12-15T09:21:48.000Z</time>
      </trkpt>
      <trkpt lat="47.32866" lon="-1.64324">
        <ele>-16.96</ele>
        <time>2019-12-15T09:21:53.000Z</time>
      </trkpt>
      <trkpt lat="47.32887" lon="-1.64323">
        <ele>-17.33</ele>
        <time>2019-12-15T09:21:58.000Z</time>
      </trkpt>
      <trkpt lat="47.32907" lon="-1.64319">
        <ele>-14.3</ele>
        <time>2019-12-15T09:22:03.000Z</time>
      </trkpt>
      <trkpt lat="47.32928" lon="-1.64314">
        <ele>-12.72</ele>
        <time>2019-12-15T09:22:08.000Z</time>
      </trkpt>
      <trkpt lat="47.32946" lon="-1.64313">
        <ele>-12.3</ele>
        <time>2019-12-15T09:22:12.000Z</time>
      </trkpt>
      <trkpt lat="47.32968" lon="-1.64313">
        <ele>-11.61</ele>
        <time>2019-12-15T09:22:17.000Z</time>
      </trkpt>
      <trkpt lat="47.32988" lon="-1.64315">
        <ele>-9.92</ele>
        <time>2019-12-15T09:22:22.000Z</time>
      </trkpt>
      <trkpt lat="47.33008" lon="-1.64319">
        <ele>-8.04</ele>
        <time>2019-12-15T09:22:27.000Z</time>
      </trkpt>
      <trkpt lat="47.33026" lon="-1.64325">
        <ele>-5.81</ele>
        <time>2019-12-15T09:22:32.000Z</time>
      </trkpt>
      <trkpt lat="47.33044" lon="-1.6433">
        <ele>-3.06</ele>
        <time>2019-12-15T09:22:37.000Z</time>
      </trkpt>
      <trkpt lat="47.33063" lon="-1.64338">
        <ele>-1.29</ele>
        <time>2019-12-15T09:22:42.000Z</time>
      </trkpt>
      <trkpt lat="47.33081" lon="-1.64343">
        <ele>0.36</ele>
        <time>2019-12-15T09:22:47.000Z</time>
      </trkpt>
      <trkpt lat="47.331" lon="-1.64347">
        <ele>4.47</ele>
        <time>2019-12-15T09:22:52.000Z</time>
      </trkpt>
      <trkpt lat="47.33112" lon="-1.64367">
        <ele>5.07</ele>
        <time>2019-12-15T09:23:00.000Z</time>
      </trkpt>
      <trkpt lat="47.33107" lon="-1.64394">
        <ele>5.22</ele>
        <time>2019-12-15T09:23:05.000Z</time>
      </trkpt>
      <trkpt lat="47.331" lon="-1.64423">
        <ele>5.83</ele>
        <time>2019-12-15T09:24:54.000Z</time>
      </trkpt>
      <trkpt lat="47.33092" lon="-1.64454">
        <ele>5.82</ele>
        <time>2019-12-15T09:24:59.000Z</time>
      </trkpt>
      <trkpt lat="47.33086" lon="-1.64483">
        <ele>4.5</ele>
        <time>2019-12-15T09:25:03.000Z</time>
      </trkpt>
      <trkpt lat="47.33082" lon="-1.64514">
        <ele>2.88</ele>
        <time>2019-12-15T09:25:07.000Z</time>
      </trkpt>
      <trkpt lat="47.33075" lon="-1.64547">
        <ele>2.74</ele>
        <time>2019-12-15T09:25:11.000Z</time>
      </trkpt>
      <trkpt lat="47.33069" lon="-1.64581">
        <ele>0.78</ele>
        <time>2019-12-15T09:25:15.000Z</time>
      </trkpt>
      <trkpt lat="47.33064" lon="-1.64608">
        <ele>0.6</ele>
        <time>2019-12-15T09:25:18.000Z</time>
      </trkpt>
      <trkpt lat="47.3306" lon="-1.64636">
        <ele>0.83</ele>
        <time>2019-12-15T09:25:21.000Z</time>
      </trkpt>
      <trkpt lat="47.33059" lon="-1.64663">
        <ele>1.29</ele>
        <time>2019-12-15T09:25:24.000Z</time>
      </trkpt>
      <trkpt lat="47.33059" lon="-1.64692">
        <ele>1.03</ele>
        <time>2019-12-15T09:25:27.000Z</time>
      </trkpt>
      <trkpt lat="47.33059" lon="-1.64722">
        <ele>1.19</ele>
        <time>2019-12-15T09:25:30.000Z</time>
      </trkpt>
      <trkpt lat="47.33059" lon="-1.64756">
        <ele>1.15</ele>
        <time>2019-12-15T09:25:33.000Z</time>
      </trkpt>
      <trkpt lat="47.33058" lon="-1.64793">
        <ele>0.24</ele>
        <time>2019-12-15T09:25:36.000Z</time>
      </trkpt>
      <trkpt lat="47.33056" lon="-1.64831">
        <ele>-0.57</ele>
        <time>2019-12-15T09:25:39.000Z</time>
      </trkpt>
      <trkpt lat="47.33053" lon="-1.6487">
        <ele>-2.3</ele>
        <time>2019-12-15T09:25:42.000Z</time>
      </trkpt>
      <trkpt lat="47.33049" lon="-1.64907">
        <ele>-4.01</ele>
        <time>2019-12-15T09:25:45.000Z</time>
      </trkpt>
      <trkpt lat="47.33044" lon="-1.64942">
        <ele>-4.61</ele>
        <time>2019-12-15T09:25:48.000Z</time>
      </trkpt>
      <trkpt lat="47.33038" lon="-1.64973">
        <ele>-5.76</ele>
        <time>2019-12-15T09:25:51.000Z</time>
      </trkpt>
      <trkpt lat="47.3303" lon="-1.65006">
        <ele>-6.83</ele>
        <time>2019-12-15T09:25:54.000Z</time>
      </trkpt>
      <trkpt lat="47.33021" lon="-1.65038">
        <ele>-7.9</ele>
        <time>2019-12-15T09:25:57.000Z</time>
      </trkpt>
      <trkpt lat="47.33012" lon="-1.65069">
        <ele>-8.95</ele>
        <time>2019-12-15T09:26:00.000Z</time>
      </trkpt>
      <trkpt lat="47.33005" lon="-1.65101">
        <ele>-9.9</ele>
        <time>2019-12-15T09:26:03.000Z</time>
      </trkpt>
      <trkpt lat="47.32996" lon="-1.65131">
        <ele>-10.13</ele>
        <time>2019-12-15T09:26:06.000Z</time>
      </trkpt>
      <trkpt lat="47.32988" lon="-1.65161">
        <ele>-10.25</ele>
        <time>2019-12-15T09:26:09.000Z</time>
      </trkpt>
      <trkpt lat="47.32982" lon="-1.65191">
        <ele>-10.06</ele>
        <time>2019-12-15T09:26:12.000Z</time>
      </trkpt>
      <trkpt lat="47.32977" lon="-1.65222">
        <ele>-9.02</ele>
        <time>2019-12-15T09:26:15.000Z</time>
      </trkpt>
      <trkpt lat="47.32975" lon="-1.65253">
        <ele>-8.4</ele>
        <time>2019-12-15T09:26:18.000Z</time>
      </trkpt>
      <trkpt lat="47.32975" lon="-1.65284">
        <ele>-8.02</ele>
        <time>2019-12-15T09:26:21.000Z</time>
      </trkpt>
      <trkpt lat="47.32974" lon="-1.65313">
        <ele>-7.64</ele>
        <time>2019-12-15T09:26:24.000Z</time>
      </trkpt>
      <trkpt lat="47.32974" lon="-1.6534">
        <ele>-6.88</ele>
        <time>2019-12-15T09:26:27.000Z</time>
      </trkpt>
      <trkpt lat="47.32976" lon="-1.65373">
        <ele>-5.52</ele>
        <time>2019-12-15T09:26:31.000Z</time>
      </trkpt>
      <trkpt lat="47.32978" lon="-1.65404">
        <ele>-4.15</ele>
        <time>2019-12-15T09:26:35.000Z</time>
      </trkpt>
      <trkpt lat="47.3298" lon="-1.65434">
        <ele>-2.8</ele>
        <time>2019-12-15T09:26:39.000Z</time>
      </trkpt>
      <trkpt lat="47.3298" lon="-1.65461">
        <ele>-1.18</ele>
        <time>2019-12-15T09:26:43.000Z</time>
      </trkpt>
      <trkpt lat="47.3298" lon="-1.65488">
        <ele>-0.06</ele>
        <time>2019-12-15T09:26:47.000Z</time>
      </trkpt>
      <trkpt lat="47.32978" lon="-1.65515">
        <ele>0.46</ele>
        <time>2019-12-15T09:26:51.000Z</time>
      </trkpt>
      <trkpt lat="47.32978" lon="-1.65547">
        <ele>-0.17</ele>
        <time>2019-12-15T09:26:56.000Z</time>
      </trkpt>
      <trkpt lat="47.32977" lon="-1.6558">
        <ele>0.79</ele>
        <time>2019-12-15T09:27:01.000Z</time>
      </trkpt>
      <trkpt lat="47.32978" lon="-1.65609">
        <ele>0.99</ele>
        <time>2019-12-15T09:27:05.000Z</time>
      </trkpt>
      <trkpt lat="47.3298" lon="-1.65643">
        <ele>0.15</ele>
        <time>2019-12-15T09:27:09.000Z</time>
      </trkpt>
      <trkpt lat="47.32982" lon="-1.65669">
        <ele>-0.39</ele>
        <time>2019-12-15T09:27:12.000Z</time>
      </trkpt>
      <trkpt lat="47.32983" lon="-1.65697">
        <ele>-0.62</ele>
        <time>2019-12-15T09:27:15.000Z</time>
      </trkpt>
      <trkpt lat="47.32985" lon="-1.65726">
        <ele>-0.75</ele>
        <time>2019-12-15T09:27:18.000Z</time>
      </trkpt>
      <trkpt lat="47.32975" lon="-1.65753">
        <ele>-4.46</ele>
        <time>2019-12-15T09:27:22.000Z</time>
      </trkpt>
      <trkpt lat="47.32951" lon="-1.65749">
        <ele>-3.64</ele>
        <time>2019-12-15T09:27:26.000Z</time>
      </trkpt>
      <trkpt lat="47.3293" lon="-1.65747">
        <ele>-1.97</ele>
        <time>2019-12-15T09:27:30.000Z</time>
      </trkpt>
      <trkpt lat="47.32906" lon="-1.65746">
        <ele>-1.81</ele>
        <time>2019-12-15T09:27:34.000Z</time>
      </trkpt>
      <trkpt lat="47.32888" lon="-1.65745">
        <ele>-2.65</ele>
        <time>2019-12-15T09:27:37.000Z</time>
      </trkpt>
      <trkpt lat="47.32868" lon="-1.65742">
        <ele>-4.37</ele>
        <time>2019-12-15T09:27:40.000Z</time>
      </trkpt>
      <trkpt lat="47.32849" lon="-1.65741">
        <ele>-5.22</ele>
        <time>2019-12-15T09:27:43.000Z</time>
      </trkpt>
      <trkpt lat="47.3283" lon="-1.6574">
        <ele>-4.27</ele>
        <time>2019-12-15T09:27:46.000Z</time>
      </trkpt>
      <trkpt lat="47.32811" lon="-1.65739">
        <ele>-4.66</ele>
        <time>2019-12-15T09:27:49.000Z</time>
      </trkpt>
      <trkpt lat="47.32792" lon="-1.65738">
        <ele>-5.48</ele>
        <time>2019-12-15T09:27:52.000Z</time>
      </trkpt>
      <trkpt lat="47.32776" lon="-1.65753">
        <ele>-7.74</ele>
        <time>2019-12-15T09:27:55.000Z</time>
      </trkpt>
      <trkpt lat="47.32767" lon="-1.65781">
        <ele>-10.13</ele>
        <time>2019-12-15T09:27:58.000Z</time>
      </trkpt>
      <trkpt lat="47.32758" lon="-1.65812">
        <ele>-13.21</ele>
        <time>2019-12-15T09:28:01.000Z</time>
      </trkpt>
      <trkpt lat="47.32748" lon="-1.65843">
        <ele>-13.88</ele>
        <time>2019-12-15T09:28:04.000Z</time>
      </trkpt>
      <trkpt lat="47.32737" lon="-1.65876">
        <ele>-15.48</ele>
        <time>2019-12-15T09:28:07.000Z</time>
      </trkpt>
      <trkpt lat="47.32722" lon="-1.65906">
        <ele>-17.96</ele>
        <time>2019-12-15T09:28:10.000Z</time>
      </trkpt>
      <trkpt lat="47.32699" lon="-1.65917">
        <ele>-19.47</ele>
        <time>2019-12-15T09:28:13.000Z</time>
      </trkpt>
      <trkpt lat="47.32681" lon="-1.65914">
        <ele>-19.9</ele>
        <time>2019-12-15T09:28:15.000Z</time>
      </trkpt>
      <trkpt lat="47.32664" lon="-1.65908">
        <ele>-20.38</ele>
        <time>2019-12-15T09:28:17.000Z</time>
      </trkpt>
      <trkpt lat="47.32645" lon="-1.65914">
        <ele>-21.4</ele>
        <time>2019-12-15T09:28:20.000Z</time>
      </trkpt>
      <trkpt lat="47.32639" lon="-1.65947">
        <ele>-23.24</ele>
        <time>2019-12-15T09:28:24.000Z</time>
      </trkpt>
      <trkpt lat="47.32637" lon="-1.65978">
        <ele>-23.82</ele>
        <time>2019-12-15T09:28:27.000Z</time>
      </trkpt>
      <trkpt lat="47.32635" lon="-1.66006">
        <ele>-22.37</ele>
        <time>2019-12-15T09:28:30.000Z</time>
      </trkpt>
      <trkpt lat="47.32632" lon="-1.66032">
        <ele>-22.36</ele>
        <time>2019-12-15T09:28:33.000Z</time>
      </trkpt>
      <trkpt lat="47.32629" lon="-1.66066">
        <ele>-22.55</ele>
        <time>2019-12-15T09:28:37.000Z</time>
      </trkpt>
      <trkpt lat="47.32624" lon="-1.66097">
        <ele>-21.11</ele>
        <time>2019-12-15T09:28:41.000Z</time>
      </trkpt>
      <trkpt lat="47.32615" lon="-1.66124">
        <ele>-19.72</ele>
        <time>2019-12-15T09:28:45.000Z</time>
      </trkpt>
      <trkpt lat="47.32597" lon="-1.6614">
        <ele>-17.66</ele>
        <time>2019-12-15T09:28:49.000Z</time>
      </trkpt>
      <trkpt lat="47.32579" lon="-1.66145">
        <ele>-14.68</ele>
        <time>2019-12-15T09:28:53.000Z</time>
      </trkpt>
      <trkpt lat="47.32558" lon="-1.66144">
        <ele>-12.88</ele>
        <time>2019-12-15T09:28:57.000Z</time>
      </trkpt>
      <trkpt lat="47.32538" lon="-1.66143">
        <ele>-11.72</ele>
        <time>2019-12-15T09:29:01.000Z</time>
      </trkpt>
      <trkpt lat="47.32518" lon="-1.66136">
        <ele>-10.84</ele>
        <time>2019-12-15T09:29:05.000Z</time>
      </trkpt>
      <trkpt lat="47.32499" lon="-1.66122">
        <ele>-11.55</ele>
        <time>2019-12-15T09:29:09.000Z</time>
      </trkpt>
      <trkpt lat="47.32481" lon="-1.66103">
        <ele>-13.35</ele>
        <time>2019-12-15T09:29:13.000Z</time>
      </trkpt>
      <trkpt lat="47.32466" lon="-1.66085">
        <ele>-13.46</ele>
        <time>2019-12-15T09:29:16.000Z</time>
      </trkpt>
      <trkpt lat="47.32449" lon="-1.66065">
        <ele>-15.32</ele>
        <time>2019-12-15T09:29:19.000Z</time>
      </trkpt>
      <trkpt lat="47.32432" lon="-1.66043">
        <ele>-17.74</ele>
        <time>2019-12-15T09:29:22.000Z</time>
      </trkpt>
      <trkpt lat="47.32415" lon="-1.66022">
        <ele>-19.96</ele>
        <time>2019-12-15T09:29:25.000Z</time>
      </trkpt>
      <trkpt lat="47.324" lon="-1.66003">
        <ele>-21.65</ele>
        <time>2019-12-15T09:29:28.000Z</time>
      </trkpt>
      <trkpt lat="47.32385" lon="-1.65984">
        <ele>-22.99</ele>
        <time>2019-12-15T09:29:31.000Z</time>
      </trkpt>
      <trkpt lat="47.3237" lon="-1.65967">
        <ele>-24.43</ele>
        <time>2019-12-15T09:29:34.000Z</time>
      </trkpt>
      <trkpt lat="47.32353" lon="-1.65949">
        <ele>-25</ele>
        <time>2019-12-15T09:29:37.000Z</time>
      </trkpt>
      <trkpt lat="47.32335" lon="-1.65932">
        <ele>-22.8</ele>
        <time>2019-12-15T09:29:40.000Z</time>
      </trkpt>
      <trkpt lat="47.32317" lon="-1.65921">
        <ele>-22.36</ele>
        <time>2019-12-15T09:29:43.000Z</time>
      </trkpt>
      <trkpt lat="47.32294" lon="-1.65924">
        <ele>-22.88</ele>
        <time>2019-12-15T09:29:47.000Z</time>
      </trkpt>
      <trkpt lat="47.32278" lon="-1.65945">
        <ele>-23.95</ele>
        <time>2019-12-15T09:29:50.000Z</time>
      </trkpt>
      <trkpt lat="47.32265" lon="-1.65971">
        <ele>-25.28</ele>
        <time>2019-12-15T09:29:53.000Z</time>
      </trkpt>
      <trkpt lat="47.32255" lon="-1.65996">
        <ele>-26.65</ele>
        <time>2019-12-15T09:29:56.000Z</time>
      </trkpt>
      <trkpt lat="47.32247" lon="-1.6602">
        <ele>-26.69</ele>
        <time>2019-12-15T09:29:59.000Z</time>
      </trkpt>
      <trkpt lat="47.32239" lon="-1.66044">
        <ele>-26.43</ele>
        <time>2019-12-15T09:30:02.000Z</time>
      </trkpt>
      <trkpt lat="47.32232" lon="-1.66071">
        <ele>-26.26</ele>
        <time>2019-12-15T09:30:05.000Z</time>
      </trkpt>
      <trkpt lat="47.32227" lon="-1.66099">
        <ele>-26.55</ele>
        <time>2019-12-15T09:30:08.000Z</time>
      </trkpt>
      <trkpt lat="47.32223" lon="-1.66128">
        <ele>-26.56</ele>
        <time>2019-12-15T09:30:11.000Z</time>
      </trkpt>
      <trkpt lat="47.32221" lon="-1.66156">
        <ele>-26.72</ele>
        <time>2019-12-15T09:30:14.000Z</time>
      </trkpt>
      <trkpt lat="47.3222" lon="-1.66184">
        <ele>-27.51</ele>
        <time>2019-12-15T09:30:17.000Z</time>
      </trkpt>
      <trkpt lat="47.32222" lon="-1.66211">
        <ele>-29.06</ele>
        <time>2019-12-15T09:30:20.000Z</time>
      </trkpt>
      <trkpt lat="47.32224" lon="-1.66246">
        <ele>-28.7</ele>
        <time>2019-12-15T09:30:24.000Z</time>
      </trkpt>
      <trkpt lat="47.3223" lon="-1.66279">
        <ele>-27.66</ele>
        <time>2019-12-15T09:30:28.000Z</time>
      </trkpt>
      <trkpt lat="47.32236" lon="-1.66306">
        <ele>-28.49</ele>
        <time>2019-12-15T09:30:31.000Z</time>
      </trkpt>
      <trkpt lat="47.32243" lon="-1.66331">
        <ele>-29.77</ele>
        <time>2019-12-15T09:30:34.000Z</time>
      </trkpt>
      <trkpt lat="47.32255" lon="-1.66361">
        <ele>-28.83</ele>
        <time>2019-12-15T09:30:38.000Z</time>
      </trkpt>
      <trkpt lat="47.32267" lon="-1.6639">
        <ele>-26.62</ele>
        <time>2019-12-15T09:30:42.000Z</time>
      </trkpt>
      <trkpt lat="47.32278" lon="-1.66414">
        <ele>-23.72</ele>
        <time>2019-12-15T09:30:46.000Z</time>
      </trkpt>
      <trkpt lat="47.3229" lon="-1.66435">
        <ele>-23.27</ele>
        <time>2019-12-15T09:30:50.000Z</time>
      </trkpt>
      <trkpt lat="47.32301" lon="-1.66456">
        <ele>-21.67</ele>
        <time>2019-12-15T09:30:54.000Z</time>
      </trkpt>
      <trkpt lat="47.32314" lon="-1.66481">
        <ele>-19.51</ele>
        <time>2019-12-15T09:30:59.000Z</time>
      </trkpt>
      <trkpt lat="47.32327" lon="-1.66504">
        <ele>-19.38</ele>
        <time>2019-12-15T09:31:04.000Z</time>
      </trkpt>
      <trkpt lat="47.32337" lon="-1.66531">
        <ele>-19.83</ele>
        <time>2019-12-15T09:31:09.000Z</time>
      </trkpt>
      <trkpt lat="47.32345" lon="-1.66558">
        <ele>-17.6</ele>
        <time>2019-12-15T09:31:14.000Z</time>
      </trkpt>
      <trkpt lat="47.32354" lon="-1.66585">
        <ele>-11.82</ele>
        <time>2019-12-15T09:31:19.000Z</time>
      </trkpt>
      <trkpt lat="47.32364" lon="-1.66609">
        <ele>-9.85</ele>
        <time>2019-12-15T09:31:24.000Z</time>
      </trkpt>
      <trkpt lat="47.32376" lon="-1.66631">
        <ele>-8.33</ele>
        <time>2019-12-15T09:31:29.000Z</time>
      </trkpt>
      <trkpt lat="47.32393" lon="-1.6665">
        <ele>-4.97</ele>
        <time>2019-12-15T09:31:35.000Z</time>
      </trkpt>
      <trkpt lat="47.32415" lon="-1.66658">
        <ele>-2.29</ele>
        <time>2019-12-15T09:31:42.000Z</time>
      </trkpt>
      <trkpt lat="47.32436" lon="-1.66656">
        <ele>0.28</ele>
        <time>2019-12-15T09:31:48.000Z</time>
      </trkpt>
      <trkpt lat="47.32454" lon="-1.66661">
        <ele>1.01</ele>
        <time>2019-12-15T09:31:53.000Z</time>
      </trkpt>
      <trkpt lat="47.32471" lon="-1.66676">
        <ele>1.03</ele>
        <time>2019-12-15T09:31:58.000Z</time>
      </trkpt>
      <trkpt lat="47.32486" lon="-1.66699">
        <ele>-0.92</ele>
        <time>2019-12-15T09:32:03.000Z</time>
      </trkpt>
      <trkpt lat="47.32498" lon="-1.66719">
        <ele>-2.08</ele>
        <time>2019-12-15T09:32:07.000Z</time>
      </trkpt>
      <trkpt lat="47.32512" lon="-1.66741">
        <ele>-2.36</ele>
        <time>2019-12-15T09:32:11.000Z</time>
      </trkpt>
      <trkpt lat="47.32528" lon="-1.66763">
        <ele>-2.69</ele>
        <time>2019-12-15T09:32:15.000Z</time>
      </trkpt>
      <trkpt lat="47.32546" lon="-1.66787">
        <ele>-3.54</ele>
        <time>2019-12-15T09:32:19.000Z</time>
      </trkpt>
      <trkpt lat="47.32559" lon="-1.66806">
        <ele>-4.73</ele>
        <time>2019-12-15T09:32:22.000Z</time>
      </trkpt>
      <trkpt lat="47.32573" lon="-1.66825">
        <ele>-5.46</ele>
        <time>2019-12-15T09:32:25.000Z</time>
      </trkpt>
      <trkpt lat="47.32588" lon="-1.66845">
        <ele>-6.48</ele>
        <time>2019-12-15T09:32:28.000Z</time>
      </trkpt>
      <trkpt lat="47.32603" lon="-1.66864">
        <ele>-7.09</ele>
        <time>2019-12-15T09:32:31.000Z</time>
      </trkpt>
      <trkpt lat="47.32617" lon="-1.66886">
        <ele>-7.61</ele>
        <time>2019-12-15T09:32:34.000Z</time>
      </trkpt>
      <trkpt lat="47.3263" lon="-1.66908">
        <ele>-7.95</ele>
        <time>2019-12-15T09:32:37.000Z</time>
      </trkpt>
      <trkpt lat="47.32641" lon="-1.6693">
        <ele>-8.33</ele>
        <time>2019-12-15T09:32:40.000Z</time>
      </trkpt>
      <trkpt lat="47.32656" lon="-1.66955">
        <ele>-7.66</ele>
        <time>2019-12-15T09:32:44.000Z</time>
      </trkpt>
      <trkpt lat="47.32671" lon="-1.66982">
        <ele>-6.95</ele>
        <time>2019-12-15T09:32:48.000Z</time>
      </trkpt>
      <trkpt lat="47.32684" lon="-1.67006">
        <ele>-5.45</ele>
        <time>2019-12-15T09:32:52.000Z</time>
      </trkpt>
      <trkpt lat="47.32698" lon="-1.6703">
        <ele>-3.97</ele>
        <time>2019-12-15T09:32:56.000Z</time>
      </trkpt>
      <trkpt lat="47.32711" lon="-1.67053">
        <ele>-2.03</ele>
        <time>2019-12-15T09:33:00.000Z</time>
      </trkpt>
      <trkpt lat="47.32724" lon="-1.67076">
        <ele>-0.94</ele>
        <time>2019-12-15T09:33:04.000Z</time>
      </trkpt>
      <trkpt lat="47.32739" lon="-1.67099">
        <ele>-0.89</ele>
        <time>2019-12-15T09:33:08.000Z</time>
      </trkpt>
      <trkpt lat="47.32756" lon="-1.67122">
        <ele>-1</ele>
        <time>2019-12-15T09:33:12.000Z</time>
      </trkpt>
      <trkpt lat="47.32771" lon="-1.67145">
        <ele>-1.75</ele>
        <time>2019-12-15T09:33:16.000Z</time>
      </trkpt>
      <trkpt lat="47.32786" lon="-1.67167">
        <ele>-1.11</ele>
        <time>2019-12-15T09:33:20.000Z</time>
      </trkpt>
      <trkpt lat="47.32803" lon="-1.67188">
        <ele>-1.59</ele>
        <time>2019-12-15T09:33:24.000Z</time>
      </trkpt>
      <trkpt lat="47.32821" lon="-1.6721">
        <ele>-2.95</ele>
        <time>2019-12-15T09:33:28.000Z</time>
      </trkpt>
      <trkpt lat="47.3284" lon="-1.6723">
        <ele>-3.92</ele>
        <time>2019-12-15T09:33:32.000Z</time>
      </trkpt>
      <trkpt lat="47.3286" lon="-1.67245">
        <ele>-4.14</ele>
        <time>2019-12-15T09:33:36.000Z</time>
      </trkpt>
      <trkpt lat="47.3288" lon="-1.67257">
        <ele>-2.3</ele>
        <time>2019-12-15T09:33:40.000Z</time>
      </trkpt>
      <trkpt lat="47.329" lon="-1.67267">
        <ele>-0.42</ele>
        <time>2019-12-15T09:33:44.000Z</time>
      </trkpt>
      <trkpt lat="47.32919" lon="-1.67277">
        <ele>2.23</ele>
        <time>2019-12-15T09:33:48.000Z</time>
      </trkpt>
      <trkpt lat="47.32938" lon="-1.67288">
        <ele>4.47</ele>
        <time>2019-12-15T09:33:52.000Z</time>
      </trkpt>
      <trkpt lat="47.32957" lon="-1.67296">
        <ele>5.13</ele>
        <time>2019-12-15T09:33:56.000Z</time>
      </trkpt>
      <trkpt lat="47.32976" lon="-1.67313">
        <ele>5.18</ele>
        <time>2019-12-15T09:34:01.000Z</time>
      </trkpt>
      <trkpt lat="47.32995" lon="-1.67331">
        <ele>5.61</ele>
        <time>2019-12-15T09:34:05.000Z</time>
      </trkpt>
      <trkpt lat="47.33015" lon="-1.67346">
        <ele>4.68</ele>
        <time>2019-12-15T09:34:09.000Z</time>
      </trkpt>
      <trkpt lat="47.33036" lon="-1.6736">
        <ele>5.72</ele>
        <time>2019-12-15T09:34:13.000Z</time>
      </trkpt>
      <trkpt lat="47.33055" lon="-1.67368">
        <ele>5.26</ele>
        <time>2019-12-15T09:34:17.000Z</time>
      </trkpt>
      <trkpt lat="47.33075" lon="-1.67371">
        <ele>5.01</ele>
        <time>2019-12-15T09:34:21.000Z</time>
      </trkpt>
      <trkpt lat="47.33094" lon="-1.6737">
        <ele>4.43</ele>
        <time>2019-12-15T09:34:25.000Z</time>
      </trkpt>
      <trkpt lat="47.33112" lon="-1.67368">
        <ele>2.88</ele>
        <time>2019-12-15T09:34:29.000Z</time>
      </trkpt>
      <trkpt lat="47.33131" lon="-1.67366">
        <ele>1.47</ele>
        <time>2019-12-15T09:34:33.000Z</time>
      </trkpt>
      <trkpt lat="47.33151" lon="-1.67367">
        <ele>3.17</ele>
        <time>2019-12-15T09:34:37.000Z</time>
      </trkpt>
      <trkpt lat="47.33169" lon="-1.67368">
        <ele>5.76</ele>
        <time>2019-12-15T09:34:41.000Z</time>
      </trkpt>
      <trkpt lat="47.33188" lon="-1.6737">
        <ele>7.52</ele>
        <time>2019-12-15T09:34:45.000Z</time>
      </trkpt>
      <trkpt lat="47.33206" lon="-1.67372">
        <ele>8.16</ele>
        <time>2019-12-15T09:34:49.000Z</time>
      </trkpt>
      <trkpt lat="47.33225" lon="-1.67376">
        <ele>10.62</ele>
        <time>2019-12-15T09:34:53.000Z</time>
      </trkpt>
      <trkpt lat="47.33246" lon="-1.67379">
        <ele>11.45</ele>
        <time>2019-12-15T09:34:58.000Z</time>
      </trkpt>
      <trkpt lat="47.33268" lon="-1.6738">
        <ele>13.18</ele>
        <time>2019-12-15T09:35:03.000Z</time>
      </trkpt>
      <trkpt lat="47.33289" lon="-1.67386">
        <ele>12.4</ele>
        <time>2019-12-15T09:35:07.000Z</time>
      </trkpt>
      <trkpt lat="47.33312" lon="-1.67391">
        <ele>12.23</ele>
        <time>2019-12-15T09:35:11.000Z</time>
      </trkpt>
      <trkpt lat="47.33334" lon="-1.67396">
        <ele>12.27</ele>
        <time>2019-12-15T09:35:15.000Z</time>
      </trkpt>
      <trkpt lat="47.33355" lon="-1.67399">
        <ele>12.4</ele>
        <time>2019-12-15T09:35:19.000Z</time>
      </trkpt>
      <trkpt lat="47.33377" lon="-1.67404">
        <ele>11.81</ele>
        <time>2019-12-15T09:35:23.000Z</time>
      </trkpt>
      <trkpt lat="47.33398" lon="-1.67409">
        <ele>10.81</ele>
        <time>2019-12-15T09:35:27.000Z</time>
      </trkpt>
      <trkpt lat="47.33421" lon="-1.67415">
        <ele>10.98</ele>
        <time>2019-12-15T09:35:31.000Z</time>
      </trkpt>
      <trkpt lat="47.33445" lon="-1.6742">
        <ele>12.31</ele>
        <time>2019-12-15T09:35:35.000Z</time>
      </trkpt>
      <trkpt lat="47.33463" lon="-1.67424">
        <ele>13.03</ele>
        <time>2019-12-15T09:35:38.000Z</time>
      </trkpt>
      <trkpt lat="47.33486" lon="-1.67429">
        <ele>15.28</ele>
        <time>2019-12-15T09:35:42.000Z</time>
      </trkpt>
      <trkpt lat="47.33509" lon="-1.67434">
        <ele>17.46</ele>
        <time>2019-12-15T09:35:46.000Z</time>
      </trkpt>
      <trkpt lat="47.33528" lon="-1.67439">
        <ele>17.75</ele>
        <time>2019-12-15T09:35:49.000Z</time>
      </trkpt>
      <trkpt lat="47.33546" lon="-1.67443">
        <ele>17.92</ele>
        <time>2019-12-15T09:35:52.000Z</time>
      </trkpt>
      <trkpt lat="47.33566" lon="-1.67448">
        <ele>17.15</ele>
        <time>2019-12-15T09:35:55.000Z</time>
      </trkpt>
      <trkpt lat="47.33586" lon="-1.67454">
        <ele>16.15</ele>
        <time>2019-12-15T09:35:58.000Z</time>
      </trkpt>
      <trkpt lat="47.33606" lon="-1.6746">
        <ele>13.7</ele>
        <time>2019-12-15T09:36:01.000Z</time>
      </trkpt>
      <trkpt lat="47.33628" lon="-1.67466">
        <ele>12.15</ele>
        <time>2019-12-15T09:36:04.000Z</time>
      </trkpt>
      <trkpt lat="47.33652" lon="-1.67471">
        <ele>9.88</ele>
        <time>2019-12-15T09:36:07.000Z</time>
      </trkpt>
      <trkpt lat="47.33675" lon="-1.67477">
        <ele>8.74</ele>
        <time>2019-12-15T09:36:10.000Z</time>
      </trkpt>
      <trkpt lat="47.33698" lon="-1.67483">
        <ele>8.18</ele>
        <time>2019-12-15T09:36:13.000Z</time>
      </trkpt>
      <trkpt lat="47.33721" lon="-1.67487">
        <ele>7.16</ele>
        <time>2019-12-15T09:36:16.000Z</time>
      </trkpt>
      <trkpt lat="47.33745" lon="-1.67492">
        <ele>7.01</ele>
        <time>2019-12-15T09:36:19.000Z</time>
      </trkpt>
      <trkpt lat="47.33767" lon="-1.67499">
        <ele>6.56</ele>
        <time>2019-12-15T09:36:22.000Z</time>
      </trkpt>
      <trkpt lat="47.33789" lon="-1.67505">
        <ele>6.58</ele>
        <time>2019-12-15T09:36:25.000Z</time>
      </trkpt>
      <trkpt lat="47.3381" lon="-1.67511">
        <ele>6.08</ele>
        <time>2019-12-15T09:36:28.000Z</time>
      </trkpt>
      <trkpt lat="47.33831" lon="-1.67516">
        <ele>6.14</ele>
        <time>2019-12-15T09:36:31.000Z</time>
      </trkpt>
      <trkpt lat="47.3385" lon="-1.67521">
        <ele>6.98</ele>
        <time>2019-12-15T09:36:34.000Z</time>
      </trkpt>
      <trkpt lat="47.33869" lon="-1.67525">
        <ele>8.56</ele>
        <time>2019-12-15T09:36:37.000Z</time>
      </trkpt>
      <trkpt lat="47.33892" lon="-1.67531">
        <ele>10.12</ele>
        <time>2019-12-15T09:36:41.000Z</time>
      </trkpt>
      <trkpt lat="47.33914" lon="-1.67536">
        <ele>10.63</ele>
        <time>2019-12-15T09:36:45.000Z</time>
      </trkpt>
      <trkpt lat="47.33936" lon="-1.67542">
        <ele>11.23</ele>
        <time>2019-12-15T09:36:49.000Z</time>
      </trkpt>
      <trkpt lat="47.33958" lon="-1.67546">
        <ele>12.48</ele>
        <time>2019-12-15T09:36:53.000Z</time>
      </trkpt>
      <trkpt lat="47.33979" lon="-1.6755">
        <ele>13.54</ele>
        <time>2019-12-15T09:36:57.000Z</time>
      </trkpt>
      <trkpt lat="47.34" lon="-1.67555">
        <ele>14.31</ele>
        <time>2019-12-15T09:37:01.000Z</time>
      </trkpt>
      <trkpt lat="47.3402" lon="-1.67561">
        <ele>15.27</ele>
        <time>2019-12-15T09:37:05.000Z</time>
      </trkpt>
      <trkpt lat="47.34041" lon="-1.67567">
        <ele>16.17</ele>
        <time>2019-12-15T09:37:09.000Z</time>
      </trkpt>
      <trkpt lat="47.34064" lon="-1.67572">
        <ele>16.35</ele>
        <time>2019-12-15T09:37:13.000Z</time>
      </trkpt>
      <trkpt lat="47.34087" lon="-1.67577">
        <ele>15.95</ele>
        <time>2019-12-15T09:37:17.000Z</time>
      </trkpt>
      <trkpt lat="47.34105" lon="-1.67581">
        <ele>15.97</ele>
        <time>2019-12-15T09:37:20.000Z</time>
      </trkpt>
      <trkpt lat="47.34124" lon="-1.67585">
        <ele>15.94</ele>
        <time>2019-12-15T09:37:23.000Z</time>
      </trkpt>
      <trkpt lat="47.34143" lon="-1.67591">
        <ele>15.96</ele>
        <time>2019-12-15T09:37:26.000Z</time>
      </trkpt>
      <trkpt lat="47.34161" lon="-1.67596">
        <ele>15.91</ele>
        <time>2019-12-15T09:37:29.000Z</time>
      </trkpt>
      <trkpt lat="47.34181" lon="-1.67602">
        <ele>16.3</ele>
        <time>2019-12-15T09:37:32.000Z</time>
      </trkpt>
      <trkpt lat="47.34201" lon="-1.67607">
        <ele>16.26</ele>
        <time>2019-12-15T09:37:35.000Z</time>
      </trkpt>
      <trkpt lat="47.34222" lon="-1.67612">
        <ele>16.21</ele>
        <time>2019-12-15T09:37:38.000Z</time>
      </trkpt>
      <trkpt lat="47.34244" lon="-1.67616">
        <ele>16.2</ele>
        <time>2019-12-15T09:37:41.000Z</time>
      </trkpt>
      <trkpt lat="47.34265" lon="-1.67622">
        <ele>16.07</ele>
        <time>2019-12-15T09:37:44.000Z</time>
      </trkpt>
      <trkpt lat="47.34285" lon="-1.67629">
        <ele>15.99</ele>
        <time>2019-12-15T09:37:47.000Z</time>
      </trkpt>
      <trkpt lat="47.34306" lon="-1.67633">
        <ele>15.68</ele>
        <time>2019-12-15T09:37:50.000Z</time>
      </trkpt>
      <trkpt lat="47.34328" lon="-1.67639">
        <ele>14.84</ele>
        <time>2019-12-15T09:37:53.000Z</time>
      </trkpt>
      <trkpt lat="47.3435" lon="-1.67644">
        <ele>13.82</ele>
        <time>2019-12-15T09:37:56.000Z</time>
      </trkpt>
      <trkpt lat="47.34372" lon="-1.6765">
        <ele>12.28</ele>
        <time>2019-12-15T09:37:59.000Z</time>
      </trkpt>
      <trkpt lat="47.34394" lon="-1.67655">
        <ele>10.85</ele>
        <time>2019-12-15T09:38:02.000Z</time>
      </trkpt>
      <trkpt lat="47.34416" lon="-1.67661">
        <ele>9.97</ele>
        <time>2019-12-15T09:38:05.000Z</time>
      </trkpt>
      <trkpt lat="47.34437" lon="-1.67665">
        <ele>9.86</ele>
        <time>2019-12-15T09:38:08.000Z</time>
      </trkpt>
      <trkpt lat="47.34457" lon="-1.67671">
        <ele>10.27</ele>
        <time>2019-12-15T09:38:11.000Z</time>
      </trkpt>
      <trkpt lat="47.34476" lon="-1.67676">
        <ele>10.52</ele>
        <time>2019-12-15T09:38:14.000Z</time>
      </trkpt>
      <trkpt lat="47.34495" lon="-1.67681">
        <ele>10.92</ele>
        <time>2019-12-15T09:38:17.000Z</time>
      </trkpt>
      <trkpt lat="47.34514" lon="-1.67687">
        <ele>11.39</ele>
        <time>2019-12-15T09:38:20.000Z</time>
      </trkpt>
      <trkpt lat="47.34536" lon="-1.67692">
        <ele>12.29</ele>
        <time>2019-12-15T09:38:24.000Z</time>
      </trkpt>
      <trkpt lat="47.34559" lon="-1.67697">
        <ele>13.39</ele>
        <time>2019-12-15T09:38:28.000Z</time>
      </trkpt>
      <trkpt lat="47.34581" lon="-1.67703">
        <ele>13.5</ele>
        <time>2019-12-15T09:38:32.000Z</time>
      </trkpt>
      <trkpt lat="47.34604" lon="-1.67709">
        <ele>14.49</ele>
        <time>2019-12-15T09:38:36.000Z</time>
      </trkpt>
      <trkpt lat="47.34626" lon="-1.67715">
        <ele>15.25</ele>
        <time>2019-12-15T09:38:40.000Z</time>
      </trkpt>
      <trkpt lat="47.34644" lon="-1.67719">
        <ele>15.62</ele>
        <time>2019-12-15T09:38:43.000Z</time>
      </trkpt>
      <trkpt lat="47.34662" lon="-1.67723">
        <ele>15.41</ele>
        <time>2019-12-15T09:38:46.000Z</time>
      </trkpt>
      <trkpt lat="47.34685" lon="-1.67728">
        <ele>16.68</ele>
        <time>2019-12-15T09:38:50.000Z</time>
      </trkpt>
      <trkpt lat="47.34709" lon="-1.67733">
        <ele>18.23</ele>
        <time>2019-12-15T09:38:54.000Z</time>
      </trkpt>
      <trkpt lat="47.34727" lon="-1.67738">
        <ele>18.77</ele>
        <time>2019-12-15T09:38:57.000Z</time>
      </trkpt>
      <trkpt lat="47.34745" lon="-1.67743">
        <ele>18.44</ele>
        <time>2019-12-15T09:39:00.000Z</time>
      </trkpt>
      <trkpt lat="47.34763" lon="-1.67748">
        <ele>18.35</ele>
        <time>2019-12-15T09:39:03.000Z</time>
      </trkpt>
      <trkpt lat="47.3478" lon="-1.67753">
        <ele>17.73</ele>
        <time>2019-12-15T09:39:06.000Z</time>
      </trkpt>
      <trkpt lat="47.34798" lon="-1.67757">
        <ele>17.1</ele>
        <time>2019-12-15T09:39:09.000Z</time>
      </trkpt>
      <trkpt lat="47.34816" lon="-1.67762">
        <ele>16.78</ele>
        <time>2019-12-15T09:39:12.000Z</time>
      </trkpt>
      <trkpt lat="47.34834" lon="-1.67767">
        <ele>16.94</ele>
        <time>2019-12-15T09:39:15.000Z</time>
      </trkpt>
      <trkpt lat="47.34857" lon="-1.67773">
        <ele>16.96</ele>
        <time>2019-12-15T09:39:19.000Z</time>
      </trkpt>
      <trkpt lat="47.34879" lon="-1.67779">
        <ele>17.67</ele>
        <time>2019-12-15T09:39:23.000Z</time>
      </trkpt>
      <trkpt lat="47.34889" lon="-1.67803">
        <ele>18.9</ele>
        <time>2019-12-15T09:39:27.000Z</time>
      </trkpt>
      <trkpt lat="47.34888" lon="-1.67838">
        <ele>18.57</ele>
        <time>2019-12-15T09:39:31.000Z</time>
      </trkpt>
      <trkpt lat="47.34884" lon="-1.67864">
        <ele>17.98</ele>
        <time>2019-12-15T09:39:34.000Z</time>
      </trkpt>
      <trkpt lat="47.34881" lon="-1.67892">
        <ele>17.1</ele>
        <time>2019-12-15T09:39:37.000Z</time>
      </trkpt>
      <trkpt lat="47.34878" lon="-1.67927">
        <ele>16.65</ele>
        <time>2019-12-15T09:39:41.000Z</time>
      </trkpt>
      <trkpt lat="47.34875" lon="-1.67954">
        <ele>16.51</ele>
        <time>2019-12-15T09:39:44.000Z</time>
      </trkpt>
      <trkpt lat="47.34873" lon="-1.67981">
        <ele>16.69</ele>
        <time>2019-12-15T09:39:47.000Z</time>
      </trkpt>
      <trkpt lat="47.3487" lon="-1.68015">
        <ele>17.36</ele>
        <time>2019-12-15T09:39:51.000Z</time>
      </trkpt>
      <trkpt lat="47.34868" lon="-1.68041">
        <ele>18.21</ele>
        <time>2019-12-15T09:39:54.000Z</time>
      </trkpt>
      <trkpt lat="47.34866" lon="-1.68069">
        <ele>18.36</ele>
        <time>2019-12-15T09:39:57.000Z</time>
      </trkpt>
      <trkpt lat="47.34863" lon="-1.68103">
        <ele>19.28</ele>
        <time>2019-12-15T09:40:01.000Z</time>
      </trkpt>
      <trkpt lat="47.34863" lon="-1.68138">
        <ele>19.27</ele>
        <time>2019-12-15T09:40:05.000Z</time>
      </trkpt>
      <trkpt lat="47.34861" lon="-1.68166">
        <ele>19.63</ele>
        <time>2019-12-15T09:40:08.000Z</time>
      </trkpt>
      <trkpt lat="47.34859" lon="-1.68194">
        <ele>19.91</ele>
        <time>2019-12-15T09:40:11.000Z</time>
      </trkpt>
      <trkpt lat="47.34857" lon="-1.68221">
        <ele>18.96</ele>
        <time>2019-12-15T09:40:14.000Z</time>
      </trkpt>
      <trkpt lat="47.34855" lon="-1.6825">
        <ele>18.42</ele>
        <time>2019-12-15T09:40:17.000Z</time>
      </trkpt>
      <trkpt lat="47.34853" lon="-1.68278">
        <ele>17.8</ele>
        <time>2019-12-15T09:40:20.000Z</time>
      </trkpt>
      <trkpt lat="47.3485" lon="-1.68307">
        <ele>17.25</ele>
        <time>2019-12-15T09:40:23.000Z</time>
      </trkpt>
      <trkpt lat="47.34847" lon="-1.68336">
        <ele>17.43</ele>
        <time>2019-12-15T09:40:26.000Z</time>
      </trkpt>
      <trkpt lat="47.34844" lon="-1.68365">
        <ele>18.66</ele>
        <time>2019-12-15T09:40:29.000Z</time>
      </trkpt>
      <trkpt lat="47.34842" lon="-1.68394">
        <ele>18.38</ele>
        <time>2019-12-15T09:40:32.000Z</time>
      </trkpt>
      <trkpt lat="47.34839" lon="-1.68424">
        <ele>17.41</ele>
        <time>2019-12-15T09:40:35.000Z</time>
      </trkpt>
      <trkpt lat="47.34836" lon="-1.68453">
        <ele>17.72</ele>
        <time>2019-12-15T09:40:38.000Z</time>
      </trkpt>
      <trkpt lat="47.34833" lon="-1.68483">
        <ele>16.99</ele>
        <time>2019-12-15T09:40:41.000Z</time>
      </trkpt>
      <trkpt lat="47.34831" lon="-1.68514">
        <ele>17.77</ele>
        <time>2019-12-15T09:40:44.000Z</time>
      </trkpt>
      <trkpt lat="47.34829" lon="-1.68544">
        <ele>18.22</ele>
        <time>2019-12-15T09:40:47.000Z</time>
      </trkpt>
      <trkpt lat="47.34826" lon="-1.68574">
        <ele>17.08</ele>
        <time>2019-12-15T09:40:50.000Z</time>
      </trkpt>
      <trkpt lat="47.34823" lon="-1.68604">
        <ele>16.42</ele>
        <time>2019-12-15T09:40:53.000Z</time>
      </trkpt>
      <trkpt lat="47.34821" lon="-1.68636">
        <ele>16.01</ele>
        <time>2019-12-15T09:40:56.000Z</time>
      </trkpt>
      <trkpt lat="47.34819" lon="-1.68667">
        <ele>15.12</ele>
        <time>2019-12-15T09:40:59.000Z</time>
      </trkpt>
      <trkpt lat="47.34816" lon="-1.68698">
        <ele>14.31</ele>
        <time>2019-12-15T09:41:02.000Z</time>
      </trkpt>
      <trkpt lat="47.34814" lon="-1.68728">
        <ele>13.83</ele>
        <time>2019-12-15T09:41:05.000Z</time>
      </trkpt>
      <trkpt lat="47.34812" lon="-1.68756">
        <ele>13.95</ele>
        <time>2019-12-15T09:41:08.000Z</time>
      </trkpt>
      <trkpt lat="47.3481" lon="-1.68784">
        <ele>14.34</ele>
        <time>2019-12-15T09:41:11.000Z</time>
      </trkpt>
      <trkpt lat="47.34809" lon="-1.68812">
        <ele>15.49</ele>
        <time>2019-12-15T09:41:14.000Z</time>
      </trkpt>
      <trkpt lat="47.34807" lon="-1.68842">
        <ele>15.87</ele>
        <time>2019-12-15T09:41:17.000Z</time>
      </trkpt>
      <trkpt lat="47.34805" lon="-1.68871">
        <ele>16.03</ele>
        <time>2019-12-15T09:41:20.000Z</time>
      </trkpt>
      <trkpt lat="47.34803" lon="-1.689">
        <ele>16.22</ele>
        <time>2019-12-15T09:41:23.000Z</time>
      </trkpt>
      <trkpt lat="47.348" lon="-1.6893">
        <ele>17.06</ele>
        <time>2019-12-15T09:41:26.000Z</time>
      </trkpt>
      <trkpt lat="47.34797" lon="-1.68958">
        <ele>17.73</ele>
        <time>2019-12-15T09:41:29.000Z</time>
      </trkpt>
      <trkpt lat="47.34795" lon="-1.68985">
        <ele>18.4</ele>
        <time>2019-12-15T09:41:32.000Z</time>
      </trkpt>
      <trkpt lat="47.34793" lon="-1.69012">
        <ele>19.4</ele>
        <time>2019-12-15T09:41:35.000Z</time>
      </trkpt>
      <trkpt lat="47.34791" lon="-1.6904">
        <ele>19.66</ele>
        <time>2019-12-15T09:41:38.000Z</time>
      </trkpt>
      <trkpt lat="47.3479" lon="-1.69068">
        <ele>20.13</ele>
        <time>2019-12-15T09:41:41.000Z</time>
      </trkpt>
      <trkpt lat="47.34787" lon="-1.69098">
        <ele>20.15</ele>
        <time>2019-12-15T09:41:44.000Z</time>
      </trkpt>
      <trkpt lat="47.34784" lon="-1.69128">
        <ele>20.42</ele>
        <time>2019-12-15T09:41:47.000Z</time>
      </trkpt>
      <trkpt lat="47.34782" lon="-1.69157">
        <ele>20.43</ele>
        <time>2019-12-15T09:41:50.000Z</time>
      </trkpt>
      <trkpt lat="47.34779" lon="-1.69186">
        <ele>20.73</ele>
        <time>2019-12-15T09:41:53.000Z</time>
      </trkpt>
      <trkpt lat="47.34775" lon="-1.69216">
        <ele>20.63</ele>
        <time>2019-12-15T09:41:56.000Z</time>
      </trkpt>
      <trkpt lat="47.34772" lon="-1.69244">
        <ele>20.12</ele>
        <time>2019-12-15T09:41:59.000Z</time>
      </trkpt>
      <trkpt lat="47.34768" lon="-1.69272">
        <ele>18.84</ele>
        <time>2019-12-15T09:42:02.000Z</time>
      </trkpt>
      <trkpt lat="47.34762" lon="-1.69299">
        <ele>17.38</ele>
        <time>2019-12-15T09:42:05.000Z</time>
      </trkpt>
      <trkpt lat="47.34756" lon="-1.69327">
        <ele>17.04</ele>
        <time>2019-12-15T09:42:08.000Z</time>
      </trkpt>
      <trkpt lat="47.34749" lon="-1.69353">
        <ele>16.76</ele>
        <time>2019-12-15T09:42:11.000Z</time>
      </trkpt>
      <trkpt lat="47.34741" lon="-1.6938">
        <ele>16.51</ele>
        <time>2019-12-15T09:42:14.000Z</time>
      </trkpt>
      <trkpt lat="47.34733" lon="-1.69407">
        <ele>16.12</ele>
        <time>2019-12-15T09:42:17.000Z</time>
      </trkpt>
      <trkpt lat="47.34726" lon="-1.69433">
        <ele>16.25</ele>
        <time>2019-12-15T09:42:20.000Z</time>
      </trkpt>
      <trkpt lat="47.34719" lon="-1.69458">
        <ele>16.32</ele>
        <time>2019-12-15T09:42:23.000Z</time>
      </trkpt>
      <trkpt lat="47.34711" lon="-1.69483">
        <ele>17.13</ele>
        <time>2019-12-15T09:42:26.000Z</time>
      </trkpt>
      <trkpt lat="47.34702" lon="-1.69515">
        <ele>17.76</ele>
        <time>2019-12-15T09:42:30.000Z</time>
      </trkpt>
      <trkpt lat="47.34694" lon="-1.69547">
        <ele>19.31</ele>
        <time>2019-12-15T09:42:34.000Z</time>
      </trkpt>
      <trkpt lat="47.34687" lon="-1.69577">
        <ele>20.42</ele>
        <time>2019-12-15T09:42:38.000Z</time>
      </trkpt>
      <trkpt lat="47.34678" lon="-1.69607">
        <ele>20.05</ele>
        <time>2019-12-15T09:42:42.000Z</time>
      </trkpt>
      <trkpt lat="47.34676" lon="-1.69634">
        <ele>18.37</ele>
        <time>2019-12-15T09:42:46.000Z</time>
      </trkpt>
      <trkpt lat="47.34659" lon="-1.6965">
        <ele>18.13</ele>
        <time>2019-12-15T09:42:52.000Z</time>
      </trkpt>
      <trkpt lat="47.34671" lon="-1.69625">
        <ele>21.71</ele>
        <time>2019-12-15T09:43:07.000Z</time>
      </trkpt>
      <trkpt lat="47.34678" lon="-1.69599">
        <ele>20.17</ele>
        <time>2019-12-15T09:43:12.000Z</time>
      </trkpt>
      <trkpt lat="47.34675" lon="-1.69628">
        <ele>21</ele>
        <time>2019-12-15T09:43:19.000Z</time>
      </trkpt>
      <trkpt lat="47.34662" lon="-1.69647">
        <ele>20.46</ele>
        <time>2019-12-15T09:43:25.000Z</time>
      </trkpt>
      <trkpt lat="47.34643" lon="-1.69655">
        <ele>19.74</ele>
        <time>2019-12-15T09:43:29.000Z</time>
      </trkpt>
      <trkpt lat="47.34621" lon="-1.69667">
        <ele>19.95</ele>
        <time>2019-12-15T09:43:33.000Z</time>
      </trkpt>
      <trkpt lat="47.34604" lon="-1.69678">
        <ele>20.24</ele>
        <time>2019-12-15T09:43:36.000Z</time>
      </trkpt>
      <trkpt lat="47.34581" lon="-1.6969">
        <ele>20.78</ele>
        <time>2019-12-15T09:43:40.000Z</time>
      </trkpt>
      <trkpt lat="47.34564" lon="-1.69699">
        <ele>20.98</ele>
        <time>2019-12-15T09:43:43.000Z</time>
      </trkpt>
      <trkpt lat="47.34545" lon="-1.69708">
        <ele>20.82</ele>
        <time>2019-12-15T09:43:46.000Z</time>
      </trkpt>
      <trkpt lat="47.34527" lon="-1.69718">
        <ele>20.72</ele>
        <time>2019-12-15T09:43:49.000Z</time>
      </trkpt>
      <trkpt lat="47.3451" lon="-1.69731">
        <ele>19.78</ele>
        <time>2019-12-15T09:43:52.000Z</time>
      </trkpt>
      <trkpt lat="47.34491" lon="-1.69743">
        <ele>18.07</ele>
        <time>2019-12-15T09:43:55.000Z</time>
      </trkpt>
      <trkpt lat="47.34471" lon="-1.69754">
        <ele>16.9</ele>
        <time>2019-12-15T09:43:58.000Z</time>
      </trkpt>
      <trkpt lat="47.34449" lon="-1.69767">
        <ele>16.42</ele>
        <time>2019-12-15T09:44:01.000Z</time>
      </trkpt>
      <trkpt lat="47.34427" lon="-1.69783">
        <ele>16.6</ele>
        <time>2019-12-15T09:44:04.000Z</time>
      </trkpt>
      <trkpt lat="47.34405" lon="-1.69798">
        <ele>16.96</ele>
        <time>2019-12-15T09:44:07.000Z</time>
      </trkpt>
      <trkpt lat="47.34381" lon="-1.69811">
        <ele>16.61</ele>
        <time>2019-12-15T09:44:10.000Z</time>
      </trkpt>
      <trkpt lat="47.34359" lon="-1.69822">
        <ele>15.4</ele>
        <time>2019-12-15T09:44:13.000Z</time>
      </trkpt>
      <trkpt lat="47.34337" lon="-1.69834">
        <ele>14.26</ele>
        <time>2019-12-15T09:44:16.000Z</time>
      </trkpt>
      <trkpt lat="47.34315" lon="-1.69848">
        <ele>12.52</ele>
        <time>2019-12-15T09:44:19.000Z</time>
      </trkpt>
      <trkpt lat="47.34294" lon="-1.69862">
        <ele>11.05</ele>
        <time>2019-12-15T09:44:22.000Z</time>
      </trkpt>
      <trkpt lat="47.34274" lon="-1.69877">
        <ele>9.67</ele>
        <time>2019-12-15T09:44:25.000Z</time>
      </trkpt>
      <trkpt lat="47.34254" lon="-1.69892">
        <ele>8.69</ele>
        <time>2019-12-15T09:44:28.000Z</time>
      </trkpt>
      <trkpt lat="47.34234" lon="-1.69905">
        <ele>8.36</ele>
        <time>2019-12-15T09:44:31.000Z</time>
      </trkpt>
      <trkpt lat="47.34214" lon="-1.69915">
        <ele>7.17</ele>
        <time>2019-12-15T09:44:34.000Z</time>
      </trkpt>
      <trkpt lat="47.34194" lon="-1.69926">
        <ele>5.83</ele>
        <time>2019-12-15T09:44:37.000Z</time>
      </trkpt>
      <trkpt lat="47.34174" lon="-1.69936">
        <ele>4.56</ele>
        <time>2019-12-15T09:44:40.000Z</time>
      </trkpt>
      <trkpt lat="47.34157" lon="-1.69947">
        <ele>4.01</ele>
        <time>2019-12-15T09:44:43.000Z</time>
      </trkpt>
      <trkpt lat="47.34138" lon="-1.6996">
        <ele>2.93</ele>
        <time>2019-12-15T09:44:47.000Z</time>
      </trkpt>
      <trkpt lat="47.34118" lon="-1.69972">
        <ele>1.26</ele>
        <time>2019-12-15T09:44:51.000Z</time>
      </trkpt>
      <trkpt lat="47.341" lon="-1.69983">
        <ele>0.8</ele>
        <time>2019-12-15T09:44:55.000Z</time>
      </trkpt>
      <trkpt lat="47.34082" lon="-1.69994">
        <ele>0.85</ele>
        <time>2019-12-15T09:44:59.000Z</time>
      </trkpt>
      <trkpt lat="47.34064" lon="-1.70005">
        <ele>2.31</ele>
        <time>2019-12-15T09:45:03.000Z</time>
      </trkpt>
      <trkpt lat="47.34048" lon="-1.70016">
        <ele>3.83</ele>
        <time>2019-12-15T09:45:07.000Z</time>
      </trkpt>
      <trkpt lat="47.34027" lon="-1.70028">
        <ele>5.6</ele>
        <time>2019-12-15T09:45:12.000Z</time>
      </trkpt>
      <trkpt lat="47.34009" lon="-1.70037">
        <ele>7.24</ele>
        <time>2019-12-15T09:45:16.000Z</time>
      </trkpt>
      <trkpt lat="47.33992" lon="-1.70047">
        <ele>9.31</ele>
        <time>2019-12-15T09:45:20.000Z</time>
      </trkpt>
      <trkpt lat="47.33975" lon="-1.70058">
        <ele>9.86</ele>
        <time>2019-12-15T09:45:24.000Z</time>
      </trkpt>
      <trkpt lat="47.33957" lon="-1.70067">
        <ele>11.2</ele>
        <time>2019-12-15T09:45:28.000Z</time>
      </trkpt>
      <trkpt lat="47.33939" lon="-1.70076">
        <ele>12.22</ele>
        <time>2019-12-15T09:45:32.000Z</time>
      </trkpt>
      <trkpt lat="47.33921" lon="-1.70085">
        <ele>11.6</ele>
        <time>2019-12-15T09:45:36.000Z</time>
      </trkpt>
      <trkpt lat="47.33903" lon="-1.70093">
        <ele>10.29</ele>
        <time>2019-12-15T09:45:40.000Z</time>
      </trkpt>
      <trkpt lat="47.33882" lon="-1.70096">
        <ele>10.59</ele>
        <time>2019-12-15T09:45:44.000Z</time>
      </trkpt>
      <trkpt lat="47.3386" lon="-1.70094">
        <ele>12.94</ele>
        <time>2019-12-15T09:45:48.000Z</time>
      </trkpt>
      <trkpt lat="47.33837" lon="-1.70089">
        <ele>14.8</ele>
        <time>2019-12-15T09:45:52.000Z</time>
      </trkpt>
      <trkpt lat="47.33815" lon="-1.70079">
        <ele>15.67</ele>
        <time>2019-12-15T09:45:56.000Z</time>
      </trkpt>
      <trkpt lat="47.33797" lon="-1.70068">
        <ele>16.36</ele>
        <time>2019-12-15T09:45:59.000Z</time>
      </trkpt>
      <trkpt lat="47.33777" lon="-1.70053">
        <ele>15.92</ele>
        <time>2019-12-15T09:46:02.000Z</time>
      </trkpt>
      <trkpt lat="47.33758" lon="-1.70037">
        <ele>16</ele>
        <time>2019-12-15T09:46:05.000Z</time>
      </trkpt>
      <trkpt lat="47.3374" lon="-1.70022">
        <ele>16.35</ele>
        <time>2019-12-15T09:46:08.000Z</time>
      </trkpt>
      <trkpt lat="47.3372" lon="-1.70006">
        <ele>16.7</ele>
        <time>2019-12-15T09:46:11.000Z</time>
      </trkpt>
      <trkpt lat="47.33701" lon="-1.6999">
        <ele>17.05</ele>
        <time>2019-12-15T09:46:14.000Z</time>
      </trkpt>
      <trkpt lat="47.33682" lon="-1.69972">
        <ele>17.43</ele>
        <time>2019-12-15T09:46:17.000Z</time>
      </trkpt>
      <trkpt lat="47.33665" lon="-1.69955">
        <ele>15.94</ele>
        <time>2019-12-15T09:46:20.000Z</time>
      </trkpt>
      <trkpt lat="47.33647" lon="-1.6994">
        <ele>14.92</ele>
        <time>2019-12-15T09:46:23.000Z</time>
      </trkpt>
      <trkpt lat="47.3363" lon="-1.69927">
        <ele>12.51</ele>
        <time>2019-12-15T09:46:26.000Z</time>
      </trkpt>
      <trkpt lat="47.33612" lon="-1.69916">
        <ele>12.52</ele>
        <time>2019-12-15T09:46:29.000Z</time>
      </trkpt>
      <trkpt lat="47.33595" lon="-1.69903">
        <ele>12</ele>
        <time>2019-12-15T09:46:32.000Z</time>
      </trkpt>
      <trkpt lat="47.3358" lon="-1.69884">
        <ele>12.79</ele>
        <time>2019-12-15T09:46:35.000Z</time>
      </trkpt>
      <trkpt lat="47.33565" lon="-1.69865">
        <ele>14.38</ele>
        <time>2019-12-15T09:46:38.000Z</time>
      </trkpt>
      <trkpt lat="47.33547" lon="-1.6985">
        <ele>15.23</ele>
        <time>2019-12-15T09:46:41.000Z</time>
      </trkpt>
      <trkpt lat="47.3353" lon="-1.69835">
        <ele>16.12</ele>
        <time>2019-12-15T09:46:44.000Z</time>
      </trkpt>
      <trkpt lat="47.33512" lon="-1.6982">
        <ele>14.6</ele>
        <time>2019-12-15T09:46:47.000Z</time>
      </trkpt>
      <trkpt lat="47.33496" lon="-1.69803">
        <ele>13.04</ele>
        <time>2019-12-15T09:46:50.000Z</time>
      </trkpt>
      <trkpt lat="47.33481" lon="-1.69784">
        <ele>11.19</ele>
        <time>2019-12-15T09:46:53.000Z</time>
      </trkpt>
      <trkpt lat="47.33468" lon="-1.69765">
        <ele>9.48</ele>
        <time>2019-12-15T09:46:56.000Z</time>
      </trkpt>
      <trkpt lat="47.33455" lon="-1.69747">
        <ele>10.47</ele>
        <time>2019-12-15T09:46:59.000Z</time>
      </trkpt>
      <trkpt lat="47.33441" lon="-1.69727">
        <ele>12.27</ele>
        <time>2019-12-15T09:47:02.000Z</time>
      </trkpt>
      <trkpt lat="47.33425" lon="-1.6971">
        <ele>15.22</ele>
        <time>2019-12-15T09:47:05.000Z</time>
      </trkpt>
      <trkpt lat="47.33408" lon="-1.69689">
        <ele>17.49</ele>
        <time>2019-12-15T09:47:09.000Z</time>
      </trkpt>
      <trkpt lat="47.33393" lon="-1.69671">
        <ele>16.4</ele>
        <time>2019-12-15T09:47:13.000Z</time>
      </trkpt>
      <trkpt lat="47.33375" lon="-1.69669">
        <ele>14.51</ele>
        <time>2019-12-15T09:47:18.000Z</time>
      </trkpt>
      <trkpt lat="47.3337" lon="-1.69699">
        <ele>15.17</ele>
        <time>2019-12-15T09:47:22.000Z</time>
      </trkpt>
      <trkpt lat="47.33368" lon="-1.69727">
        <ele>15.8</ele>
        <time>2019-12-15T09:47:25.000Z</time>
      </trkpt>
      <trkpt lat="47.33364" lon="-1.69756">
        <ele>15.55</ele>
        <time>2019-12-15T09:47:28.000Z</time>
      </trkpt>
      <trkpt lat="47.3336" lon="-1.69785">
        <ele>14.97</ele>
        <time>2019-12-15T09:47:31.000Z</time>
      </trkpt>
      <trkpt lat="47.33356" lon="-1.69816">
        <ele>13.95</ele>
        <time>2019-12-15T09:47:34.000Z</time>
      </trkpt>
      <trkpt lat="47.33351" lon="-1.69849">
        <ele>11.11</ele>
        <time>2019-12-15T09:47:37.000Z</time>
      </trkpt>
      <trkpt lat="47.33348" lon="-1.69882">
        <ele>8.37</ele>
        <time>2019-12-15T09:47:40.000Z</time>
      </trkpt>
      <trkpt lat="47.33343" lon="-1.69916">
        <ele>5.61</ele>
        <time>2019-12-15T09:47:43.000Z</time>
      </trkpt>
      <trkpt lat="47.3334" lon="-1.69948">
        <ele>3.19</ele>
        <time>2019-12-15T09:47:46.000Z</time>
      </trkpt>
      <trkpt lat="47.33335" lon="-1.6998">
        <ele>2.77</ele>
        <time>2019-12-15T09:47:49.000Z</time>
      </trkpt>
      <trkpt lat="47.33331" lon="-1.70009">
        <ele>3.15</ele>
        <time>2019-12-15T09:47:52.000Z</time>
      </trkpt>
      <trkpt lat="47.33328" lon="-1.70038">
        <ele>3.38</ele>
        <time>2019-12-15T09:47:55.000Z</time>
      </trkpt>
      <trkpt lat="47.33325" lon="-1.70069">
        <ele>2.49</ele>
        <time>2019-12-15T09:47:58.000Z</time>
      </trkpt>
      <trkpt lat="47.33322" lon="-1.70102">
        <ele>1.59</ele>
        <time>2019-12-15T09:48:01.000Z</time>
      </trkpt>
      <trkpt lat="47.33318" lon="-1.70132">
        <ele>0.79</ele>
        <time>2019-12-15T09:48:04.000Z</time>
      </trkpt>
      <trkpt lat="47.33315" lon="-1.7016">
        <ele>1.32</ele>
        <time>2019-12-15T09:48:07.000Z</time>
      </trkpt>
      <trkpt lat="47.33313" lon="-1.70187">
        <ele>2.23</ele>
        <time>2019-12-15T09:48:10.000Z</time>
      </trkpt>
      <trkpt lat="47.33309" lon="-1.70222">
        <ele>2.32</ele>
        <time>2019-12-15T09:48:14.000Z</time>
      </trkpt>
      <trkpt lat="47.33305" lon="-1.70254">
        <ele>4.57</ele>
        <time>2019-12-15T09:48:18.000Z</time>
      </trkpt>
      <trkpt lat="47.33301" lon="-1.70286">
        <ele>6.61</ele>
        <time>2019-12-15T09:48:22.000Z</time>
      </trkpt>
      <trkpt lat="47.33298" lon="-1.70317">
        <ele>6.98</ele>
        <time>2019-12-15T09:48:26.000Z</time>
      </trkpt>
      <trkpt lat="47.33294" lon="-1.70349">
        <ele>8.4</ele>
        <time>2019-12-15T09:48:30.000Z</time>
      </trkpt>
      <trkpt lat="47.3329" lon="-1.70381">
        <ele>8.67</ele>
        <time>2019-12-15T09:48:34.000Z</time>
      </trkpt>
      <trkpt lat="47.33286" lon="-1.70412">
        <ele>8.87</ele>
        <time>2019-12-15T09:48:38.000Z</time>
      </trkpt>
      <trkpt lat="47.33282" lon="-1.70445">
        <ele>8.71</ele>
        <time>2019-12-15T09:48:42.000Z</time>
      </trkpt>
      <trkpt lat="47.33278" lon="-1.70479">
        <ele>7.64</ele>
        <time>2019-12-15T09:48:46.000Z</time>
      </trkpt>
      <trkpt lat="47.33273" lon="-1.70514">
        <ele>6.16</ele>
        <time>2019-12-15T09:48:50.000Z</time>
      </trkpt>
      <trkpt lat="47.3327" lon="-1.70542">
        <ele>5.51</ele>
        <time>2019-12-15T09:48:53.000Z</time>
      </trkpt>
      <trkpt lat="47.33268" lon="-1.70572">
        <ele>5.59</ele>
        <time>2019-12-15T09:48:56.000Z</time>
      </trkpt>
      <trkpt lat="47.33264" lon="-1.70601">
        <ele>4.74</ele>
        <time>2019-12-15T09:48:59.000Z</time>
      </trkpt>
      <trkpt lat="47.33259" lon="-1.70631">
        <ele>4.29</ele>
        <time>2019-12-15T09:49:02.000Z</time>
      </trkpt>
      <trkpt lat="47.33251" lon="-1.70661">
        <ele>3.46</ele>
        <time>2019-12-15T09:49:05.000Z</time>
      </trkpt>
      <trkpt lat="47.33239" lon="-1.7069">
        <ele>4.18</ele>
        <time>2019-12-15T09:49:08.000Z</time>
      </trkpt>
      <trkpt lat="47.3322" lon="-1.70715">
        <ele>2.42</ele>
        <time>2019-12-15T09:49:11.000Z</time>
      </trkpt>
      <trkpt lat="47.33199" lon="-1.70739">
        <ele>0.66</ele>
        <time>2019-12-15T09:49:14.000Z</time>
      </trkpt>
      <trkpt lat="47.33183" lon="-1.70757">
        <ele>-0.61</ele>
        <time>2019-12-15T09:49:16.000Z</time>
      </trkpt>
      <trkpt lat="47.33161" lon="-1.7078">
        <ele>-0.57</ele>
        <time>2019-12-15T09:49:19.000Z</time>
      </trkpt>
      <trkpt lat="47.33145" lon="-1.70797">
        <ele>-1.44</ele>
        <time>2019-12-15T09:49:21.000Z</time>
      </trkpt>
      <trkpt lat="47.33129" lon="-1.70814">
        <ele>-3.84</ele>
        <time>2019-12-15T09:49:23.000Z</time>
      </trkpt>
      <trkpt lat="47.33114" lon="-1.7083">
        <ele>-4.36</ele>
        <time>2019-12-15T09:49:25.000Z</time>
      </trkpt>
      <trkpt lat="47.331" lon="-1.70848">
        <ele>-5.89</ele>
        <time>2019-12-15T09:49:27.000Z</time>
      </trkpt>
      <trkpt lat="47.33089" lon="-1.70871">
        <ele>-7.4</ele>
        <time>2019-12-15T09:49:29.000Z</time>
      </trkpt>
      <trkpt lat="47.33078" lon="-1.70906">
        <ele>-7.98</ele>
        <time>2019-12-15T09:49:32.000Z</time>
      </trkpt>
      <trkpt lat="47.33074" lon="-1.70939">
        <ele>-9.96</ele>
        <time>2019-12-15T09:49:35.000Z</time>
      </trkpt>
      <trkpt lat="47.33075" lon="-1.70971">
        <ele>-10.91</ele>
        <time>2019-12-15T09:49:38.000Z</time>
      </trkpt>
      <trkpt lat="47.33075" lon="-1.71001">
        <ele>-11.16</ele>
        <time>2019-12-15T09:49:41.000Z</time>
      </trkpt>
      <trkpt lat="47.33074" lon="-1.71034">
        <ele>-10.55</ele>
        <time>2019-12-15T09:49:45.000Z</time>
      </trkpt>
      <trkpt lat="47.33073" lon="-1.71063">
        <ele>-11.08</ele>
        <time>2019-12-15T09:49:49.000Z</time>
      </trkpt>
      <trkpt lat="47.33072" lon="-1.71091">
        <ele>-10.15</ele>
        <time>2019-12-15T09:49:53.000Z</time>
      </trkpt>
      <trkpt lat="47.3307" lon="-1.71118">
        <ele>-9.67</ele>
        <time>2019-12-15T09:49:57.000Z</time>
      </trkpt>
      <trkpt lat="47.3307" lon="-1.7115">
        <ele>-8.59</ele>
        <time>2019-12-15T09:50:02.000Z</time>
      </trkpt>
      <trkpt lat="47.33072" lon="-1.7118">
        <ele>-5.05</ele>
        <time>2019-12-15T09:50:07.000Z</time>
      </trkpt>
      <trkpt lat="47.33072" lon="-1.71211">
        <ele>-0.83</ele>
        <time>2019-12-15T09:50:12.000Z</time>
      </trkpt>
      <trkpt lat="47.33072" lon="-1.71244">
        <ele>2.15</ele>
        <time>2019-12-15T09:50:17.000Z</time>
      </trkpt>
      <trkpt lat="47.3307" lon="-1.71276">
        <ele>3.74</ele>
        <time>2019-12-15T09:50:22.000Z</time>
      </trkpt>
      <trkpt lat="47.33065" lon="-1.71302">
        <ele>5.55</ele>
        <time>2019-12-15T09:50:26.000Z</time>
      </trkpt>
      <trkpt lat="47.33056" lon="-1.71332">
        <ele>7.52</ele>
        <time>2019-12-15T09:50:31.000Z</time>
      </trkpt>
      <trkpt lat="47.33048" lon="-1.71358">
        <ele>7.33</ele>
        <time>2019-12-15T09:50:35.000Z</time>
      </trkpt>
      <trkpt lat="47.33038" lon="-1.71386">
        <ele>8.99</ele>
        <time>2019-12-15T09:50:39.000Z</time>
      </trkpt>
      <trkpt lat="47.33029" lon="-1.71415">
        <ele>8.8</ele>
        <time>2019-12-15T09:50:43.000Z</time>
      </trkpt>
      <trkpt lat="47.33018" lon="-1.71444">
        <ele>7.9</ele>
        <time>2019-12-15T09:50:47.000Z</time>
      </trkpt>
      <trkpt lat="47.33009" lon="-1.71475">
        <ele>5.87</ele>
        <time>2019-12-15T09:50:51.000Z</time>
      </trkpt>
      <trkpt lat="47.33001" lon="-1.71502">
        <ele>5.4</ele>
        <time>2019-12-15T09:50:55.000Z</time>
      </trkpt>
      <trkpt lat="47.33007" lon="-1.71532">
        <ele>2.54</ele>
        <time>2019-12-15T09:50:59.000Z</time>
      </trkpt>
      <trkpt lat="47.33027" lon="-1.71549">
        <ele>1.92</ele>
        <time>2019-12-15T09:51:03.000Z</time>
      </trkpt>
      <trkpt lat="47.33046" lon="-1.71566">
        <ele>3.34</ele>
        <time>2019-12-15T09:51:07.000Z</time>
      </trkpt>
      <trkpt lat="47.33061" lon="-1.71582">
        <ele>4.41</ele>
        <time>2019-12-15T09:51:11.000Z</time>
      </trkpt>
      <trkpt lat="47.33078" lon="-1.71593">
        <ele>5.6</ele>
        <time>2019-12-15T09:51:15.000Z</time>
      </trkpt>
      <trkpt lat="47.33097" lon="-1.71599">
        <ele>5.83</ele>
        <time>2019-12-15T09:51:19.000Z</time>
      </trkpt>
      <trkpt lat="47.33115" lon="-1.71606">
        <ele>5.13</ele>
        <time>2019-12-15T09:51:23.000Z</time>
      </trkpt>
      <trkpt lat="47.33133" lon="-1.7161">
        <ele>6.18</ele>
        <time>2019-12-15T09:51:27.000Z</time>
      </trkpt>
      <trkpt lat="47.33151" lon="-1.71615">
        <ele>7.89</ele>
        <time>2019-12-15T09:51:31.000Z</time>
      </trkpt>
      <trkpt lat="47.33171" lon="-1.71619">
        <ele>8.07</ele>
        <time>2019-12-15T09:51:35.000Z</time>
      </trkpt>
      <trkpt lat="47.33192" lon="-1.71624">
        <ele>7.22</ele>
        <time>2019-12-15T09:51:39.000Z</time>
      </trkpt>
      <trkpt lat="47.33211" lon="-1.71629">
        <ele>6.78</ele>
        <time>2019-12-15T09:51:43.000Z</time>
      </trkpt>
      <trkpt lat="47.33232" lon="-1.71632">
        <ele>6.87</ele>
        <time>2019-12-15T09:51:47.000Z</time>
      </trkpt>
      <trkpt lat="47.33253" lon="-1.71635">
        <ele>7.18</ele>
        <time>2019-12-15T09:51:51.000Z</time>
      </trkpt>
      <trkpt lat="47.33275" lon="-1.71639">
        <ele>8.09</ele>
        <time>2019-12-15T09:51:55.000Z</time>
      </trkpt>
      <trkpt lat="47.33294" lon="-1.71655">
        <ele>9.16</ele>
        <time>2019-12-15T09:51:59.000Z</time>
      </trkpt>
      <trkpt lat="47.3331" lon="-1.71676">
        <ele>10.42</ele>
        <time>2019-12-15T09:52:03.000Z</time>
      </trkpt>
      <trkpt lat="47.33326" lon="-1.71691">
        <ele>10.7</ele>
        <time>2019-12-15T09:52:07.000Z</time>
      </trkpt>
      <trkpt lat="47.33347" lon="-1.71698">
        <ele>10.48</ele>
        <time>2019-12-15T09:52:11.000Z</time>
      </trkpt>
      <trkpt lat="47.33369" lon="-1.71698">
        <ele>11.06</ele>
        <time>2019-12-15T09:52:15.000Z</time>
      </trkpt>
      <trkpt lat="47.33392" lon="-1.71699">
        <ele>9.9</ele>
        <time>2019-12-15T09:52:19.000Z</time>
      </trkpt>
      <trkpt lat="47.33413" lon="-1.71702">
        <ele>8.69</ele>
        <time>2019-12-15T09:52:23.000Z</time>
      </trkpt>
      <trkpt lat="47.33436" lon="-1.71704">
        <ele>8.03</ele>
        <time>2019-12-15T09:52:27.000Z</time>
      </trkpt>
      <trkpt lat="47.33458" lon="-1.71706">
        <ele>7.09</ele>
        <time>2019-12-15T09:52:31.000Z</time>
      </trkpt>
      <trkpt lat="47.33477" lon="-1.7171">
        <ele>6</ele>
        <time>2019-12-15T09:52:34.000Z</time>
      </trkpt>
      <trkpt lat="47.33499" lon="-1.71713">
        <ele>4.99</ele>
        <time>2019-12-15T09:52:38.000Z</time>
      </trkpt>
      <trkpt lat="47.33522" lon="-1.71716">
        <ele>5.02</ele>
        <time>2019-12-15T09:52:42.000Z</time>
      </trkpt>
      <trkpt lat="47.33544" lon="-1.71715">
        <ele>8.1</ele>
        <time>2019-12-15T09:52:46.000Z</time>
      </trkpt>
      <trkpt lat="47.33565" lon="-1.71708">
        <ele>11.32</ele>
        <time>2019-12-15T09:52:50.000Z</time>
      </trkpt>
      <trkpt lat="47.33586" lon="-1.71702">
        <ele>13.01</ele>
        <time>2019-12-15T09:52:54.000Z</time>
      </trkpt>
      <trkpt lat="47.33607" lon="-1.71696">
        <ele>14.98</ele>
        <time>2019-12-15T09:52:58.000Z</time>
      </trkpt>
      <trkpt lat="47.33628" lon="-1.71696">
        <ele>15.84</ele>
        <time>2019-12-15T09:53:02.000Z</time>
      </trkpt>
      <trkpt lat="47.3365" lon="-1.71699">
        <ele>15.12</ele>
        <time>2019-12-15T09:53:06.000Z</time>
      </trkpt>
      <trkpt lat="47.33672" lon="-1.71703">
        <ele>15.39</ele>
        <time>2019-12-15T09:53:10.000Z</time>
      </trkpt>
      <trkpt lat="47.33695" lon="-1.71703">
        <ele>14.08</ele>
        <time>2019-12-15T09:53:14.000Z</time>
      </trkpt>
      <trkpt lat="47.33717" lon="-1.71704">
        <ele>13.48</ele>
        <time>2019-12-15T09:53:18.000Z</time>
      </trkpt>
      <trkpt lat="47.33741" lon="-1.71704">
        <ele>12.77</ele>
        <time>2019-12-15T09:53:22.000Z</time>
      </trkpt>
      <trkpt lat="47.33763" lon="-1.71703">
        <ele>11.85</ele>
        <time>2019-12-15T09:53:26.000Z</time>
      </trkpt>
      <trkpt lat="47.33785" lon="-1.71701">
        <ele>11.82</ele>
        <time>2019-12-15T09:53:30.000Z</time>
      </trkpt>
      <trkpt lat="47.33807" lon="-1.71697">
        <ele>12.54</ele>
        <time>2019-12-15T09:53:34.000Z</time>
      </trkpt>
      <trkpt lat="47.33828" lon="-1.71691">
        <ele>13.45</ele>
        <time>2019-12-15T09:53:38.000Z</time>
      </trkpt>
      <trkpt lat="47.3385" lon="-1.71685">
        <ele>13.38</ele>
        <time>2019-12-15T09:53:42.000Z</time>
      </trkpt>
      <trkpt lat="47.33871" lon="-1.71679">
        <ele>13.8</ele>
        <time>2019-12-15T09:53:46.000Z</time>
      </trkpt>
      <trkpt lat="47.33893" lon="-1.71675">
        <ele>13.56</ele>
        <time>2019-12-15T09:53:50.000Z</time>
      </trkpt>
      <trkpt lat="47.33914" lon="-1.71672">
        <ele>13.7</ele>
        <time>2019-12-15T09:53:54.000Z</time>
      </trkpt>
      <trkpt lat="47.33937" lon="-1.71673">
        <ele>14.93</ele>
        <time>2019-12-15T09:53:58.000Z</time>
      </trkpt>
      <trkpt lat="47.3396" lon="-1.71671">
        <ele>16.37</ele>
        <time>2019-12-15T09:54:02.000Z</time>
      </trkpt>
      <trkpt lat="47.33983" lon="-1.71668">
        <ele>19.23</ele>
        <time>2019-12-15T09:54:06.000Z</time>
      </trkpt>
      <trkpt lat="47.34001" lon="-1.71667">
        <ele>20.35</ele>
        <time>2019-12-15T09:54:09.000Z</time>
      </trkpt>
      <trkpt lat="47.34024" lon="-1.71666">
        <ele>21.92</ele>
        <time>2019-12-15T09:54:13.000Z</time>
      </trkpt>
      <trkpt lat="47.34042" lon="-1.71667">
        <ele>22.18</ele>
        <time>2019-12-15T09:54:16.000Z</time>
      </trkpt>
      <trkpt lat="47.3406" lon="-1.71668">
        <ele>24.24</ele>
        <time>2019-12-15T09:54:19.000Z</time>
      </trkpt>
      <trkpt lat="47.34083" lon="-1.71673">
        <ele>23.86</ele>
        <time>2019-12-15T09:54:23.000Z</time>
      </trkpt>
      <trkpt lat="47.34104" lon="-1.71679">
        <ele>23.33</ele>
        <time>2019-12-15T09:54:27.000Z</time>
      </trkpt>
      <trkpt lat="47.34124" lon="-1.71687">
        <ele>23.4</ele>
        <time>2019-12-15T09:54:32.000Z</time>
      </trkpt>
      <trkpt lat="47.34142" lon="-1.71692">
        <ele>22.82</ele>
        <time>2019-12-15T09:54:36.000Z</time>
      </trkpt>
      <trkpt lat="47.34162" lon="-1.71699">
        <ele>21.17</ele>
        <time>2019-12-15T09:54:40.000Z</time>
      </trkpt>
      <trkpt lat="47.34183" lon="-1.71705">
        <ele>20.93</ele>
        <time>2019-12-15T09:54:44.000Z</time>
      </trkpt>
      <trkpt lat="47.34205" lon="-1.71712">
        <ele>20.77</ele>
        <time>2019-12-15T09:54:48.000Z</time>
      </trkpt>
      <trkpt lat="47.34227" lon="-1.7172">
        <ele>19.44</ele>
        <time>2019-12-15T09:54:52.000Z</time>
      </trkpt>
      <trkpt lat="47.34247" lon="-1.71724">
        <ele>18.5</ele>
        <time>2019-12-15T09:54:56.000Z</time>
      </trkpt>
      <trkpt lat="47.34265" lon="-1.7173">
        <ele>18.44</ele>
        <time>2019-12-15T09:55:02.000Z</time>
      </trkpt>
      <trkpt lat="47.34284" lon="-1.71737">
        <ele>21.01</ele>
        <time>2019-12-15T09:55:13.000Z</time>
      </trkpt>
      <trkpt lat="47.34302" lon="-1.71741">
        <ele>20.72</ele>
        <time>2019-12-15T09:55:22.000Z</time>
      </trkpt>
      <trkpt lat="47.3432" lon="-1.71747">
        <ele>21.1</ele>
        <time>2019-12-15T09:55:27.000Z</time>
      </trkpt>
      <trkpt lat="47.34339" lon="-1.71759">
        <ele>23.62</ele>
        <time>2019-12-15T09:55:34.000Z</time>
      </trkpt>
      <trkpt lat="47.34357" lon="-1.71761">
        <ele>24.94</ele>
        <time>2019-12-15T09:55:42.000Z</time>
      </trkpt>
      <trkpt lat="47.34378" lon="-1.71766">
        <ele>26.75</ele>
        <time>2019-12-15T09:55:48.000Z</time>
      </trkpt>
      <trkpt lat="47.344" lon="-1.71774">
        <ele>24.64</ele>
        <time>2019-12-15T09:55:53.000Z</time>
      </trkpt>
      <trkpt lat="47.34418" lon="-1.71781">
        <ele>22.46</ele>
        <time>2019-12-15T09:55:57.000Z</time>
      </trkpt>
      <trkpt lat="47.34439" lon="-1.71788">
        <ele>23.04</ele>
        <time>2019-12-15T09:56:02.000Z</time>
      </trkpt>
      <trkpt lat="47.34457" lon="-1.71796">
        <ele>23.76</ele>
        <time>2019-12-15T09:56:06.000Z</time>
      </trkpt>
      <trkpt lat="47.34478" lon="-1.71804">
        <ele>23.33</ele>
        <time>2019-12-15T09:56:12.000Z</time>
      </trkpt>
      <trkpt lat="47.34497" lon="-1.7181">
        <ele>21.16</ele>
        <time>2019-12-15T09:56:16.000Z</time>
      </trkpt>
      <trkpt lat="47.34519" lon="-1.71819">
        <ele>20.25</ele>
        <time>2019-12-15T09:56:21.000Z</time>
      </trkpt>
      <trkpt lat="47.34538" lon="-1.71825">
        <ele>20.32</ele>
        <time>2019-12-15T09:56:25.000Z</time>
      </trkpt>
      <trkpt lat="47.34557" lon="-1.7183">
        <ele>21.84</ele>
        <time>2019-12-15T09:56:29.000Z</time>
      </trkpt>
      <trkpt lat="47.34577" lon="-1.71835">
        <ele>22.64</ele>
        <time>2019-12-15T09:56:33.000Z</time>
      </trkpt>
      <trkpt lat="47.34596" lon="-1.71843">
        <ele>23</ele>
        <time>2019-12-15T09:56:37.000Z</time>
      </trkpt>
      <trkpt lat="47.34618" lon="-1.71848">
        <ele>24.42</ele>
        <time>2019-12-15T09:56:42.000Z</time>
      </trkpt>
      <trkpt lat="47.34639" lon="-1.71855">
        <ele>24.05</ele>
        <time>2019-12-15T09:56:46.000Z</time>
      </trkpt>
      <trkpt lat="47.34661" lon="-1.71863">
        <ele>25.45</ele>
        <time>2019-12-15T09:56:50.000Z</time>
      </trkpt>
      <trkpt lat="47.34683" lon="-1.71869">
        <ele>24.58</ele>
        <time>2019-12-15T09:56:54.000Z</time>
      </trkpt>
      <trkpt lat="47.34702" lon="-1.71874">
        <ele>24.56</ele>
        <time>2019-12-15T09:56:58.000Z</time>
      </trkpt>
      <trkpt lat="47.3471" lon="-1.71899">
        <ele>27.08</ele>
        <time>2019-12-15T09:57:04.000Z</time>
      </trkpt>
      <trkpt lat="47.34699" lon="-1.71926">
        <ele>27.76</ele>
        <time>2019-12-15T09:57:08.000Z</time>
      </trkpt>
      <trkpt lat="47.34688" lon="-1.71955">
        <ele>28.9</ele>
        <time>2019-12-15T09:57:12.000Z</time>
      </trkpt>
      <trkpt lat="47.34677" lon="-1.71984">
        <ele>29.54</ele>
        <time>2019-12-15T09:57:16.000Z</time>
      </trkpt>
      <trkpt lat="47.34668" lon="-1.72014">
        <ele>30.09</ele>
        <time>2019-12-15T09:57:20.000Z</time>
      </trkpt>
      <trkpt lat="47.34658" lon="-1.72041">
        <ele>28.72</ele>
        <time>2019-12-15T09:57:24.000Z</time>
      </trkpt>
      <trkpt lat="47.34648" lon="-1.72071">
        <ele>26.34</ele>
        <time>2019-12-15T09:57:28.000Z</time>
      </trkpt>
      <trkpt lat="47.34642" lon="-1.72105">
        <ele>25.68</ele>
        <time>2019-12-15T09:57:32.000Z</time>
      </trkpt>
      <trkpt lat="47.34638" lon="-1.72138">
        <ele>25.26</ele>
        <time>2019-12-15T09:57:36.000Z</time>
      </trkpt>
      <trkpt lat="47.34636" lon="-1.7217">
        <ele>24.87</ele>
        <time>2019-12-15T09:57:40.000Z</time>
      </trkpt>
      <trkpt lat="47.34633" lon="-1.72202">
        <ele>24.59</ele>
        <time>2019-12-15T09:57:44.000Z</time>
      </trkpt>
      <trkpt lat="47.34632" lon="-1.72228">
        <ele>24.01</ele>
        <time>2019-12-15T09:57:47.000Z</time>
      </trkpt>
      <trkpt lat="47.34631" lon="-1.72256">
        <ele>22.8</ele>
        <time>2019-12-15T09:57:50.000Z</time>
      </trkpt>
      <trkpt lat="47.34632" lon="-1.72291">
        <ele>22.93</ele>
        <time>2019-12-15T09:57:54.000Z</time>
      </trkpt>
      <trkpt lat="47.34635" lon="-1.72319">
        <ele>22.75</ele>
        <time>2019-12-15T09:57:57.000Z</time>
      </trkpt>
      <trkpt lat="47.34637" lon="-1.72347">
        <ele>22.52</ele>
        <time>2019-12-15T09:58:00.000Z</time>
      </trkpt>
      <trkpt lat="47.34638" lon="-1.72376">
        <ele>22.17</ele>
        <time>2019-12-15T09:58:03.000Z</time>
      </trkpt>
      <trkpt lat="47.34639" lon="-1.72405">
        <ele>21.33</ele>
        <time>2019-12-15T09:58:06.000Z</time>
      </trkpt>
      <trkpt lat="47.34643" lon="-1.72433">
        <ele>22.6</ele>
        <time>2019-12-15T09:58:09.000Z</time>
      </trkpt>
      <trkpt lat="47.34647" lon="-1.72459">
        <ele>24.79</ele>
        <time>2019-12-15T09:58:12.000Z</time>
      </trkpt>
      <trkpt lat="47.34651" lon="-1.72486">
        <ele>25.73</ele>
        <time>2019-12-15T09:58:15.000Z</time>
      </trkpt>
      <trkpt lat="47.34656" lon="-1.72513">
        <ele>26.76</ele>
        <time>2019-12-15T09:58:18.000Z</time>
      </trkpt>
      <trkpt lat="47.3466" lon="-1.72543">
        <ele>26.89</ele>
        <time>2019-12-15T09:58:21.000Z</time>
      </trkpt>
      <trkpt lat="47.34664" lon="-1.72573">
        <ele>26.42</ele>
        <time>2019-12-15T09:58:24.000Z</time>
      </trkpt>
      <trkpt lat="47.34669" lon="-1.72603">
        <ele>26.41</ele>
        <time>2019-12-15T09:58:27.000Z</time>
      </trkpt>
      <trkpt lat="47.34673" lon="-1.72631">
        <ele>26.65</ele>
        <time>2019-12-15T09:58:30.000Z</time>
      </trkpt>
      <trkpt lat="47.34677" lon="-1.72658">
        <ele>26.91</ele>
        <time>2019-12-15T09:58:33.000Z</time>
      </trkpt>
      <trkpt lat="47.3468" lon="-1.72685">
        <ele>27.51</ele>
        <time>2019-12-15T09:58:36.000Z</time>
      </trkpt>
      <trkpt lat="47.34683" lon="-1.72713">
        <ele>27.98</ele>
        <time>2019-12-15T09:58:39.000Z</time>
      </trkpt>
      <trkpt lat="47.34687" lon="-1.7274">
        <ele>28.91</ele>
        <time>2019-12-15T09:58:42.000Z</time>
      </trkpt>
      <trkpt lat="47.3469" lon="-1.72767">
        <ele>30.18</ele>
        <time>2019-12-15T09:58:45.000Z</time>
      </trkpt>
      <trkpt lat="47.34693" lon="-1.72794">
        <ele>31.94</ele>
        <time>2019-12-15T09:58:48.000Z</time>
      </trkpt>
      <trkpt lat="47.34696" lon="-1.72821">
        <ele>33.14</ele>
        <time>2019-12-15T09:58:51.000Z</time>
      </trkpt>
      <trkpt lat="47.34699" lon="-1.72849">
        <ele>32.29</ele>
        <time>2019-12-15T09:58:54.000Z</time>
      </trkpt>
      <trkpt lat="47.34703" lon="-1.72878">
        <ele>31.59</ele>
        <time>2019-12-15T09:58:57.000Z</time>
      </trkpt>
      <trkpt lat="47.34706" lon="-1.72906">
        <ele>30.81</ele>
        <time>2019-12-15T09:59:00.000Z</time>
      </trkpt>
      <trkpt lat="47.3471" lon="-1.72934">
        <ele>30.02</ele>
        <time>2019-12-15T09:59:03.000Z</time>
      </trkpt>
      <trkpt lat="47.34715" lon="-1.72961">
        <ele>29.43</ele>
        <time>2019-12-15T09:59:06.000Z</time>
      </trkpt>
      <trkpt lat="47.34719" lon="-1.72989">
        <ele>28.78</ele>
        <time>2019-12-15T09:59:09.000Z</time>
      </trkpt>
      <trkpt lat="47.34723" lon="-1.73017">
        <ele>28.36</ele>
        <time>2019-12-15T09:59:12.000Z</time>
      </trkpt>
      <trkpt lat="47.34728" lon="-1.73048">
        <ele>27.84</ele>
        <time>2019-12-15T09:59:16.000Z</time>
      </trkpt>
      <trkpt lat="47.34733" lon="-1.73074">
        <ele>28.18</ele>
        <time>2019-12-15T09:59:20.000Z</time>
      </trkpt>
      <trkpt lat="47.34745" lon="-1.73101">
        <ele>26.67</ele>
        <time>2019-12-15T09:59:26.000Z</time>
      </trkpt>
      <trkpt lat="47.34751" lon="-1.73132">
        <ele>26.99</ele>
        <time>2019-12-15T09:59:31.000Z</time>
      </trkpt>
      <trkpt lat="47.34758" lon="-1.73156">
        <ele>27.81</ele>
        <time>2019-12-15T09:59:35.000Z</time>
      </trkpt>
      <trkpt lat="47.34765" lon="-1.73184">
        <ele>27.56</ele>
        <time>2019-12-15T09:59:39.000Z</time>
      </trkpt>
      <trkpt lat="47.3477" lon="-1.73212">
        <ele>26.55</ele>
        <time>2019-12-15T09:59:43.000Z</time>
      </trkpt>
      <trkpt lat="47.34774" lon="-1.7324">
        <ele>25.44</ele>
        <time>2019-12-15T09:59:47.000Z</time>
      </trkpt>
      <trkpt lat="47.34778" lon="-1.73271">
        <ele>26.23</ele>
        <time>2019-12-15T09:59:51.000Z</time>
      </trkpt>
      <trkpt lat="47.34782" lon="-1.733">
        <ele>26.85</ele>
        <time>2019-12-15T09:59:55.000Z</time>
      </trkpt>
      <trkpt lat="47.34783" lon="-1.73329">
        <ele>27.02</ele>
        <time>2019-12-15T09:59:59.000Z</time>
      </trkpt>
      <trkpt lat="47.34783" lon="-1.7336">
        <ele>27.58</ele>
        <time>2019-12-15T10:00:03.000Z</time>
      </trkpt>
      <trkpt lat="47.34781" lon="-1.73393">
        <ele>28.16</ele>
        <time>2019-12-15T10:00:07.000Z</time>
      </trkpt>
      <trkpt lat="47.3478" lon="-1.73425">
        <ele>28.28</ele>
        <time>2019-12-15T10:00:11.000Z</time>
      </trkpt>
      <trkpt lat="47.3478" lon="-1.73459">
        <ele>28.22</ele>
        <time>2019-12-15T10:00:15.000Z</time>
      </trkpt>
      <trkpt lat="47.34779" lon="-1.73493">
        <ele>28.77</ele>
        <time>2019-12-15T10:00:19.000Z</time>
      </trkpt>
      <trkpt lat="47.34779" lon="-1.73528">
        <ele>29.12</ele>
        <time>2019-12-15T10:00:23.000Z</time>
      </trkpt>
      <trkpt lat="47.34778" lon="-1.73555">
        <ele>29.26</ele>
        <time>2019-12-15T10:00:26.000Z</time>
      </trkpt>
      <trkpt lat="47.34777" lon="-1.7359">
        <ele>30</ele>
        <time>2019-12-15T10:00:30.000Z</time>
      </trkpt>
      <trkpt lat="47.34776" lon="-1.73617">
        <ele>30.41</ele>
        <time>2019-12-15T10:00:33.000Z</time>
      </trkpt>
      <trkpt lat="47.34776" lon="-1.73647">
        <ele>30.95</ele>
        <time>2019-12-15T10:00:36.000Z</time>
      </trkpt>
      <trkpt lat="47.34775" lon="-1.73678">
        <ele>31.18</ele>
        <time>2019-12-15T10:00:39.000Z</time>
      </trkpt>
      <trkpt lat="47.34775" lon="-1.73707">
        <ele>30.37</ele>
        <time>2019-12-15T10:00:42.000Z</time>
      </trkpt>
      <trkpt lat="47.34774" lon="-1.73739">
        <ele>28.94</ele>
        <time>2019-12-15T10:00:46.000Z</time>
      </trkpt>
      <trkpt lat="47.34773" lon="-1.73767">
        <ele>27.99</ele>
        <time>2019-12-15T10:00:50.000Z</time>
      </trkpt>
      <trkpt lat="47.34774" lon="-1.738">
        <ele>26.91</ele>
        <time>2019-12-15T10:00:55.000Z</time>
      </trkpt>
      <trkpt lat="47.34773" lon="-1.73827">
        <ele>28.19</ele>
        <time>2019-12-15T10:00:59.000Z</time>
      </trkpt>
      <trkpt lat="47.34772" lon="-1.73857">
        <ele>28.83</ele>
        <time>2019-12-15T10:01:03.000Z</time>
      </trkpt>
      <trkpt lat="47.34771" lon="-1.73888">
        <ele>29.06</ele>
        <time>2019-12-15T10:01:07.000Z</time>
      </trkpt>
      <trkpt lat="47.34769" lon="-1.73918">
        <ele>29.12</ele>
        <time>2019-12-15T10:01:11.000Z</time>
      </trkpt>
      <trkpt lat="47.3477" lon="-1.73948">
        <ele>28.72</ele>
        <time>2019-12-15T10:01:15.000Z</time>
      </trkpt>
      <trkpt lat="47.34771" lon="-1.7398">
        <ele>28.92</ele>
        <time>2019-12-15T10:01:19.000Z</time>
      </trkpt>
      <trkpt lat="47.34769" lon="-1.74008">
        <ele>28.67</ele>
        <time>2019-12-15T10:01:23.000Z</time>
      </trkpt>
      <trkpt lat="47.34764" lon="-1.74038">
        <ele>29.43</ele>
        <time>2019-12-15T10:01:28.000Z</time>
      </trkpt>
      <trkpt lat="47.34759" lon="-1.74068">
        <ele>30.83</ele>
        <time>2019-12-15T10:01:33.000Z</time>
      </trkpt>
      <trkpt lat="47.34754" lon="-1.74097">
        <ele>31.23</ele>
        <time>2019-12-15T10:01:37.000Z</time>
      </trkpt>
      <trkpt lat="47.3475" lon="-1.74124">
        <ele>31.48</ele>
        <time>2019-12-15T10:01:41.000Z</time>
      </trkpt>
      <trkpt lat="47.34746" lon="-1.74155">
        <ele>31.7</ele>
        <time>2019-12-15T10:01:46.000Z</time>
      </trkpt>
      <trkpt lat="47.34741" lon="-1.74181">
        <ele>32.69</ele>
        <time>2019-12-15T10:01:50.000Z</time>
      </trkpt>
      <trkpt lat="47.34734" lon="-1.7421">
        <ele>33.57</ele>
        <time>2019-12-15T10:01:54.000Z</time>
      </trkpt>
      <trkpt lat="47.34728" lon="-1.74242">
        <ele>33.23</ele>
        <time>2019-12-15T10:01:59.000Z</time>
      </trkpt>
      <trkpt lat="47.34722" lon="-1.74269">
        <ele>33.68</ele>
        <time>2019-12-15T10:02:03.000Z</time>
      </trkpt>
      <trkpt lat="47.34718" lon="-1.743">
        <ele>33.16</ele>
        <time>2019-12-15T10:02:07.000Z</time>
      </trkpt>
      <trkpt lat="47.34718" lon="-1.74328">
        <ele>32.1</ele>
        <time>2019-12-15T10:02:12.000Z</time>
      </trkpt>
      <trkpt lat="47.34717" lon="-1.74355">
        <ele>31.54</ele>
        <time>2019-12-15T10:02:16.000Z</time>
      </trkpt>
      <trkpt lat="47.34717" lon="-1.74386">
        <ele>31.86</ele>
        <time>2019-12-15T10:02:20.000Z</time>
      </trkpt>
      <trkpt lat="47.34719" lon="-1.74415">
        <ele>32.01</ele>
        <time>2019-12-15T10:02:24.000Z</time>
      </trkpt>
      <trkpt lat="47.3472" lon="-1.74445">
        <ele>32.35</ele>
        <time>2019-12-15T10:02:28.000Z</time>
      </trkpt>
      <trkpt lat="47.3472" lon="-1.74473">
        <ele>32.46</ele>
        <time>2019-12-15T10:02:32.000Z</time>
      </trkpt>
      <trkpt lat="47.3472" lon="-1.74502">
        <ele>31.71</ele>
        <time>2019-12-15T10:02:36.000Z</time>
      </trkpt>
      <trkpt lat="47.34721" lon="-1.74528">
        <ele>30.41</ele>
        <time>2019-12-15T10:02:44.000Z</time>
      </trkpt>
      <trkpt lat="47.34721" lon="-1.74559">
        <ele>30.48</ele>
        <time>2019-12-15T10:02:50.000Z</time>
      </trkpt>
      <trkpt lat="47.34724" lon="-1.74591">
        <ele>28.16</ele>
        <time>2019-12-15T10:02:55.000Z</time>
      </trkpt>
      <trkpt lat="47.34726" lon="-1.74621">
        <ele>27.27</ele>
        <time>2019-12-15T10:02:59.000Z</time>
      </trkpt>
      <trkpt lat="47.34727" lon="-1.74651">
        <ele>27.81</ele>
        <time>2019-12-15T10:03:03.000Z</time>
      </trkpt>
      <trkpt lat="47.34728" lon="-1.74682">
        <ele>29.12</ele>
        <time>2019-12-15T10:03:07.000Z</time>
      </trkpt>
      <trkpt lat="47.34729" lon="-1.7471">
        <ele>30.84</ele>
        <time>2019-12-15T10:03:11.000Z</time>
      </trkpt>
      <trkpt lat="47.3473" lon="-1.74741">
        <ele>31</ele>
        <time>2019-12-15T10:03:16.000Z</time>
      </trkpt>
      <trkpt lat="47.3473" lon="-1.74769">
        <ele>29.94</ele>
        <time>2019-12-15T10:03:24.000Z</time>
      </trkpt>
      <trkpt lat="47.3473" lon="-1.748">
        <ele>29.08</ele>
        <time>2019-12-15T10:03:30.000Z</time>
      </trkpt>
      <trkpt lat="47.34731" lon="-1.74827">
        <ele>31.6</ele>
        <time>2019-12-15T10:03:34.000Z</time>
      </trkpt>
      <trkpt lat="47.34732" lon="-1.74856">
        <ele>33.82</ele>
        <time>2019-12-15T10:03:38.000Z</time>
      </trkpt>
      <trkpt lat="47.34733" lon="-1.74883">
        <ele>35.02</ele>
        <time>2019-12-15T10:03:42.000Z</time>
      </trkpt>
      <trkpt lat="47.34733" lon="-1.74911">
        <ele>34.13</ele>
        <time>2019-12-15T10:03:47.000Z</time>
      </trkpt>
      <trkpt lat="47.34732" lon="-1.74939">
        <ele>31.4</ele>
        <time>2019-12-15T10:03:55.000Z</time>
      </trkpt>
      <trkpt lat="47.34732" lon="-1.74966">
        <ele>31.17</ele>
        <time>2019-12-15T10:04:01.000Z</time>
      </trkpt>
      <trkpt lat="47.34733" lon="-1.74992">
        <ele>32.09</ele>
        <time>2019-12-15T10:04:06.000Z</time>
      </trkpt>
      <trkpt lat="47.34733" lon="-1.75021">
        <ele>31.71</ele>
        <time>2019-12-15T10:04:11.000Z</time>
      </trkpt>
      <trkpt lat="47.34734" lon="-1.7505">
        <ele>30.05</ele>
        <time>2019-12-15T10:04:17.000Z</time>
      </trkpt>
      <trkpt lat="47.34733" lon="-1.75081">
        <ele>29.13</ele>
        <time>2019-12-15T10:04:25.000Z</time>
      </trkpt>
      <trkpt lat="47.34734" lon="-1.75108">
        <ele>27.43</ele>
        <time>2019-12-15T10:04:30.000Z</time>
      </trkpt>
      <trkpt lat="47.34735" lon="-1.75137">
        <ele>26.97</ele>
        <time>2019-12-15T10:04:35.000Z</time>
      </trkpt>
      <trkpt lat="47.34718" lon="-1.7515">
        <ele>26.55</ele>
        <time>2019-12-15T10:04:42.000Z</time>
      </trkpt>
      <trkpt lat="47.347" lon="-1.75138">
        <ele>26.85</ele>
        <time>2019-12-15T10:04:46.000Z</time>
      </trkpt>
      <trkpt lat="47.3468" lon="-1.75127">
        <ele>28</ele>
        <time>2019-12-15T10:04:50.000Z</time>
      </trkpt>
      <trkpt lat="47.3466" lon="-1.75114">
        <ele>27.73</ele>
        <time>2019-12-15T10:04:54.000Z</time>
      </trkpt>
      <trkpt lat="47.3464" lon="-1.75101">
        <ele>26.93</ele>
        <time>2019-12-15T10:04:58.000Z</time>
      </trkpt>
      <trkpt lat="47.3462" lon="-1.75089">
        <ele>26.7</ele>
        <time>2019-12-15T10:05:02.000Z</time>
      </trkpt>
      <trkpt lat="47.34599" lon="-1.75077">
        <ele>26.13</ele>
        <time>2019-12-15T10:05:06.000Z</time>
      </trkpt>
      <trkpt lat="47.34578" lon="-1.75062">
        <ele>25.69</ele>
        <time>2019-12-15T10:05:10.000Z</time>
      </trkpt>
      <trkpt lat="47.34556" lon="-1.75051">
        <ele>25.89</ele>
        <time>2019-12-15T10:05:14.000Z</time>
      </trkpt>
      <trkpt lat="47.34538" lon="-1.75044">
        <ele>25.85</ele>
        <time>2019-12-15T10:05:17.000Z</time>
      </trkpt>
      <trkpt lat="47.3452" lon="-1.75034">
        <ele>25.83</ele>
        <time>2019-12-15T10:05:20.000Z</time>
      </trkpt>
      <trkpt lat="47.34503" lon="-1.75023">
        <ele>25.34</ele>
        <time>2019-12-15T10:05:23.000Z</time>
      </trkpt>
      <trkpt lat="47.34486" lon="-1.75012">
        <ele>24.53</ele>
        <time>2019-12-15T10:05:26.000Z</time>
      </trkpt>
      <trkpt lat="47.34464" lon="-1.74999">
        <ele>24.25</ele>
        <time>2019-12-15T10:05:30.000Z</time>
      </trkpt>
      <trkpt lat="47.34447" lon="-1.74988">
        <ele>24.19</ele>
        <time>2019-12-15T10:05:33.000Z</time>
      </trkpt>
      <trkpt lat="47.3443" lon="-1.74977">
        <ele>23.83</ele>
        <time>2019-12-15T10:05:36.000Z</time>
      </trkpt>
      <trkpt lat="47.34413" lon="-1.74966">
        <ele>23.77</ele>
        <time>2019-12-15T10:05:39.000Z</time>
      </trkpt>
      <trkpt lat="47.34394" lon="-1.74954">
        <ele>23.28</ele>
        <time>2019-12-15T10:05:42.000Z</time>
      </trkpt>
      <trkpt lat="47.34377" lon="-1.74943">
        <ele>24.11</ele>
        <time>2019-12-15T10:05:45.000Z</time>
      </trkpt>
      <trkpt lat="47.34356" lon="-1.7493">
        <ele>26.71</ele>
        <time>2019-12-15T10:05:49.000Z</time>
      </trkpt>
      <trkpt lat="47.34338" lon="-1.74915">
        <ele>29.43</ele>
        <time>2019-12-15T10:05:53.000Z</time>
      </trkpt>
      <trkpt lat="47.34318" lon="-1.74901">
        <ele>30.97</ele>
        <time>2019-12-15T10:06:05.000Z</time>
      </trkpt>
      <trkpt lat="47.34298" lon="-1.74888">
        <ele>28.43</ele>
        <time>2019-12-15T10:06:09.000Z</time>
      </trkpt>
      <trkpt lat="47.34281" lon="-1.74879">
        <ele>27.42</ele>
        <time>2019-12-15T10:06:12.000Z</time>
      </trkpt>
      <trkpt lat="47.34262" lon="-1.74869">
        <ele>26.37</ele>
        <time>2019-12-15T10:06:15.000Z</time>
      </trkpt>
      <trkpt lat="47.34244" lon="-1.74859">
        <ele>25.73</ele>
        <time>2019-12-15T10:06:18.000Z</time>
      </trkpt>
      <trkpt lat="47.34225" lon="-1.74852">
        <ele>24.47</ele>
        <time>2019-12-15T10:06:21.000Z</time>
      </trkpt>
      <trkpt lat="47.34204" lon="-1.74848">
        <ele>22.13</ele>
        <time>2019-12-15T10:06:24.000Z</time>
      </trkpt>
      <trkpt lat="47.34182" lon="-1.74846">
        <ele>20.74</ele>
        <time>2019-12-15T10:06:27.000Z</time>
      </trkpt>
      <trkpt lat="47.34159" lon="-1.74848">
        <ele>19.11</ele>
        <time>2019-12-15T10:06:30.000Z</time>
      </trkpt>
      <trkpt lat="47.34136" lon="-1.74853">
        <ele>17.93</ele>
        <time>2019-12-15T10:06:33.000Z</time>
      </trkpt>
      <trkpt lat="47.34114" lon="-1.74858">
        <ele>17.27</ele>
        <time>2019-12-15T10:06:36.000Z</time>
      </trkpt>
      <trkpt lat="47.34091" lon="-1.74859">
        <ele>16.4</ele>
        <time>2019-12-15T10:06:39.000Z</time>
      </trkpt>
      <trkpt lat="47.34068" lon="-1.74863">
        <ele>15.55</ele>
        <time>2019-12-15T10:06:42.000Z</time>
      </trkpt>
      <trkpt lat="47.34045" lon="-1.7487">
        <ele>15.32</ele>
        <time>2019-12-15T10:06:45.000Z</time>
      </trkpt>
      <trkpt lat="47.34026" lon="-1.74888">
        <ele>14.9</ele>
        <time>2019-12-15T10:06:48.000Z</time>
      </trkpt>
      <trkpt lat="47.3401" lon="-1.7491">
        <ele>13.13</ele>
        <time>2019-12-15T10:06:51.000Z</time>
      </trkpt>
      <trkpt lat="47.33995" lon="-1.74931">
        <ele>12.14</ele>
        <time>2019-12-15T10:06:54.000Z</time>
      </trkpt>
      <trkpt lat="47.33981" lon="-1.74951">
        <ele>10.71</ele>
        <time>2019-12-15T10:06:57.000Z</time>
      </trkpt>
      <trkpt lat="47.33965" lon="-1.74969">
        <ele>9.13</ele>
        <time>2019-12-15T10:07:00.000Z</time>
      </trkpt>
      <trkpt lat="47.33947" lon="-1.74988">
        <ele>7.71</ele>
        <time>2019-12-15T10:07:03.000Z</time>
      </trkpt>
      <trkpt lat="47.33927" lon="-1.75006">
        <ele>5.99</ele>
        <time>2019-12-15T10:07:06.000Z</time>
      </trkpt>
      <trkpt lat="47.33905" lon="-1.75023">
        <ele>5.1</ele>
        <time>2019-12-15T10:07:09.000Z</time>
      </trkpt>
      <trkpt lat="47.33881" lon="-1.75034">
        <ele>4.27</ele>
        <time>2019-12-15T10:07:12.000Z</time>
      </trkpt>
      <trkpt lat="47.33857" lon="-1.75041">
        <ele>3.32</ele>
        <time>2019-12-15T10:07:15.000Z</time>
      </trkpt>
      <trkpt lat="47.33833" lon="-1.75044">
        <ele>3.26</ele>
        <time>2019-12-15T10:07:18.000Z</time>
      </trkpt>
      <trkpt lat="47.33809" lon="-1.75045">
        <ele>2.42</ele>
        <time>2019-12-15T10:07:21.000Z</time>
      </trkpt>
      <trkpt lat="47.33786" lon="-1.75045">
        <ele>1.59</ele>
        <time>2019-12-15T10:07:24.000Z</time>
      </trkpt>
      <trkpt lat="47.33762" lon="-1.75047">
        <ele>0.73</ele>
        <time>2019-12-15T10:07:27.000Z</time>
      </trkpt>
      <trkpt lat="47.33737" lon="-1.7505">
        <ele>-0.63</ele>
        <time>2019-12-15T10:07:30.000Z</time>
      </trkpt>
      <trkpt lat="47.33711" lon="-1.75051">
        <ele>-1.01</ele>
        <time>2019-12-15T10:07:33.000Z</time>
      </trkpt>
      <trkpt lat="47.33687" lon="-1.75051">
        <ele>-1.65</ele>
        <time>2019-12-15T10:07:36.000Z</time>
      </trkpt>
      <trkpt lat="47.33663" lon="-1.75054">
        <ele>-2.7</ele>
        <time>2019-12-15T10:07:39.000Z</time>
      </trkpt>
      <trkpt lat="47.33637" lon="-1.7506">
        <ele>-2.87</ele>
        <time>2019-12-15T10:07:42.000Z</time>
      </trkpt>
      <trkpt lat="47.33613" lon="-1.75067">
        <ele>-3.58</ele>
        <time>2019-12-15T10:07:45.000Z</time>
      </trkpt>
      <trkpt lat="47.3359" lon="-1.75075">
        <ele>-4.24</ele>
        <time>2019-12-15T10:07:48.000Z</time>
      </trkpt>
      <trkpt lat="47.33566" lon="-1.75084">
        <ele>-5.42</ele>
        <time>2019-12-15T10:07:51.000Z</time>
      </trkpt>
      <trkpt lat="47.33543" lon="-1.75094">
        <ele>-5.64</ele>
        <time>2019-12-15T10:07:54.000Z</time>
      </trkpt>
      <trkpt lat="47.33526" lon="-1.751">
        <ele>-5.46</ele>
        <time>2019-12-15T10:07:57.000Z</time>
      </trkpt>
      <trkpt lat="47.33508" lon="-1.75106">
        <ele>-3.14</ele>
        <time>2019-12-15T10:08:01.000Z</time>
      </trkpt>
      <trkpt lat="47.33489" lon="-1.75111">
        <ele>0.18</ele>
        <time>2019-12-15T10:08:07.000Z</time>
      </trkpt>
      <trkpt lat="47.33468" lon="-1.75115">
        <ele>4.37</ele>
        <time>2019-12-15T10:08:13.000Z</time>
      </trkpt>
      <trkpt lat="47.33447" lon="-1.75113">
        <ele>6.82</ele>
        <time>2019-12-15T10:08:18.000Z</time>
      </trkpt>
      <trkpt lat="47.33426" lon="-1.75109">
        <ele>11.42</ele>
        <time>2019-12-15T10:08:23.000Z</time>
      </trkpt>
      <trkpt lat="47.33406" lon="-1.75107">
        <ele>12.91</ele>
        <time>2019-12-15T10:08:30.000Z</time>
      </trkpt>
      <trkpt lat="47.33385" lon="-1.75107">
        <ele>14.15</ele>
        <time>2019-12-15T10:08:35.000Z</time>
      </trkpt>
      <trkpt lat="47.33364" lon="-1.75109">
        <ele>16.9</ele>
        <time>2019-12-15T10:08:40.000Z</time>
      </trkpt>
      <trkpt lat="47.33342" lon="-1.75116">
        <ele>18.86</ele>
        <time>2019-12-15T10:08:45.000Z</time>
      </trkpt>
      <trkpt lat="47.33321" lon="-1.75124">
        <ele>16.12</ele>
        <time>2019-12-15T10:08:49.000Z</time>
      </trkpt>
      <trkpt lat="47.33301" lon="-1.75128">
        <ele>14.87</ele>
        <time>2019-12-15T10:08:53.000Z</time>
      </trkpt>
      <trkpt lat="47.3328" lon="-1.75129">
        <ele>15.28</ele>
        <time>2019-12-15T10:08:57.000Z</time>
      </trkpt>
      <trkpt lat="47.3326" lon="-1.75133">
        <ele>14.7</ele>
        <time>2019-12-15T10:09:01.000Z</time>
      </trkpt>
      <trkpt lat="47.3325" lon="-1.75155">
        <ele>14.08</ele>
        <time>2019-12-15T10:09:05.000Z</time>
      </trkpt>
      <trkpt lat="47.33256" lon="-1.75181">
        <ele>12.83</ele>
        <time>2019-12-15T10:09:08.000Z</time>
      </trkpt>
      <trkpt lat="47.33261" lon="-1.75214">
        <ele>12.89</ele>
        <time>2019-12-15T10:09:12.000Z</time>
      </trkpt>
      <trkpt lat="47.33266" lon="-1.75249">
        <ele>12.36</ele>
        <time>2019-12-15T10:09:16.000Z</time>
      </trkpt>
      <trkpt lat="47.33271" lon="-1.75276">
        <ele>11.24</ele>
        <time>2019-12-15T10:09:19.000Z</time>
      </trkpt>
      <trkpt lat="47.33276" lon="-1.75303">
        <ele>11.07</ele>
        <time>2019-12-15T10:09:22.000Z</time>
      </trkpt>
      <trkpt lat="47.3328" lon="-1.7533">
        <ele>10.95</ele>
        <time>2019-12-15T10:09:25.000Z</time>
      </trkpt>
      <trkpt lat="47.33284" lon="-1.75357">
        <ele>10.89</ele>
        <time>2019-12-15T10:09:28.000Z</time>
      </trkpt>
      <trkpt lat="47.33286" lon="-1.75385">
        <ele>10.24</ele>
        <time>2019-12-15T10:09:31.000Z</time>
      </trkpt>
      <trkpt lat="47.33286" lon="-1.75413">
        <ele>9.54</ele>
        <time>2019-12-15T10:09:34.000Z</time>
      </trkpt>
      <trkpt lat="47.33285" lon="-1.75444">
        <ele>9.25</ele>
        <time>2019-12-15T10:09:38.000Z</time>
      </trkpt>
      <trkpt lat="47.33282" lon="-1.75479">
        <ele>9.2</ele>
        <time>2019-12-15T10:09:42.000Z</time>
      </trkpt>
      <trkpt lat="47.3328" lon="-1.75507">
        <ele>9.24</ele>
        <time>2019-12-15T10:09:45.000Z</time>
      </trkpt>
      <trkpt lat="47.33277" lon="-1.75534">
        <ele>9.61</ele>
        <time>2019-12-15T10:09:48.000Z</time>
      </trkpt>
      <trkpt lat="47.33274" lon="-1.75561">
        <ele>9.79</ele>
        <time>2019-12-15T10:09:51.000Z</time>
      </trkpt>
      <trkpt lat="47.33271" lon="-1.75588">
        <ele>9.51</ele>
        <time>2019-12-15T10:09:54.000Z</time>
      </trkpt>
      <trkpt lat="47.3327" lon="-1.75615">
        <ele>8.99</ele>
        <time>2019-12-15T10:09:57.000Z</time>
      </trkpt>
      <trkpt lat="47.33269" lon="-1.75642">
        <ele>8.83</ele>
        <time>2019-12-15T10:10:00.000Z</time>
      </trkpt>
      <trkpt lat="47.33268" lon="-1.7567">
        <ele>8.42</ele>
        <time>2019-12-15T10:10:03.000Z</time>
      </trkpt>
      <trkpt lat="47.33268" lon="-1.75697">
        <ele>8.48</ele>
        <time>2019-12-15T10:10:06.000Z</time>
      </trkpt>
      <trkpt lat="47.33268" lon="-1.75723">
        <ele>8.75</ele>
        <time>2019-12-15T10:10:09.000Z</time>
      </trkpt>
      <trkpt lat="47.33268" lon="-1.75758">
        <ele>10.1</ele>
        <time>2019-12-15T10:10:13.000Z</time>
      </trkpt>
      <trkpt lat="47.33269" lon="-1.75786">
        <ele>11.09</ele>
        <time>2019-12-15T10:10:16.000Z</time>
      </trkpt>
      <trkpt lat="47.33272" lon="-1.75821">
        <ele>12.76</ele>
        <time>2019-12-15T10:10:20.000Z</time>
      </trkpt>
      <trkpt lat="47.33273" lon="-1.75854">
        <ele>12.73</ele>
        <time>2019-12-15T10:10:24.000Z</time>
      </trkpt>
      <trkpt lat="47.33273" lon="-1.75885">
        <ele>12.7</ele>
        <time>2019-12-15T10:10:28.000Z</time>
      </trkpt>
      <trkpt lat="47.33272" lon="-1.75914">
        <ele>13.25</ele>
        <time>2019-12-15T10:10:32.000Z</time>
      </trkpt>
      <trkpt lat="47.33266" lon="-1.7594">
        <ele>13.27</ele>
        <time>2019-12-15T10:10:36.000Z</time>
      </trkpt>
      <trkpt lat="47.33257" lon="-1.75967">
        <ele>14.64</ele>
        <time>2019-12-15T10:10:40.000Z</time>
      </trkpt>
      <trkpt lat="47.33244" lon="-1.7599">
        <ele>16.1</ele>
        <time>2019-12-15T10:10:44.000Z</time>
      </trkpt>
      <trkpt lat="47.3323" lon="-1.76008">
        <ele>17.2</ele>
        <time>2019-12-15T10:10:48.000Z</time>
      </trkpt>
      <trkpt lat="47.33215" lon="-1.76025">
        <ele>17.18</ele>
        <time>2019-12-15T10:10:52.000Z</time>
      </trkpt>
      <trkpt lat="47.33197" lon="-1.76043">
        <ele>19.57</ele>
        <time>2019-12-15T10:10:57.000Z</time>
      </trkpt>
      <trkpt lat="47.3318" lon="-1.76063">
        <ele>21.87</ele>
        <time>2019-12-15T10:11:02.000Z</time>
      </trkpt>
      <trkpt lat="47.33163" lon="-1.76084">
        <ele>22.83</ele>
        <time>2019-12-15T10:11:07.000Z</time>
      </trkpt>
      <trkpt lat="47.33149" lon="-1.76102">
        <ele>23.36</ele>
        <time>2019-12-15T10:11:11.000Z</time>
      </trkpt>
      <trkpt lat="47.33135" lon="-1.76118">
        <ele>23.45</ele>
        <time>2019-12-15T10:11:15.000Z</time>
      </trkpt>
      <trkpt lat="47.33122" lon="-1.76139">
        <ele>24.65</ele>
        <time>2019-12-15T10:11:19.000Z</time>
      </trkpt>
      <trkpt lat="47.33111" lon="-1.76163">
        <ele>24.91</ele>
        <time>2019-12-15T10:11:23.000Z</time>
      </trkpt>
      <trkpt lat="47.33103" lon="-1.76189">
        <ele>25.58</ele>
        <time>2019-12-15T10:11:27.000Z</time>
      </trkpt>
      <trkpt lat="47.33095" lon="-1.76217">
        <ele>24.55</ele>
        <time>2019-12-15T10:11:31.000Z</time>
      </trkpt>
      <trkpt lat="47.3309" lon="-1.76248">
        <ele>23.66</ele>
        <time>2019-12-15T10:11:35.000Z</time>
      </trkpt>
      <trkpt lat="47.33094" lon="-1.76279">
        <ele>24.36</ele>
        <time>2019-12-15T10:11:39.000Z</time>
      </trkpt>
      <trkpt lat="47.33103" lon="-1.76308">
        <ele>23.69</ele>
        <time>2019-12-15T10:11:43.000Z</time>
      </trkpt>
      <trkpt lat="47.33113" lon="-1.76334">
        <ele>22.89</ele>
        <time>2019-12-15T10:11:47.000Z</time>
      </trkpt>
      <trkpt lat="47.33123" lon="-1.76366">
        <ele>23.2</ele>
        <time>2019-12-15T10:11:51.000Z</time>
      </trkpt>
      <trkpt lat="47.33133" lon="-1.76394">
        <ele>23.08</ele>
        <time>2019-12-15T10:11:55.000Z</time>
      </trkpt>
      <trkpt lat="47.33143" lon="-1.76422">
        <ele>23.23</ele>
        <time>2019-12-15T10:11:59.000Z</time>
      </trkpt>
      <trkpt lat="47.33154" lon="-1.76451">
        <ele>23</ele>
        <time>2019-12-15T10:12:03.000Z</time>
      </trkpt>
      <trkpt lat="47.33165" lon="-1.7648">
        <ele>23.35</ele>
        <time>2019-12-15T10:12:07.000Z</time>
      </trkpt>
      <trkpt lat="47.33179" lon="-1.76507">
        <ele>22.93</ele>
        <time>2019-12-15T10:12:11.000Z</time>
      </trkpt>
      <trkpt lat="47.33193" lon="-1.76536">
        <ele>23.01</ele>
        <time>2019-12-15T10:12:15.000Z</time>
      </trkpt>
      <trkpt lat="47.33203" lon="-1.76558">
        <ele>22.08</ele>
        <time>2019-12-15T10:12:18.000Z</time>
      </trkpt>
      <trkpt lat="47.33212" lon="-1.76582">
        <ele>22.59</ele>
        <time>2019-12-15T10:12:21.000Z</time>
      </trkpt>
      <trkpt lat="47.33219" lon="-1.76607">
        <ele>24.83</ele>
        <time>2019-12-15T10:12:24.000Z</time>
      </trkpt>
      <trkpt lat="47.33225" lon="-1.76632">
        <ele>27.11</ele>
        <time>2019-12-15T10:12:27.000Z</time>
      </trkpt>
      <trkpt lat="47.33232" lon="-1.76666">
        <ele>28.42</ele>
        <time>2019-12-15T10:12:31.000Z</time>
      </trkpt>
      <trkpt lat="47.33237" lon="-1.76699">
        <ele>28.66</ele>
        <time>2019-12-15T10:12:35.000Z</time>
      </trkpt>
      <trkpt lat="47.3324" lon="-1.76732">
        <ele>28.16</ele>
        <time>2019-12-15T10:12:39.000Z</time>
      </trkpt>
      <trkpt lat="47.33243" lon="-1.76758">
        <ele>27.24</ele>
        <time>2019-12-15T10:12:42.000Z</time>
      </trkpt>
      <trkpt lat="47.33245" lon="-1.76793">
        <ele>25.12</ele>
        <time>2019-12-15T10:12:46.000Z</time>
      </trkpt>
      <trkpt lat="47.33247" lon="-1.76827">
        <ele>24.55</ele>
        <time>2019-12-15T10:12:50.000Z</time>
      </trkpt>
      <trkpt lat="47.33247" lon="-1.76861">
        <ele>24.01</ele>
        <time>2019-12-15T10:12:54.000Z</time>
      </trkpt>
      <trkpt lat="47.33249" lon="-1.76896">
        <ele>23.68</ele>
        <time>2019-12-15T10:12:58.000Z</time>
      </trkpt>
      <trkpt lat="47.3325" lon="-1.76923">
        <ele>24.83</ele>
        <time>2019-12-15T10:13:01.000Z</time>
      </trkpt>
      <trkpt lat="47.33252" lon="-1.76951">
        <ele>25.81</ele>
        <time>2019-12-15T10:13:04.000Z</time>
      </trkpt>
      <trkpt lat="47.33253" lon="-1.76979">
        <ele>25.92</ele>
        <time>2019-12-15T10:13:07.000Z</time>
      </trkpt>
      <trkpt lat="47.33248" lon="-1.77011">
        <ele>25.64</ele>
        <time>2019-12-15T10:13:11.000Z</time>
      </trkpt>
      <trkpt lat="47.33238" lon="-1.7704">
        <ele>28.5</ele>
        <time>2019-12-15T10:13:15.000Z</time>
      </trkpt>
      <trkpt lat="47.3322" lon="-1.77062">
        <ele>29.53</ele>
        <time>2019-12-15T10:13:19.000Z</time>
      </trkpt>
      <trkpt lat="47.33203" lon="-1.77076">
        <ele>29.64</ele>
        <time>2019-12-15T10:13:22.000Z</time>
      </trkpt>
      <trkpt lat="47.33187" lon="-1.77092">
        <ele>29.47</ele>
        <time>2019-12-15T10:13:25.000Z</time>
      </trkpt>
      <trkpt lat="47.33172" lon="-1.77106">
        <ele>29.06</ele>
        <time>2019-12-15T10:13:28.000Z</time>
      </trkpt>
      <trkpt lat="47.33156" lon="-1.77121">
        <ele>28.89</ele>
        <time>2019-12-15T10:13:31.000Z</time>
      </trkpt>
      <trkpt lat="47.33139" lon="-1.77138">
        <ele>28.62</ele>
        <time>2019-12-15T10:13:34.000Z</time>
      </trkpt>
      <trkpt lat="47.33123" lon="-1.77156">
        <ele>26.81</ele>
        <time>2019-12-15T10:13:37.000Z</time>
      </trkpt>
      <trkpt lat="47.33112" lon="-1.77186">
        <ele>25.25</ele>
        <time>2019-12-15T10:13:41.000Z</time>
      </trkpt>
      <trkpt lat="47.33109" lon="-1.77213">
        <ele>25.02</ele>
        <time>2019-12-15T10:13:44.000Z</time>
      </trkpt>
      <trkpt lat="47.33111" lon="-1.77239">
        <ele>25.4</ele>
        <time>2019-12-15T10:13:47.000Z</time>
      </trkpt>
      <trkpt lat="47.33116" lon="-1.77268">
        <ele>25.82</ele>
        <time>2019-12-15T10:13:50.000Z</time>
      </trkpt>
      <trkpt lat="47.33121" lon="-1.773">
        <ele>25.82</ele>
        <time>2019-12-15T10:13:54.000Z</time>
      </trkpt>
      <trkpt lat="47.33126" lon="-1.7733">
        <ele>25.81</ele>
        <time>2019-12-15T10:13:58.000Z</time>
      </trkpt>
      <trkpt lat="47.33132" lon="-1.77364">
        <ele>27.55</ele>
        <time>2019-12-15T10:14:02.000Z</time>
      </trkpt>
      <trkpt lat="47.33136" lon="-1.7739">
        <ele>27.47</ele>
        <time>2019-12-15T10:14:05.000Z</time>
      </trkpt>
      <trkpt lat="47.33139" lon="-1.77416">
        <ele>25.98</ele>
        <time>2019-12-15T10:14:08.000Z</time>
      </trkpt>
      <trkpt lat="47.33143" lon="-1.77442">
        <ele>25</ele>
        <time>2019-12-15T10:14:11.000Z</time>
      </trkpt>
      <trkpt lat="47.33148" lon="-1.77476">
        <ele>24.16</ele>
        <time>2019-12-15T10:14:15.000Z</time>
      </trkpt>
      <trkpt lat="47.33153" lon="-1.7751">
        <ele>25.18</ele>
        <time>2019-12-15T10:14:19.000Z</time>
      </trkpt>
      <trkpt lat="47.33157" lon="-1.77537">
        <ele>27.02</ele>
        <time>2019-12-15T10:14:22.000Z</time>
      </trkpt>
      <trkpt lat="47.33161" lon="-1.77564">
        <ele>28.51</ele>
        <time>2019-12-15T10:14:25.000Z</time>
      </trkpt>
      <trkpt lat="47.33166" lon="-1.7759">
        <ele>28.43</ele>
        <time>2019-12-15T10:14:28.000Z</time>
      </trkpt>
      <trkpt lat="47.3317" lon="-1.77616">
        <ele>28.77</ele>
        <time>2019-12-15T10:14:31.000Z</time>
      </trkpt>
      <trkpt lat="47.33176" lon="-1.77643">
        <ele>28.99</ele>
        <time>2019-12-15T10:14:34.000Z</time>
      </trkpt>
      <trkpt lat="47.3318" lon="-1.7767">
        <ele>29.52</ele>
        <time>2019-12-15T10:14:37.000Z</time>
      </trkpt>
      <trkpt lat="47.33185" lon="-1.77696">
        <ele>29.66</ele>
        <time>2019-12-15T10:14:40.000Z</time>
      </trkpt>
      <trkpt lat="47.33188" lon="-1.77722">
        <ele>30.38</ele>
        <time>2019-12-15T10:14:43.000Z</time>
      </trkpt>
      <trkpt lat="47.33191" lon="-1.7775">
        <ele>31.41</ele>
        <time>2019-12-15T10:14:46.000Z</time>
      </trkpt>
      <trkpt lat="47.33193" lon="-1.77776">
        <ele>31.11</ele>
        <time>2019-12-15T10:14:49.000Z</time>
      </trkpt>
      <trkpt lat="47.33194" lon="-1.77803">
        <ele>30.43</ele>
        <time>2019-12-15T10:14:52.000Z</time>
      </trkpt>
      <trkpt lat="47.33194" lon="-1.77831">
        <ele>30.66</ele>
        <time>2019-12-15T10:14:55.000Z</time>
      </trkpt>
      <trkpt lat="47.33193" lon="-1.77859">
        <ele>29.85</ele>
        <time>2019-12-15T10:14:58.000Z</time>
      </trkpt>
      <trkpt lat="47.33192" lon="-1.77886">
        <ele>29.16</ele>
        <time>2019-12-15T10:15:01.000Z</time>
      </trkpt>
      <trkpt lat="47.33192" lon="-1.77914">
        <ele>28.3</ele>
        <time>2019-12-15T10:15:04.000Z</time>
      </trkpt>
      <trkpt lat="47.33194" lon="-1.7794">
        <ele>28.06</ele>
        <time>2019-12-15T10:15:07.000Z</time>
      </trkpt>
      <trkpt lat="47.33199" lon="-1.77968">
        <ele>27.56</ele>
        <time>2019-12-15T10:15:10.000Z</time>
      </trkpt>
      <trkpt lat="47.33203" lon="-1.77994">
        <ele>27.73</ele>
        <time>2019-12-15T10:15:13.000Z</time>
      </trkpt>
      <trkpt lat="47.33208" lon="-1.78021">
        <ele>28.55</ele>
        <time>2019-12-15T10:15:16.000Z</time>
      </trkpt>
      <trkpt lat="47.33213" lon="-1.78048">
        <ele>28.66</ele>
        <time>2019-12-15T10:15:19.000Z</time>
      </trkpt>
      <trkpt lat="47.3322" lon="-1.78081">
        <ele>28.37</ele>
        <time>2019-12-15T10:15:23.000Z</time>
      </trkpt>
      <trkpt lat="47.33231" lon="-1.78109">
        <ele>28.66</ele>
        <time>2019-12-15T10:15:27.000Z</time>
      </trkpt>
      <trkpt lat="47.3325" lon="-1.78128">
        <ele>29.12</ele>
        <time>2019-12-15T10:15:31.000Z</time>
      </trkpt>
      <trkpt lat="47.33267" lon="-1.7814">
        <ele>29</ele>
        <time>2019-12-15T10:15:34.000Z</time>
      </trkpt>
      <trkpt lat="47.33283" lon="-1.78154">
        <ele>28.37</ele>
        <time>2019-12-15T10:15:37.000Z</time>
      </trkpt>
      <trkpt lat="47.33293" lon="-1.78179">
        <ele>28.21</ele>
        <time>2019-12-15T10:15:40.000Z</time>
      </trkpt>
      <trkpt lat="47.33296" lon="-1.78207">
        <ele>28.68</ele>
        <time>2019-12-15T10:15:43.000Z</time>
      </trkpt>
      <trkpt lat="47.333" lon="-1.78235">
        <ele>29.37</ele>
        <time>2019-12-15T10:15:46.000Z</time>
      </trkpt>
      <trkpt lat="47.33302" lon="-1.78263">
        <ele>29.76</ele>
        <time>2019-12-15T10:15:49.000Z</time>
      </trkpt>
      <trkpt lat="47.33305" lon="-1.7829">
        <ele>30.89</ele>
        <time>2019-12-15T10:15:52.000Z</time>
      </trkpt>
      <trkpt lat="47.33309" lon="-1.78317">
        <ele>30.93</ele>
        <time>2019-12-15T10:15:55.000Z</time>
      </trkpt>
      <trkpt lat="47.33311" lon="-1.78345">
        <ele>30.95</ele>
        <time>2019-12-15T10:15:58.000Z</time>
      </trkpt>
      <trkpt lat="47.33314" lon="-1.78374">
        <ele>30.53</ele>
        <time>2019-12-15T10:16:01.000Z</time>
      </trkpt>
      <trkpt lat="47.33318" lon="-1.78402">
        <ele>30.92</ele>
        <time>2019-12-15T10:16:04.000Z</time>
      </trkpt>
      <trkpt lat="47.33321" lon="-1.78429">
        <ele>31.28</ele>
        <time>2019-12-15T10:16:07.000Z</time>
      </trkpt>
      <trkpt lat="47.33326" lon="-1.78464">
        <ele>31.24</ele>
        <time>2019-12-15T10:16:11.000Z</time>
      </trkpt>
      <trkpt lat="47.33331" lon="-1.7849">
        <ele>31.02</ele>
        <time>2019-12-15T10:16:14.000Z</time>
      </trkpt>
      <trkpt lat="47.33339" lon="-1.78517">
        <ele>30.34</ele>
        <time>2019-12-15T10:16:17.000Z</time>
      </trkpt>
      <trkpt lat="47.33348" lon="-1.78544">
        <ele>29.68</ele>
        <time>2019-12-15T10:16:20.000Z</time>
      </trkpt>
      <trkpt lat="47.33355" lon="-1.78571">
        <ele>29.54</ele>
        <time>2019-12-15T10:16:23.000Z</time>
      </trkpt>
      <trkpt lat="47.33359" lon="-1.78599">
        <ele>28.88</ele>
        <time>2019-12-15T10:16:26.000Z</time>
      </trkpt>
      <trkpt lat="47.33362" lon="-1.78629">
        <ele>29.31</ele>
        <time>2019-12-15T10:16:29.000Z</time>
      </trkpt>
      <trkpt lat="47.33365" lon="-1.78657">
        <ele>29.55</ele>
        <time>2019-12-15T10:16:32.000Z</time>
      </trkpt>
      <trkpt lat="47.33365" lon="-1.78687">
        <ele>29.38</ele>
        <time>2019-12-15T10:16:35.000Z</time>
      </trkpt>
      <trkpt lat="47.33357" lon="-1.78716">
        <ele>29.8</ele>
        <time>2019-12-15T10:16:38.000Z</time>
      </trkpt>
      <trkpt lat="47.33343" lon="-1.78738">
        <ele>30.28</ele>
        <time>2019-12-15T10:16:41.000Z</time>
      </trkpt>
      <trkpt lat="47.33328" lon="-1.78752">
        <ele>29.45</ele>
        <time>2019-12-15T10:16:44.000Z</time>
      </trkpt>
      <trkpt lat="47.33311" lon="-1.78767">
        <ele>29.43</ele>
        <time>2019-12-15T10:16:47.000Z</time>
      </trkpt>
      <trkpt lat="47.33291" lon="-1.78786">
        <ele>29.94</ele>
        <time>2019-12-15T10:16:51.000Z</time>
      </trkpt>
      <trkpt lat="47.33273" lon="-1.78805">
        <ele>29.78</ele>
        <time>2019-12-15T10:16:55.000Z</time>
      </trkpt>
      <trkpt lat="47.33255" lon="-1.78827">
        <ele>28.93</ele>
        <time>2019-12-15T10:16:59.000Z</time>
      </trkpt>
      <trkpt lat="47.33238" lon="-1.78848">
        <ele>29.17</ele>
        <time>2019-12-15T10:17:03.000Z</time>
      </trkpt>
      <trkpt lat="47.3322" lon="-1.78843">
        <ele>31.13</ele>
        <time>2019-12-15T10:17:07.000Z</time>
      </trkpt>
      <trkpt lat="47.33206" lon="-1.78814">
        <ele>30.95</ele>
        <time>2019-12-15T10:17:11.000Z</time>
      </trkpt>
      <trkpt lat="47.33192" lon="-1.78785">
        <ele>29.65</ele>
        <time>2019-12-15T10:17:15.000Z</time>
      </trkpt>
      <trkpt lat="47.3318" lon="-1.78763">
        <ele>28.33</ele>
        <time>2019-12-15T10:17:18.000Z</time>
      </trkpt>
      <trkpt lat="47.3317" lon="-1.78738">
        <ele>26.41</ele>
        <time>2019-12-15T10:17:21.000Z</time>
      </trkpt>
      <trkpt lat="47.33154" lon="-1.78718">
        <ele>25.82</ele>
        <time>2019-12-15T10:17:24.000Z</time>
      </trkpt>
      <trkpt lat="47.33132" lon="-1.78719">
        <ele>25.37</ele>
        <time>2019-12-15T10:17:28.000Z</time>
      </trkpt>
      <trkpt lat="47.33114" lon="-1.78729">
        <ele>23.5</ele>
        <time>2019-12-15T10:17:35.000Z</time>
      </trkpt>
      <trkpt lat="47.3311" lon="-1.78766">
        <ele>22.67</ele>
        <time>2019-12-15T10:17:37.000Z</time>
      </trkpt>
      <trkpt lat="47.33116" lon="-1.78794">
        <ele>20.23</ele>
        <time>2019-12-15T10:17:41.000Z</time>
      </trkpt>
      <trkpt lat="47.3313" lon="-1.78812">
        <ele>21.33</ele>
        <time>2019-12-15T10:17:46.000Z</time>
      </trkpt>
      <trkpt lat="47.33115" lon="-1.78788">
        <ele>23.59</ele>
        <time>2019-12-15T10:17:59.000Z</time>
      </trkpt>
      <trkpt lat="47.33096" lon="-1.78771">
        <ele>22.24</ele>
        <time>2019-12-15T10:18:03.000Z</time>
      </trkpt>
      <trkpt lat="47.33073" lon="-1.78764">
        <ele>22.29</ele>
        <time>2019-12-15T10:18:07.000Z</time>
      </trkpt>
      <trkpt lat="47.3305" lon="-1.78761">
        <ele>23.41</ele>
        <time>2019-12-15T10:18:11.000Z</time>
      </trkpt>
      <trkpt lat="47.33032" lon="-1.7876">
        <ele>26.63</ele>
        <time>2019-12-15T10:18:14.000Z</time>
      </trkpt>
      <trkpt lat="47.33013" lon="-1.78763">
        <ele>28.49</ele>
        <time>2019-12-15T10:18:17.000Z</time>
      </trkpt>
      <trkpt lat="47.32991" lon="-1.78769">
        <ele>30.23</ele>
        <time>2019-12-15T10:18:21.000Z</time>
      </trkpt>
      <trkpt lat="47.3297" lon="-1.78777">
        <ele>30.8</ele>
        <time>2019-12-15T10:18:25.000Z</time>
      </trkpt>
      <trkpt lat="47.32949" lon="-1.78787">
        <ele>32.15</ele>
        <time>2019-12-15T10:18:29.000Z</time>
      </trkpt>
      <trkpt lat="47.32928" lon="-1.78796">
        <ele>32.33</ele>
        <time>2019-12-15T10:18:33.000Z</time>
      </trkpt>
      <trkpt lat="47.32908" lon="-1.78808">
        <ele>32.39</ele>
        <time>2019-12-15T10:18:37.000Z</time>
      </trkpt>
      <trkpt lat="47.32888" lon="-1.7882">
        <ele>31.63</ele>
        <time>2019-12-15T10:18:41.000Z</time>
      </trkpt>
      <trkpt lat="47.32866" lon="-1.7883">
        <ele>33.31</ele>
        <time>2019-12-15T10:18:45.000Z</time>
      </trkpt>
      <trkpt lat="47.32845" lon="-1.78841">
        <ele>35.14</ele>
        <time>2019-12-15T10:18:49.000Z</time>
      </trkpt>
      <trkpt lat="47.32824" lon="-1.78856">
        <ele>33.81</ele>
        <time>2019-12-15T10:18:53.000Z</time>
      </trkpt>
      <trkpt lat="47.32805" lon="-1.78875">
        <ele>32.67</ele>
        <time>2019-12-15T10:18:57.000Z</time>
      </trkpt>
      <trkpt lat="47.32788" lon="-1.78895">
        <ele>32.36</ele>
        <time>2019-12-15T10:19:01.000Z</time>
      </trkpt>
      <trkpt lat="47.32772" lon="-1.78916">
        <ele>31.78</ele>
        <time>2019-12-15T10:19:05.000Z</time>
      </trkpt>
      <trkpt lat="47.32758" lon="-1.78934">
        <ele>30.58</ele>
        <time>2019-12-15T10:19:09.000Z</time>
      </trkpt>
      <trkpt lat="47.32744" lon="-1.78952">
        <ele>29.16</ele>
        <time>2019-12-15T10:19:13.000Z</time>
      </trkpt>
      <trkpt lat="47.32744" lon="-1.7898">
        <ele>28.59</ele>
        <time>2019-12-15T10:19:19.000Z</time>
      </trkpt>
      <trkpt lat="47.32759" lon="-1.79004">
        <ele>27.96</ele>
        <time>2019-12-15T10:19:23.000Z</time>
      </trkpt>
      <trkpt lat="47.32775" lon="-1.7903">
        <ele>27.29</ele>
        <time>2019-12-15T10:19:27.000Z</time>
      </trkpt>
      <trkpt lat="47.32791" lon="-1.79054">
        <ele>27.83</ele>
        <time>2019-12-15T10:19:31.000Z</time>
      </trkpt>
      <trkpt lat="47.32808" lon="-1.79077">
        <ele>28.3</ele>
        <time>2019-12-15T10:19:35.000Z</time>
      </trkpt>
      <trkpt lat="47.32823" lon="-1.79094">
        <ele>27.83</ele>
        <time>2019-12-15T10:19:38.000Z</time>
      </trkpt>
      <trkpt lat="47.32838" lon="-1.79111">
        <ele>28.7</ele>
        <time>2019-12-15T10:19:41.000Z</time>
      </trkpt>
      <trkpt lat="47.32855" lon="-1.79132">
        <ele>29.07</ele>
        <time>2019-12-15T10:19:45.000Z</time>
      </trkpt>
      <trkpt lat="47.32845" lon="-1.79157">
        <ele>28.15</ele>
        <time>2019-12-15T10:19:50.000Z</time>
      </trkpt>
      <trkpt lat="47.32824" lon="-1.79166">
        <ele>27.07</ele>
        <time>2019-12-15T10:19:54.000Z</time>
      </trkpt>
      <trkpt lat="47.32803" lon="-1.79181">
        <ele>27.81</ele>
        <time>2019-12-15T10:19:58.000Z</time>
      </trkpt>
      <trkpt lat="47.32789" lon="-1.79197">
        <ele>27.83</ele>
        <time>2019-12-15T10:20:01.000Z</time>
      </trkpt>
      <trkpt lat="47.32778" lon="-1.7922">
        <ele>26.17</ele>
        <time>2019-12-15T10:20:05.000Z</time>
      </trkpt>
      <trkpt lat="47.32795" lon="-1.7924">
        <ele>26.33</ele>
        <time>2019-12-15T10:20:09.000Z</time>
      </trkpt>
      <trkpt lat="47.3281" lon="-1.79255">
        <ele>26.18</ele>
        <time>2019-12-15T10:20:12.000Z</time>
      </trkpt>
      <trkpt lat="47.32825" lon="-1.79271">
        <ele>26.25</ele>
        <time>2019-12-15T10:20:15.000Z</time>
      </trkpt>
      <trkpt lat="47.32841" lon="-1.79288">
        <ele>25.92</ele>
        <time>2019-12-15T10:20:18.000Z</time>
      </trkpt>
      <trkpt lat="47.32856" lon="-1.79306">
        <ele>24.98</ele>
        <time>2019-12-15T10:20:21.000Z</time>
      </trkpt>
      <trkpt lat="47.32866" lon="-1.79336">
        <ele>25.52</ele>
        <time>2019-12-15T10:20:25.000Z</time>
      </trkpt>
      <trkpt lat="47.32874" lon="-1.79369">
        <ele>27.58</ele>
        <time>2019-12-15T10:20:29.000Z</time>
      </trkpt>
      <trkpt lat="47.32881" lon="-1.79394">
        <ele>29.43</ele>
        <time>2019-12-15T10:20:32.000Z</time>
      </trkpt>
      <trkpt lat="47.32888" lon="-1.7942">
        <ele>30.1</ele>
        <time>2019-12-15T10:20:35.000Z</time>
      </trkpt>
      <trkpt lat="47.32895" lon="-1.79445">
        <ele>30.59</ele>
        <time>2019-12-15T10:20:38.000Z</time>
      </trkpt>
      <trkpt lat="47.32902" lon="-1.7947">
        <ele>30.77</ele>
        <time>2019-12-15T10:20:41.000Z</time>
      </trkpt>
      <trkpt lat="47.32908" lon="-1.79497">
        <ele>30.66</ele>
        <time>2019-12-15T10:20:44.000Z</time>
      </trkpt>
      <trkpt lat="47.32915" lon="-1.79524">
        <ele>30.36</ele>
        <time>2019-12-15T10:20:47.000Z</time>
      </trkpt>
      <trkpt lat="47.32924" lon="-1.79551">
        <ele>30.61</ele>
        <time>2019-12-15T10:20:50.000Z</time>
      </trkpt>
      <trkpt lat="47.32931" lon="-1.79577">
        <ele>31.29</ele>
        <time>2019-12-15T10:20:53.000Z</time>
      </trkpt>
      <trkpt lat="47.32939" lon="-1.7961">
        <ele>31.59</ele>
        <time>2019-12-15T10:20:57.000Z</time>
      </trkpt>
      <trkpt lat="47.32946" lon="-1.79635">
        <ele>31.55</ele>
        <time>2019-12-15T10:21:00.000Z</time>
      </trkpt>
      <trkpt lat="47.3295" lon="-1.79663">
        <ele>31.96</ele>
        <time>2019-12-15T10:21:03.000Z</time>
      </trkpt>
      <trkpt lat="47.3295" lon="-1.79691">
        <ele>31.97</ele>
        <time>2019-12-15T10:21:06.000Z</time>
      </trkpt>
      <trkpt lat="47.32946" lon="-1.79718">
        <ele>31.34</ele>
        <time>2019-12-15T10:21:09.000Z</time>
      </trkpt>
      <trkpt lat="47.32944" lon="-1.79745">
        <ele>30.99</ele>
        <time>2019-12-15T10:21:12.000Z</time>
      </trkpt>
      <trkpt lat="47.32941" lon="-1.79772">
        <ele>30.24</ele>
        <time>2019-12-15T10:21:15.000Z</time>
      </trkpt>
      <trkpt lat="47.32939" lon="-1.798">
        <ele>30.84</ele>
        <time>2019-12-15T10:21:18.000Z</time>
      </trkpt>
      <trkpt lat="47.32933" lon="-1.79828">
        <ele>31.53</ele>
        <time>2019-12-15T10:21:21.000Z</time>
      </trkpt>
      <trkpt lat="47.32922" lon="-1.79852">
        <ele>31.15</ele>
        <time>2019-12-15T10:21:24.000Z</time>
      </trkpt>
      <trkpt lat="47.32907" lon="-1.79874">
        <ele>29.37</ele>
        <time>2019-12-15T10:21:27.000Z</time>
      </trkpt>
      <trkpt lat="47.32891" lon="-1.79895">
        <ele>27.2</ele>
        <time>2019-12-15T10:21:30.000Z</time>
      </trkpt>
      <trkpt lat="47.32876" lon="-1.79915">
        <ele>26.45</ele>
        <time>2019-12-15T10:21:33.000Z</time>
      </trkpt>
      <trkpt lat="47.32862" lon="-1.79933">
        <ele>26.23</ele>
        <time>2019-12-15T10:21:36.000Z</time>
      </trkpt>
      <trkpt lat="47.32844" lon="-1.79954">
        <ele>26.28</ele>
        <time>2019-12-15T10:21:40.000Z</time>
      </trkpt>
      <trkpt lat="47.32828" lon="-1.79968">
        <ele>26.48</ele>
        <time>2019-12-15T10:21:43.000Z</time>
      </trkpt>
      <trkpt lat="47.32811" lon="-1.79979">
        <ele>26.75</ele>
        <time>2019-12-15T10:21:46.000Z</time>
      </trkpt>
      <trkpt lat="47.32794" lon="-1.79989">
        <ele>28.1</ele>
        <time>2019-12-15T10:21:49.000Z</time>
      </trkpt>
      <trkpt lat="47.32777" lon="-1.8">
        <ele>28.98</ele>
        <time>2019-12-15T10:21:52.000Z</time>
      </trkpt>
      <trkpt lat="47.3276" lon="-1.80011">
        <ele>30.13</ele>
        <time>2019-12-15T10:21:55.000Z</time>
      </trkpt>
      <trkpt lat="47.32743" lon="-1.80021">
        <ele>31.03</ele>
        <time>2019-12-15T10:21:58.000Z</time>
      </trkpt>
      <trkpt lat="47.32726" lon="-1.80033">
        <ele>30.51</ele>
        <time>2019-12-15T10:22:01.000Z</time>
      </trkpt>
      <trkpt lat="47.32711" lon="-1.80058">
        <ele>31.37</ele>
        <time>2019-12-15T10:22:05.000Z</time>
      </trkpt>
      <trkpt lat="47.32703" lon="-1.80091">
        <ele>30.09</ele>
        <time>2019-12-15T10:22:09.000Z</time>
      </trkpt>
      <trkpt lat="47.32706" lon="-1.80124">
        <ele>30.08</ele>
        <time>2019-12-15T10:22:13.000Z</time>
      </trkpt>
      <trkpt lat="47.32714" lon="-1.80148">
        <ele>30.7</ele>
        <time>2019-12-15T10:22:16.000Z</time>
      </trkpt>
      <trkpt lat="47.32723" lon="-1.80172">
        <ele>31.53</ele>
        <time>2019-12-15T10:22:19.000Z</time>
      </trkpt>
      <trkpt lat="47.32733" lon="-1.80196">
        <ele>31.59</ele>
        <time>2019-12-15T10:22:22.000Z</time>
      </trkpt>
      <trkpt lat="47.32744" lon="-1.8022">
        <ele>31.99</ele>
        <time>2019-12-15T10:22:25.000Z</time>
      </trkpt>
      <trkpt lat="47.32756" lon="-1.80243">
        <ele>32.93</ele>
        <time>2019-12-15T10:22:28.000Z</time>
      </trkpt>
      <trkpt lat="47.32766" lon="-1.80267">
        <ele>33.76</ele>
        <time>2019-12-15T10:22:31.000Z</time>
      </trkpt>
      <trkpt lat="47.32777" lon="-1.80291">
        <ele>34.86</ele>
        <time>2019-12-15T10:22:34.000Z</time>
      </trkpt>
      <trkpt lat="47.32787" lon="-1.80315">
        <ele>34.47</ele>
        <time>2019-12-15T10:22:37.000Z</time>
      </trkpt>
      <trkpt lat="47.32797" lon="-1.80338">
        <ele>33.43</ele>
        <time>2019-12-15T10:22:40.000Z</time>
      </trkpt>
      <trkpt lat="47.32807" lon="-1.80361">
        <ele>32.24</ele>
        <time>2019-12-15T10:22:43.000Z</time>
      </trkpt>
      <trkpt lat="47.32816" lon="-1.80386">
        <ele>32.63</ele>
        <time>2019-12-15T10:22:46.000Z</time>
      </trkpt>
      <trkpt lat="47.32823" lon="-1.80412">
        <ele>33.41</ele>
        <time>2019-12-15T10:22:49.000Z</time>
      </trkpt>
      <trkpt lat="47.3283" lon="-1.8044">
        <ele>33.04</ele>
        <time>2019-12-15T10:22:52.000Z</time>
      </trkpt>
      <trkpt lat="47.32836" lon="-1.80468">
        <ele>33.39</ele>
        <time>2019-12-15T10:22:55.000Z</time>
      </trkpt>
      <trkpt lat="47.32839" lon="-1.80497">
        <ele>34.34</ele>
        <time>2019-12-15T10:22:58.000Z</time>
      </trkpt>
      <trkpt lat="47.32843" lon="-1.80526">
        <ele>34.68</ele>
        <time>2019-12-15T10:23:01.000Z</time>
      </trkpt>
      <trkpt lat="47.32847" lon="-1.80557">
        <ele>33.44</ele>
        <time>2019-12-15T10:23:04.000Z</time>
      </trkpt>
      <trkpt lat="47.3285" lon="-1.80585">
        <ele>32.55</ele>
        <time>2019-12-15T10:23:07.000Z</time>
      </trkpt>
      <trkpt lat="47.32853" lon="-1.80616">
        <ele>30.89</ele>
        <time>2019-12-15T10:23:10.000Z</time>
      </trkpt>
      <trkpt lat="47.32856" lon="-1.80646">
        <ele>30.26</ele>
        <time>2019-12-15T10:23:13.000Z</time>
      </trkpt>
      <trkpt lat="47.32861" lon="-1.80677">
        <ele>30.37</ele>
        <time>2019-12-15T10:23:16.000Z</time>
      </trkpt>
      <trkpt lat="47.32865" lon="-1.80706">
        <ele>30.75</ele>
        <time>2019-12-15T10:23:19.000Z</time>
      </trkpt>
      <trkpt lat="47.32868" lon="-1.80737">
        <ele>31.81</ele>
        <time>2019-12-15T10:23:22.000Z</time>
      </trkpt>
      <trkpt lat="47.32872" lon="-1.80768">
        <ele>31.82</ele>
        <time>2019-12-15T10:23:25.000Z</time>
      </trkpt>
      <trkpt lat="47.32877" lon="-1.808">
        <ele>32.79</ele>
        <time>2019-12-15T10:23:28.000Z</time>
      </trkpt>
      <trkpt lat="47.32882" lon="-1.80831">
        <ele>32.17</ele>
        <time>2019-12-15T10:23:31.000Z</time>
      </trkpt>
      <trkpt lat="47.32888" lon="-1.80862">
        <ele>31.65</ele>
        <time>2019-12-15T10:23:34.000Z</time>
      </trkpt>
      <trkpt lat="47.32893" lon="-1.80893">
        <ele>31.01</ele>
        <time>2019-12-15T10:23:37.000Z</time>
      </trkpt>
      <trkpt lat="47.32894" lon="-1.80925">
        <ele>29.34</ele>
        <time>2019-12-15T10:23:40.000Z</time>
      </trkpt>
      <trkpt lat="47.3289" lon="-1.80957">
        <ele>28.61</ele>
        <time>2019-12-15T10:23:43.000Z</time>
      </trkpt>
      <trkpt lat="47.32887" lon="-1.80989">
        <ele>27.93</ele>
        <time>2019-12-15T10:23:46.000Z</time>
      </trkpt>
      <trkpt lat="47.32881" lon="-1.8102">
        <ele>27.38</ele>
        <time>2019-12-15T10:23:49.000Z</time>
      </trkpt>
      <trkpt lat="47.32875" lon="-1.81052">
        <ele>26.85</ele>
        <time>2019-12-15T10:23:52.000Z</time>
      </trkpt>
      <trkpt lat="47.32867" lon="-1.81081">
        <ele>26.4</ele>
        <time>2019-12-15T10:23:55.000Z</time>
      </trkpt>
      <trkpt lat="47.32858" lon="-1.8111">
        <ele>26.86</ele>
        <time>2019-12-15T10:23:58.000Z</time>
      </trkpt>
      <trkpt lat="47.32848" lon="-1.81139">
        <ele>27.82</ele>
        <time>2019-12-15T10:24:01.000Z</time>
      </trkpt>
      <trkpt lat="47.32838" lon="-1.81167">
        <ele>28.54</ele>
        <time>2019-12-15T10:24:04.000Z</time>
      </trkpt>
      <trkpt lat="47.32828" lon="-1.81195">
        <ele>28.78</ele>
        <time>2019-12-15T10:24:07.000Z</time>
      </trkpt>
      <trkpt lat="47.32819" lon="-1.81221">
        <ele>28.22</ele>
        <time>2019-12-15T10:24:10.000Z</time>
      </trkpt>
      <trkpt lat="47.32812" lon="-1.81246">
        <ele>27.97</ele>
        <time>2019-12-15T10:24:13.000Z</time>
      </trkpt>
      <trkpt lat="47.32805" lon="-1.81272">
        <ele>28.64</ele>
        <time>2019-12-15T10:24:16.000Z</time>
      </trkpt>
      <trkpt lat="47.32799" lon="-1.81301">
        <ele>27.4</ele>
        <time>2019-12-15T10:24:19.000Z</time>
      </trkpt>
      <trkpt lat="47.32794" lon="-1.81331">
        <ele>26.13</ele>
        <time>2019-12-15T10:24:22.000Z</time>
      </trkpt>
      <trkpt lat="47.3279" lon="-1.81361">
        <ele>24.9</ele>
        <time>2019-12-15T10:24:25.000Z</time>
      </trkpt>
      <trkpt lat="47.32784" lon="-1.81391">
        <ele>23.93</ele>
        <time>2019-12-15T10:24:28.000Z</time>
      </trkpt>
      <trkpt lat="47.32778" lon="-1.81422">
        <ele>22.79</ele>
        <time>2019-12-15T10:24:31.000Z</time>
      </trkpt>
      <trkpt lat="47.32773" lon="-1.81453">
        <ele>22.41</ele>
        <time>2019-12-15T10:24:34.000Z</time>
      </trkpt>
      <trkpt lat="47.32767" lon="-1.81482">
        <ele>23.08</ele>
        <time>2019-12-15T10:24:37.000Z</time>
      </trkpt>
      <trkpt lat="47.3276" lon="-1.8151">
        <ele>24.63</ele>
        <time>2019-12-15T10:24:40.000Z</time>
      </trkpt>
      <trkpt lat="47.32754" lon="-1.81539">
        <ele>26.16</ele>
        <time>2019-12-15T10:24:43.000Z</time>
      </trkpt>
      <trkpt lat="47.32748" lon="-1.81567">
        <ele>25.51</ele>
        <time>2019-12-15T10:24:46.000Z</time>
      </trkpt>
      <trkpt lat="47.32742" lon="-1.81596">
        <ele>25.38</ele>
        <time>2019-12-15T10:24:49.000Z</time>
      </trkpt>
      <trkpt lat="47.32735" lon="-1.81624">
        <ele>25.7</ele>
        <time>2019-12-15T10:24:52.000Z</time>
      </trkpt>
      <trkpt lat="47.32729" lon="-1.81654">
        <ele>25</ele>
        <time>2019-12-15T10:24:55.000Z</time>
      </trkpt>
      <trkpt lat="47.32721" lon="-1.81683">
        <ele>25.72</ele>
        <time>2019-12-15T10:24:58.000Z</time>
      </trkpt>
      <trkpt lat="47.32714" lon="-1.81712">
        <ele>26.11</ele>
        <time>2019-12-15T10:25:01.000Z</time>
      </trkpt>
      <trkpt lat="47.32708" lon="-1.81738">
        <ele>26.23</ele>
        <time>2019-12-15T10:25:04.000Z</time>
      </trkpt>
      <trkpt lat="47.327" lon="-1.81765">
        <ele>27.05</ele>
        <time>2019-12-15T10:25:07.000Z</time>
      </trkpt>
      <trkpt lat="47.3269" lon="-1.8179">
        <ele>27.17</ele>
        <time>2019-12-15T10:25:10.000Z</time>
      </trkpt>
      <trkpt lat="47.32679" lon="-1.81815">
        <ele>27.41</ele>
        <time>2019-12-15T10:25:13.000Z</time>
      </trkpt>
      <trkpt lat="47.32667" lon="-1.81839">
        <ele>27.72</ele>
        <time>2019-12-15T10:25:16.000Z</time>
      </trkpt>
      <trkpt lat="47.32654" lon="-1.81863">
        <ele>27.31</ele>
        <time>2019-12-15T10:25:19.000Z</time>
      </trkpt>
      <trkpt lat="47.32642" lon="-1.81886">
        <ele>27.1</ele>
        <time>2019-12-15T10:25:22.000Z</time>
      </trkpt>
      <trkpt lat="47.3263" lon="-1.81911">
        <ele>25.47</ele>
        <time>2019-12-15T10:25:25.000Z</time>
      </trkpt>
      <trkpt lat="47.32619" lon="-1.81938">
        <ele>25.11</ele>
        <time>2019-12-15T10:25:28.000Z</time>
      </trkpt>
      <trkpt lat="47.3261" lon="-1.81965">
        <ele>24.6</ele>
        <time>2019-12-15T10:25:31.000Z</time>
      </trkpt>
      <trkpt lat="47.32602" lon="-1.81992">
        <ele>24.16</ele>
        <time>2019-12-15T10:25:34.000Z</time>
      </trkpt>
      <trkpt lat="47.32593" lon="-1.82018">
        <ele>24.52</ele>
        <time>2019-12-15T10:25:37.000Z</time>
      </trkpt>
      <trkpt lat="47.32585" lon="-1.82045">
        <ele>25.06</ele>
        <time>2019-12-15T10:25:40.000Z</time>
      </trkpt>
      <trkpt lat="47.32577" lon="-1.82071">
        <ele>25.42</ele>
        <time>2019-12-15T10:25:43.000Z</time>
      </trkpt>
      <trkpt lat="47.32569" lon="-1.82098">
        <ele>25.69</ele>
        <time>2019-12-15T10:25:46.000Z</time>
      </trkpt>
      <trkpt lat="47.32561" lon="-1.82124">
        <ele>24.8</ele>
        <time>2019-12-15T10:25:49.000Z</time>
      </trkpt>
      <trkpt lat="47.32553" lon="-1.82152">
        <ele>22.67</ele>
        <time>2019-12-15T10:25:52.000Z</time>
      </trkpt>
      <trkpt lat="47.32545" lon="-1.82179">
        <ele>21.91</ele>
        <time>2019-12-15T10:25:55.000Z</time>
      </trkpt>
      <trkpt lat="47.32532" lon="-1.82208">
        <ele>22.16</ele>
        <time>2019-12-15T10:25:59.000Z</time>
      </trkpt>
      <trkpt lat="47.32517" lon="-1.82235">
        <ele>23.09</ele>
        <time>2019-12-15T10:26:03.000Z</time>
      </trkpt>
      <trkpt lat="47.32504" lon="-1.82256">
        <ele>23.3</ele>
        <time>2019-12-15T10:26:06.000Z</time>
      </trkpt>
      <trkpt lat="47.3249" lon="-1.82276">
        <ele>23.97</ele>
        <time>2019-12-15T10:26:09.000Z</time>
      </trkpt>
      <trkpt lat="47.32475" lon="-1.82294">
        <ele>24.23</ele>
        <time>2019-12-15T10:26:12.000Z</time>
      </trkpt>
      <trkpt lat="47.32459" lon="-1.8231">
        <ele>24.87</ele>
        <time>2019-12-15T10:26:15.000Z</time>
      </trkpt>
      <trkpt lat="47.3244" lon="-1.8233">
        <ele>24.92</ele>
        <time>2019-12-15T10:26:19.000Z</time>
      </trkpt>
      <trkpt lat="47.32424" lon="-1.82346">
        <ele>24.98</ele>
        <time>2019-12-15T10:26:22.000Z</time>
      </trkpt>
      <trkpt lat="47.32408" lon="-1.82361">
        <ele>25.77</ele>
        <time>2019-12-15T10:26:25.000Z</time>
      </trkpt>
      <trkpt lat="47.32392" lon="-1.82375">
        <ele>25.98</ele>
        <time>2019-12-15T10:26:28.000Z</time>
      </trkpt>
      <trkpt lat="47.32375" lon="-1.8239">
        <ele>25.75</ele>
        <time>2019-12-15T10:26:31.000Z</time>
      </trkpt>
      <trkpt lat="47.32356" lon="-1.82401">
        <ele>25.91</ele>
        <time>2019-12-15T10:26:34.000Z</time>
      </trkpt>
      <trkpt lat="47.32336" lon="-1.82413">
        <ele>26.04</ele>
        <time>2019-12-15T10:26:37.000Z</time>
      </trkpt>
      <trkpt lat="47.32316" lon="-1.82424">
        <ele>26.14</ele>
        <time>2019-12-15T10:26:40.000Z</time>
      </trkpt>
      <trkpt lat="47.32295" lon="-1.82433">
        <ele>26.37</ele>
        <time>2019-12-15T10:26:43.000Z</time>
      </trkpt>
      <trkpt lat="47.32274" lon="-1.82445">
        <ele>25.76</ele>
        <time>2019-12-15T10:26:46.000Z</time>
      </trkpt>
      <trkpt lat="47.32254" lon="-1.82458">
        <ele>25.23</ele>
        <time>2019-12-15T10:26:49.000Z</time>
      </trkpt>
      <trkpt lat="47.32233" lon="-1.82467">
        <ele>24.32</ele>
        <time>2019-12-15T10:26:52.000Z</time>
      </trkpt>
      <trkpt lat="47.32213" lon="-1.82478">
        <ele>23.35</ele>
        <time>2019-12-15T10:26:55.000Z</time>
      </trkpt>
      <trkpt lat="47.32193" lon="-1.8249">
        <ele>22.89</ele>
        <time>2019-12-15T10:26:58.000Z</time>
      </trkpt>
      <trkpt lat="47.32175" lon="-1.82502">
        <ele>21.7</ele>
        <time>2019-12-15T10:27:01.000Z</time>
      </trkpt>
      <trkpt lat="47.32158" lon="-1.82515">
        <ele>21.19</ele>
        <time>2019-12-15T10:27:04.000Z</time>
      </trkpt>
      <trkpt lat="47.32142" lon="-1.82529">
        <ele>20.55</ele>
        <time>2019-12-15T10:27:07.000Z</time>
      </trkpt>
      <trkpt lat="47.32124" lon="-1.82546">
        <ele>19.59</ele>
        <time>2019-12-15T10:27:10.000Z</time>
      </trkpt>
      <trkpt lat="47.32107" lon="-1.82564">
        <ele>18.83</ele>
        <time>2019-12-15T10:27:13.000Z</time>
      </trkpt>
      <trkpt lat="47.32091" lon="-1.8258">
        <ele>18.23</ele>
        <time>2019-12-15T10:27:16.000Z</time>
      </trkpt>
      <trkpt lat="47.32074" lon="-1.82597">
        <ele>18.41</ele>
        <time>2019-12-15T10:27:19.000Z</time>
      </trkpt>
      <trkpt lat="47.32057" lon="-1.82615">
        <ele>18.93</ele>
        <time>2019-12-15T10:27:22.000Z</time>
      </trkpt>
      <trkpt lat="47.32039" lon="-1.82634">
        <ele>19.74</ele>
        <time>2019-12-15T10:27:25.000Z</time>
      </trkpt>
      <trkpt lat="47.32021" lon="-1.82652">
        <ele>20.54</ele>
        <time>2019-12-15T10:27:28.000Z</time>
      </trkpt>
      <trkpt lat="47.32006" lon="-1.82671">
        <ele>20.95</ele>
        <time>2019-12-15T10:27:31.000Z</time>
      </trkpt>
      <trkpt lat="47.32007" lon="-1.82703">
        <ele>22.14</ele>
        <time>2019-12-15T10:27:35.000Z</time>
      </trkpt>
      <trkpt lat="47.32022" lon="-1.8273">
        <ele>20.89</ele>
        <time>2019-12-15T10:27:39.000Z</time>
      </trkpt>
      <trkpt lat="47.32034" lon="-1.82752">
        <ele>20.37</ele>
        <time>2019-12-15T10:27:42.000Z</time>
      </trkpt>
      <trkpt lat="47.32045" lon="-1.82775">
        <ele>20.77</ele>
        <time>2019-12-15T10:27:45.000Z</time>
      </trkpt>
      <trkpt lat="47.32056" lon="-1.82799">
        <ele>20.7</ele>
        <time>2019-12-15T10:27:48.000Z</time>
      </trkpt>
      <trkpt lat="47.32067" lon="-1.82823">
        <ele>20.79</ele>
        <time>2019-12-15T10:27:51.000Z</time>
      </trkpt>
      <trkpt lat="47.32078" lon="-1.82847">
        <ele>21.38</ele>
        <time>2019-12-15T10:27:54.000Z</time>
      </trkpt>
      <trkpt lat="47.32089" lon="-1.8287">
        <ele>21.16</ele>
        <time>2019-12-15T10:27:57.000Z</time>
      </trkpt>
      <trkpt lat="47.321" lon="-1.82893">
        <ele>20.67</ele>
        <time>2019-12-15T10:28:00.000Z</time>
      </trkpt>
      <trkpt lat="47.32112" lon="-1.82915">
        <ele>21.7</ele>
        <time>2019-12-15T10:28:03.000Z</time>
      </trkpt>
      <trkpt lat="47.32122" lon="-1.82937">
        <ele>22.24</ele>
        <time>2019-12-15T10:28:06.000Z</time>
      </trkpt>
      <trkpt lat="47.32136" lon="-1.82966">
        <ele>21.95</ele>
        <time>2019-12-15T10:28:10.000Z</time>
      </trkpt>
      <trkpt lat="47.32147" lon="-1.82989">
        <ele>22.03</ele>
        <time>2019-12-15T10:28:13.000Z</time>
      </trkpt>
      <trkpt lat="47.32159" lon="-1.83015">
        <ele>22.33</ele>
        <time>2019-12-15T10:28:16.000Z</time>
      </trkpt>
      <trkpt lat="47.3217" lon="-1.83041">
        <ele>22.72</ele>
        <time>2019-12-15T10:28:19.000Z</time>
      </trkpt>
      <trkpt lat="47.32182" lon="-1.83067">
        <ele>22.47</ele>
        <time>2019-12-15T10:28:22.000Z</time>
      </trkpt>
      <trkpt lat="47.32192" lon="-1.83095">
        <ele>21.8</ele>
        <time>2019-12-15T10:28:25.000Z</time>
      </trkpt>
      <trkpt lat="47.32196" lon="-1.83121">
        <ele>22.01</ele>
        <time>2019-12-15T10:28:28.000Z</time>
      </trkpt>
      <trkpt lat="47.3219" lon="-1.8315">
        <ele>20.01</ele>
        <time>2019-12-15T10:28:32.000Z</time>
      </trkpt>
      <trkpt lat="47.32177" lon="-1.83169">
        <ele>18.47</ele>
        <time>2019-12-15T10:28:35.000Z</time>
      </trkpt>
      <trkpt lat="47.32163" lon="-1.8319">
        <ele>17.66</ele>
        <time>2019-12-15T10:28:38.000Z</time>
      </trkpt>
      <trkpt lat="47.32148" lon="-1.8321">
        <ele>17.46</ele>
        <time>2019-12-15T10:28:41.000Z</time>
      </trkpt>
      <trkpt lat="47.32132" lon="-1.8323">
        <ele>16.67</ele>
        <time>2019-12-15T10:28:44.000Z</time>
      </trkpt>
      <trkpt lat="47.32117" lon="-1.8325">
        <ele>15.99</ele>
        <time>2019-12-15T10:28:47.000Z</time>
      </trkpt>
      <trkpt lat="47.32101" lon="-1.83271">
        <ele>15.95</ele>
        <time>2019-12-15T10:28:50.000Z</time>
      </trkpt>
      <trkpt lat="47.32084" lon="-1.83292">
        <ele>15.34</ele>
        <time>2019-12-15T10:28:53.000Z</time>
      </trkpt>
      <trkpt lat="47.32068" lon="-1.8331">
        <ele>14.75</ele>
        <time>2019-12-15T10:28:56.000Z</time>
      </trkpt>
      <trkpt lat="47.32054" lon="-1.8333">
        <ele>14.65</ele>
        <time>2019-12-15T10:28:59.000Z</time>
      </trkpt>
      <trkpt lat="47.32039" lon="-1.83349">
        <ele>14.28</ele>
        <time>2019-12-15T10:29:02.000Z</time>
      </trkpt>
      <trkpt lat="47.32024" lon="-1.83368">
        <ele>13.24</ele>
        <time>2019-12-15T10:29:05.000Z</time>
      </trkpt>
      <trkpt lat="47.32009" lon="-1.83387">
        <ele>12.89</ele>
        <time>2019-12-15T10:29:08.000Z</time>
      </trkpt>
      <trkpt lat="47.31994" lon="-1.83407">
        <ele>11.78</ele>
        <time>2019-12-15T10:29:11.000Z</time>
      </trkpt>
      <trkpt lat="47.31978" lon="-1.83426">
        <ele>11.16</ele>
        <time>2019-12-15T10:29:14.000Z</time>
      </trkpt>
      <trkpt lat="47.3196" lon="-1.83443">
        <ele>10.67</ele>
        <time>2019-12-15T10:29:17.000Z</time>
      </trkpt>
      <trkpt lat="47.31942" lon="-1.8346">
        <ele>10.19</ele>
        <time>2019-12-15T10:29:20.000Z</time>
      </trkpt>
      <trkpt lat="47.31925" lon="-1.83479">
        <ele>9.89</ele>
        <time>2019-12-15T10:29:23.000Z</time>
      </trkpt>
      <trkpt lat="47.31911" lon="-1.835">
        <ele>10.02</ele>
        <time>2019-12-15T10:29:26.000Z</time>
      </trkpt>
      <trkpt lat="47.31898" lon="-1.83525">
        <ele>10.94</ele>
        <time>2019-12-15T10:29:29.000Z</time>
      </trkpt>
      <trkpt lat="47.31887" lon="-1.83551">
        <ele>11.04</ele>
        <time>2019-12-15T10:29:32.000Z</time>
      </trkpt>
      <trkpt lat="47.31875" lon="-1.83577">
        <ele>11.35</ele>
        <time>2019-12-15T10:29:35.000Z</time>
      </trkpt>
      <trkpt lat="47.31859" lon="-1.83595">
        <ele>11.05</ele>
        <time>2019-12-15T10:29:38.000Z</time>
      </trkpt>
      <trkpt lat="47.31844" lon="-1.83611">
        <ele>11.55</ele>
        <time>2019-12-15T10:29:41.000Z</time>
      </trkpt>
      <trkpt lat="47.31831" lon="-1.83629">
        <ele>12.91</ele>
        <time>2019-12-15T10:29:44.000Z</time>
      </trkpt>
      <trkpt lat="47.31818" lon="-1.8365">
        <ele>13.91</ele>
        <time>2019-12-15T10:29:47.000Z</time>
      </trkpt>
      <trkpt lat="47.31803" lon="-1.83671">
        <ele>13.31</ele>
        <time>2019-12-15T10:29:50.000Z</time>
      </trkpt>
      <trkpt lat="47.31789" lon="-1.83691">
        <ele>13.31</ele>
        <time>2019-12-15T10:29:53.000Z</time>
      </trkpt>
      <trkpt lat="47.31776" lon="-1.83712">
        <ele>12.97</ele>
        <time>2019-12-15T10:29:56.000Z</time>
      </trkpt>
      <trkpt lat="47.3176" lon="-1.83736">
        <ele>12.56</ele>
        <time>2019-12-15T10:30:00.000Z</time>
      </trkpt>
      <trkpt lat="47.31745" lon="-1.83759">
        <ele>12.31</ele>
        <time>2019-12-15T10:30:04.000Z</time>
      </trkpt>
      <trkpt lat="47.3173" lon="-1.83783">
        <ele>12.7</ele>
        <time>2019-12-15T10:30:08.000Z</time>
      </trkpt>
      <trkpt lat="47.31714" lon="-1.8381">
        <ele>13.14</ele>
        <time>2019-12-15T10:30:12.000Z</time>
      </trkpt>
      <trkpt lat="47.31701" lon="-1.83829">
        <ele>12.83</ele>
        <time>2019-12-15T10:30:15.000Z</time>
      </trkpt>
      <trkpt lat="47.31684" lon="-1.83853">
        <ele>11.97</ele>
        <time>2019-12-15T10:30:19.000Z</time>
      </trkpt>
      <trkpt lat="47.31667" lon="-1.83876">
        <ele>12.48</ele>
        <time>2019-12-15T10:30:23.000Z</time>
      </trkpt>
      <trkpt lat="47.31648" lon="-1.83895">
        <ele>12.37</ele>
        <time>2019-12-15T10:30:27.000Z</time>
      </trkpt>
      <trkpt lat="47.31627" lon="-1.83905">
        <ele>9.69</ele>
        <time>2019-12-15T10:30:30.000Z</time>
      </trkpt>
      <trkpt lat="47.31605" lon="-1.83913">
        <ele>8.36</ele>
        <time>2019-12-15T10:30:33.000Z</time>
      </trkpt>
      <trkpt lat="47.31581" lon="-1.83922">
        <ele>7.59</ele>
        <time>2019-12-15T10:30:36.000Z</time>
      </trkpt>
      <trkpt lat="47.31559" lon="-1.83929">
        <ele>7.16</ele>
        <time>2019-12-15T10:30:39.000Z</time>
      </trkpt>
      <trkpt lat="47.31536" lon="-1.83939">
        <ele>7.31</ele>
        <time>2019-12-15T10:30:42.000Z</time>
      </trkpt>
      <trkpt lat="47.31514" lon="-1.83948">
        <ele>7.41</ele>
        <time>2019-12-15T10:30:45.000Z</time>
      </trkpt>
      <trkpt lat="47.3149" lon="-1.83959">
        <ele>6.82</ele>
        <time>2019-12-15T10:30:48.000Z</time>
      </trkpt>
      <trkpt lat="47.31465" lon="-1.83968">
        <ele>5.44</ele>
        <time>2019-12-15T10:30:51.000Z</time>
      </trkpt>
      <trkpt lat="47.31447" lon="-1.83976">
        <ele>4.44</ele>
        <time>2019-12-15T10:30:53.000Z</time>
      </trkpt>
      <trkpt lat="47.31427" lon="-1.83983">
        <ele>3.79</ele>
        <time>2019-12-15T10:30:55.000Z</time>
      </trkpt>
      <trkpt lat="47.31408" lon="-1.83991">
        <ele>2.71</ele>
        <time>2019-12-15T10:30:57.000Z</time>
      </trkpt>
      <trkpt lat="47.31383" lon="-1.84004">
        <ele>-1.46</ele>
        <time>2019-12-15T10:31:00.000Z</time>
      </trkpt>
      <trkpt lat="47.31361" lon="-1.84022">
        <ele>-3.81</ele>
        <time>2019-12-15T10:31:03.000Z</time>
      </trkpt>
      <trkpt lat="47.31343" lon="-1.84043">
        <ele>-5.29</ele>
        <time>2019-12-15T10:31:06.000Z</time>
      </trkpt>
      <trkpt lat="47.31326" lon="-1.84068">
        <ele>-6.28</ele>
        <time>2019-12-15T10:31:09.000Z</time>
      </trkpt>
      <trkpt lat="47.3131" lon="-1.84094">
        <ele>-6.16</ele>
        <time>2019-12-15T10:31:12.000Z</time>
      </trkpt>
      <trkpt lat="47.31293" lon="-1.84115">
        <ele>-4.81</ele>
        <time>2019-12-15T10:31:15.000Z</time>
      </trkpt>
      <trkpt lat="47.31273" lon="-1.84129">
        <ele>-4.41</ele>
        <time>2019-12-15T10:31:18.000Z</time>
      </trkpt>
      <trkpt lat="47.31254" lon="-1.84143">
        <ele>-4.9</ele>
        <time>2019-12-15T10:31:21.000Z</time>
      </trkpt>
      <trkpt lat="47.31234" lon="-1.84157">
        <ele>-6.61</ele>
        <time>2019-12-15T10:31:24.000Z</time>
      </trkpt>
      <trkpt lat="47.31213" lon="-1.84171">
        <ele>-7.01</ele>
        <time>2019-12-15T10:31:27.000Z</time>
      </trkpt>
      <trkpt lat="47.3119" lon="-1.84186">
        <ele>-7.74</ele>
        <time>2019-12-15T10:31:30.000Z</time>
      </trkpt>
      <trkpt lat="47.31166" lon="-1.84202">
        <ele>-8.22</ele>
        <time>2019-12-15T10:31:33.000Z</time>
      </trkpt>
      <trkpt lat="47.31145" lon="-1.84223">
        <ele>-9.09</ele>
        <time>2019-12-15T10:31:36.000Z</time>
      </trkpt>
      <trkpt lat="47.31133" lon="-1.84243">
        <ele>-7.38</ele>
        <time>2019-12-15T10:31:38.000Z</time>
      </trkpt>
      <trkpt lat="47.31119" lon="-1.84267">
        <ele>-8.13</ele>
        <time>2019-12-15T10:31:40.000Z</time>
      </trkpt>
      <trkpt lat="47.31108" lon="-1.84295">
        <ele>-10.44</ele>
        <time>2019-12-15T10:31:42.000Z</time>
      </trkpt>
      <trkpt lat="47.31101" lon="-1.84322">
        <ele>-11.01</ele>
        <time>2019-12-15T10:31:44.000Z</time>
      </trkpt>
      <trkpt lat="47.31094" lon="-1.84353">
        <ele>-13.63</ele>
        <time>2019-12-15T10:31:46.000Z</time>
      </trkpt>
      <trkpt lat="47.3109" lon="-1.84381">
        <ele>-15.9</ele>
        <time>2019-12-15T10:31:48.000Z</time>
      </trkpt>
      <trkpt lat="47.3109" lon="-1.8441">
        <ele>-18.9</ele>
        <time>2019-12-15T10:31:50.000Z</time>
      </trkpt>
      <trkpt lat="47.31092" lon="-1.84441">
        <ele>-20.76</ele>
        <time>2019-12-15T10:31:52.000Z</time>
      </trkpt>
      <trkpt lat="47.31094" lon="-1.84471">
        <ele>-21.95</ele>
        <time>2019-12-15T10:31:54.000Z</time>
      </trkpt>
      <trkpt lat="47.31095" lon="-1.845">
        <ele>-22.12</ele>
        <time>2019-12-15T10:31:56.000Z</time>
      </trkpt>
      <trkpt lat="47.31092" lon="-1.84529">
        <ele>-23.85</ele>
        <time>2019-12-15T10:31:58.000Z</time>
      </trkpt>
      <trkpt lat="47.31085" lon="-1.84555">
        <ele>-23.69</ele>
        <time>2019-12-15T10:32:00.000Z</time>
      </trkpt>
      <trkpt lat="47.31072" lon="-1.84575">
        <ele>-24.41</ele>
        <time>2019-12-15T10:32:02.000Z</time>
      </trkpt>
      <trkpt lat="47.31053" lon="-1.84603">
        <ele>-27.7</ele>
        <time>2019-12-15T10:32:05.000Z</time>
      </trkpt>
      <trkpt lat="47.31036" lon="-1.84632">
        <ele>-29.24</ele>
        <time>2019-12-15T10:32:08.000Z</time>
      </trkpt>
      <trkpt lat="47.31019" lon="-1.84661">
        <ele>-30.83</ele>
        <time>2019-12-15T10:32:11.000Z</time>
      </trkpt>
      <trkpt lat="47.31001" lon="-1.8469">
        <ele>-32.21</ele>
        <time>2019-12-15T10:32:14.000Z</time>
      </trkpt>
      <trkpt lat="47.30989" lon="-1.8471">
        <ele>-32.67</ele>
        <time>2019-12-15T10:32:16.000Z</time>
      </trkpt>
      <trkpt lat="47.3097" lon="-1.84739">
        <ele>-33.55</ele>
        <time>2019-12-15T10:32:19.000Z</time>
      </trkpt>
      <trkpt lat="47.30949" lon="-1.84762">
        <ele>-34.74</ele>
        <time>2019-12-15T10:32:22.000Z</time>
      </trkpt>
      <trkpt lat="47.30925" lon="-1.84779">
        <ele>-34.25</ele>
        <time>2019-12-15T10:32:25.000Z</time>
      </trkpt>
      <trkpt lat="47.30906" lon="-1.8479">
        <ele>-34.58</ele>
        <time>2019-12-15T10:32:27.000Z</time>
      </trkpt>
      <trkpt lat="47.30888" lon="-1.848">
        <ele>-36.17</ele>
        <time>2019-12-15T10:32:29.000Z</time>
      </trkpt>
      <trkpt lat="47.30871" lon="-1.8481">
        <ele>-37.49</ele>
        <time>2019-12-15T10:32:31.000Z</time>
      </trkpt>
      <trkpt lat="47.30849" lon="-1.84829">
        <ele>-38.21</ele>
        <time>2019-12-15T10:32:34.000Z</time>
      </trkpt>
      <trkpt lat="47.30828" lon="-1.84848">
        <ele>-39.38</ele>
        <time>2019-12-15T10:32:37.000Z</time>
      </trkpt>
      <trkpt lat="47.30807" lon="-1.84865">
        <ele>-41.62</ele>
        <time>2019-12-15T10:32:40.000Z</time>
      </trkpt>
      <trkpt lat="47.30788" lon="-1.84881">
        <ele>-43.18</ele>
        <time>2019-12-15T10:32:43.000Z</time>
      </trkpt>
      <trkpt lat="47.3077" lon="-1.84895">
        <ele>-43.3</ele>
        <time>2019-12-15T10:32:46.000Z</time>
      </trkpt>
      <trkpt lat="47.30751" lon="-1.84896">
        <ele>-43.57</ele>
        <time>2019-12-15T10:32:51.000Z</time>
      </trkpt>
      <trkpt lat="47.30737" lon="-1.84871">
        <ele>-44.53</ele>
        <time>2019-12-15T10:32:56.000Z</time>
      </trkpt>
      <trkpt lat="47.30724" lon="-1.84848">
        <ele>-45.31</ele>
        <time>2019-12-15T10:33:00.000Z</time>
      </trkpt>
      <trkpt lat="47.30709" lon="-1.84822">
        <ele>-46.58</ele>
        <time>2019-12-15T10:33:04.000Z</time>
      </trkpt>
      <trkpt lat="47.30694" lon="-1.84797">
        <ele>-46.52</ele>
        <time>2019-12-15T10:33:08.000Z</time>
      </trkpt>
      <trkpt lat="47.30682" lon="-1.84777">
        <ele>-46.5</ele>
        <time>2019-12-15T10:33:11.000Z</time>
      </trkpt>
      <trkpt lat="47.30669" lon="-1.84757">
        <ele>-46.89</ele>
        <time>2019-12-15T10:33:14.000Z</time>
      </trkpt>
      <trkpt lat="47.30657" lon="-1.84736">
        <ele>-46.78</ele>
        <time>2019-12-15T10:33:17.000Z</time>
      </trkpt>
      <trkpt lat="47.30644" lon="-1.84715">
        <ele>-46.8</ele>
        <time>2019-12-15T10:33:20.000Z</time>
      </trkpt>
      <trkpt lat="47.30632" lon="-1.84695">
        <ele>-46.56</ele>
        <time>2019-12-15T10:33:23.000Z</time>
      </trkpt>
      <trkpt lat="47.30619" lon="-1.84674">
        <ele>-46.22</ele>
        <time>2019-12-15T10:33:26.000Z</time>
      </trkpt>
      <trkpt lat="47.30606" lon="-1.84653">
        <ele>-46.12</ele>
        <time>2019-12-15T10:33:29.000Z</time>
      </trkpt>
      <trkpt lat="47.30592" lon="-1.84633">
        <ele>-45.82</ele>
        <time>2019-12-15T10:33:32.000Z</time>
      </trkpt>
      <trkpt lat="47.30579" lon="-1.84612">
        <ele>-45.23</ele>
        <time>2019-12-15T10:33:35.000Z</time>
      </trkpt>
      <trkpt lat="47.30565" lon="-1.84591">
        <ele>-44.8</ele>
        <time>2019-12-15T10:33:38.000Z</time>
      </trkpt>
      <trkpt lat="47.30552" lon="-1.8457">
        <ele>-44.59</ele>
        <time>2019-12-15T10:33:41.000Z</time>
      </trkpt>
      <trkpt lat="47.30538" lon="-1.84548">
        <ele>-45.04</ele>
        <time>2019-12-15T10:33:44.000Z</time>
      </trkpt>
      <trkpt lat="47.30525" lon="-1.84527">
        <ele>-45.85</ele>
        <time>2019-12-15T10:33:47.000Z</time>
      </trkpt>
      <trkpt lat="47.30511" lon="-1.84505">
        <ele>-46.57</ele>
        <time>2019-12-15T10:33:50.000Z</time>
      </trkpt>
      <trkpt lat="47.30497" lon="-1.84485">
        <ele>-46.76</ele>
        <time>2019-12-15T10:33:53.000Z</time>
      </trkpt>
      <trkpt lat="47.30482" lon="-1.8446">
        <ele>-46.01</ele>
        <time>2019-12-15T10:33:57.000Z</time>
      </trkpt>
      <trkpt lat="47.30469" lon="-1.8444">
        <ele>-46.87</ele>
        <time>2019-12-15T10:34:00.000Z</time>
      </trkpt>
      <trkpt lat="47.30457" lon="-1.8442">
        <ele>-46.04</ele>
        <time>2019-12-15T10:34:03.000Z</time>
      </trkpt>
      <trkpt lat="47.3044" lon="-1.84395">
        <ele>-44.94</ele>
        <time>2019-12-15T10:34:07.000Z</time>
      </trkpt>
      <trkpt lat="47.30424" lon="-1.8437">
        <ele>-44.59</ele>
        <time>2019-12-15T10:34:11.000Z</time>
      </trkpt>
      <trkpt lat="47.30406" lon="-1.84348">
        <ele>-44.31</ele>
        <time>2019-12-15T10:34:15.000Z</time>
      </trkpt>
      <trkpt lat="47.30388" lon="-1.84332">
        <ele>-43.94</ele>
        <time>2019-12-15T10:34:19.000Z</time>
      </trkpt>
      <trkpt lat="47.30396" lon="-1.84306">
        <ele>-43.94</ele>
        <time>2019-12-15T10:34:24.000Z</time>
      </trkpt>
      <trkpt lat="47.30416" lon="-1.84295">
        <ele>-43.19</ele>
        <time>2019-12-15T10:34:28.000Z</time>
      </trkpt>
      <trkpt lat="47.30435" lon="-1.84278">
        <ele>-42.86</ele>
        <time>2019-12-15T10:34:32.000Z</time>
      </trkpt>
      <trkpt lat="47.30454" lon="-1.84259">
        <ele>-42.68</ele>
        <time>2019-12-15T10:34:36.000Z</time>
      </trkpt>
      <trkpt lat="47.30471" lon="-1.84239">
        <ele>-42.48</ele>
        <time>2019-12-15T10:34:40.000Z</time>
      </trkpt>
      <trkpt lat="47.30488" lon="-1.84219">
        <ele>-42.58</ele>
        <time>2019-12-15T10:34:44.000Z</time>
      </trkpt>
      <trkpt lat="47.30504" lon="-1.842">
        <ele>-42.5</ele>
        <time>2019-12-15T10:34:48.000Z</time>
      </trkpt>
      <trkpt lat="47.30519" lon="-1.84182">
        <ele>-41.55</ele>
        <time>2019-12-15T10:34:52.000Z</time>
      </trkpt>
      <trkpt lat="47.30536" lon="-1.84162">
        <ele>-40.43</ele>
        <time>2019-12-15T10:34:56.000Z</time>
      </trkpt>
      <trkpt lat="47.30551" lon="-1.84146">
        <ele>-38.31</ele>
        <time>2019-12-15T10:35:00.000Z</time>
      </trkpt>
      <trkpt lat="47.30565" lon="-1.84129">
        <ele>-37.9</ele>
        <time>2019-12-15T10:35:04.000Z</time>
      </trkpt>
      <trkpt lat="47.30581" lon="-1.84107">
        <ele>-37.26</ele>
        <time>2019-12-15T10:35:09.000Z</time>
      </trkpt>
      <trkpt lat="47.30594" lon="-1.84081">
        <ele>-36.47</ele>
        <time>2019-12-15T10:35:14.000Z</time>
      </trkpt>
      <trkpt lat="47.30604" lon="-1.84053">
        <ele>-35.8</ele>
        <time>2019-12-15T10:35:19.000Z</time>
      </trkpt>
      <trkpt lat="47.30613" lon="-1.84025">
        <ele>-33.15</ele>
        <time>2019-12-15T10:35:24.000Z</time>
      </trkpt>
      <trkpt lat="47.3062" lon="-1.83996">
        <ele>-32.16</ele>
        <time>2019-12-15T10:35:29.000Z</time>
      </trkpt>
      <trkpt lat="47.30627" lon="-1.83969">
        <ele>-31.08</ele>
        <time>2019-12-15T10:35:34.000Z</time>
      </trkpt>
      <trkpt lat="47.30645" lon="-1.83951">
        <ele>-29.75</ele>
        <time>2019-12-15T10:35:39.000Z</time>
      </trkpt>
      <trkpt lat="47.30661" lon="-1.83938">
        <ele>-29.28</ele>
        <time>2019-12-15T10:35:43.000Z</time>
      </trkpt>
      <trkpt lat="47.3068" lon="-1.83924">
        <ele>-27.85</ele>
        <time>2019-12-15T10:35:48.000Z</time>
      </trkpt>
      <trkpt lat="47.30697" lon="-1.83909">
        <ele>-25.97</ele>
        <time>2019-12-15T10:35:53.000Z</time>
      </trkpt>
      <trkpt lat="47.30712" lon="-1.8389">
        <ele>-24.14</ele>
        <time>2019-12-15T10:35:58.000Z</time>
      </trkpt>
      <trkpt lat="47.30727" lon="-1.83869">
        <ele>-20.89</ele>
        <time>2019-12-15T10:36:03.000Z</time>
      </trkpt>
      <trkpt lat="47.3074" lon="-1.8385">
        <ele>-18.07</ele>
        <time>2019-12-15T10:36:08.000Z</time>
      </trkpt>
      <trkpt lat="47.30756" lon="-1.83828">
        <ele>-17.07</ele>
        <time>2019-12-15T10:36:14.000Z</time>
      </trkpt>
      <trkpt lat="47.30773" lon="-1.83809">
        <ele>-17.12</ele>
        <time>2019-12-15T10:36:20.000Z</time>
      </trkpt>
      <trkpt lat="47.30789" lon="-1.83792">
        <ele>-15.17</ele>
        <time>2019-12-15T10:36:26.000Z</time>
      </trkpt>
      <trkpt lat="47.30804" lon="-1.83775">
        <ele>-13.6</ele>
        <time>2019-12-15T10:36:32.000Z</time>
      </trkpt>
      <trkpt lat="47.30821" lon="-1.83761">
        <ele>-12.6</ele>
        <time>2019-12-15T10:36:39.000Z</time>
      </trkpt>
      <trkpt lat="47.30836" lon="-1.83746">
        <ele>-10.56</ele>
        <time>2019-12-15T10:36:46.000Z</time>
      </trkpt>
      <trkpt lat="47.30852" lon="-1.83731">
        <ele>-10.66</ele>
        <time>2019-12-15T10:36:53.000Z</time>
      </trkpt>
      <trkpt lat="47.30868" lon="-1.83713">
        <ele>-10.54</ele>
        <time>2019-12-15T10:37:01.000Z</time>
      </trkpt>
      <trkpt lat="47.30882" lon="-1.83694">
        <ele>-8.42</ele>
        <time>2019-12-15T10:37:08.000Z</time>
      </trkpt>
      <trkpt lat="47.30895" lon="-1.83674">
        <ele>-7.39</ele>
        <time>2019-12-15T10:37:15.000Z</time>
      </trkpt>
      <trkpt lat="47.30908" lon="-1.83652">
        <ele>-5.93</ele>
        <time>2019-12-15T10:37:23.000Z</time>
      </trkpt>
      <trkpt lat="47.30921" lon="-1.83628">
        <ele>-5.21</ele>
        <time>2019-12-15T10:37:31.000Z</time>
      </trkpt>
      <trkpt lat="47.30932" lon="-1.83605">
        <ele>-3.01</ele>
        <time>2019-12-15T10:37:38.000Z</time>
      </trkpt>
      <trkpt lat="47.30943" lon="-1.83579">
        <ele>3.07</ele>
        <time>2019-12-15T10:37:45.000Z</time>
      </trkpt>
      <trkpt lat="47.30955" lon="-1.83556">
        <ele>6.05</ele>
        <time>2019-12-15T10:37:52.000Z</time>
      </trkpt>
      <trkpt lat="47.30966" lon="-1.83532">
        <ele>8.42</ele>
        <time>2019-12-15T10:37:59.000Z</time>
      </trkpt>
      <trkpt lat="47.30977" lon="-1.83506">
        <ele>8.16</ele>
        <time>2019-12-15T10:38:06.000Z</time>
      </trkpt>
      <trkpt lat="47.30989" lon="-1.83484">
        <ele>10.08</ele>
        <time>2019-12-15T10:38:12.000Z</time>
      </trkpt>
      <trkpt lat="47.31" lon="-1.83459">
        <ele>11.25</ele>
        <time>2019-12-15T10:38:18.000Z</time>
      </trkpt>
      <trkpt lat="47.31012" lon="-1.83431">
        <ele>11.78</ele>
        <time>2019-12-15T10:38:24.000Z</time>
      </trkpt>
      <trkpt lat="47.31025" lon="-1.83408">
        <ele>12.28</ele>
        <time>2019-12-15T10:38:29.000Z</time>
      </trkpt>
      <trkpt lat="47.31036" lon="-1.83383">
        <ele>11.98</ele>
        <time>2019-12-15T10:38:34.000Z</time>
      </trkpt>
      <trkpt lat="47.31048" lon="-1.8336">
        <ele>11.41</ele>
        <time>2019-12-15T10:38:38.000Z</time>
      </trkpt>
      <trkpt lat="47.31059" lon="-1.83336">
        <ele>10.95</ele>
        <time>2019-12-15T10:38:42.000Z</time>
      </trkpt>
      <trkpt lat="47.31071" lon="-1.83311">
        <ele>10.19</ele>
        <time>2019-12-15T10:38:46.000Z</time>
      </trkpt>
      <trkpt lat="47.31079" lon="-1.83282">
        <ele>8.83</ele>
        <time>2019-12-15T10:38:50.000Z</time>
      </trkpt>
      <trkpt lat="47.31083" lon="-1.8325">
        <ele>8.5</ele>
        <time>2019-12-15T10:38:54.000Z</time>
      </trkpt>
      <trkpt lat="47.31084" lon="-1.83216">
        <ele>8.38</ele>
        <time>2019-12-15T10:38:58.000Z</time>
      </trkpt>
      <trkpt lat="47.31079" lon="-1.83182">
        <ele>8.98</ele>
        <time>2019-12-15T10:39:02.000Z</time>
      </trkpt>
      <trkpt lat="47.31067" lon="-1.83153">
        <ele>9.19</ele>
        <time>2019-12-15T10:39:06.000Z</time>
      </trkpt>
      <trkpt lat="47.31057" lon="-1.83123">
        <ele>7.76</ele>
        <time>2019-12-15T10:39:10.000Z</time>
      </trkpt>
      <trkpt lat="47.31045" lon="-1.83095">
        <ele>7.65</ele>
        <time>2019-12-15T10:39:14.000Z</time>
      </trkpt>
      <trkpt lat="47.31033" lon="-1.83066">
        <ele>7.65</ele>
        <time>2019-12-15T10:39:18.000Z</time>
      </trkpt>
      <trkpt lat="47.31021" lon="-1.83038">
        <ele>8.2</ele>
        <time>2019-12-15T10:39:22.000Z</time>
      </trkpt>
      <trkpt lat="47.31009" lon="-1.83008">
        <ele>8.43</ele>
        <time>2019-12-15T10:39:26.000Z</time>
      </trkpt>
      <trkpt lat="47.30999" lon="-1.82985">
        <ele>9.02</ele>
        <time>2019-12-15T10:39:29.000Z</time>
      </trkpt>
      <trkpt lat="47.30991" lon="-1.82961">
        <ele>9.43</ele>
        <time>2019-12-15T10:39:32.000Z</time>
      </trkpt>
      <trkpt lat="47.30982" lon="-1.82938">
        <ele>9.7</ele>
        <time>2019-12-15T10:39:35.000Z</time>
      </trkpt>
      <trkpt lat="47.30974" lon="-1.82914">
        <ele>10.21</ele>
        <time>2019-12-15T10:39:38.000Z</time>
      </trkpt>
      <trkpt lat="47.30963" lon="-1.82884">
        <ele>10.24</ele>
        <time>2019-12-15T10:39:42.000Z</time>
      </trkpt>
      <trkpt lat="47.3096" lon="-1.82853">
        <ele>10.45</ele>
        <time>2019-12-15T10:39:46.000Z</time>
      </trkpt>
      <trkpt lat="47.30969" lon="-1.82826">
        <ele>10.86</ele>
        <time>2019-12-15T10:39:50.000Z</time>
      </trkpt>
      <trkpt lat="47.30985" lon="-1.82805">
        <ele>12.14</ele>
        <time>2019-12-15T10:39:54.000Z</time>
      </trkpt>
      <trkpt lat="47.31004" lon="-1.82789">
        <ele>13.56</ele>
        <time>2019-12-15T10:39:58.000Z</time>
      </trkpt>
      <trkpt lat="47.31024" lon="-1.82772">
        <ele>13.39</ele>
        <time>2019-12-15T10:40:02.000Z</time>
      </trkpt>
      <trkpt lat="47.31044" lon="-1.82754">
        <ele>13.51</ele>
        <time>2019-12-15T10:40:06.000Z</time>
      </trkpt>
      <trkpt lat="47.31062" lon="-1.82737">
        <ele>14.56</ele>
        <time>2019-12-15T10:40:10.000Z</time>
      </trkpt>
      <trkpt lat="47.3108" lon="-1.82721">
        <ele>15.37</ele>
        <time>2019-12-15T10:40:14.000Z</time>
      </trkpt>
      <trkpt lat="47.31098" lon="-1.82704">
        <ele>16.29</ele>
        <time>2019-12-15T10:40:18.000Z</time>
      </trkpt>
      <trkpt lat="47.31116" lon="-1.82688">
        <ele>17.66</ele>
        <time>2019-12-15T10:40:22.000Z</time>
      </trkpt>
      <trkpt lat="47.31133" lon="-1.82671">
        <ele>18.49</ele>
        <time>2019-12-15T10:40:26.000Z</time>
      </trkpt>
      <trkpt lat="47.31152" lon="-1.82656">
        <ele>17.77</ele>
        <time>2019-12-15T10:40:30.000Z</time>
      </trkpt>
      <trkpt lat="47.3117" lon="-1.82638">
        <ele>18.03</ele>
        <time>2019-12-15T10:40:34.000Z</time>
      </trkpt>
      <trkpt lat="47.31191" lon="-1.8262">
        <ele>18.07</ele>
        <time>2019-12-15T10:40:38.000Z</time>
      </trkpt>
      <trkpt lat="47.31208" lon="-1.82599">
        <ele>18.22</ele>
        <time>2019-12-15T10:40:42.000Z</time>
      </trkpt>
      <trkpt lat="47.31222" lon="-1.82575">
        <ele>19.53</ele>
        <time>2019-12-15T10:40:46.000Z</time>
      </trkpt>
      <trkpt lat="47.31234" lon="-1.82547">
        <ele>19.36</ele>
        <time>2019-12-15T10:40:50.000Z</time>
      </trkpt>
      <trkpt lat="47.31241" lon="-1.82522">
        <ele>18.59</ele>
        <time>2019-12-15T10:40:53.000Z</time>
      </trkpt>
      <trkpt lat="47.31249" lon="-1.82489">
        <ele>17.96</ele>
        <time>2019-12-15T10:40:57.000Z</time>
      </trkpt>
      <trkpt lat="47.31255" lon="-1.82463">
        <ele>18.41</ele>
        <time>2019-12-15T10:41:00.000Z</time>
      </trkpt>
      <trkpt lat="47.31262" lon="-1.82437">
        <ele>18.38</ele>
        <time>2019-12-15T10:41:03.000Z</time>
      </trkpt>
      <trkpt lat="47.31268" lon="-1.82411">
        <ele>18.69</ele>
        <time>2019-12-15T10:41:06.000Z</time>
      </trkpt>
      <trkpt lat="47.31275" lon="-1.82385">
        <ele>18.28</ele>
        <time>2019-12-15T10:41:09.000Z</time>
      </trkpt>
      <trkpt lat="47.31282" lon="-1.8236">
        <ele>18.34</ele>
        <time>2019-12-15T10:41:12.000Z</time>
      </trkpt>
      <trkpt lat="47.31289" lon="-1.82335">
        <ele>17.21</ele>
        <time>2019-12-15T10:41:15.000Z</time>
      </trkpt>
      <trkpt lat="47.31296" lon="-1.82309">
        <ele>16.71</ele>
        <time>2019-12-15T10:41:18.000Z</time>
      </trkpt>
      <trkpt lat="47.31303" lon="-1.82283">
        <ele>16.06</ele>
        <time>2019-12-15T10:41:21.000Z</time>
      </trkpt>
      <trkpt lat="47.31309" lon="-1.82257">
        <ele>16.76</ele>
        <time>2019-12-15T10:41:24.000Z</time>
      </trkpt>
      <trkpt lat="47.31316" lon="-1.82231">
        <ele>17.05</ele>
        <time>2019-12-15T10:41:27.000Z</time>
      </trkpt>
      <trkpt lat="47.31323" lon="-1.82205">
        <ele>17.19</ele>
        <time>2019-12-15T10:41:30.000Z</time>
      </trkpt>
      <trkpt lat="47.3133" lon="-1.82179">
        <ele>17.72</ele>
        <time>2019-12-15T10:41:33.000Z</time>
      </trkpt>
      <trkpt lat="47.31337" lon="-1.82154">
        <ele>17.88</ele>
        <time>2019-12-15T10:41:36.000Z</time>
      </trkpt>
      <trkpt lat="47.31343" lon="-1.82127">
        <ele>17.85</ele>
        <time>2019-12-15T10:41:39.000Z</time>
      </trkpt>
      <trkpt lat="47.31349" lon="-1.82102">
        <ele>18.52</ele>
        <time>2019-12-15T10:41:42.000Z</time>
      </trkpt>
      <trkpt lat="47.31358" lon="-1.8207">
        <ele>19.16</ele>
        <time>2019-12-15T10:41:46.000Z</time>
      </trkpt>
      <trkpt lat="47.31366" lon="-1.82038">
        <ele>20.34</ele>
        <time>2019-12-15T10:41:50.000Z</time>
      </trkpt>
      <trkpt lat="47.31375" lon="-1.82007">
        <ele>21.13</ele>
        <time>2019-12-15T10:41:54.000Z</time>
      </trkpt>
      <trkpt lat="47.31383" lon="-1.81974">
        <ele>21.41</ele>
        <time>2019-12-15T10:41:58.000Z</time>
      </trkpt>
      <trkpt lat="47.31391" lon="-1.81941">
        <ele>21.81</ele>
        <time>2019-12-15T10:42:02.000Z</time>
      </trkpt>
      <trkpt lat="47.314" lon="-1.81909">
        <ele>22.21</ele>
        <time>2019-12-15T10:42:06.000Z</time>
      </trkpt>
      <trkpt lat="47.31408" lon="-1.81877">
        <ele>22.05</ele>
        <time>2019-12-15T10:42:10.000Z</time>
      </trkpt>
      <trkpt lat="47.31416" lon="-1.81843">
        <ele>21.88</ele>
        <time>2019-12-15T10:42:14.000Z</time>
      </trkpt>
      <trkpt lat="47.31423" lon="-1.81817">
        <ele>21.47</ele>
        <time>2019-12-15T10:42:17.000Z</time>
      </trkpt>
      <trkpt lat="47.31431" lon="-1.81791">
        <ele>21.33</ele>
        <time>2019-12-15T10:42:20.000Z</time>
      </trkpt>
      <trkpt lat="47.31437" lon="-1.81764">
        <ele>21.82</ele>
        <time>2019-12-15T10:42:23.000Z</time>
      </trkpt>
      <trkpt lat="47.31445" lon="-1.81738">
        <ele>21.76</ele>
        <time>2019-12-15T10:42:26.000Z</time>
      </trkpt>
      <trkpt lat="47.31451" lon="-1.81713">
        <ele>21.61</ele>
        <time>2019-12-15T10:42:29.000Z</time>
      </trkpt>
      <trkpt lat="47.3146" lon="-1.8168">
        <ele>21.32</ele>
        <time>2019-12-15T10:42:33.000Z</time>
      </trkpt>
      <trkpt lat="47.31467" lon="-1.81653">
        <ele>20.35</ele>
        <time>2019-12-15T10:42:36.000Z</time>
      </trkpt>
      <trkpt lat="47.31474" lon="-1.81628">
        <ele>19.72</ele>
        <time>2019-12-15T10:42:39.000Z</time>
      </trkpt>
      <trkpt lat="47.31483" lon="-1.81595">
        <ele>20.28</ele>
        <time>2019-12-15T10:42:43.000Z</time>
      </trkpt>
      <trkpt lat="47.31489" lon="-1.8157">
        <ele>21.36</ele>
        <time>2019-12-15T10:42:46.000Z</time>
      </trkpt>
      <trkpt lat="47.31496" lon="-1.81545">
        <ele>22.7</ele>
        <time>2019-12-15T10:42:49.000Z</time>
      </trkpt>
      <trkpt lat="47.31507" lon="-1.81515">
        <ele>23.93</ele>
        <time>2019-12-15T10:42:53.000Z</time>
      </trkpt>
      <trkpt lat="47.31523" lon="-1.81488">
        <ele>25.19</ele>
        <time>2019-12-15T10:42:57.000Z</time>
      </trkpt>
      <trkpt lat="47.3154" lon="-1.81465">
        <ele>26.67</ele>
        <time>2019-12-15T10:43:01.000Z</time>
      </trkpt>
      <trkpt lat="47.31559" lon="-1.81442">
        <ele>28.76</ele>
        <time>2019-12-15T10:43:05.000Z</time>
      </trkpt>
      <trkpt lat="47.31575" lon="-1.81423">
        <ele>29.09</ele>
        <time>2019-12-15T10:43:08.000Z</time>
      </trkpt>
      <trkpt lat="47.31588" lon="-1.81404">
        <ele>28.4</ele>
        <time>2019-12-15T10:43:11.000Z</time>
      </trkpt>
      <trkpt lat="47.31602" lon="-1.81386">
        <ele>28.13</ele>
        <time>2019-12-15T10:43:14.000Z</time>
      </trkpt>
      <trkpt lat="47.31619" lon="-1.81361">
        <ele>28.4</ele>
        <time>2019-12-15T10:43:18.000Z</time>
      </trkpt>
      <trkpt lat="47.31637" lon="-1.81338">
        <ele>28.24</ele>
        <time>2019-12-15T10:43:22.000Z</time>
      </trkpt>
      <trkpt lat="47.31649" lon="-1.81318">
        <ele>28.4</ele>
        <time>2019-12-15T10:43:25.000Z</time>
      </trkpt>
      <trkpt lat="47.31661" lon="-1.81295">
        <ele>28.43</ele>
        <time>2019-12-15T10:43:28.000Z</time>
      </trkpt>
      <trkpt lat="47.31671" lon="-1.81273">
        <ele>27.31</ele>
        <time>2019-12-15T10:43:31.000Z</time>
      </trkpt>
      <trkpt lat="47.31682" lon="-1.81251">
        <ele>27.41</ele>
        <time>2019-12-15T10:43:34.000Z</time>
      </trkpt>
      <trkpt lat="47.31695" lon="-1.81223">
        <ele>27.59</ele>
        <time>2019-12-15T10:43:38.000Z</time>
      </trkpt>
      <trkpt lat="47.31706" lon="-1.81201">
        <ele>28.44</ele>
        <time>2019-12-15T10:43:41.000Z</time>
      </trkpt>
      <trkpt lat="47.31719" lon="-1.81172">
        <ele>27.62</ele>
        <time>2019-12-15T10:43:45.000Z</time>
      </trkpt>
      <trkpt lat="47.3173" lon="-1.8115">
        <ele>26.55</ele>
        <time>2019-12-15T10:43:48.000Z</time>
      </trkpt>
      <trkpt lat="47.31741" lon="-1.81128">
        <ele>26.8</ele>
        <time>2019-12-15T10:43:51.000Z</time>
      </trkpt>
      <trkpt lat="47.31752" lon="-1.81104">
        <ele>28.46</ele>
        <time>2019-12-15T10:43:54.000Z</time>
      </trkpt>
      <trkpt lat="47.31763" lon="-1.81082">
        <ele>29.3</ele>
        <time>2019-12-15T10:43:57.000Z</time>
      </trkpt>
      <trkpt lat="47.31773" lon="-1.8106">
        <ele>29.57</ele>
        <time>2019-12-15T10:44:00.000Z</time>
      </trkpt>
      <trkpt lat="47.31784" lon="-1.81038">
        <ele>29.71</ele>
        <time>2019-12-15T10:44:03.000Z</time>
      </trkpt>
      <trkpt lat="47.31798" lon="-1.81009">
        <ele>30.74</ele>
        <time>2019-12-15T10:44:07.000Z</time>
      </trkpt>
      <trkpt lat="47.31811" lon="-1.80983">
        <ele>30.94</ele>
        <time>2019-12-15T10:44:11.000Z</time>
      </trkpt>
      <trkpt lat="47.31813" lon="-1.80955">
        <ele>30.92</ele>
        <time>2019-12-15T10:44:15.000Z</time>
      </trkpt>
      <trkpt lat="47.31795" lon="-1.80933">
        <ele>31.54</ele>
        <time>2019-12-15T10:44:19.000Z</time>
      </trkpt>
      <trkpt lat="47.31781" lon="-1.80916">
        <ele>31.15</ele>
        <time>2019-12-15T10:44:22.000Z</time>
      </trkpt>
      <trkpt lat="47.31767" lon="-1.80899">
        <ele>30.25</ele>
        <time>2019-12-15T10:44:25.000Z</time>
      </trkpt>
      <trkpt lat="47.31753" lon="-1.80881">
        <ele>30.1</ele>
        <time>2019-12-15T10:44:28.000Z</time>
      </trkpt>
      <trkpt lat="47.31739" lon="-1.80864">
        <ele>30.49</ele>
        <time>2019-12-15T10:44:31.000Z</time>
      </trkpt>
      <trkpt lat="47.31725" lon="-1.80845">
        <ele>30.31</ele>
        <time>2019-12-15T10:44:34.000Z</time>
      </trkpt>
      <trkpt lat="47.31711" lon="-1.80828">
        <ele>30.18</ele>
        <time>2019-12-15T10:44:37.000Z</time>
      </trkpt>
      <trkpt lat="47.31698" lon="-1.8081">
        <ele>30.78</ele>
        <time>2019-12-15T10:44:40.000Z</time>
      </trkpt>
      <trkpt lat="47.31681" lon="-1.80786">
        <ele>32.13</ele>
        <time>2019-12-15T10:44:44.000Z</time>
      </trkpt>
      <trkpt lat="47.31666" lon="-1.80763">
        <ele>31.87</ele>
        <time>2019-12-15T10:44:48.000Z</time>
      </trkpt>
      <trkpt lat="47.31644" lon="-1.80759">
        <ele>32.82</ele>
        <time>2019-12-15T10:44:52.000Z</time>
      </trkpt>
      <trkpt lat="47.31625" lon="-1.80777">
        <ele>32.58</ele>
        <time>2019-12-15T10:44:55.000Z</time>
      </trkpt>
      <trkpt lat="47.31608" lon="-1.80791">
        <ele>31.46</ele>
        <time>2019-12-15T10:44:58.000Z</time>
      </trkpt>
      <trkpt lat="47.31589" lon="-1.80805">
        <ele>31.61</ele>
        <time>2019-12-15T10:45:01.000Z</time>
      </trkpt>
      <trkpt lat="47.31572" lon="-1.80819">
        <ele>32.6</ele>
        <time>2019-12-15T10:45:04.000Z</time>
      </trkpt>
      <trkpt lat="47.31554" lon="-1.80832">
        <ele>32.25</ele>
        <time>2019-12-15T10:45:07.000Z</time>
      </trkpt>
      <trkpt lat="47.31535" lon="-1.80845">
        <ele>31.73</ele>
        <time>2019-12-15T10:45:10.000Z</time>
      </trkpt>
      <trkpt lat="47.31517" lon="-1.80858">
        <ele>32.1</ele>
        <time>2019-12-15T10:45:13.000Z</time>
      </trkpt>
      <trkpt lat="47.31498" lon="-1.80871">
        <ele>31.8</ele>
        <time>2019-12-15T10:45:16.000Z</time>
      </trkpt>
      <trkpt lat="47.31479" lon="-1.80884">
        <ele>31.59</ele>
        <time>2019-12-15T10:45:19.000Z</time>
      </trkpt>
      <trkpt lat="47.31459" lon="-1.80897">
        <ele>30.75</ele>
        <time>2019-12-15T10:45:22.000Z</time>
      </trkpt>
      <trkpt lat="47.31441" lon="-1.80911">
        <ele>30.12</ele>
        <time>2019-12-15T10:45:25.000Z</time>
      </trkpt>
      <trkpt lat="47.31423" lon="-1.80925">
        <ele>30.23</ele>
        <time>2019-12-15T10:45:28.000Z</time>
      </trkpt>
      <trkpt lat="47.31404" lon="-1.8094">
        <ele>28.93</ele>
        <time>2019-12-15T10:45:31.000Z</time>
      </trkpt>
      <trkpt lat="47.31384" lon="-1.80954">
        <ele>27.82</ele>
        <time>2019-12-15T10:45:34.000Z</time>
      </trkpt>
      <trkpt lat="47.31365" lon="-1.8097">
        <ele>27.59</ele>
        <time>2019-12-15T10:45:37.000Z</time>
      </trkpt>
      <trkpt lat="47.31346" lon="-1.80985">
        <ele>27.53</ele>
        <time>2019-12-15T10:45:40.000Z</time>
      </trkpt>
      <trkpt lat="47.31329" lon="-1.80999">
        <ele>27.92</ele>
        <time>2019-12-15T10:45:43.000Z</time>
      </trkpt>
      <trkpt lat="47.31313" lon="-1.81014">
        <ele>28.05</ele>
        <time>2019-12-15T10:45:46.000Z</time>
      </trkpt>
      <trkpt lat="47.31296" lon="-1.81031">
        <ele>27</ele>
        <time>2019-12-15T10:45:49.000Z</time>
      </trkpt>
      <trkpt lat="47.31282" lon="-1.81052">
        <ele>27.22</ele>
        <time>2019-12-15T10:45:52.000Z</time>
      </trkpt>
      <trkpt lat="47.31268" lon="-1.81075">
        <ele>27.99</ele>
        <time>2019-12-15T10:45:55.000Z</time>
      </trkpt>
      <trkpt lat="47.31253" lon="-1.81097">
        <ele>27.26</ele>
        <time>2019-12-15T10:45:58.000Z</time>
      </trkpt>
      <trkpt lat="47.31238" lon="-1.81119">
        <ele>26.59</ele>
        <time>2019-12-15T10:46:01.000Z</time>
      </trkpt>
      <trkpt lat="47.31223" lon="-1.8114">
        <ele>25.89</ele>
        <time>2019-12-15T10:46:04.000Z</time>
      </trkpt>
      <trkpt lat="47.31207" lon="-1.81159">
        <ele>24.66</ele>
        <time>2019-12-15T10:46:07.000Z</time>
      </trkpt>
      <trkpt lat="47.31188" lon="-1.81172">
        <ele>24.7</ele>
        <time>2019-12-15T10:46:10.000Z</time>
      </trkpt>
      <trkpt lat="47.31169" lon="-1.81179">
        <ele>25.39</ele>
        <time>2019-12-15T10:46:13.000Z</time>
      </trkpt>
      <trkpt lat="47.31149" lon="-1.81179">
        <ele>24.98</ele>
        <time>2019-12-15T10:46:16.000Z</time>
      </trkpt>
      <trkpt lat="47.31129" lon="-1.81178">
        <ele>25.51</ele>
        <time>2019-12-15T10:46:19.000Z</time>
      </trkpt>
      <trkpt lat="47.3111" lon="-1.81175">
        <ele>27.08</ele>
        <time>2019-12-15T10:46:22.000Z</time>
      </trkpt>
      <trkpt lat="47.31091" lon="-1.81172">
        <ele>28.28</ele>
        <time>2019-12-15T10:46:25.000Z</time>
      </trkpt>
      <trkpt lat="47.31072" lon="-1.8117">
        <ele>29.14</ele>
        <time>2019-12-15T10:46:28.000Z</time>
      </trkpt>
      <trkpt lat="47.31054" lon="-1.81168">
        <ele>29.51</ele>
        <time>2019-12-15T10:46:31.000Z</time>
      </trkpt>
      <trkpt lat="47.31031" lon="-1.81169">
        <ele>29.7</ele>
        <time>2019-12-15T10:46:35.000Z</time>
      </trkpt>
      <trkpt lat="47.31008" lon="-1.81177">
        <ele>29.51</ele>
        <time>2019-12-15T10:46:39.000Z</time>
      </trkpt>
      <trkpt lat="47.30991" lon="-1.81184">
        <ele>28.54</ele>
        <time>2019-12-15T10:46:42.000Z</time>
      </trkpt>
      <trkpt lat="47.30973" lon="-1.81188">
        <ele>28.07</ele>
        <time>2019-12-15T10:46:45.000Z</time>
      </trkpt>
      <trkpt lat="47.3095" lon="-1.81183">
        <ele>26.75</ele>
        <time>2019-12-15T10:46:49.000Z</time>
      </trkpt>
      <trkpt lat="47.30932" lon="-1.81176">
        <ele>25.59</ele>
        <time>2019-12-15T10:46:52.000Z</time>
      </trkpt>
      <trkpt lat="47.30913" lon="-1.81174">
        <ele>23.82</ele>
        <time>2019-12-15T10:46:55.000Z</time>
      </trkpt>
      <trkpt lat="47.30892" lon="-1.81177">
        <ele>21.91</ele>
        <time>2019-12-15T10:46:58.000Z</time>
      </trkpt>
      <trkpt lat="47.30871" lon="-1.81188">
        <ele>19.35</ele>
        <time>2019-12-15T10:47:01.000Z</time>
      </trkpt>
      <trkpt lat="47.30851" lon="-1.81202">
        <ele>18.07</ele>
        <time>2019-12-15T10:47:04.000Z</time>
      </trkpt>
      <trkpt lat="47.3083" lon="-1.81214">
        <ele>18.72</ele>
        <time>2019-12-15T10:47:07.000Z</time>
      </trkpt>
      <trkpt lat="47.30809" lon="-1.81226">
        <ele>21.2</ele>
        <time>2019-12-15T10:47:10.000Z</time>
      </trkpt>
      <trkpt lat="47.30789" lon="-1.81242">
        <ele>23.4</ele>
        <time>2019-12-15T10:47:13.000Z</time>
      </trkpt>
      <trkpt lat="47.30772" lon="-1.81263">
        <ele>23.3</ele>
        <time>2019-12-15T10:47:16.000Z</time>
      </trkpt>
      <trkpt lat="47.30757" lon="-1.81288">
        <ele>22.39</ele>
        <time>2019-12-15T10:47:19.000Z</time>
      </trkpt>
      <trkpt lat="47.30743" lon="-1.81315">
        <ele>21.99</ele>
        <time>2019-12-15T10:47:22.000Z</time>
      </trkpt>
      <trkpt lat="47.30728" lon="-1.81341">
        <ele>22.13</ele>
        <time>2019-12-15T10:47:25.000Z</time>
      </trkpt>
      <trkpt lat="47.30714" lon="-1.81367">
        <ele>22.21</ele>
        <time>2019-12-15T10:47:28.000Z</time>
      </trkpt>
      <trkpt lat="47.307" lon="-1.81391">
        <ele>22.66</ele>
        <time>2019-12-15T10:47:31.000Z</time>
      </trkpt>
      <trkpt lat="47.30686" lon="-1.81416">
        <ele>22.77</ele>
        <time>2019-12-15T10:47:34.000Z</time>
      </trkpt>
      <trkpt lat="47.30672" lon="-1.81442">
        <ele>22.26</ele>
        <time>2019-12-15T10:47:37.000Z</time>
      </trkpt>
      <trkpt lat="47.30657" lon="-1.81468">
        <ele>21.87</ele>
        <time>2019-12-15T10:47:40.000Z</time>
      </trkpt>
      <trkpt lat="47.30643" lon="-1.81492">
        <ele>21.53</ele>
        <time>2019-12-15T10:47:43.000Z</time>
      </trkpt>
      <trkpt lat="47.3063" lon="-1.81515">
        <ele>20.9</ele>
        <time>2019-12-15T10:47:46.000Z</time>
      </trkpt>
      <trkpt lat="47.30617" lon="-1.81538">
        <ele>20.92</ele>
        <time>2019-12-15T10:47:49.000Z</time>
      </trkpt>
      <trkpt lat="47.30603" lon="-1.81559">
        <ele>20.88</ele>
        <time>2019-12-15T10:47:52.000Z</time>
      </trkpt>
      <trkpt lat="47.30587" lon="-1.81581">
        <ele>20.08</ele>
        <time>2019-12-15T10:47:55.000Z</time>
      </trkpt>
      <trkpt lat="47.30572" lon="-1.81604">
        <ele>19.41</ele>
        <time>2019-12-15T10:47:58.000Z</time>
      </trkpt>
      <trkpt lat="47.30558" lon="-1.81629">
        <ele>19</ele>
        <time>2019-12-15T10:48:01.000Z</time>
      </trkpt>
      <trkpt lat="47.30545" lon="-1.81655">
        <ele>18.34</ele>
        <time>2019-12-15T10:48:04.000Z</time>
      </trkpt>
      <trkpt lat="47.30531" lon="-1.81681">
        <ele>17.96</ele>
        <time>2019-12-15T10:48:07.000Z</time>
      </trkpt>
      <trkpt lat="47.30518" lon="-1.81707">
        <ele>17.09</ele>
        <time>2019-12-15T10:48:10.000Z</time>
      </trkpt>
      <trkpt lat="47.30505" lon="-1.81732">
        <ele>16.55</ele>
        <time>2019-12-15T10:48:13.000Z</time>
      </trkpt>
      <trkpt lat="47.30493" lon="-1.81755">
        <ele>16.14</ele>
        <time>2019-12-15T10:48:16.000Z</time>
      </trkpt>
      <trkpt lat="47.30479" lon="-1.8178">
        <ele>15.01</ele>
        <time>2019-12-15T10:48:19.000Z</time>
      </trkpt>
      <trkpt lat="47.30463" lon="-1.81804">
        <ele>14.24</ele>
        <time>2019-12-15T10:48:22.000Z</time>
      </trkpt>
      <trkpt lat="47.30447" lon="-1.8183">
        <ele>13.55</ele>
        <time>2019-12-15T10:48:25.000Z</time>
      </trkpt>
      <trkpt lat="47.30432" lon="-1.81855">
        <ele>12.91</ele>
        <time>2019-12-15T10:48:28.000Z</time>
      </trkpt>
      <trkpt lat="47.30417" lon="-1.81881">
        <ele>11.55</ele>
        <time>2019-12-15T10:48:31.000Z</time>
      </trkpt>
      <trkpt lat="47.304" lon="-1.81905">
        <ele>10.05</ele>
        <time>2019-12-15T10:48:34.000Z</time>
      </trkpt>
      <trkpt lat="47.30382" lon="-1.8193">
        <ele>8.87</ele>
        <time>2019-12-15T10:48:37.000Z</time>
      </trkpt>
      <trkpt lat="47.30362" lon="-1.81955">
        <ele>7.88</ele>
        <time>2019-12-15T10:48:40.000Z</time>
      </trkpt>
      <trkpt lat="47.30341" lon="-1.8198">
        <ele>6.72</ele>
        <time>2019-12-15T10:48:43.000Z</time>
      </trkpt>
      <trkpt lat="47.3032" lon="-1.82003">
        <ele>5.81</ele>
        <time>2019-12-15T10:48:46.000Z</time>
      </trkpt>
      <trkpt lat="47.30299" lon="-1.82027">
        <ele>4.92</ele>
        <time>2019-12-15T10:48:49.000Z</time>
      </trkpt>
      <trkpt lat="47.30277" lon="-1.82047">
        <ele>4.28</ele>
        <time>2019-12-15T10:48:52.000Z</time>
      </trkpt>
      <trkpt lat="47.30261" lon="-1.82062">
        <ele>3.06</ele>
        <time>2019-12-15T10:48:54.000Z</time>
      </trkpt>
      <trkpt lat="47.30239" lon="-1.82083">
        <ele>0.72</ele>
        <time>2019-12-15T10:48:57.000Z</time>
      </trkpt>
      <trkpt lat="47.30218" lon="-1.821">
        <ele>-0.21</ele>
        <time>2019-12-15T10:49:00.000Z</time>
      </trkpt>
      <trkpt lat="47.30198" lon="-1.82116">
        <ele>-0.96</ele>
        <time>2019-12-15T10:49:03.000Z</time>
      </trkpt>
      <trkpt lat="47.30179" lon="-1.82133">
        <ele>-2.2</ele>
        <time>2019-12-15T10:49:06.000Z</time>
      </trkpt>
      <trkpt lat="47.30158" lon="-1.82148">
        <ele>-3.41</ele>
        <time>2019-12-15T10:49:09.000Z</time>
      </trkpt>
      <trkpt lat="47.30139" lon="-1.82164">
        <ele>-3.77</ele>
        <time>2019-12-15T10:49:12.000Z</time>
      </trkpt>
      <trkpt lat="47.30122" lon="-1.82186">
        <ele>-4.17</ele>
        <time>2019-12-15T10:49:15.000Z</time>
      </trkpt>
      <trkpt lat="47.30111" lon="-1.82217">
        <ele>-4.54</ele>
        <time>2019-12-15T10:49:18.000Z</time>
      </trkpt>
      <trkpt lat="47.30108" lon="-1.82257">
        <ele>-5.73</ele>
        <time>2019-12-15T10:49:21.000Z</time>
      </trkpt>
      <trkpt lat="47.30103" lon="-1.82283">
        <ele>-5.95</ele>
        <time>2019-12-15T10:49:23.000Z</time>
      </trkpt>
      <trkpt lat="47.30092" lon="-1.82309">
        <ele>-5.91</ele>
        <time>2019-12-15T10:49:25.000Z</time>
      </trkpt>
      <trkpt lat="47.30077" lon="-1.82327">
        <ele>-7.62</ele>
        <time>2019-12-15T10:49:27.000Z</time>
      </trkpt>
      <trkpt lat="47.30058" lon="-1.8234">
        <ele>-11.14</ele>
        <time>2019-12-15T10:49:29.000Z</time>
      </trkpt>
      <trkpt lat="47.30041" lon="-1.82351">
        <ele>-12.76</ele>
        <time>2019-12-15T10:49:31.000Z</time>
      </trkpt>
      <trkpt lat="47.30023" lon="-1.82362">
        <ele>-16.08</ele>
        <time>2019-12-15T10:49:33.000Z</time>
      </trkpt>
      <trkpt lat="47.3" lon="-1.82382">
        <ele>-19.52</ele>
        <time>2019-12-15T10:49:36.000Z</time>
      </trkpt>
      <trkpt lat="47.29984" lon="-1.82395">
        <ele>-20.93</ele>
        <time>2019-12-15T10:49:38.000Z</time>
      </trkpt>
      <trkpt lat="47.29968" lon="-1.82408">
        <ele>-21.48</ele>
        <time>2019-12-15T10:49:40.000Z</time>
      </trkpt>
      <trkpt lat="47.2995" lon="-1.8242">
        <ele>-23.75</ele>
        <time>2019-12-15T10:49:42.000Z</time>
      </trkpt>
      <trkpt lat="47.29932" lon="-1.82433">
        <ele>-26.54</ele>
        <time>2019-12-15T10:49:44.000Z</time>
      </trkpt>
      <trkpt lat="47.29914" lon="-1.82447">
        <ele>-27.64</ele>
        <time>2019-12-15T10:49:46.000Z</time>
      </trkpt>
      <trkpt lat="47.29895" lon="-1.82457">
        <ele>-29.21</ele>
        <time>2019-12-15T10:49:48.000Z</time>
      </trkpt>
      <trkpt lat="47.29875" lon="-1.82468">
        <ele>-29.86</ele>
        <time>2019-12-15T10:49:50.000Z</time>
      </trkpt>
      <trkpt lat="47.29856" lon="-1.82477">
        <ele>-31.77</ele>
        <time>2019-12-15T10:49:52.000Z</time>
      </trkpt>
      <trkpt lat="47.29838" lon="-1.82488">
        <ele>-31.83</ele>
        <time>2019-12-15T10:49:54.000Z</time>
      </trkpt>
      <trkpt lat="47.2982" lon="-1.82499">
        <ele>-32.38</ele>
        <time>2019-12-15T10:49:56.000Z</time>
      </trkpt>
      <trkpt lat="47.29801" lon="-1.82509">
        <ele>-33.56</ele>
        <time>2019-12-15T10:49:58.000Z</time>
      </trkpt>
      <trkpt lat="47.29782" lon="-1.8252">
        <ele>-34.93</ele>
        <time>2019-12-15T10:50:00.000Z</time>
      </trkpt>
      <trkpt lat="47.29764" lon="-1.82528">
        <ele>-35.09</ele>
        <time>2019-12-15T10:50:02.000Z</time>
      </trkpt>
      <trkpt lat="47.29746" lon="-1.82536">
        <ele>-35.58</ele>
        <time>2019-12-15T10:50:04.000Z</time>
      </trkpt>
      <trkpt lat="47.29728" lon="-1.82547">
        <ele>-36.47</ele>
        <time>2019-12-15T10:50:06.000Z</time>
      </trkpt>
      <trkpt lat="47.29703" lon="-1.82562">
        <ele>-36.38</ele>
        <time>2019-12-15T10:50:09.000Z</time>
      </trkpt>
      <trkpt lat="47.29679" lon="-1.82574">
        <ele>-37.86</ele>
        <time>2019-12-15T10:50:12.000Z</time>
      </trkpt>
      <trkpt lat="47.29655" lon="-1.82586">
        <ele>-38.66</ele>
        <time>2019-12-15T10:50:15.000Z</time>
      </trkpt>
      <trkpt lat="47.29632" lon="-1.82597">
        <ele>-39.19</ele>
        <time>2019-12-15T10:50:18.000Z</time>
      </trkpt>
      <trkpt lat="47.29609" lon="-1.82604">
        <ele>-39.36</ele>
        <time>2019-12-15T10:50:21.000Z</time>
      </trkpt>
      <trkpt lat="47.29589" lon="-1.82608">
        <ele>-39.75</ele>
        <time>2019-12-15T10:50:24.000Z</time>
      </trkpt>
      <trkpt lat="47.29573" lon="-1.82587">
        <ele>-40.09</ele>
        <time>2019-12-15T10:50:28.000Z</time>
      </trkpt>
      <trkpt lat="47.29569" lon="-1.82552">
        <ele>-40.16</ele>
        <time>2019-12-15T10:50:32.000Z</time>
      </trkpt>
      <trkpt lat="47.29565" lon="-1.82525">
        <ele>-41.06</ele>
        <time>2019-12-15T10:50:35.000Z</time>
      </trkpt>
      <trkpt lat="47.2956" lon="-1.82496">
        <ele>-41.34</ele>
        <time>2019-12-15T10:50:38.000Z</time>
      </trkpt>
      <trkpt lat="47.29554" lon="-1.82469">
        <ele>-41.8</ele>
        <time>2019-12-15T10:50:41.000Z</time>
      </trkpt>
      <trkpt lat="47.29548" lon="-1.82442">
        <ele>-42.53</ele>
        <time>2019-12-15T10:50:44.000Z</time>
      </trkpt>
      <trkpt lat="47.29542" lon="-1.82416">
        <ele>-43.52</ele>
        <time>2019-12-15T10:50:47.000Z</time>
      </trkpt>
      <trkpt lat="47.29535" lon="-1.8239">
        <ele>-43.92</ele>
        <time>2019-12-15T10:50:50.000Z</time>
      </trkpt>
      <trkpt lat="47.29529" lon="-1.82365">
        <ele>-43.69</ele>
        <time>2019-12-15T10:50:53.000Z</time>
      </trkpt>
      <trkpt lat="47.29522" lon="-1.8234">
        <ele>-43.12</ele>
        <time>2019-12-15T10:50:56.000Z</time>
      </trkpt>
      <trkpt lat="47.29516" lon="-1.82315">
        <ele>-42.5</ele>
        <time>2019-12-15T10:50:59.000Z</time>
      </trkpt>
      <trkpt lat="47.29511" lon="-1.82283">
        <ele>-41.61</ele>
        <time>2019-12-15T10:51:03.000Z</time>
      </trkpt>
      <trkpt lat="47.2951" lon="-1.82253">
        <ele>-40.08</ele>
        <time>2019-12-15T10:51:07.000Z</time>
      </trkpt>
      <trkpt lat="47.29517" lon="-1.82225">
        <ele>-39.9</ele>
        <time>2019-12-15T10:51:11.000Z</time>
      </trkpt>
      <trkpt lat="47.29529" lon="-1.82197">
        <ele>-39.61</ele>
        <time>2019-12-15T10:51:15.000Z</time>
      </trkpt>
      <trkpt lat="47.29543" lon="-1.82171">
        <ele>-39.38</ele>
        <time>2019-12-15T10:51:19.000Z</time>
      </trkpt>
      <trkpt lat="47.29558" lon="-1.82147">
        <ele>-39.39</ele>
        <time>2019-12-15T10:51:23.000Z</time>
      </trkpt>
      <trkpt lat="47.29574" lon="-1.82123">
        <ele>-38.45</ele>
        <time>2019-12-15T10:51:27.000Z</time>
      </trkpt>
      <trkpt lat="47.29584" lon="-1.82096">
        <ele>-37.55</ele>
        <time>2019-12-15T10:51:31.000Z</time>
      </trkpt>
      <trkpt lat="47.2958" lon="-1.82067">
        <ele>-37.51</ele>
        <time>2019-12-15T10:51:35.000Z</time>
      </trkpt>
      <trkpt lat="47.2957" lon="-1.82042">
        <ele>-37.9</ele>
        <time>2019-12-15T10:51:39.000Z</time>
      </trkpt>
      <trkpt lat="47.29561" lon="-1.82016">
        <ele>-37.74</ele>
        <time>2019-12-15T10:51:43.000Z</time>
      </trkpt>
      <trkpt lat="47.29551" lon="-1.81991">
        <ele>-36.8</ele>
        <time>2019-12-15T10:51:47.000Z</time>
      </trkpt>
      <trkpt lat="47.29542" lon="-1.81965">
        <ele>-36.23</ele>
        <time>2019-12-15T10:51:51.000Z</time>
      </trkpt>
      <trkpt lat="47.29533" lon="-1.8194">
        <ele>-35.93</ele>
        <time>2019-12-15T10:51:55.000Z</time>
      </trkpt>
      <trkpt lat="47.29524" lon="-1.81914">
        <ele>-35.95</ele>
        <time>2019-12-15T10:51:59.000Z</time>
      </trkpt>
      <trkpt lat="47.29514" lon="-1.81888">
        <ele>-35.81</ele>
        <time>2019-12-15T10:52:03.000Z</time>
      </trkpt>
      <trkpt lat="47.29505" lon="-1.81863">
        <ele>-35.41</ele>
        <time>2019-12-15T10:52:07.000Z</time>
      </trkpt>
      <trkpt lat="47.29495" lon="-1.81837">
        <ele>-34.5</ele>
        <time>2019-12-15T10:52:11.000Z</time>
      </trkpt>
      <trkpt lat="47.29486" lon="-1.81811">
        <ele>-34.27</ele>
        <time>2019-12-15T10:52:15.000Z</time>
      </trkpt>
      <trkpt lat="47.29477" lon="-1.81785">
        <ele>-34.31</ele>
        <time>2019-12-15T10:52:19.000Z</time>
      </trkpt>
      <trkpt lat="47.29468" lon="-1.8176">
        <ele>-34.47</ele>
        <time>2019-12-15T10:52:23.000Z</time>
      </trkpt>
      <trkpt lat="47.29458" lon="-1.81735">
        <ele>-34.38</ele>
        <time>2019-12-15T10:52:27.000Z</time>
      </trkpt>
      <trkpt lat="47.29449" lon="-1.81706">
        <ele>-32.78</ele>
        <time>2019-12-15T10:52:32.000Z</time>
      </trkpt>
      <trkpt lat="47.29438" lon="-1.81681">
        <ele>-27.06</ele>
        <time>2019-12-15T10:56:01.000Z</time>
      </trkpt>
      <trkpt lat="47.29435" lon="-1.81653">
        <ele>-29.56</ele>
        <time>2019-12-15T10:56:08.000Z</time>
      </trkpt>
      <trkpt lat="47.29446" lon="-1.8163">
        <ele>-30.58</ele>
        <time>2019-12-15T10:56:14.000Z</time>
      </trkpt>
      <trkpt lat="47.29462" lon="-1.81613">
        <ele>-28.66</ele>
        <time>2019-12-15T10:56:20.000Z</time>
      </trkpt>
      <trkpt lat="47.29479" lon="-1.81598">
        <ele>-27.22</ele>
        <time>2019-12-15T10:56:26.000Z</time>
      </trkpt>
      <trkpt lat="47.29496" lon="-1.81588">
        <ele>-26.45</ele>
        <time>2019-12-15T10:56:31.000Z</time>
      </trkpt>
      <trkpt lat="47.29513" lon="-1.81577">
        <ele>-25.42</ele>
        <time>2019-12-15T10:56:37.000Z</time>
      </trkpt>
      <trkpt lat="47.29532" lon="-1.81564">
        <ele>-23.65</ele>
        <time>2019-12-15T10:56:43.000Z</time>
      </trkpt>
      <trkpt lat="47.29552" lon="-1.81552">
        <ele>-21.79</ele>
        <time>2019-12-15T10:56:49.000Z</time>
      </trkpt>
      <trkpt lat="47.29567" lon="-1.81536">
        <ele>-20.04</ele>
        <time>2019-12-15T10:56:54.000Z</time>
      </trkpt>
      <trkpt lat="47.29581" lon="-1.81518">
        <ele>-17.69</ele>
        <time>2019-12-15T10:57:00.000Z</time>
      </trkpt>
      <trkpt lat="47.29597" lon="-1.81499">
        <ele>-15.76</ele>
        <time>2019-12-15T10:57:06.000Z</time>
      </trkpt>
      <trkpt lat="47.2961" lon="-1.81478">
        <ele>-14.98</ele>
        <time>2019-12-15T10:57:12.000Z</time>
      </trkpt>
      <trkpt lat="47.29622" lon="-1.81453">
        <ele>-14.65</ele>
        <time>2019-12-15T10:57:18.000Z</time>
      </trkpt>
      <trkpt lat="47.29629" lon="-1.81426">
        <ele>-15.31</ele>
        <time>2019-12-15T10:57:24.000Z</time>
      </trkpt>
      <trkpt lat="47.29637" lon="-1.81402">
        <ele>-13.11</ele>
        <time>2019-12-15T10:57:30.000Z</time>
      </trkpt>
      <trkpt lat="47.29645" lon="-1.81375">
        <ele>-12.75</ele>
        <time>2019-12-15T10:57:36.000Z</time>
      </trkpt>
      <trkpt lat="47.29649" lon="-1.81346">
        <ele>-12.93</ele>
        <time>2019-12-15T10:57:42.000Z</time>
      </trkpt>
      <trkpt lat="47.29653" lon="-1.81316">
        <ele>-9.28</ele>
        <time>2019-12-15T10:57:48.000Z</time>
      </trkpt>
      <trkpt lat="47.29655" lon="-1.81286">
        <ele>-7.61</ele>
        <time>2019-12-15T10:57:54.000Z</time>
      </trkpt>
      <trkpt lat="47.29657" lon="-1.81259">
        <ele>-4.79</ele>
        <time>2019-12-15T10:58:00.000Z</time>
      </trkpt>
      <trkpt lat="47.2966" lon="-1.8123">
        <ele>-2.41</ele>
        <time>2019-12-15T10:58:06.000Z</time>
      </trkpt>
      <trkpt lat="47.29664" lon="-1.812">
        <ele>-1.89</ele>
        <time>2019-12-15T10:58:12.000Z</time>
      </trkpt>
      <trkpt lat="47.29667" lon="-1.81171">
        <ele>-3.13</ele>
        <time>2019-12-15T10:58:17.000Z</time>
      </trkpt>
      <trkpt lat="47.29672" lon="-1.81145">
        <ele>-2.88</ele>
        <time>2019-12-15T10:58:22.000Z</time>
      </trkpt>
      <trkpt lat="47.29675" lon="-1.81118">
        <ele>-0.79</ele>
        <time>2019-12-15T10:58:27.000Z</time>
      </trkpt>
      <trkpt lat="47.2968" lon="-1.81091">
        <ele>1.28</ele>
        <time>2019-12-15T10:58:32.000Z</time>
      </trkpt>
      <trkpt lat="47.29684" lon="-1.81064">
        <ele>1.43</ele>
        <time>2019-12-15T10:58:37.000Z</time>
      </trkpt>
      <trkpt lat="47.29688" lon="-1.81038">
        <ele>1.9</ele>
        <time>2019-12-15T10:58:42.000Z</time>
      </trkpt>
      <trkpt lat="47.29691" lon="-1.81011">
        <ele>2.47</ele>
        <time>2019-12-15T10:58:47.000Z</time>
      </trkpt>
      <trkpt lat="47.29696" lon="-1.80984">
        <ele>3.74</ele>
        <time>2019-12-15T10:58:52.000Z</time>
      </trkpt>
      <trkpt lat="47.29699" lon="-1.80958">
        <ele>5.91</ele>
        <time>2019-12-15T10:58:57.000Z</time>
      </trkpt>
      <trkpt lat="47.29701" lon="-1.8093">
        <ele>6.75</ele>
        <time>2019-12-15T10:59:02.000Z</time>
      </trkpt>
      <trkpt lat="47.29705" lon="-1.80903">
        <ele>7.18</ele>
        <time>2019-12-15T10:59:07.000Z</time>
      </trkpt>
      <trkpt lat="47.29708" lon="-1.80876">
        <ele>8.45</ele>
        <time>2019-12-15T10:59:12.000Z</time>
      </trkpt>
      <trkpt lat="47.29712" lon="-1.80848">
        <ele>7.59</ele>
        <time>2019-12-15T10:59:17.000Z</time>
      </trkpt>
      <trkpt lat="47.29715" lon="-1.8082">
        <ele>7.46</ele>
        <time>2019-12-15T10:59:22.000Z</time>
      </trkpt>
      <trkpt lat="47.29718" lon="-1.80792">
        <ele>9.07</ele>
        <time>2019-12-15T10:59:27.000Z</time>
      </trkpt>
      <trkpt lat="47.29721" lon="-1.80765">
        <ele>10.48</ele>
        <time>2019-12-15T10:59:32.000Z</time>
      </trkpt>
      <trkpt lat="47.29726" lon="-1.80735">
        <ele>12.72</ele>
        <time>2019-12-15T10:59:38.000Z</time>
      </trkpt>
      <trkpt lat="47.29729" lon="-1.80707">
        <ele>13.11</ele>
        <time>2019-12-15T10:59:43.000Z</time>
      </trkpt>
      <trkpt lat="47.29733" lon="-1.80677">
        <ele>13.26</ele>
        <time>2019-12-15T10:59:48.000Z</time>
      </trkpt>
      <trkpt lat="47.29737" lon="-1.80647">
        <ele>13.13</ele>
        <time>2019-12-15T10:59:53.000Z</time>
      </trkpt>
      <trkpt lat="47.29741" lon="-1.80614">
        <ele>13.19</ele>
        <time>2019-12-15T10:59:58.000Z</time>
      </trkpt>
      <trkpt lat="47.29744" lon="-1.80584">
        <ele>12.97</ele>
        <time>2019-12-15T11:00:02.000Z</time>
      </trkpt>
      <trkpt lat="47.29748" lon="-1.80554">
        <ele>11.96</ele>
        <time>2019-12-15T11:00:06.000Z</time>
      </trkpt>
      <trkpt lat="47.29752" lon="-1.80523">
        <ele>10.79</ele>
        <time>2019-12-15T11:00:10.000Z</time>
      </trkpt>
      <trkpt lat="47.29756" lon="-1.80492">
        <ele>10.49</ele>
        <time>2019-12-15T11:00:14.000Z</time>
      </trkpt>
      <trkpt lat="47.29758" lon="-1.80461">
        <ele>10.69</ele>
        <time>2019-12-15T11:00:18.000Z</time>
      </trkpt>
      <trkpt lat="47.2976" lon="-1.8043">
        <ele>10.94</ele>
        <time>2019-12-15T11:00:22.000Z</time>
      </trkpt>
      <trkpt lat="47.29764" lon="-1.804">
        <ele>11.41</ele>
        <time>2019-12-15T11:00:26.000Z</time>
      </trkpt>
      <trkpt lat="47.29772" lon="-1.80371">
        <ele>11.98</ele>
        <time>2019-12-15T11:00:30.000Z</time>
      </trkpt>
      <trkpt lat="47.29783" lon="-1.80345">
        <ele>12.65</ele>
        <time>2019-12-15T11:00:34.000Z</time>
      </trkpt>
      <trkpt lat="47.29795" lon="-1.80319">
        <ele>13.29</ele>
        <time>2019-12-15T11:00:38.000Z</time>
      </trkpt>
      <trkpt lat="47.29808" lon="-1.80294">
        <ele>13.9</ele>
        <time>2019-12-15T11:00:42.000Z</time>
      </trkpt>
      <trkpt lat="47.2982" lon="-1.8027">
        <ele>14.69</ele>
        <time>2019-12-15T11:00:46.000Z</time>
      </trkpt>
      <trkpt lat="47.29831" lon="-1.80246">
        <ele>15.4</ele>
        <time>2019-12-15T11:00:50.000Z</time>
      </trkpt>
      <trkpt lat="47.29842" lon="-1.80221">
        <ele>16.07</ele>
        <time>2019-12-15T11:00:54.000Z</time>
      </trkpt>
      <trkpt lat="47.29854" lon="-1.80199">
        <ele>16.55</ele>
        <time>2019-12-15T11:00:58.000Z</time>
      </trkpt>
      <trkpt lat="47.29864" lon="-1.80177">
        <ele>17.45</ele>
        <time>2019-12-15T11:01:02.000Z</time>
      </trkpt>
      <trkpt lat="47.29876" lon="-1.80155">
        <ele>18.55</ele>
        <time>2019-12-15T11:01:06.000Z</time>
      </trkpt>
      <trkpt lat="47.29894" lon="-1.80149">
        <ele>19.94</ele>
        <time>2019-12-15T11:01:10.000Z</time>
      </trkpt>
      <trkpt lat="47.29914" lon="-1.80142">
        <ele>20.99</ele>
        <time>2019-12-15T11:01:14.000Z</time>
      </trkpt>
      <trkpt lat="47.29935" lon="-1.80132">
        <ele>22.37</ele>
        <time>2019-12-15T11:01:18.000Z</time>
      </trkpt>
      <trkpt lat="47.29955" lon="-1.8013">
        <ele>23.4</ele>
        <time>2019-12-15T11:01:22.000Z</time>
      </trkpt>
      <trkpt lat="47.29976" lon="-1.80129">
        <ele>25.66</ele>
        <time>2019-12-15T11:01:26.000Z</time>
      </trkpt>
      <trkpt lat="47.29998" lon="-1.80126">
        <ele>26.37</ele>
        <time>2019-12-15T11:01:30.000Z</time>
      </trkpt>
      <trkpt lat="47.30019" lon="-1.8012">
        <ele>26.48</ele>
        <time>2019-12-15T11:01:34.000Z</time>
      </trkpt>
      <trkpt lat="47.30039" lon="-1.80113">
        <ele>26.29</ele>
        <time>2019-12-15T11:01:38.000Z</time>
      </trkpt>
      <trkpt lat="47.3006" lon="-1.80098">
        <ele>24.5</ele>
        <time>2019-12-15T11:01:42.000Z</time>
      </trkpt>
      <trkpt lat="47.30076" lon="-1.80079">
        <ele>23.18</ele>
        <time>2019-12-15T11:01:46.000Z</time>
      </trkpt>
      <trkpt lat="47.30095" lon="-1.8006">
        <ele>24.04</ele>
        <time>2019-12-15T11:01:50.000Z</time>
      </trkpt>
      <trkpt lat="47.30114" lon="-1.80042">
        <ele>24.53</ele>
        <time>2019-12-15T11:01:54.000Z</time>
      </trkpt>
      <trkpt lat="47.3013" lon="-1.80029">
        <ele>24.41</ele>
        <time>2019-12-15T11:01:57.000Z</time>
      </trkpt>
      <trkpt lat="47.30145" lon="-1.80013">
        <ele>25.33</ele>
        <time>2019-12-15T11:02:00.000Z</time>
      </trkpt>
      <trkpt lat="47.30163" lon="-1.79992">
        <ele>26.27</ele>
        <time>2019-12-15T11:02:04.000Z</time>
      </trkpt>
      <trkpt lat="47.30177" lon="-1.79973">
        <ele>25.9</ele>
        <time>2019-12-15T11:02:07.000Z</time>
      </trkpt>
      <trkpt lat="47.30188" lon="-1.7995">
        <ele>24.72</ele>
        <time>2019-12-15T11:02:10.000Z</time>
      </trkpt>
      <trkpt lat="47.30197" lon="-1.79925">
        <ele>24.64</ele>
        <time>2019-12-15T11:02:13.000Z</time>
      </trkpt>
      <trkpt lat="47.30204" lon="-1.79898">
        <ele>25.33</ele>
        <time>2019-12-15T11:02:16.000Z</time>
      </trkpt>
      <trkpt lat="47.30209" lon="-1.79871">
        <ele>26.25</ele>
        <time>2019-12-15T11:02:19.000Z</time>
      </trkpt>
      <trkpt lat="47.30215" lon="-1.79844">
        <ele>25.38</ele>
        <time>2019-12-15T11:02:22.000Z</time>
      </trkpt>
      <trkpt lat="47.30222" lon="-1.79816">
        <ele>23.86</ele>
        <time>2019-12-15T11:02:25.000Z</time>
      </trkpt>
      <trkpt lat="47.30229" lon="-1.79788">
        <ele>22.15</ele>
        <time>2019-12-15T11:02:28.000Z</time>
      </trkpt>
      <trkpt lat="47.30235" lon="-1.7976">
        <ele>21.39</ele>
        <time>2019-12-15T11:02:31.000Z</time>
      </trkpt>
      <trkpt lat="47.30242" lon="-1.79732">
        <ele>20.91</ele>
        <time>2019-12-15T11:02:34.000Z</time>
      </trkpt>
      <trkpt lat="47.30249" lon="-1.79704">
        <ele>21.12</ele>
        <time>2019-12-15T11:02:37.000Z</time>
      </trkpt>
      <trkpt lat="47.30257" lon="-1.79677">
        <ele>20.74</ele>
        <time>2019-12-15T11:02:40.000Z</time>
      </trkpt>
      <trkpt lat="47.30269" lon="-1.79651">
        <ele>21.1</ele>
        <time>2019-12-15T11:02:43.000Z</time>
      </trkpt>
      <trkpt lat="47.30284" lon="-1.79629">
        <ele>21.14</ele>
        <time>2019-12-15T11:02:46.000Z</time>
      </trkpt>
      <trkpt lat="47.303" lon="-1.79608">
        <ele>20.83</ele>
        <time>2019-12-15T11:02:49.000Z</time>
      </trkpt>
      <trkpt lat="47.30316" lon="-1.79588">
        <ele>21.34</ele>
        <time>2019-12-15T11:02:52.000Z</time>
      </trkpt>
      <trkpt lat="47.30332" lon="-1.79567">
        <ele>22.42</ele>
        <time>2019-12-15T11:02:55.000Z</time>
      </trkpt>
      <trkpt lat="47.30348" lon="-1.79547">
        <ele>22.43</ele>
        <time>2019-12-15T11:02:58.000Z</time>
      </trkpt>
      <trkpt lat="47.30366" lon="-1.79524">
        <ele>22.93</ele>
        <time>2019-12-15T11:03:01.000Z</time>
      </trkpt>
      <trkpt lat="47.30384" lon="-1.79502">
        <ele>24.31</ele>
        <time>2019-12-15T11:03:04.000Z</time>
      </trkpt>
      <trkpt lat="47.30403" lon="-1.79479">
        <ele>25.29</ele>
        <time>2019-12-15T11:03:07.000Z</time>
      </trkpt>
      <trkpt lat="47.30421" lon="-1.79457">
        <ele>24.03</ele>
        <time>2019-12-15T11:03:10.000Z</time>
      </trkpt>
      <trkpt lat="47.30439" lon="-1.79435">
        <ele>23.9</ele>
        <time>2019-12-15T11:03:13.000Z</time>
      </trkpt>
      <trkpt lat="47.30458" lon="-1.79413">
        <ele>24.25</ele>
        <time>2019-12-15T11:03:16.000Z</time>
      </trkpt>
      <trkpt lat="47.30477" lon="-1.79391">
        <ele>24.41</ele>
        <time>2019-12-15T11:03:19.000Z</time>
      </trkpt>
      <trkpt lat="47.30494" lon="-1.79369">
        <ele>23.85</ele>
        <time>2019-12-15T11:03:22.000Z</time>
      </trkpt>
      <trkpt lat="47.30511" lon="-1.79348">
        <ele>23.39</ele>
        <time>2019-12-15T11:03:25.000Z</time>
      </trkpt>
      <trkpt lat="47.30526" lon="-1.79329">
        <ele>22.61</ele>
        <time>2019-12-15T11:03:28.000Z</time>
      </trkpt>
      <trkpt lat="47.30544" lon="-1.79309">
        <ele>23.86</ele>
        <time>2019-12-15T11:03:32.000Z</time>
      </trkpt>
      <trkpt lat="47.30558" lon="-1.79291">
        <ele>25.47</ele>
        <time>2019-12-15T11:03:36.000Z</time>
      </trkpt>
      <trkpt lat="47.30572" lon="-1.79272">
        <ele>28.53</ele>
        <time>2019-12-15T11:03:42.000Z</time>
      </trkpt>
      <trkpt lat="47.30588" lon="-1.79251">
        <ele>31.21</ele>
        <time>2019-12-15T11:03:47.000Z</time>
      </trkpt>
      <trkpt lat="47.30604" lon="-1.79231">
        <ele>33.18</ele>
        <time>2019-12-15T11:03:51.000Z</time>
      </trkpt>
      <trkpt lat="47.30621" lon="-1.79211">
        <ele>34.16</ele>
        <time>2019-12-15T11:03:55.000Z</time>
      </trkpt>
      <trkpt lat="47.30638" lon="-1.7919">
        <ele>32.67</ele>
        <time>2019-12-15T11:03:59.000Z</time>
      </trkpt>
      <trkpt lat="47.30656" lon="-1.7917">
        <ele>31.95</ele>
        <time>2019-12-15T11:04:03.000Z</time>
      </trkpt>
      <trkpt lat="47.30672" lon="-1.7915">
        <ele>30.53</ele>
        <time>2019-12-15T11:04:07.000Z</time>
      </trkpt>
      <trkpt lat="47.3069" lon="-1.79129">
        <ele>30.1</ele>
        <time>2019-12-15T11:04:11.000Z</time>
      </trkpt>
      <trkpt lat="47.30708" lon="-1.79109">
        <ele>28.98</ele>
        <time>2019-12-15T11:04:15.000Z</time>
      </trkpt>
      <trkpt lat="47.30727" lon="-1.79089">
        <ele>29.26</ele>
        <time>2019-12-15T11:04:19.000Z</time>
      </trkpt>
      <trkpt lat="47.30747" lon="-1.7907">
        <ele>30.51</ele>
        <time>2019-12-15T11:04:23.000Z</time>
      </trkpt>
      <trkpt lat="47.30764" lon="-1.79057">
        <ele>31.6</ele>
        <time>2019-12-15T11:04:26.000Z</time>
      </trkpt>
      <trkpt lat="47.30781" lon="-1.79045">
        <ele>32.58</ele>
        <time>2019-12-15T11:04:29.000Z</time>
      </trkpt>
      <trkpt lat="47.30798" lon="-1.79033">
        <ele>33.22</ele>
        <time>2019-12-15T11:04:32.000Z</time>
      </trkpt>
      <trkpt lat="47.30818" lon="-1.79018">
        <ele>32.36</ele>
        <time>2019-12-15T11:04:36.000Z</time>
      </trkpt>
      <trkpt lat="47.30836" lon="-1.79006">
        <ele>33.36</ele>
        <time>2019-12-15T11:04:39.000Z</time>
      </trkpt>
      <trkpt lat="47.30853" lon="-1.78994">
        <ele>34.21</ele>
        <time>2019-12-15T11:04:42.000Z</time>
      </trkpt>
      <trkpt lat="47.3087" lon="-1.78981">
        <ele>34.39</ele>
        <time>2019-12-15T11:04:45.000Z</time>
      </trkpt>
      <trkpt lat="47.30888" lon="-1.78969">
        <ele>34.05</ele>
        <time>2019-12-15T11:04:48.000Z</time>
      </trkpt>
      <trkpt lat="47.30904" lon="-1.78956">
        <ele>34.56</ele>
        <time>2019-12-15T11:04:51.000Z</time>
      </trkpt>
      <trkpt lat="47.30925" lon="-1.78941">
        <ele>37.36</ele>
        <time>2019-12-15T11:04:55.000Z</time>
      </trkpt>
      <trkpt lat="47.30943" lon="-1.78929">
        <ele>38.61</ele>
        <time>2019-12-15T11:04:58.000Z</time>
      </trkpt>
      <trkpt lat="47.30961" lon="-1.78917">
        <ele>39.2</ele>
        <time>2019-12-15T11:05:01.000Z</time>
      </trkpt>
      <trkpt lat="47.30979" lon="-1.78904">
        <ele>38.86</ele>
        <time>2019-12-15T11:05:04.000Z</time>
      </trkpt>
      <trkpt lat="47.30996" lon="-1.7889">
        <ele>37.08</ele>
        <time>2019-12-15T11:05:07.000Z</time>
      </trkpt>
      <trkpt lat="47.31013" lon="-1.78874">
        <ele>36.94</ele>
        <time>2019-12-15T11:05:10.000Z</time>
      </trkpt>
      <trkpt lat="47.3103" lon="-1.78857">
        <ele>35.16</ele>
        <time>2019-12-15T11:05:13.000Z</time>
      </trkpt>
      <trkpt lat="47.31045" lon="-1.78838">
        <ele>33.26</ele>
        <time>2019-12-15T11:05:16.000Z</time>
      </trkpt>
      <trkpt lat="47.3106" lon="-1.78819">
        <ele>33.67</ele>
        <time>2019-12-15T11:05:19.000Z</time>
      </trkpt>
      <trkpt lat="47.31075" lon="-1.78799">
        <ele>34.51</ele>
        <time>2019-12-15T11:05:22.000Z</time>
      </trkpt>
      <trkpt lat="47.3109" lon="-1.78778">
        <ele>35.1</ele>
        <time>2019-12-15T11:05:25.000Z</time>
      </trkpt>
      <trkpt lat="47.31106" lon="-1.78757">
        <ele>35.79</ele>
        <time>2019-12-15T11:05:28.000Z</time>
      </trkpt>
      <trkpt lat="47.31121" lon="-1.78736">
        <ele>35.42</ele>
        <time>2019-12-15T11:05:31.000Z</time>
      </trkpt>
      <trkpt lat="47.31136" lon="-1.78716">
        <ele>35.32</ele>
        <time>2019-12-15T11:05:34.000Z</time>
      </trkpt>
      <trkpt lat="47.31151" lon="-1.78699">
        <ele>36.01</ele>
        <time>2019-12-15T11:05:37.000Z</time>
      </trkpt>
      <trkpt lat="47.31169" lon="-1.78685">
        <ele>35.98</ele>
        <time>2019-12-15T11:05:40.000Z</time>
      </trkpt>
      <trkpt lat="47.31188" lon="-1.78674">
        <ele>35.62</ele>
        <time>2019-12-15T11:05:43.000Z</time>
      </trkpt>
      <trkpt lat="47.31207" lon="-1.78664">
        <ele>34.55</ele>
        <time>2019-12-15T11:05:46.000Z</time>
      </trkpt>
      <trkpt lat="47.31218" lon="-1.78641">
        <ele>33.68</ele>
        <time>2019-12-15T11:05:49.000Z</time>
      </trkpt>
      <trkpt lat="47.31214" lon="-1.78613">
        <ele>33.27</ele>
        <time>2019-12-15T11:05:52.000Z</time>
      </trkpt>
      <trkpt lat="47.31213" lon="-1.78585">
        <ele>33.21</ele>
        <time>2019-12-15T11:05:55.000Z</time>
      </trkpt>
      <trkpt lat="47.31212" lon="-1.78557">
        <ele>33.15</ele>
        <time>2019-12-15T11:05:58.000Z</time>
      </trkpt>
      <trkpt lat="47.31211" lon="-1.7853">
        <ele>34.4</ele>
        <time>2019-12-15T11:06:01.000Z</time>
      </trkpt>
      <trkpt lat="47.3121" lon="-1.78496">
        <ele>35.93</ele>
        <time>2019-12-15T11:06:05.000Z</time>
      </trkpt>
      <trkpt lat="47.31208" lon="-1.78461">
        <ele>36.59</ele>
        <time>2019-12-15T11:06:09.000Z</time>
      </trkpt>
      <trkpt lat="47.31207" lon="-1.78434">
        <ele>37.34</ele>
        <time>2019-12-15T11:06:12.000Z</time>
      </trkpt>
      <trkpt lat="47.31206" lon="-1.78407">
        <ele>38.23</ele>
        <time>2019-12-15T11:06:15.000Z</time>
      </trkpt>
      <trkpt lat="47.31206" lon="-1.7838">
        <ele>39.07</ele>
        <time>2019-12-15T11:06:18.000Z</time>
      </trkpt>
      <trkpt lat="47.31205" lon="-1.78353">
        <ele>39.93</ele>
        <time>2019-12-15T11:06:21.000Z</time>
      </trkpt>
      <trkpt lat="47.31204" lon="-1.78326">
        <ele>40.52</ele>
        <time>2019-12-15T11:06:24.000Z</time>
      </trkpt>
      <trkpt lat="47.31204" lon="-1.78298">
        <ele>41.1</ele>
        <time>2019-12-15T11:06:27.000Z</time>
      </trkpt>
      <trkpt lat="47.31204" lon="-1.78269">
        <ele>42.16</ele>
        <time>2019-12-15T11:06:30.000Z</time>
      </trkpt>
      <trkpt lat="47.31204" lon="-1.78242">
        <ele>43.07</ele>
        <time>2019-12-15T11:06:33.000Z</time>
      </trkpt>
      <trkpt lat="47.31204" lon="-1.78215">
        <ele>43.64</ele>
        <time>2019-12-15T11:06:36.000Z</time>
      </trkpt>
      <trkpt lat="47.31203" lon="-1.78185">
        <ele>43.92</ele>
        <time>2019-12-15T11:06:39.000Z</time>
      </trkpt>
      <trkpt lat="47.31205" lon="-1.78153">
        <ele>43.11</ele>
        <time>2019-12-15T11:06:42.000Z</time>
      </trkpt>
      <trkpt lat="47.31214" lon="-1.78123">
        <ele>42.99</ele>
        <time>2019-12-15T11:06:45.000Z</time>
      </trkpt>
      <trkpt lat="47.31228" lon="-1.78098">
        <ele>42.76</ele>
        <time>2019-12-15T11:06:48.000Z</time>
      </trkpt>
      <trkpt lat="47.31244" lon="-1.78076">
        <ele>42.23</ele>
        <time>2019-12-15T11:06:51.000Z</time>
      </trkpt>
      <trkpt lat="47.31262" lon="-1.78059">
        <ele>41.63</ele>
        <time>2019-12-15T11:06:54.000Z</time>
      </trkpt>
      <trkpt lat="47.31279" lon="-1.7804">
        <ele>40.89</ele>
        <time>2019-12-15T11:06:57.000Z</time>
      </trkpt>
      <trkpt lat="47.31295" lon="-1.78022">
        <ele>39.32</ele>
        <time>2019-12-15T11:07:00.000Z</time>
      </trkpt>
      <trkpt lat="47.31311" lon="-1.78004">
        <ele>38.01</ele>
        <time>2019-12-15T11:07:03.000Z</time>
      </trkpt>
      <trkpt lat="47.31328" lon="-1.77988">
        <ele>35.85</ele>
        <time>2019-12-15T11:07:06.000Z</time>
      </trkpt>
      <trkpt lat="47.31344" lon="-1.77972">
        <ele>35.39</ele>
        <time>2019-12-15T11:07:09.000Z</time>
      </trkpt>
      <trkpt lat="47.31358" lon="-1.77955">
        <ele>36.49</ele>
        <time>2019-12-15T11:07:12.000Z</time>
      </trkpt>
      <trkpt lat="47.31373" lon="-1.77937">
        <ele>36.58</ele>
        <time>2019-12-15T11:07:15.000Z</time>
      </trkpt>
      <trkpt lat="47.31389" lon="-1.77919">
        <ele>35.81</ele>
        <time>2019-12-15T11:07:18.000Z</time>
      </trkpt>
      <trkpt lat="47.31406" lon="-1.77902">
        <ele>34.91</ele>
        <time>2019-12-15T11:07:21.000Z</time>
      </trkpt>
      <trkpt lat="47.31422" lon="-1.77887">
        <ele>35.82</ele>
        <time>2019-12-15T11:07:24.000Z</time>
      </trkpt>
      <trkpt lat="47.31435" lon="-1.77859">
        <ele>35.95</ele>
        <time>2019-12-15T11:07:28.000Z</time>
      </trkpt>
      <trkpt lat="47.31418" lon="-1.77841">
        <ele>35.88</ele>
        <time>2019-12-15T11:07:32.000Z</time>
      </trkpt>
      <trkpt lat="47.31396" lon="-1.77834">
        <ele>35.81</ele>
        <time>2019-12-15T11:07:36.000Z</time>
      </trkpt>
      <trkpt lat="47.31374" lon="-1.77826">
        <ele>35</ele>
        <time>2019-12-15T11:07:40.000Z</time>
      </trkpt>
      <trkpt lat="47.31352" lon="-1.77816">
        <ele>34.67</ele>
        <time>2019-12-15T11:07:44.000Z</time>
      </trkpt>
      <trkpt lat="47.31329" lon="-1.77806">
        <ele>35.13</ele>
        <time>2019-12-15T11:07:48.000Z</time>
      </trkpt>
      <trkpt lat="47.31307" lon="-1.77796">
        <ele>36.58</ele>
        <time>2019-12-15T11:07:52.000Z</time>
      </trkpt>
      <trkpt lat="47.31285" lon="-1.77786">
        <ele>36.92</ele>
        <time>2019-12-15T11:07:56.000Z</time>
      </trkpt>
      <trkpt lat="47.31263" lon="-1.77775">
        <ele>37.07</ele>
        <time>2019-12-15T11:08:00.000Z</time>
      </trkpt>
      <trkpt lat="47.31241" lon="-1.77764">
        <ele>37.4</ele>
        <time>2019-12-15T11:08:04.000Z</time>
      </trkpt>
      <trkpt lat="47.3122" lon="-1.77755">
        <ele>36.96</ele>
        <time>2019-12-15T11:08:08.000Z</time>
      </trkpt>
      <trkpt lat="47.31198" lon="-1.77745">
        <ele>36.28</ele>
        <time>2019-12-15T11:08:12.000Z</time>
      </trkpt>
      <trkpt lat="47.31175" lon="-1.77734">
        <ele>35.45</ele>
        <time>2019-12-15T11:08:16.000Z</time>
      </trkpt>
      <trkpt lat="47.31152" lon="-1.77728">
        <ele>35.06</ele>
        <time>2019-12-15T11:08:20.000Z</time>
      </trkpt>
      <trkpt lat="47.31128" lon="-1.77731">
        <ele>35.19</ele>
        <time>2019-12-15T11:08:24.000Z</time>
      </trkpt>
      <trkpt lat="47.31111" lon="-1.7774">
        <ele>35.01</ele>
        <time>2019-12-15T11:08:27.000Z</time>
      </trkpt>
      <trkpt lat="47.31094" lon="-1.7775">
        <ele>34.51</ele>
        <time>2019-12-15T11:08:30.000Z</time>
      </trkpt>
      <trkpt lat="47.31077" lon="-1.7776">
        <ele>34.01</ele>
        <time>2019-12-15T11:08:33.000Z</time>
      </trkpt>
      <trkpt lat="47.31059" lon="-1.7777">
        <ele>33.63</ele>
        <time>2019-12-15T11:08:36.000Z</time>
      </trkpt>
      <trkpt lat="47.31042" lon="-1.7778">
        <ele>33.3</ele>
        <time>2019-12-15T11:08:39.000Z</time>
      </trkpt>
      <trkpt lat="47.31026" lon="-1.7779">
        <ele>33.32</ele>
        <time>2019-12-15T11:08:42.000Z</time>
      </trkpt>
      <trkpt lat="47.31009" lon="-1.778">
        <ele>33.54</ele>
        <time>2019-12-15T11:08:45.000Z</time>
      </trkpt>
      <trkpt lat="47.30992" lon="-1.7781">
        <ele>33.48</ele>
        <time>2019-12-15T11:08:48.000Z</time>
      </trkpt>
      <trkpt lat="47.30975" lon="-1.7782">
        <ele>33.31</ele>
        <time>2019-12-15T11:08:51.000Z</time>
      </trkpt>
      <trkpt lat="47.30957" lon="-1.77827">
        <ele>34.29</ele>
        <time>2019-12-15T11:08:54.000Z</time>
      </trkpt>
      <trkpt lat="47.30933" lon="-1.77827">
        <ele>34.6</ele>
        <time>2019-12-15T11:08:58.000Z</time>
      </trkpt>
      <trkpt lat="47.3091" lon="-1.77822">
        <ele>35.39</ele>
        <time>2019-12-15T11:09:02.000Z</time>
      </trkpt>
      <trkpt lat="47.30887" lon="-1.77817">
        <ele>35.26</ele>
        <time>2019-12-15T11:09:06.000Z</time>
      </trkpt>
      <trkpt lat="47.30865" lon="-1.77811">
        <ele>35.37</ele>
        <time>2019-12-15T11:09:10.000Z</time>
      </trkpt>
      <trkpt lat="47.30844" lon="-1.77807">
        <ele>35.96</ele>
        <time>2019-12-15T11:09:14.000Z</time>
      </trkpt>
      <trkpt lat="47.30823" lon="-1.77801">
        <ele>35.58</ele>
        <time>2019-12-15T11:09:18.000Z</time>
      </trkpt>
      <trkpt lat="47.30804" lon="-1.77797">
        <ele>35.55</ele>
        <time>2019-12-15T11:09:22.000Z</time>
      </trkpt>
      <trkpt lat="47.30785" lon="-1.77794">
        <ele>36.64</ele>
        <time>2019-12-15T11:09:26.000Z</time>
      </trkpt>
      <trkpt lat="47.30765" lon="-1.77794">
        <ele>37.49</ele>
        <time>2019-12-15T11:09:30.000Z</time>
      </trkpt>
      <trkpt lat="47.30745" lon="-1.77795">
        <ele>36.89</ele>
        <time>2019-12-15T11:09:34.000Z</time>
      </trkpt>
      <trkpt lat="47.30724" lon="-1.778">
        <ele>36.86</ele>
        <time>2019-12-15T11:09:38.000Z</time>
      </trkpt>
      <trkpt lat="47.30703" lon="-1.77807">
        <ele>36.03</ele>
        <time>2019-12-15T11:09:42.000Z</time>
      </trkpt>
      <trkpt lat="47.30681" lon="-1.77817">
        <ele>35.05</ele>
        <time>2019-12-15T11:09:46.000Z</time>
      </trkpt>
      <trkpt lat="47.30663" lon="-1.77822">
        <ele>34.63</ele>
        <time>2019-12-15T11:09:49.000Z</time>
      </trkpt>
      <trkpt lat="47.30644" lon="-1.77821">
        <ele>32.31</ele>
        <time>2019-12-15T11:09:52.000Z</time>
      </trkpt>
      <trkpt lat="47.30623" lon="-1.77819">
        <ele>30.23</ele>
        <time>2019-12-15T11:09:55.000Z</time>
      </trkpt>
      <trkpt lat="47.30601" lon="-1.77829">
        <ele>29.46</ele>
        <time>2019-12-15T11:09:58.000Z</time>
      </trkpt>
      <trkpt lat="47.30581" lon="-1.77822">
        <ele>28.61</ele>
        <time>2019-12-15T11:10:03.000Z</time>
      </trkpt>
      <trkpt lat="47.3058" lon="-1.7779">
        <ele>27.66</ele>
        <time>2019-12-15T11:10:07.000Z</time>
      </trkpt>
      <trkpt lat="47.30579" lon="-1.77764">
        <ele>26.58</ele>
        <time>2019-12-15T11:10:10.000Z</time>
      </trkpt>
      <trkpt lat="47.30578" lon="-1.77735">
        <ele>25.79</ele>
        <time>2019-12-15T11:10:13.000Z</time>
      </trkpt>
      <trkpt lat="47.30576" lon="-1.77707">
        <ele>25.48</ele>
        <time>2019-12-15T11:10:16.000Z</time>
      </trkpt>
      <trkpt lat="47.30574" lon="-1.7768">
        <ele>26</ele>
        <time>2019-12-15T11:10:19.000Z</time>
      </trkpt>
      <trkpt lat="47.3057" lon="-1.77652">
        <ele>26.16</ele>
        <time>2019-12-15T11:10:22.000Z</time>
      </trkpt>
      <trkpt lat="47.30565" lon="-1.77621">
        <ele>25.7</ele>
        <time>2019-12-15T11:10:25.000Z</time>
      </trkpt>
      <trkpt lat="47.30559" lon="-1.7759">
        <ele>24.36</ele>
        <time>2019-12-15T11:10:28.000Z</time>
      </trkpt>
      <trkpt lat="47.30553" lon="-1.77558">
        <ele>23.48</ele>
        <time>2019-12-15T11:10:31.000Z</time>
      </trkpt>
      <trkpt lat="47.30547" lon="-1.77527">
        <ele>23</ele>
        <time>2019-12-15T11:10:34.000Z</time>
      </trkpt>
      <trkpt lat="47.30542" lon="-1.77498">
        <ele>22.28</ele>
        <time>2019-12-15T11:10:37.000Z</time>
      </trkpt>
      <trkpt lat="47.30537" lon="-1.77468">
        <ele>21.36</ele>
        <time>2019-12-15T11:10:40.000Z</time>
      </trkpt>
      <trkpt lat="47.30531" lon="-1.77438">
        <ele>20.19</ele>
        <time>2019-12-15T11:10:43.000Z</time>
      </trkpt>
      <trkpt lat="47.30525" lon="-1.77407">
        <ele>19.86</ele>
        <time>2019-12-15T11:10:46.000Z</time>
      </trkpt>
      <trkpt lat="47.30519" lon="-1.77379">
        <ele>20.2</ele>
        <time>2019-12-15T11:10:49.000Z</time>
      </trkpt>
      <trkpt lat="47.30512" lon="-1.77346">
        <ele>20.42</ele>
        <time>2019-12-15T11:10:53.000Z</time>
      </trkpt>
      <trkpt lat="47.30506" lon="-1.77316">
        <ele>20.93</ele>
        <time>2019-12-15T11:10:57.000Z</time>
      </trkpt>
      <trkpt lat="47.305" lon="-1.77285">
        <ele>22.09</ele>
        <time>2019-12-15T11:11:01.000Z</time>
      </trkpt>
      <trkpt lat="47.30493" lon="-1.77253">
        <ele>23.22</ele>
        <time>2019-12-15T11:11:05.000Z</time>
      </trkpt>
      <trkpt lat="47.30487" lon="-1.77223">
        <ele>24.35</ele>
        <time>2019-12-15T11:11:09.000Z</time>
      </trkpt>
      <trkpt lat="47.30481" lon="-1.77193">
        <ele>25.54</ele>
        <time>2019-12-15T11:11:13.000Z</time>
      </trkpt>
      <trkpt lat="47.30477" lon="-1.7716">
        <ele>26.47</ele>
        <time>2019-12-15T11:11:17.000Z</time>
      </trkpt>
      <trkpt lat="47.30475" lon="-1.77132">
        <ele>26.38</ele>
        <time>2019-12-15T11:11:20.000Z</time>
      </trkpt>
      <trkpt lat="47.30473" lon="-1.77105">
        <ele>26.33</ele>
        <time>2019-12-15T11:11:23.000Z</time>
      </trkpt>
      <trkpt lat="47.30471" lon="-1.77075">
        <ele>25.86</ele>
        <time>2019-12-15T11:11:26.000Z</time>
      </trkpt>
      <trkpt lat="47.30469" lon="-1.77048">
        <ele>26.52</ele>
        <time>2019-12-15T11:11:29.000Z</time>
      </trkpt>
      <trkpt lat="47.30467" lon="-1.77021">
        <ele>28.14</ele>
        <time>2019-12-15T11:11:32.000Z</time>
      </trkpt>
      <trkpt lat="47.30467" lon="-1.76994">
        <ele>28.28</ele>
        <time>2019-12-15T11:11:35.000Z</time>
      </trkpt>
      <trkpt lat="47.3046" lon="-1.76962">
        <ele>28.97</ele>
        <time>2019-12-15T11:11:39.000Z</time>
      </trkpt>
      <trkpt lat="47.30451" lon="-1.76931">
        <ele>28.44</ele>
        <time>2019-12-15T11:11:43.000Z</time>
      </trkpt>
      <trkpt lat="47.30443" lon="-1.76901">
        <ele>25.55</ele>
        <time>2019-12-15T11:11:47.000Z</time>
      </trkpt>
      <trkpt lat="47.30429" lon="-1.76879">
        <ele>26</ele>
        <time>2019-12-15T11:11:51.000Z</time>
      </trkpt>
      <trkpt lat="47.30409" lon="-1.76883">
        <ele>26.41</ele>
        <time>2019-12-15T11:11:55.000Z</time>
      </trkpt>
      <trkpt lat="47.3039" lon="-1.76892">
        <ele>27.51</ele>
        <time>2019-12-15T11:11:59.000Z</time>
      </trkpt>
      <trkpt lat="47.30369" lon="-1.76894">
        <ele>29.21</ele>
        <time>2019-12-15T11:12:03.000Z</time>
      </trkpt>
      <trkpt lat="47.30348" lon="-1.76901">
        <ele>28.18</ele>
        <time>2019-12-15T11:12:07.000Z</time>
      </trkpt>
      <trkpt lat="47.30327" lon="-1.76915">
        <ele>27.11</ele>
        <time>2019-12-15T11:12:11.000Z</time>
      </trkpt>
      <trkpt lat="47.30305" lon="-1.76914">
        <ele>28.02</ele>
        <time>2019-12-15T11:12:15.000Z</time>
      </trkpt>
      <trkpt lat="47.30283" lon="-1.76912">
        <ele>29.07</ele>
        <time>2019-12-15T11:12:19.000Z</time>
      </trkpt>
      <trkpt lat="47.30261" lon="-1.76913">
        <ele>28.27</ele>
        <time>2019-12-15T11:12:23.000Z</time>
      </trkpt>
      <trkpt lat="47.30238" lon="-1.76913">
        <ele>28.84</ele>
        <time>2019-12-15T11:12:27.000Z</time>
      </trkpt>
      <trkpt lat="47.30215" lon="-1.76916">
        <ele>28.72</ele>
        <time>2019-12-15T11:12:31.000Z</time>
      </trkpt>
      <trkpt lat="47.30192" lon="-1.76922">
        <ele>29.38</ele>
        <time>2019-12-15T11:12:35.000Z</time>
      </trkpt>
      <trkpt lat="47.30174" lon="-1.76928">
        <ele>29.07</ele>
        <time>2019-12-15T11:12:38.000Z</time>
      </trkpt>
      <trkpt lat="47.30156" lon="-1.76935">
        <ele>29.05</ele>
        <time>2019-12-15T11:12:41.000Z</time>
      </trkpt>
      <trkpt lat="47.30138" lon="-1.76943">
        <ele>29.54</ele>
        <time>2019-12-15T11:12:44.000Z</time>
      </trkpt>
      <trkpt lat="47.3012" lon="-1.7695">
        <ele>29.85</ele>
        <time>2019-12-15T11:12:47.000Z</time>
      </trkpt>
      <trkpt lat="47.30102" lon="-1.76958">
        <ele>30.77</ele>
        <time>2019-12-15T11:12:50.000Z</time>
      </trkpt>
      <trkpt lat="47.30084" lon="-1.76966">
        <ele>31.77</ele>
        <time>2019-12-15T11:12:53.000Z</time>
      </trkpt>
      <trkpt lat="47.30062" lon="-1.76976">
        <ele>33.16</ele>
        <time>2019-12-15T11:12:57.000Z</time>
      </trkpt>
      <trkpt lat="47.30044" lon="-1.76983">
        <ele>32.02</ele>
        <time>2019-12-15T11:13:00.000Z</time>
      </trkpt>
      <trkpt lat="47.30026" lon="-1.76991">
        <ele>31.42</ele>
        <time>2019-12-15T11:13:03.000Z</time>
      </trkpt>
      <trkpt lat="47.30007" lon="-1.76997">
        <ele>29.85</ele>
        <time>2019-12-15T11:13:06.000Z</time>
      </trkpt>
      <trkpt lat="47.29989" lon="-1.76999">
        <ele>29.69</ele>
        <time>2019-12-15T11:13:09.000Z</time>
      </trkpt>
      <trkpt lat="47.2997" lon="-1.76995">
        <ele>29.33</ele>
        <time>2019-12-15T11:13:12.000Z</time>
      </trkpt>
      <trkpt lat="47.2995" lon="-1.76989">
        <ele>28.64</ele>
        <time>2019-12-15T11:13:15.000Z</time>
      </trkpt>
      <trkpt lat="47.29928" lon="-1.76983">
        <ele>28.88</ele>
        <time>2019-12-15T11:13:18.000Z</time>
      </trkpt>
      <trkpt lat="47.29907" lon="-1.76977">
        <ele>28.14</ele>
        <time>2019-12-15T11:13:21.000Z</time>
      </trkpt>
      <trkpt lat="47.29886" lon="-1.7697">
        <ele>27.59</ele>
        <time>2019-12-15T11:13:24.000Z</time>
      </trkpt>
      <trkpt lat="47.29865" lon="-1.76962">
        <ele>27.09</ele>
        <time>2019-12-15T11:13:27.000Z</time>
      </trkpt>
      <trkpt lat="47.29843" lon="-1.76959">
        <ele>26.49</ele>
        <time>2019-12-15T11:13:30.000Z</time>
      </trkpt>
      <trkpt lat="47.29821" lon="-1.76958">
        <ele>26.9</ele>
        <time>2019-12-15T11:13:33.000Z</time>
      </trkpt>
      <trkpt lat="47.29801" lon="-1.76959">
        <ele>27.27</ele>
        <time>2019-12-15T11:13:36.000Z</time>
      </trkpt>
      <trkpt lat="47.2978" lon="-1.7696">
        <ele>27.22</ele>
        <time>2019-12-15T11:13:39.000Z</time>
      </trkpt>
      <trkpt lat="47.29761" lon="-1.76965">
        <ele>26.42</ele>
        <time>2019-12-15T11:13:42.000Z</time>
      </trkpt>
      <trkpt lat="47.29741" lon="-1.76971">
        <ele>24.69</ele>
        <time>2019-12-15T11:13:45.000Z</time>
      </trkpt>
      <trkpt lat="47.29721" lon="-1.76978">
        <ele>24.03</ele>
        <time>2019-12-15T11:13:48.000Z</time>
      </trkpt>
      <trkpt lat="47.29701" lon="-1.76987">
        <ele>23.59</ele>
        <time>2019-12-15T11:13:51.000Z</time>
      </trkpt>
      <trkpt lat="47.29682" lon="-1.76997">
        <ele>23.82</ele>
        <time>2019-12-15T11:13:54.000Z</time>
      </trkpt>
      <trkpt lat="47.29662" lon="-1.77007">
        <ele>22.78</ele>
        <time>2019-12-15T11:13:57.000Z</time>
      </trkpt>
      <trkpt lat="47.29643" lon="-1.77013">
        <ele>20.79</ele>
        <time>2019-12-15T11:14:00.000Z</time>
      </trkpt>
      <trkpt lat="47.29623" lon="-1.77017">
        <ele>21.7</ele>
        <time>2019-12-15T11:14:03.000Z</time>
      </trkpt>
      <trkpt lat="47.29603" lon="-1.77019">
        <ele>23.3</ele>
        <time>2019-12-15T11:14:06.000Z</time>
      </trkpt>
      <trkpt lat="47.29584" lon="-1.77021">
        <ele>23.67</ele>
        <time>2019-12-15T11:14:09.000Z</time>
      </trkpt>
      <trkpt lat="47.29566" lon="-1.77022">
        <ele>24.09</ele>
        <time>2019-12-15T11:14:12.000Z</time>
      </trkpt>
      <trkpt lat="47.29542" lon="-1.77026">
        <ele>25.45</ele>
        <time>2019-12-15T11:14:16.000Z</time>
      </trkpt>
      <trkpt lat="47.29518" lon="-1.77027">
        <ele>25.61</ele>
        <time>2019-12-15T11:14:20.000Z</time>
      </trkpt>
      <trkpt lat="47.29495" lon="-1.77031">
        <ele>26.56</ele>
        <time>2019-12-15T11:14:24.000Z</time>
      </trkpt>
      <trkpt lat="47.29472" lon="-1.77032">
        <ele>26.95</ele>
        <time>2019-12-15T11:14:28.000Z</time>
      </trkpt>
      <trkpt lat="47.2945" lon="-1.77034">
        <ele>26.58</ele>
        <time>2019-12-15T11:14:32.000Z</time>
      </trkpt>
      <trkpt lat="47.29429" lon="-1.77036">
        <ele>28.08</ele>
        <time>2019-12-15T11:14:36.000Z</time>
      </trkpt>
      <trkpt lat="47.29407" lon="-1.77038">
        <ele>29.38</ele>
        <time>2019-12-15T11:14:40.000Z</time>
      </trkpt>
      <trkpt lat="47.29386" lon="-1.77039">
        <ele>29.72</ele>
        <time>2019-12-15T11:14:44.000Z</time>
      </trkpt>
      <trkpt lat="47.29365" lon="-1.7704">
        <ele>29.76</ele>
        <time>2019-12-15T11:14:48.000Z</time>
      </trkpt>
      <trkpt lat="47.29344" lon="-1.77043">
        <ele>30.27</ele>
        <time>2019-12-15T11:14:52.000Z</time>
      </trkpt>
      <trkpt lat="47.29325" lon="-1.77044">
        <ele>31.46</ele>
        <time>2019-12-15T11:14:56.000Z</time>
      </trkpt>
      <trkpt lat="47.29305" lon="-1.77046">
        <ele>31.98</ele>
        <time>2019-12-15T11:15:00.000Z</time>
      </trkpt>
      <trkpt lat="47.29287" lon="-1.77047">
        <ele>32.34</ele>
        <time>2019-12-15T11:15:04.000Z</time>
      </trkpt>
      <trkpt lat="47.29267" lon="-1.77047">
        <ele>31.62</ele>
        <time>2019-12-15T11:15:08.000Z</time>
      </trkpt>
      <trkpt lat="47.29246" lon="-1.77037">
        <ele>30.97</ele>
        <time>2019-12-15T11:15:12.000Z</time>
      </trkpt>
      <trkpt lat="47.29224" lon="-1.77024">
        <ele>28.84</ele>
        <time>2019-12-15T11:15:16.000Z</time>
      </trkpt>
      <trkpt lat="47.29206" lon="-1.7702">
        <ele>28.74</ele>
        <time>2019-12-15T11:15:19.000Z</time>
      </trkpt>
      <trkpt lat="47.29182" lon="-1.77021">
        <ele>29.48</ele>
        <time>2019-12-15T11:15:23.000Z</time>
      </trkpt>
      <trkpt lat="47.29163" lon="-1.77022">
        <ele>28.93</ele>
        <time>2019-12-15T11:15:26.000Z</time>
      </trkpt>
      <trkpt lat="47.29144" lon="-1.77023">
        <ele>27.6</ele>
        <time>2019-12-15T11:15:29.000Z</time>
      </trkpt>
      <trkpt lat="47.29126" lon="-1.77024">
        <ele>27.56</ele>
        <time>2019-12-15T11:15:32.000Z</time>
      </trkpt>
      <trkpt lat="47.29108" lon="-1.77025">
        <ele>27.37</ele>
        <time>2019-12-15T11:15:35.000Z</time>
      </trkpt>
      <trkpt lat="47.29086" lon="-1.77026">
        <ele>26.96</ele>
        <time>2019-12-15T11:15:39.000Z</time>
      </trkpt>
      <trkpt lat="47.29073" lon="-1.77046">
        <ele>26.64</ele>
        <time>2019-12-15T11:15:43.000Z</time>
      </trkpt>
      <trkpt lat="47.29076" lon="-1.77073">
        <ele>27.85</ele>
        <time>2019-12-15T11:15:46.000Z</time>
      </trkpt>
      <trkpt lat="47.29079" lon="-1.77102">
        <ele>29</ele>
        <time>2019-12-15T11:15:49.000Z</time>
      </trkpt>
      <trkpt lat="47.29081" lon="-1.77133">
        <ele>27.29</ele>
        <time>2019-12-15T11:15:52.000Z</time>
      </trkpt>
      <trkpt lat="47.29085" lon="-1.77164">
        <ele>26.55</ele>
        <time>2019-12-15T11:15:55.000Z</time>
      </trkpt>
      <trkpt lat="47.29086" lon="-1.77196">
        <ele>26.58</ele>
        <time>2019-12-15T11:15:58.000Z</time>
      </trkpt>
      <trkpt lat="47.29087" lon="-1.77228">
        <ele>26.36</ele>
        <time>2019-12-15T11:16:01.000Z</time>
      </trkpt>
      <trkpt lat="47.29086" lon="-1.7726">
        <ele>25.46</ele>
        <time>2019-12-15T11:16:04.000Z</time>
      </trkpt>
      <trkpt lat="47.29085" lon="-1.77292">
        <ele>25.2</ele>
        <time>2019-12-15T11:16:07.000Z</time>
      </trkpt>
      <trkpt lat="47.29083" lon="-1.77323">
        <ele>25.4</ele>
        <time>2019-12-15T11:16:10.000Z</time>
      </trkpt>
      <trkpt lat="47.29081" lon="-1.77353">
        <ele>25.72</ele>
        <time>2019-12-15T11:16:13.000Z</time>
      </trkpt>
      <trkpt lat="47.29078" lon="-1.77383">
        <ele>25.91</ele>
        <time>2019-12-15T11:16:16.000Z</time>
      </trkpt>
      <trkpt lat="47.29075" lon="-1.77414">
        <ele>26.7</ele>
        <time>2019-12-15T11:16:19.000Z</time>
      </trkpt>
      <trkpt lat="47.29071" lon="-1.77444">
        <ele>26.54</ele>
        <time>2019-12-15T11:16:22.000Z</time>
      </trkpt>
      <trkpt lat="47.29067" lon="-1.77476">
        <ele>25.62</ele>
        <time>2019-12-15T11:16:25.000Z</time>
      </trkpt>
      <trkpt lat="47.29066" lon="-1.77507">
        <ele>25.36</ele>
        <time>2019-12-15T11:16:28.000Z</time>
      </trkpt>
      <trkpt lat="47.29067" lon="-1.77538">
        <ele>26.68</ele>
        <time>2019-12-15T11:16:31.000Z</time>
      </trkpt>
      <trkpt lat="47.29065" lon="-1.77568">
        <ele>28.34</ele>
        <time>2019-12-15T11:16:34.000Z</time>
      </trkpt>
      <trkpt lat="47.29061" lon="-1.77599">
        <ele>29.38</ele>
        <time>2019-12-15T11:16:37.000Z</time>
      </trkpt>
      <trkpt lat="47.29055" lon="-1.77627">
        <ele>27.92</ele>
        <time>2019-12-15T11:16:40.000Z</time>
      </trkpt>
      <trkpt lat="47.29049" lon="-1.77655">
        <ele>27.17</ele>
        <time>2019-12-15T11:16:43.000Z</time>
      </trkpt>
      <trkpt lat="47.29043" lon="-1.77683">
        <ele>26.95</ele>
        <time>2019-12-15T11:16:46.000Z</time>
      </trkpt>
      <trkpt lat="47.29038" lon="-1.77711">
        <ele>27.2</ele>
        <time>2019-12-15T11:16:49.000Z</time>
      </trkpt>
      <trkpt lat="47.29032" lon="-1.77743">
        <ele>25.95</ele>
        <time>2019-12-15T11:16:53.000Z</time>
      </trkpt>
      <trkpt lat="47.29024" lon="-1.77775">
        <ele>24.81</ele>
        <time>2019-12-15T11:16:57.000Z</time>
      </trkpt>
      <trkpt lat="47.29012" lon="-1.77796">
        <ele>24.4</ele>
        <time>2019-12-15T11:17:00.000Z</time>
      </trkpt>
      <trkpt lat="47.28999" lon="-1.77816">
        <ele>24.3</ele>
        <time>2019-12-15T11:17:03.000Z</time>
      </trkpt>
      <trkpt lat="47.28985" lon="-1.77836">
        <ele>24.83</ele>
        <time>2019-12-15T11:17:06.000Z</time>
      </trkpt>
      <trkpt lat="47.28971" lon="-1.77856">
        <ele>24.94</ele>
        <time>2019-12-15T11:17:09.000Z</time>
      </trkpt>
      <trkpt lat="47.28957" lon="-1.77876">
        <ele>24.62</ele>
        <time>2019-12-15T11:17:12.000Z</time>
      </trkpt>
      <trkpt lat="47.28943" lon="-1.77895">
        <ele>23.96</ele>
        <time>2019-12-15T11:17:15.000Z</time>
      </trkpt>
      <trkpt lat="47.28928" lon="-1.77913">
        <ele>23.44</ele>
        <time>2019-12-15T11:17:18.000Z</time>
      </trkpt>
      <trkpt lat="47.28911" lon="-1.77928">
        <ele>23.04</ele>
        <time>2019-12-15T11:17:21.000Z</time>
      </trkpt>
      <trkpt lat="47.28893" lon="-1.77937">
        <ele>21.43</ele>
        <time>2019-12-15T11:17:24.000Z</time>
      </trkpt>
      <trkpt lat="47.28873" lon="-1.77944">
        <ele>20.44</ele>
        <time>2019-12-15T11:17:27.000Z</time>
      </trkpt>
      <trkpt lat="47.28852" lon="-1.77949">
        <ele>20.59</ele>
        <time>2019-12-15T11:17:30.000Z</time>
      </trkpt>
      <trkpt lat="47.28831" lon="-1.77953">
        <ele>20.32</ele>
        <time>2019-12-15T11:17:33.000Z</time>
      </trkpt>
      <trkpt lat="47.28811" lon="-1.77959">
        <ele>20.12</ele>
        <time>2019-12-15T11:17:36.000Z</time>
      </trkpt>
      <trkpt lat="47.28791" lon="-1.7797">
        <ele>20.51</ele>
        <time>2019-12-15T11:17:39.000Z</time>
      </trkpt>
      <trkpt lat="47.28774" lon="-1.77987">
        <ele>21.15</ele>
        <time>2019-12-15T11:17:42.000Z</time>
      </trkpt>
      <trkpt lat="47.28759" lon="-1.78007">
        <ele>21.72</ele>
        <time>2019-12-15T11:17:45.000Z</time>
      </trkpt>
      <trkpt lat="47.28745" lon="-1.78029">
        <ele>21.44</ele>
        <time>2019-12-15T11:17:48.000Z</time>
      </trkpt>
      <trkpt lat="47.2873" lon="-1.7805">
        <ele>20.75</ele>
        <time>2019-12-15T11:17:51.000Z</time>
      </trkpt>
      <trkpt lat="47.28715" lon="-1.78072">
        <ele>19.55</ele>
        <time>2019-12-15T11:17:54.000Z</time>
      </trkpt>
      <trkpt lat="47.287" lon="-1.78093">
        <ele>18.79</ele>
        <time>2019-12-15T11:17:57.000Z</time>
      </trkpt>
      <trkpt lat="47.28685" lon="-1.78116">
        <ele>18.81</ele>
        <time>2019-12-15T11:18:00.000Z</time>
      </trkpt>
      <trkpt lat="47.2867" lon="-1.78138">
        <ele>19.06</ele>
        <time>2019-12-15T11:18:03.000Z</time>
      </trkpt>
      <trkpt lat="47.28656" lon="-1.78161">
        <ele>18.99</ele>
        <time>2019-12-15T11:18:06.000Z</time>
      </trkpt>
      <trkpt lat="47.28642" lon="-1.78183">
        <ele>18.65</ele>
        <time>2019-12-15T11:18:09.000Z</time>
      </trkpt>
      <trkpt lat="47.28628" lon="-1.78204">
        <ele>18.14</ele>
        <time>2019-12-15T11:18:12.000Z</time>
      </trkpt>
      <trkpt lat="47.28613" lon="-1.78226">
        <ele>18.53</ele>
        <time>2019-12-15T11:18:15.000Z</time>
      </trkpt>
      <trkpt lat="47.28597" lon="-1.78244">
        <ele>18.29</ele>
        <time>2019-12-15T11:18:18.000Z</time>
      </trkpt>
      <trkpt lat="47.28579" lon="-1.78261">
        <ele>18.26</ele>
        <time>2019-12-15T11:18:21.000Z</time>
      </trkpt>
      <trkpt lat="47.28564" lon="-1.78276">
        <ele>18.19</ele>
        <time>2019-12-15T11:18:24.000Z</time>
      </trkpt>
      <trkpt lat="47.28545" lon="-1.78291">
        <ele>18.19</ele>
        <time>2019-12-15T11:18:28.000Z</time>
      </trkpt>
      <trkpt lat="47.28524" lon="-1.78297">
        <ele>17.67</ele>
        <time>2019-12-15T11:18:32.000Z</time>
      </trkpt>
      <trkpt lat="47.28505" lon="-1.78292">
        <ele>19.09</ele>
        <time>2019-12-15T11:18:35.000Z</time>
      </trkpt>
      <trkpt lat="47.28487" lon="-1.78284">
        <ele>20.42</ele>
        <time>2019-12-15T11:18:38.000Z</time>
      </trkpt>
      <trkpt lat="47.28469" lon="-1.78277">
        <ele>21.3</ele>
        <time>2019-12-15T11:18:41.000Z</time>
      </trkpt>
      <trkpt lat="47.2845" lon="-1.78267">
        <ele>21.31</ele>
        <time>2019-12-15T11:18:44.000Z</time>
      </trkpt>
      <trkpt lat="47.28433" lon="-1.78259">
        <ele>21.37</ele>
        <time>2019-12-15T11:18:47.000Z</time>
      </trkpt>
      <trkpt lat="47.28415" lon="-1.78252">
        <ele>21.14</ele>
        <time>2019-12-15T11:18:50.000Z</time>
      </trkpt>
      <trkpt lat="47.28395" lon="-1.78256">
        <ele>21.94</ele>
        <time>2019-12-15T11:18:53.000Z</time>
      </trkpt>
      <trkpt lat="47.28376" lon="-1.78262">
        <ele>18.23</ele>
        <time>2019-12-15T11:18:56.000Z</time>
      </trkpt>
      <trkpt lat="47.28357" lon="-1.78271">
        <ele>17.36</ele>
        <time>2019-12-15T11:18:59.000Z</time>
      </trkpt>
      <trkpt lat="47.28337" lon="-1.7828">
        <ele>16.9</ele>
        <time>2019-12-15T11:19:02.000Z</time>
      </trkpt>
      <trkpt lat="47.28317" lon="-1.78284">
        <ele>16.27</ele>
        <time>2019-12-15T11:19:05.000Z</time>
      </trkpt>
      <trkpt lat="47.28298" lon="-1.78285">
        <ele>16.06</ele>
        <time>2019-12-15T11:19:08.000Z</time>
      </trkpt>
      <trkpt lat="47.28277" lon="-1.7828">
        <ele>14.94</ele>
        <time>2019-12-15T11:19:11.000Z</time>
      </trkpt>
      <trkpt lat="47.28254" lon="-1.78271">
        <ele>14.96</ele>
        <time>2019-12-15T11:19:14.000Z</time>
      </trkpt>
      <trkpt lat="47.28229" lon="-1.78262">
        <ele>14.36</ele>
        <time>2019-12-15T11:19:17.000Z</time>
      </trkpt>
      <trkpt lat="47.28211" lon="-1.7825">
        <ele>14.31</ele>
        <time>2019-12-15T11:19:19.000Z</time>
      </trkpt>
      <trkpt lat="47.28193" lon="-1.78239">
        <ele>12.17</ele>
        <time>2019-12-15T11:19:21.000Z</time>
      </trkpt>
      <trkpt lat="47.28176" lon="-1.78222">
        <ele>8.43</ele>
        <time>2019-12-15T11:19:23.000Z</time>
      </trkpt>
      <trkpt lat="47.28159" lon="-1.78205">
        <ele>2.96</ele>
        <time>2019-12-15T11:19:25.000Z</time>
      </trkpt>
      <trkpt lat="47.28138" lon="-1.78188">
        <ele>-2.7</ele>
        <time>2019-12-15T11:19:27.000Z</time>
      </trkpt>
      <trkpt lat="47.28117" lon="-1.78174">
        <ele>-5.84</ele>
        <time>2019-12-15T11:19:29.000Z</time>
      </trkpt>
      <trkpt lat="47.28097" lon="-1.7816">
        <ele>-7.87</ele>
        <time>2019-12-15T11:19:31.000Z</time>
      </trkpt>
      <trkpt lat="47.28078" lon="-1.78149">
        <ele>-9.29</ele>
        <time>2019-12-15T11:19:33.000Z</time>
      </trkpt>
      <trkpt lat="47.28059" lon="-1.78143">
        <ele>-11.14</ele>
        <time>2019-12-15T11:19:35.000Z</time>
      </trkpt>
      <trkpt lat="47.28037" lon="-1.78146">
        <ele>-12.58</ele>
        <time>2019-12-15T11:19:37.000Z</time>
      </trkpt>
      <trkpt lat="47.28017" lon="-1.78154">
        <ele>-14.81</ele>
        <time>2019-12-15T11:19:39.000Z</time>
      </trkpt>
      <trkpt lat="47.27995" lon="-1.78173">
        <ele>-17.07</ele>
        <time>2019-12-15T11:19:42.000Z</time>
      </trkpt>
      <trkpt lat="47.27975" lon="-1.78177">
        <ele>-20.88</ele>
        <time>2019-12-15T11:19:48.000Z</time>
      </trkpt>
      <trkpt lat="47.27959" lon="-1.78157">
        <ele>-21.64</ele>
        <time>2019-12-15T11:19:52.000Z</time>
      </trkpt>
      <trkpt lat="47.27957" lon="-1.78125">
        <ele>-21.56</ele>
        <time>2019-12-15T11:19:57.000Z</time>
      </trkpt>
      <trkpt lat="47.27967" lon="-1.78103">
        <ele>-19.39</ele>
        <time>2019-12-15T11:20:01.000Z</time>
      </trkpt>
      <trkpt lat="47.27973" lon="-1.78078">
        <ele>-19.67</ele>
        <time>2019-12-15T11:20:05.000Z</time>
      </trkpt>
      <trkpt lat="47.27973" lon="-1.78046">
        <ele>-18.21</ele>
        <time>2019-12-15T11:20:10.000Z</time>
      </trkpt>
      <trkpt lat="47.27959" lon="-1.78023">
        <ele>-15.77</ele>
        <time>2019-12-15T11:20:15.000Z</time>
      </trkpt>
      <trkpt lat="47.27947" lon="-1.78002">
        <ele>-13.47</ele>
        <time>2019-12-15T11:20:20.000Z</time>
      </trkpt>
      <trkpt lat="47.27936" lon="-1.77979">
        <ele>-11.73</ele>
        <time>2019-12-15T11:20:26.000Z</time>
      </trkpt>
      <trkpt lat="47.27925" lon="-1.77952">
        <ele>-11.67</ele>
        <time>2019-12-15T11:20:32.000Z</time>
      </trkpt>
      <trkpt lat="47.27915" lon="-1.77929">
        <ele>-8.6</ele>
        <time>2019-12-15T11:20:37.000Z</time>
      </trkpt>
      <trkpt lat="47.27903" lon="-1.77903">
        <ele>-7.36</ele>
        <time>2019-12-15T11:20:43.000Z</time>
      </trkpt>
      <trkpt lat="47.27892" lon="-1.77879">
        <ele>-7.92</ele>
        <time>2019-12-15T11:20:48.000Z</time>
      </trkpt>
      <trkpt lat="47.27892" lon="-1.7785">
        <ele>-5.77</ele>
        <time>2019-12-15T11:20:55.000Z</time>
      </trkpt>
      <trkpt lat="47.2791" lon="-1.77838">
        <ele>-3.21</ele>
        <time>2019-12-15T11:21:03.000Z</time>
      </trkpt>
      <trkpt lat="47.27926" lon="-1.77823">
        <ele>-3.32</ele>
        <time>2019-12-15T11:21:11.000Z</time>
      </trkpt>
      <trkpt lat="47.27936" lon="-1.77799">
        <ele>-4.3</ele>
        <time>2019-12-15T11:21:19.000Z</time>
      </trkpt>
      <trkpt lat="47.27942" lon="-1.77771">
        <ele>-2.5</ele>
        <time>2019-12-15T11:21:28.000Z</time>
      </trkpt>
      <trkpt lat="47.27943" lon="-1.77742">
        <ele>3.45</ele>
        <time>2019-12-15T11:21:38.000Z</time>
      </trkpt>
      <trkpt lat="47.27938" lon="-1.77715">
        <ele>8</ele>
        <time>2019-12-15T11:21:47.000Z</time>
      </trkpt>
      <trkpt lat="47.27941" lon="-1.77688">
        <ele>17.89</ele>
        <time>2019-12-15T11:21:54.000Z</time>
      </trkpt>
      <trkpt lat="47.27948" lon="-1.77663">
        <ele>16.67</ele>
        <time>2019-12-15T11:22:01.000Z</time>
      </trkpt>
      <trkpt lat="47.27962" lon="-1.77644">
        <ele>17.35</ele>
        <time>2019-12-15T11:22:08.000Z</time>
      </trkpt>
      <trkpt lat="47.27977" lon="-1.77625">
        <ele>14.02</ele>
        <time>2019-12-15T11:22:16.000Z</time>
      </trkpt>
      <trkpt lat="47.27991" lon="-1.77607">
        <ele>14.06</ele>
        <time>2019-12-15T11:22:23.000Z</time>
      </trkpt>
      <trkpt lat="47.28007" lon="-1.77593">
        <ele>14.08</ele>
        <time>2019-12-15T11:22:31.000Z</time>
      </trkpt>
      <trkpt lat="47.28026" lon="-1.77594">
        <ele>16.78</ele>
        <time>2019-12-15T11:22:38.000Z</time>
      </trkpt>
      <trkpt lat="47.28046" lon="-1.77595">
        <ele>23.83</ele>
        <time>2019-12-15T11:22:45.000Z</time>
      </trkpt>
      <trkpt lat="47.28064" lon="-1.77595">
        <ele>27.45</ele>
        <time>2019-12-15T11:22:52.000Z</time>
      </trkpt>
      <trkpt lat="47.28085" lon="-1.77596">
        <ele>27.04</ele>
        <time>2019-12-15T11:22:59.000Z</time>
      </trkpt>
      <trkpt lat="47.28105" lon="-1.77588">
        <ele>29.78</ele>
        <time>2019-12-15T11:23:05.000Z</time>
      </trkpt>
      <trkpt lat="47.28124" lon="-1.77574">
        <ele>26.9</ele>
        <time>2019-12-15T11:23:10.000Z</time>
      </trkpt>
      <trkpt lat="47.28142" lon="-1.77562">
        <ele>20.52</ele>
        <time>2019-12-15T11:23:14.000Z</time>
      </trkpt>
      <trkpt lat="47.28159" lon="-1.77549">
        <ele>17.53</ele>
        <time>2019-12-15T11:23:18.000Z</time>
      </trkpt>
      <trkpt lat="47.28177" lon="-1.77536">
        <ele>16.01</ele>
        <time>2019-12-15T11:23:22.000Z</time>
      </trkpt>
      <trkpt lat="47.28192" lon="-1.77522">
        <ele>15.91</ele>
        <time>2019-12-15T11:23:26.000Z</time>
      </trkpt>
      <trkpt lat="47.28207" lon="-1.77505">
        <ele>17.45</ele>
        <time>2019-12-15T11:23:30.000Z</time>
      </trkpt>
      <trkpt lat="47.28223" lon="-1.7749">
        <ele>17.87</ele>
        <time>2019-12-15T11:23:34.000Z</time>
      </trkpt>
      <trkpt lat="47.28239" lon="-1.77476">
        <ele>18.66</ele>
        <time>2019-12-15T11:23:38.000Z</time>
      </trkpt>
      <trkpt lat="47.28255" lon="-1.77461">
        <ele>20.03</ele>
        <time>2019-12-15T11:23:42.000Z</time>
      </trkpt>
      <trkpt lat="47.28272" lon="-1.77445">
        <ele>21.13</ele>
        <time>2019-12-15T11:23:46.000Z</time>
      </trkpt>
      <trkpt lat="47.28288" lon="-1.77429">
        <ele>21.35</ele>
        <time>2019-12-15T11:23:50.000Z</time>
      </trkpt>
      <trkpt lat="47.28304" lon="-1.7741">
        <ele>21.92</ele>
        <time>2019-12-15T11:23:54.000Z</time>
      </trkpt>
      <trkpt lat="47.2832" lon="-1.77389">
        <ele>22.47</ele>
        <time>2019-12-15T11:23:58.000Z</time>
      </trkpt>
      <trkpt lat="47.28337" lon="-1.77366">
        <ele>23.16</ele>
        <time>2019-12-15T11:24:02.000Z</time>
      </trkpt>
      <trkpt lat="47.28356" lon="-1.7735">
        <ele>23.34</ele>
        <time>2019-12-15T11:24:06.000Z</time>
      </trkpt>
      <trkpt lat="47.28376" lon="-1.77333">
        <ele>22.26</ele>
        <time>2019-12-15T11:24:10.000Z</time>
      </trkpt>
      <trkpt lat="47.2839" lon="-1.77304">
        <ele>21.67</ele>
        <time>2019-12-15T11:24:14.000Z</time>
      </trkpt>
      <trkpt lat="47.28398" lon="-1.7728">
        <ele>21.93</ele>
        <time>2019-12-15T11:24:17.000Z</time>
      </trkpt>
      <trkpt lat="47.28411" lon="-1.77261">
        <ele>21.62</ele>
        <time>2019-12-15T11:24:20.000Z</time>
      </trkpt>
      <trkpt lat="47.28428" lon="-1.77239">
        <ele>21.92</ele>
        <time>2019-12-15T11:24:24.000Z</time>
      </trkpt>
      <trkpt lat="47.28444" lon="-1.77223">
        <ele>21.01</ele>
        <time>2019-12-15T11:24:27.000Z</time>
      </trkpt>
      <trkpt lat="47.2846" lon="-1.77211">
        <ele>18.64</ele>
        <time>2019-12-15T11:24:30.000Z</time>
      </trkpt>
      <trkpt lat="47.28477" lon="-1.772">
        <ele>18.2</ele>
        <time>2019-12-15T11:24:33.000Z</time>
      </trkpt>
      <trkpt lat="47.28497" lon="-1.77187">
        <ele>20.27</ele>
        <time>2019-12-15T11:24:37.000Z</time>
      </trkpt>
      <trkpt lat="47.28516" lon="-1.77175">
        <ele>21.6</ele>
        <time>2019-12-15T11:24:41.000Z</time>
      </trkpt>
      <trkpt lat="47.28536" lon="-1.77162">
        <ele>19.91</ele>
        <time>2019-12-15T11:24:45.000Z</time>
      </trkpt>
      <trkpt lat="47.28554" lon="-1.77146">
        <ele>19.06</ele>
        <time>2019-12-15T11:24:49.000Z</time>
      </trkpt>
      <trkpt lat="47.28554" lon="-1.77114">
        <ele>19.48</ele>
        <time>2019-12-15T11:24:53.000Z</time>
      </trkpt>
      <trkpt lat="47.28543" lon="-1.77092">
        <ele>20.54</ele>
        <time>2019-12-15T11:24:56.000Z</time>
      </trkpt>
      <trkpt lat="47.28528" lon="-1.77075">
        <ele>20.44</ele>
        <time>2019-12-15T11:24:59.000Z</time>
      </trkpt>
      <trkpt lat="47.2851" lon="-1.77063">
        <ele>20.55</ele>
        <time>2019-12-15T11:25:02.000Z</time>
      </trkpt>
      <trkpt lat="47.28492" lon="-1.77055">
        <ele>21.42</ele>
        <time>2019-12-15T11:25:05.000Z</time>
      </trkpt>
      <trkpt lat="47.28474" lon="-1.77046">
        <ele>21.42</ele>
        <time>2019-12-15T11:25:08.000Z</time>
      </trkpt>
      <trkpt lat="47.2846" lon="-1.77023">
        <ele>22.32</ele>
        <time>2019-12-15T11:25:12.000Z</time>
      </trkpt>
      <trkpt lat="47.28463" lon="-1.7699">
        <ele>23.08</ele>
        <time>2019-12-15T11:25:16.000Z</time>
      </trkpt>
      <trkpt lat="47.28465" lon="-1.76961">
        <ele>24.85</ele>
        <time>2019-12-15T11:25:20.000Z</time>
      </trkpt>
      <trkpt lat="47.28467" lon="-1.76929">
        <ele>26.3</ele>
        <time>2019-12-15T11:25:25.000Z</time>
      </trkpt>
      <trkpt lat="47.28471" lon="-1.76903">
        <ele>28.01</ele>
        <time>2019-12-15T11:25:29.000Z</time>
      </trkpt>
      <trkpt lat="47.28487" lon="-1.7688">
        <ele>29.68</ele>
        <time>2019-12-15T11:25:34.000Z</time>
      </trkpt>
      <trkpt lat="47.28506" lon="-1.76869">
        <ele>30.76</ele>
        <time>2019-12-15T11:25:38.000Z</time>
      </trkpt>
      <trkpt lat="47.28527" lon="-1.76858">
        <ele>31.81</ele>
        <time>2019-12-15T11:25:42.000Z</time>
      </trkpt>
      <trkpt lat="47.28546" lon="-1.76847">
        <ele>32.2</ele>
        <time>2019-12-15T11:25:46.000Z</time>
      </trkpt>
      <trkpt lat="47.28564" lon="-1.76837">
        <ele>30.67</ele>
        <time>2019-12-15T11:25:50.000Z</time>
      </trkpt>
      <trkpt lat="47.28584" lon="-1.76824">
        <ele>28.94</ele>
        <time>2019-12-15T11:25:54.000Z</time>
      </trkpt>
      <trkpt lat="47.28605" lon="-1.7681">
        <ele>29.38</ele>
        <time>2019-12-15T11:25:58.000Z</time>
      </trkpt>
      <trkpt lat="47.28625" lon="-1.76794">
        <ele>28.79</ele>
        <time>2019-12-15T11:26:02.000Z</time>
      </trkpt>
      <trkpt lat="47.28646" lon="-1.76776">
        <ele>29.14</ele>
        <time>2019-12-15T11:26:06.000Z</time>
      </trkpt>
      <trkpt lat="47.28662" lon="-1.76763">
        <ele>29.4</ele>
        <time>2019-12-15T11:26:09.000Z</time>
      </trkpt>
      <trkpt lat="47.28676" lon="-1.76748">
        <ele>29.37</ele>
        <time>2019-12-15T11:26:12.000Z</time>
      </trkpt>
      <trkpt lat="47.28697" lon="-1.7673">
        <ele>29.72</ele>
        <time>2019-12-15T11:26:16.000Z</time>
      </trkpt>
      <trkpt lat="47.28717" lon="-1.76712">
        <ele>30.22</ele>
        <time>2019-12-15T11:26:20.000Z</time>
      </trkpt>
      <trkpt lat="47.28738" lon="-1.76696">
        <ele>30.12</ele>
        <time>2019-12-15T11:26:24.000Z</time>
      </trkpt>
      <trkpt lat="47.28759" lon="-1.76681">
        <ele>31.01</ele>
        <time>2019-12-15T11:26:28.000Z</time>
      </trkpt>
      <trkpt lat="47.28778" lon="-1.76664">
        <ele>32.22</ele>
        <time>2019-12-15T11:26:32.000Z</time>
      </trkpt>
      <trkpt lat="47.28794" lon="-1.7665">
        <ele>33.73</ele>
        <time>2019-12-15T11:26:35.000Z</time>
      </trkpt>
      <trkpt lat="47.28814" lon="-1.76632">
        <ele>35.99</ele>
        <time>2019-12-15T11:26:39.000Z</time>
      </trkpt>
      <trkpt lat="47.28833" lon="-1.76614">
        <ele>36.06</ele>
        <time>2019-12-15T11:26:43.000Z</time>
      </trkpt>
      <trkpt lat="47.28849" lon="-1.766">
        <ele>36.35</ele>
        <time>2019-12-15T11:26:46.000Z</time>
      </trkpt>
      <trkpt lat="47.28868" lon="-1.76584">
        <ele>36.98</ele>
        <time>2019-12-15T11:26:50.000Z</time>
      </trkpt>
      <trkpt lat="47.28885" lon="-1.76568">
        <ele>35.16</ele>
        <time>2019-12-15T11:26:54.000Z</time>
      </trkpt>
      <trkpt lat="47.28905" lon="-1.76552">
        <ele>33.91</ele>
        <time>2019-12-15T11:26:58.000Z</time>
      </trkpt>
      <trkpt lat="47.2892" lon="-1.76537">
        <ele>33.57</ele>
        <time>2019-12-15T11:27:01.000Z</time>
      </trkpt>
      <trkpt lat="47.28937" lon="-1.76523">
        <ele>32.15</ele>
        <time>2019-12-15T11:27:04.000Z</time>
      </trkpt>
      <trkpt lat="47.28953" lon="-1.76508">
        <ele>30.05</ele>
        <time>2019-12-15T11:27:07.000Z</time>
      </trkpt>
      <trkpt lat="47.28969" lon="-1.76494">
        <ele>29.32</ele>
        <time>2019-12-15T11:27:10.000Z</time>
      </trkpt>
      <trkpt lat="47.28984" lon="-1.76471">
        <ele>29.07</ele>
        <time>2019-12-15T11:27:14.000Z</time>
      </trkpt>
      <trkpt lat="47.28974" lon="-1.76441">
        <ele>30.65</ele>
        <time>2019-12-15T11:27:18.000Z</time>
      </trkpt>
      <trkpt lat="47.28962" lon="-1.7641">
        <ele>32.38</ele>
        <time>2019-12-15T11:27:22.000Z</time>
      </trkpt>
      <trkpt lat="47.28952" lon="-1.76378">
        <ele>35.38</ele>
        <time>2019-12-15T11:27:26.000Z</time>
      </trkpt>
      <trkpt lat="47.28945" lon="-1.7635">
        <ele>37.27</ele>
        <time>2019-12-15T11:27:29.000Z</time>
      </trkpt>
      <trkpt lat="47.28937" lon="-1.76323">
        <ele>38.27</ele>
        <time>2019-12-15T11:27:32.000Z</time>
      </trkpt>
      <trkpt lat="47.28929" lon="-1.76296">
        <ele>37.42</ele>
        <time>2019-12-15T11:27:35.000Z</time>
      </trkpt>
      <trkpt lat="47.28919" lon="-1.76267">
        <ele>34.95</ele>
        <time>2019-12-15T11:27:38.000Z</time>
      </trkpt>
      <trkpt lat="47.28911" lon="-1.76241">
        <ele>34.01</ele>
        <time>2019-12-15T11:27:41.000Z</time>
      </trkpt>
      <trkpt lat="47.28903" lon="-1.76213">
        <ele>33.55</ele>
        <time>2019-12-15T11:27:44.000Z</time>
      </trkpt>
      <trkpt lat="47.28895" lon="-1.76187">
        <ele>33.63</ele>
        <time>2019-12-15T11:27:47.000Z</time>
      </trkpt>
      <trkpt lat="47.28888" lon="-1.7616">
        <ele>34.52</ele>
        <time>2019-12-15T11:27:50.000Z</time>
      </trkpt>
      <trkpt lat="47.2888" lon="-1.76134">
        <ele>37.75</ele>
        <time>2019-12-15T11:27:53.000Z</time>
      </trkpt>
      <trkpt lat="47.28874" lon="-1.76107">
        <ele>41.81</ele>
        <time>2019-12-15T11:27:56.000Z</time>
      </trkpt>
      <trkpt lat="47.28867" lon="-1.76079">
        <ele>41.57</ele>
        <time>2019-12-15T11:27:59.000Z</time>
      </trkpt>
      <trkpt lat="47.2886" lon="-1.7605">
        <ele>39.43</ele>
        <time>2019-12-15T11:28:02.000Z</time>
      </trkpt>
      <trkpt lat="47.28852" lon="-1.76021">
        <ele>37.06</ele>
        <time>2019-12-15T11:28:05.000Z</time>
      </trkpt>
      <trkpt lat="47.28845" lon="-1.75994">
        <ele>36.18</ele>
        <time>2019-12-15T11:28:08.000Z</time>
      </trkpt>
      <trkpt lat="47.28838" lon="-1.75969">
        <ele>35.06</ele>
        <time>2019-12-15T11:28:11.000Z</time>
      </trkpt>
      <trkpt lat="47.28829" lon="-1.75943">
        <ele>32.05</ele>
        <time>2019-12-15T11:28:16.000Z</time>
      </trkpt>
      <trkpt lat="47.28821" lon="-1.75915">
        <ele>31.47</ele>
        <time>2019-12-15T11:28:20.000Z</time>
      </trkpt>
      <trkpt lat="47.28814" lon="-1.75882">
        <ele>31.73</ele>
        <time>2019-12-15T11:28:24.000Z</time>
      </trkpt>
      <trkpt lat="47.28807" lon="-1.75856">
        <ele>32.65</ele>
        <time>2019-12-15T11:28:27.000Z</time>
      </trkpt>
      <trkpt lat="47.28801" lon="-1.7583">
        <ele>33.11</ele>
        <time>2019-12-15T11:28:30.000Z</time>
      </trkpt>
      <trkpt lat="47.28794" lon="-1.75804">
        <ele>35.02</ele>
        <time>2019-12-15T11:28:33.000Z</time>
      </trkpt>
      <trkpt lat="47.28788" lon="-1.75777">
        <ele>37.17</ele>
        <time>2019-12-15T11:28:36.000Z</time>
      </trkpt>
      <trkpt lat="47.28779" lon="-1.75751">
        <ele>37.87</ele>
        <time>2019-12-15T11:28:39.000Z</time>
      </trkpt>
      <trkpt lat="47.28771" lon="-1.7572">
        <ele>39.31</ele>
        <time>2019-12-15T11:28:43.000Z</time>
      </trkpt>
      <trkpt lat="47.28764" lon="-1.75694">
        <ele>40.13</ele>
        <time>2019-12-15T11:28:46.000Z</time>
      </trkpt>
      <trkpt lat="47.28757" lon="-1.75668">
        <ele>39.58</ele>
        <time>2019-12-15T11:28:49.000Z</time>
      </trkpt>
      <trkpt lat="47.2875" lon="-1.75641">
        <ele>38.63</ele>
        <time>2019-12-15T11:28:52.000Z</time>
      </trkpt>
      <trkpt lat="47.28742" lon="-1.75613">
        <ele>37.72</ele>
        <time>2019-12-15T11:28:55.000Z</time>
      </trkpt>
      <trkpt lat="47.28734" lon="-1.75585">
        <ele>37.01</ele>
        <time>2019-12-15T11:28:58.000Z</time>
      </trkpt>
      <trkpt lat="47.28725" lon="-1.75555">
        <ele>36.45</ele>
        <time>2019-12-15T11:29:01.000Z</time>
      </trkpt>
      <trkpt lat="47.28717" lon="-1.75528">
        <ele>35.63</ele>
        <time>2019-12-15T11:29:04.000Z</time>
      </trkpt>
      <trkpt lat="47.2871" lon="-1.755">
        <ele>34.66</ele>
        <time>2019-12-15T11:29:07.000Z</time>
      </trkpt>
      <trkpt lat="47.28702" lon="-1.75473">
        <ele>34.18</ele>
        <time>2019-12-15T11:29:10.000Z</time>
      </trkpt>
      <trkpt lat="47.28695" lon="-1.75445">
        <ele>32.78</ele>
        <time>2019-12-15T11:29:13.000Z</time>
      </trkpt>
      <trkpt lat="47.28687" lon="-1.75419">
        <ele>33.05</ele>
        <time>2019-12-15T11:29:16.000Z</time>
      </trkpt>
      <trkpt lat="47.28679" lon="-1.75393">
        <ele>34.41</ele>
        <time>2019-12-15T11:29:19.000Z</time>
      </trkpt>
      <trkpt lat="47.28673" lon="-1.75366">
        <ele>34.18</ele>
        <time>2019-12-15T11:29:22.000Z</time>
      </trkpt>
      <trkpt lat="47.28665" lon="-1.75338">
        <ele>34.22</ele>
        <time>2019-12-15T11:29:25.000Z</time>
      </trkpt>
      <trkpt lat="47.28657" lon="-1.75311">
        <ele>34.83</ele>
        <time>2019-12-15T11:29:28.000Z</time>
      </trkpt>
      <trkpt lat="47.2865" lon="-1.75283">
        <ele>36.76</ele>
        <time>2019-12-15T11:29:31.000Z</time>
      </trkpt>
      <trkpt lat="47.28643" lon="-1.75256">
        <ele>38.39</ele>
        <time>2019-12-15T11:29:34.000Z</time>
      </trkpt>
      <trkpt lat="47.28635" lon="-1.75229">
        <ele>39.98</ele>
        <time>2019-12-15T11:29:37.000Z</time>
      </trkpt>
      <trkpt lat="47.28628" lon="-1.75204">
        <ele>41.08</ele>
        <time>2019-12-15T11:29:40.000Z</time>
      </trkpt>
      <trkpt lat="47.28618" lon="-1.75172">
        <ele>41.72</ele>
        <time>2019-12-15T11:29:44.000Z</time>
      </trkpt>
      <trkpt lat="47.2861" lon="-1.75146">
        <ele>41.88</ele>
        <time>2019-12-15T11:29:47.000Z</time>
      </trkpt>
      <trkpt lat="47.28603" lon="-1.75121">
        <ele>42.7</ele>
        <time>2019-12-15T11:29:50.000Z</time>
      </trkpt>
      <trkpt lat="47.28597" lon="-1.75093">
        <ele>43.69</ele>
        <time>2019-12-15T11:29:53.000Z</time>
      </trkpt>
      <trkpt lat="47.2859" lon="-1.75065">
        <ele>43.35</ele>
        <time>2019-12-15T11:29:56.000Z</time>
      </trkpt>
      <trkpt lat="47.28582" lon="-1.75036">
        <ele>42.98</ele>
        <time>2019-12-15T11:29:59.000Z</time>
      </trkpt>
      <trkpt lat="47.28574" lon="-1.75005">
        <ele>40.69</ele>
        <time>2019-12-15T11:30:02.000Z</time>
      </trkpt>
      <trkpt lat="47.28566" lon="-1.74978">
        <ele>38.74</ele>
        <time>2019-12-15T11:30:05.000Z</time>
      </trkpt>
      <trkpt lat="47.28556" lon="-1.74947">
        <ele>35.97</ele>
        <time>2019-12-15T11:30:09.000Z</time>
      </trkpt>
      <trkpt lat="47.28538" lon="-1.74958">
        <ele>34.66</ele>
        <time>2019-12-15T11:30:13.000Z</time>
      </trkpt>
      <trkpt lat="47.28524" lon="-1.74977">
        <ele>35.05</ele>
        <time>2019-12-15T11:30:17.000Z</time>
      </trkpt>
      <trkpt lat="47.28508" lon="-1.74996">
        <ele>34.34</ele>
        <time>2019-12-15T11:30:21.000Z</time>
      </trkpt>
      <trkpt lat="47.28491" lon="-1.75013">
        <ele>34.06</ele>
        <time>2019-12-15T11:30:25.000Z</time>
      </trkpt>
      <trkpt lat="47.28477" lon="-1.74995">
        <ele>36.51</ele>
        <time>2019-12-15T11:30:31.000Z</time>
      </trkpt>
      <trkpt lat="47.28483" lon="-1.74969">
        <ele>37.18</ele>
        <time>2019-12-15T11:30:35.000Z</time>
      </trkpt>
      <trkpt lat="47.28489" lon="-1.74939">
        <ele>37.41</ele>
        <time>2019-12-15T11:30:39.000Z</time>
      </trkpt>
      <trkpt lat="47.28494" lon="-1.74911">
        <ele>36</ele>
        <time>2019-12-15T11:30:43.000Z</time>
      </trkpt>
      <trkpt lat="47.28498" lon="-1.74881">
        <ele>36.04</ele>
        <time>2019-12-15T11:30:47.000Z</time>
      </trkpt>
      <trkpt lat="47.28501" lon="-1.74848">
        <ele>37.26</ele>
        <time>2019-12-15T11:30:51.000Z</time>
      </trkpt>
      <trkpt lat="47.28495" lon="-1.74818">
        <ele>36.66</ele>
        <time>2019-12-15T11:30:55.000Z</time>
      </trkpt>
      <trkpt lat="47.28473" lon="-1.74819">
        <ele>34.82</ele>
        <time>2019-12-15T11:30:59.000Z</time>
      </trkpt>
      <trkpt lat="47.28455" lon="-1.74825">
        <ele>33.97</ele>
        <time>2019-12-15T11:31:02.000Z</time>
      </trkpt>
      <trkpt lat="47.28436" lon="-1.7483">
        <ele>33.15</ele>
        <time>2019-12-15T11:31:05.000Z</time>
      </trkpt>
      <trkpt lat="47.28416" lon="-1.74836">
        <ele>32.14</ele>
        <time>2019-12-15T11:31:08.000Z</time>
      </trkpt>
      <trkpt lat="47.28395" lon="-1.74843">
        <ele>31.29</ele>
        <time>2019-12-15T11:31:11.000Z</time>
      </trkpt>
      <trkpt lat="47.28375" lon="-1.7485">
        <ele>30.53</ele>
        <time>2019-12-15T11:31:14.000Z</time>
      </trkpt>
      <trkpt lat="47.28354" lon="-1.74857">
        <ele>29.68</ele>
        <time>2019-12-15T11:31:17.000Z</time>
      </trkpt>
      <trkpt lat="47.28332" lon="-1.74865">
        <ele>29.1</ele>
        <time>2019-12-15T11:31:20.000Z</time>
      </trkpt>
      <trkpt lat="47.28309" lon="-1.74872">
        <ele>28.82</ele>
        <time>2019-12-15T11:31:23.000Z</time>
      </trkpt>
      <trkpt lat="47.28287" lon="-1.74878">
        <ele>28.85</ele>
        <time>2019-12-15T11:31:26.000Z</time>
      </trkpt>
      <trkpt lat="47.28265" lon="-1.74887">
        <ele>29.23</ele>
        <time>2019-12-15T11:31:29.000Z</time>
      </trkpt>
      <trkpt lat="47.28242" lon="-1.74894">
        <ele>29.01</ele>
        <time>2019-12-15T11:31:32.000Z</time>
      </trkpt>
      <trkpt lat="47.28219" lon="-1.74902">
        <ele>28.67</ele>
        <time>2019-12-15T11:31:35.000Z</time>
      </trkpt>
      <trkpt lat="47.28197" lon="-1.74909">
        <ele>29.3</ele>
        <time>2019-12-15T11:31:38.000Z</time>
      </trkpt>
      <trkpt lat="47.28175" lon="-1.74918">
        <ele>29.03</ele>
        <time>2019-12-15T11:31:41.000Z</time>
      </trkpt>
      <trkpt lat="47.28152" lon="-1.74925">
        <ele>28.55</ele>
        <time>2019-12-15T11:31:44.000Z</time>
      </trkpt>
      <trkpt lat="47.28129" lon="-1.74933">
        <ele>28.42</ele>
        <time>2019-12-15T11:31:47.000Z</time>
      </trkpt>
      <trkpt lat="47.28107" lon="-1.74941">
        <ele>28.13</ele>
        <time>2019-12-15T11:31:50.000Z</time>
      </trkpt>
      <trkpt lat="47.28085" lon="-1.74948">
        <ele>26.88</ele>
        <time>2019-12-15T11:31:53.000Z</time>
      </trkpt>
      <trkpt lat="47.28062" lon="-1.74955">
        <ele>24.62</ele>
        <time>2019-12-15T11:31:56.000Z</time>
      </trkpt>
      <trkpt lat="47.2804" lon="-1.74963">
        <ele>23.85</ele>
        <time>2019-12-15T11:31:59.000Z</time>
      </trkpt>
      <trkpt lat="47.28018" lon="-1.74969">
        <ele>22.58</ele>
        <time>2019-12-15T11:32:02.000Z</time>
      </trkpt>
      <trkpt lat="47.27996" lon="-1.74977">
        <ele>22.14</ele>
        <time>2019-12-15T11:32:05.000Z</time>
      </trkpt>
      <trkpt lat="47.27975" lon="-1.74985">
        <ele>22.28</ele>
        <time>2019-12-15T11:32:08.000Z</time>
      </trkpt>
      <trkpt lat="47.27953" lon="-1.74992">
        <ele>23.15</ele>
        <time>2019-12-15T11:32:11.000Z</time>
      </trkpt>
      <trkpt lat="47.27932" lon="-1.74998">
        <ele>23.98</ele>
        <time>2019-12-15T11:32:14.000Z</time>
      </trkpt>
      <trkpt lat="47.27911" lon="-1.75004">
        <ele>24.43</ele>
        <time>2019-12-15T11:32:17.000Z</time>
      </trkpt>
      <trkpt lat="47.2789" lon="-1.75009">
        <ele>24.39</ele>
        <time>2019-12-15T11:32:20.000Z</time>
      </trkpt>
      <trkpt lat="47.27868" lon="-1.75016">
        <ele>24.13</ele>
        <time>2019-12-15T11:32:23.000Z</time>
      </trkpt>
      <trkpt lat="47.27847" lon="-1.75024">
        <ele>24.22</ele>
        <time>2019-12-15T11:32:26.000Z</time>
      </trkpt>
      <trkpt lat="47.27828" lon="-1.75031">
        <ele>23.16</ele>
        <time>2019-12-15T11:32:29.000Z</time>
      </trkpt>
      <trkpt lat="47.27808" lon="-1.75039">
        <ele>23.18</ele>
        <time>2019-12-15T11:32:32.000Z</time>
      </trkpt>
      <trkpt lat="47.27788" lon="-1.75046">
        <ele>22.36</ele>
        <time>2019-12-15T11:32:35.000Z</time>
      </trkpt>
      <trkpt lat="47.27769" lon="-1.75054">
        <ele>23.28</ele>
        <time>2019-12-15T11:32:38.000Z</time>
      </trkpt>
      <trkpt lat="47.27751" lon="-1.7506">
        <ele>23.69</ele>
        <time>2019-12-15T11:32:41.000Z</time>
      </trkpt>
      <trkpt lat="47.27731" lon="-1.75066">
        <ele>24.03</ele>
        <time>2019-12-15T11:32:44.000Z</time>
      </trkpt>
      <trkpt lat="47.27713" lon="-1.75074">
        <ele>24.12</ele>
        <time>2019-12-15T11:32:47.000Z</time>
      </trkpt>
      <trkpt lat="47.27695" lon="-1.75086">
        <ele>23.73</ele>
        <time>2019-12-15T11:32:50.000Z</time>
      </trkpt>
      <trkpt lat="47.27678" lon="-1.751">
        <ele>24.37</ele>
        <time>2019-12-15T11:32:53.000Z</time>
      </trkpt>
      <trkpt lat="47.27662" lon="-1.75115">
        <ele>24.97</ele>
        <time>2019-12-15T11:32:56.000Z</time>
      </trkpt>
      <trkpt lat="47.27645" lon="-1.7513">
        <ele>24.51</ele>
        <time>2019-12-15T11:32:59.000Z</time>
      </trkpt>
      <trkpt lat="47.27629" lon="-1.75146">
        <ele>24.57</ele>
        <time>2019-12-15T11:33:02.000Z</time>
      </trkpt>
      <trkpt lat="47.27614" lon="-1.75164">
        <ele>24.34</ele>
        <time>2019-12-15T11:33:05.000Z</time>
      </trkpt>
      <trkpt lat="47.27598" lon="-1.75182">
        <ele>24.12</ele>
        <time>2019-12-15T11:33:08.000Z</time>
      </trkpt>
      <trkpt lat="47.27581" lon="-1.75201">
        <ele>24.28</ele>
        <time>2019-12-15T11:33:11.000Z</time>
      </trkpt>
      <trkpt lat="47.27565" lon="-1.75219">
        <ele>24.59</ele>
        <time>2019-12-15T11:33:14.000Z</time>
      </trkpt>
      <trkpt lat="47.27548" lon="-1.75235">
        <ele>25.78</ele>
        <time>2019-12-15T11:33:17.000Z</time>
      </trkpt>
      <trkpt lat="47.27531" lon="-1.75251">
        <ele>25.24</ele>
        <time>2019-12-15T11:33:20.000Z</time>
      </trkpt>
      <trkpt lat="47.27514" lon="-1.7527">
        <ele>24.68</ele>
        <time>2019-12-15T11:33:23.000Z</time>
      </trkpt>
      <trkpt lat="47.27501" lon="-1.75291">
        <ele>24.22</ele>
        <time>2019-12-15T11:33:26.000Z</time>
      </trkpt>
      <trkpt lat="47.27489" lon="-1.75314">
        <ele>23.02</ele>
        <time>2019-12-15T11:33:29.000Z</time>
      </trkpt>
      <trkpt lat="47.27479" lon="-1.7534">
        <ele>21.85</ele>
        <time>2019-12-15T11:33:32.000Z</time>
      </trkpt>
      <trkpt lat="47.27473" lon="-1.75369">
        <ele>19.82</ele>
        <time>2019-12-15T11:33:35.000Z</time>
      </trkpt>
      <trkpt lat="47.27469" lon="-1.75399">
        <ele>17.18</ele>
        <time>2019-12-15T11:33:38.000Z</time>
      </trkpt>
      <trkpt lat="47.27466" lon="-1.75427">
        <ele>15.9</ele>
        <time>2019-12-15T11:33:41.000Z</time>
      </trkpt>
      <trkpt lat="47.27462" lon="-1.75457">
        <ele>15.88</ele>
        <time>2019-12-15T11:33:44.000Z</time>
      </trkpt>
      <trkpt lat="47.27457" lon="-1.75487">
        <ele>17.16</ele>
        <time>2019-12-15T11:33:47.000Z</time>
      </trkpt>
      <trkpt lat="47.27448" lon="-1.75516">
        <ele>18.3</ele>
        <time>2019-12-15T11:33:50.000Z</time>
      </trkpt>
      <trkpt lat="47.27439" lon="-1.75546">
        <ele>18.45</ele>
        <time>2019-12-15T11:33:53.000Z</time>
      </trkpt>
      <trkpt lat="47.27434" lon="-1.75577">
        <ele>17.98</ele>
        <time>2019-12-15T11:33:56.000Z</time>
      </trkpt>
      <trkpt lat="47.27431" lon="-1.75608">
        <ele>18.21</ele>
        <time>2019-12-15T11:33:59.000Z</time>
      </trkpt>
      <trkpt lat="47.27428" lon="-1.75636">
        <ele>18.45</ele>
        <time>2019-12-15T11:34:02.000Z</time>
      </trkpt>
      <trkpt lat="47.27425" lon="-1.75663">
        <ele>18.65</ele>
        <time>2019-12-15T11:34:05.000Z</time>
      </trkpt>
      <trkpt lat="47.27422" lon="-1.75691">
        <ele>18.21</ele>
        <time>2019-12-15T11:34:08.000Z</time>
      </trkpt>
      <trkpt lat="47.27418" lon="-1.7572">
        <ele>17.92</ele>
        <time>2019-12-15T11:34:11.000Z</time>
      </trkpt>
      <trkpt lat="47.27411" lon="-1.75749">
        <ele>18.07</ele>
        <time>2019-12-15T11:34:14.000Z</time>
      </trkpt>
      <trkpt lat="47.27401" lon="-1.75777">
        <ele>17.03</ele>
        <time>2019-12-15T11:34:17.000Z</time>
      </trkpt>
      <trkpt lat="47.27391" lon="-1.75806">
        <ele>14.85</ele>
        <time>2019-12-15T11:34:20.000Z</time>
      </trkpt>
      <trkpt lat="47.27382" lon="-1.75836">
        <ele>13.35</ele>
        <time>2019-12-15T11:34:23.000Z</time>
      </trkpt>
      <trkpt lat="47.27371" lon="-1.75862">
        <ele>12.06</ele>
        <time>2019-12-15T11:34:26.000Z</time>
      </trkpt>
      <trkpt lat="47.2736" lon="-1.75888">
        <ele>10.6</ele>
        <time>2019-12-15T11:34:29.000Z</time>
      </trkpt>
      <trkpt lat="47.27348" lon="-1.75914">
        <ele>9.75</ele>
        <time>2019-12-15T11:34:32.000Z</time>
      </trkpt>
      <trkpt lat="47.27336" lon="-1.75943">
        <ele>9.49</ele>
        <time>2019-12-15T11:34:35.000Z</time>
      </trkpt>
      <trkpt lat="47.2732" lon="-1.7597">
        <ele>8.54</ele>
        <time>2019-12-15T11:34:38.000Z</time>
      </trkpt>
      <trkpt lat="47.273" lon="-1.75992">
        <ele>6.26</ele>
        <time>2019-12-15T11:34:41.000Z</time>
      </trkpt>
      <trkpt lat="47.27282" lon="-1.76016">
        <ele>4.48</ele>
        <time>2019-12-15T11:34:44.000Z</time>
      </trkpt>
      <trkpt lat="47.27263" lon="-1.76037">
        <ele>3.62</ele>
        <time>2019-12-15T11:34:47.000Z</time>
      </trkpt>
      <trkpt lat="47.27238" lon="-1.76056">
        <ele>0.09</ele>
        <time>2019-12-15T11:34:50.000Z</time>
      </trkpt>
      <trkpt lat="47.2722" lon="-1.76068">
        <ele>-0.96</ele>
        <time>2019-12-15T11:34:52.000Z</time>
      </trkpt>
      <trkpt lat="47.27199" lon="-1.76079">
        <ele>-1.64</ele>
        <time>2019-12-15T11:34:54.000Z</time>
      </trkpt>
      <trkpt lat="47.27178" lon="-1.76088">
        <ele>-3.71</ele>
        <time>2019-12-15T11:34:56.000Z</time>
      </trkpt>
      <trkpt lat="47.27154" lon="-1.76101">
        <ele>-5.68</ele>
        <time>2019-12-15T11:34:58.000Z</time>
      </trkpt>
      <trkpt lat="47.27133" lon="-1.76116">
        <ele>-7.26</ele>
        <time>2019-12-15T11:35:00.000Z</time>
      </trkpt>
      <trkpt lat="47.27115" lon="-1.76136">
        <ele>-8.45</ele>
        <time>2019-12-15T11:35:02.000Z</time>
      </trkpt>
      <trkpt lat="47.27096" lon="-1.76155">
        <ele>-10.55</ele>
        <time>2019-12-15T11:35:04.000Z</time>
      </trkpt>
      <trkpt lat="47.27077" lon="-1.76173">
        <ele>-13.38</ele>
        <time>2019-12-15T11:35:06.000Z</time>
      </trkpt>
      <trkpt lat="47.27059" lon="-1.76191">
        <ele>-15.5</ele>
        <time>2019-12-15T11:35:08.000Z</time>
      </trkpt>
      <trkpt lat="47.27042" lon="-1.76211">
        <ele>-16.84</ele>
        <time>2019-12-15T11:35:10.000Z</time>
      </trkpt>
      <trkpt lat="47.27026" lon="-1.76228">
        <ele>-17.28</ele>
        <time>2019-12-15T11:35:12.000Z</time>
      </trkpt>
      <trkpt lat="47.2701" lon="-1.76249">
        <ele>-17.98</ele>
        <time>2019-12-15T11:35:15.000Z</time>
      </trkpt>
      <trkpt lat="47.26991" lon="-1.76239">
        <ele>-18.9</ele>
        <time>2019-12-15T11:35:20.000Z</time>
      </trkpt>
      <trkpt lat="47.26982" lon="-1.76211">
        <ele>-16.43</ele>
        <time>2019-12-15T11:35:24.000Z</time>
      </trkpt>
      <trkpt lat="47.26966" lon="-1.76188">
        <ele>-14.5</ele>
        <time>2019-12-15T11:35:28.000Z</time>
      </trkpt>
      <trkpt lat="47.26948" lon="-1.76165">
        <ele>-13.82</ele>
        <time>2019-12-15T11:35:32.000Z</time>
      </trkpt>
      <trkpt lat="47.26934" lon="-1.76148">
        <ele>-14.22</ele>
        <time>2019-12-15T11:35:35.000Z</time>
      </trkpt>
      <trkpt lat="47.26917" lon="-1.76127">
        <ele>-14.48</ele>
        <time>2019-12-15T11:35:39.000Z</time>
      </trkpt>
      <trkpt lat="47.26903" lon="-1.76104">
        <ele>-17.41</ele>
        <time>2019-12-15T11:35:43.000Z</time>
      </trkpt>
      <trkpt lat="47.26892" lon="-1.76082">
        <ele>-18.83</ele>
        <time>2019-12-15T11:35:46.000Z</time>
      </trkpt>
      <trkpt lat="47.26882" lon="-1.76058">
        <ele>-19.2</ele>
        <time>2019-12-15T11:35:49.000Z</time>
      </trkpt>
      <trkpt lat="47.26874" lon="-1.76033">
        <ele>-19.96</ele>
        <time>2019-12-15T11:35:52.000Z</time>
      </trkpt>
      <trkpt lat="47.26865" lon="-1.76007">
        <ele>-20.59</ele>
        <time>2019-12-15T11:35:55.000Z</time>
      </trkpt>
      <trkpt lat="47.26857" lon="-1.75981">
        <ele>-21.13</ele>
        <time>2019-12-15T11:35:58.000Z</time>
      </trkpt>
      <trkpt lat="47.26847" lon="-1.75956">
        <ele>-21.73</ele>
        <time>2019-12-15T11:36:01.000Z</time>
      </trkpt>
      <trkpt lat="47.26836" lon="-1.75928">
        <ele>-21.05</ele>
        <time>2019-12-15T11:36:05.000Z</time>
      </trkpt>
      <trkpt lat="47.26826" lon="-1.75904">
        <ele>-20.22</ele>
        <time>2019-12-15T11:36:09.000Z</time>
      </trkpt>
      <trkpt lat="47.26815" lon="-1.75881">
        <ele>-18.9</ele>
        <time>2019-12-15T11:36:13.000Z</time>
      </trkpt>
      <trkpt lat="47.26805" lon="-1.75857">
        <ele>-18.2</ele>
        <time>2019-12-15T11:36:17.000Z</time>
      </trkpt>
      <trkpt lat="47.26794" lon="-1.75833">
        <ele>-17.95</ele>
        <time>2019-12-15T11:36:21.000Z</time>
      </trkpt>
      <trkpt lat="47.26782" lon="-1.75808">
        <ele>-17.46</ele>
        <time>2019-12-15T11:36:25.000Z</time>
      </trkpt>
      <trkpt lat="47.2677" lon="-1.7578">
        <ele>-17.88</ele>
        <time>2019-12-15T11:36:29.000Z</time>
      </trkpt>
      <trkpt lat="47.26757" lon="-1.75752">
        <ele>-17.89</ele>
        <time>2019-12-15T11:36:33.000Z</time>
      </trkpt>
      <trkpt lat="47.26745" lon="-1.75724">
        <ele>-17.02</ele>
        <time>2019-12-15T11:36:37.000Z</time>
      </trkpt>
      <trkpt lat="47.26735" lon="-1.75701">
        <ele>-17.03</ele>
        <time>2019-12-15T11:36:40.000Z</time>
      </trkpt>
      <trkpt lat="47.26726" lon="-1.75669">
        <ele>-17.56</ele>
        <time>2019-12-15T11:36:44.000Z</time>
      </trkpt>
      <trkpt lat="47.26721" lon="-1.75636">
        <ele>-15.76</ele>
        <time>2019-12-15T11:36:48.000Z</time>
      </trkpt>
      <trkpt lat="47.26717" lon="-1.75609">
        <ele>-16.52</ele>
        <time>2019-12-15T11:36:51.000Z</time>
      </trkpt>
      <trkpt lat="47.2671" lon="-1.75581">
        <ele>-17.56</ele>
        <time>2019-12-15T11:36:54.000Z</time>
      </trkpt>
      <trkpt lat="47.26702" lon="-1.75551">
        <ele>-17.83</ele>
        <time>2019-12-15T11:36:57.000Z</time>
      </trkpt>
      <trkpt lat="47.26695" lon="-1.75521">
        <ele>-17.83</ele>
        <time>2019-12-15T11:37:00.000Z</time>
      </trkpt>
      <trkpt lat="47.26688" lon="-1.75491">
        <ele>-19.42</ele>
        <time>2019-12-15T11:37:03.000Z</time>
      </trkpt>
      <trkpt lat="47.26678" lon="-1.75459">
        <ele>-20.72</ele>
        <time>2019-12-15T11:37:06.000Z</time>
      </trkpt>
      <trkpt lat="47.26674" lon="-1.75427">
        <ele>-22.1</ele>
        <time>2019-12-15T11:37:09.000Z</time>
      </trkpt>
      <trkpt lat="47.26672" lon="-1.75397">
        <ele>-23.66</ele>
        <time>2019-12-15T11:37:12.000Z</time>
      </trkpt>
      <trkpt lat="47.26672" lon="-1.75363">
        <ele>-24.75</ele>
        <time>2019-12-15T11:37:16.000Z</time>
      </trkpt>
      <trkpt lat="47.26669" lon="-1.75332">
        <ele>-26.17</ele>
        <time>2019-12-15T11:37:20.000Z</time>
      </trkpt>
      <trkpt lat="47.26669" lon="-1.75301">
        <ele>-25.18</ele>
        <time>2019-12-15T11:37:25.000Z</time>
      </trkpt>
      <trkpt lat="47.26667" lon="-1.75272">
        <ele>-23.93</ele>
        <time>2019-12-15T11:37:30.000Z</time>
      </trkpt>
      <trkpt lat="47.26665" lon="-1.75245">
        <ele>-21.79</ele>
        <time>2019-12-15T11:37:35.000Z</time>
      </trkpt>
      <trkpt lat="47.26663" lon="-1.75217">
        <ele>-23.22</ele>
        <time>2019-12-15T11:37:40.000Z</time>
      </trkpt>
      <trkpt lat="47.2666" lon="-1.75191">
        <ele>-21.64</ele>
        <time>2019-12-15T11:37:45.000Z</time>
      </trkpt>
      <trkpt lat="47.26655" lon="-1.75164">
        <ele>-19.45</ele>
        <time>2019-12-15T11:37:50.000Z</time>
      </trkpt>
      <trkpt lat="47.26648" lon="-1.75139">
        <ele>-15.54</ele>
        <time>2019-12-15T11:37:55.000Z</time>
      </trkpt>
      <trkpt lat="47.26641" lon="-1.75114">
        <ele>-12.54</ele>
        <time>2019-12-15T11:38:00.000Z</time>
      </trkpt>
      <trkpt lat="47.26634" lon="-1.75089">
        <ele>-10.77</ele>
        <time>2019-12-15T11:38:05.000Z</time>
      </trkpt>
      <trkpt lat="47.26626" lon="-1.75061">
        <ele>-11.58</ele>
        <time>2019-12-15T11:38:10.000Z</time>
      </trkpt>
      <trkpt lat="47.26619" lon="-1.75034">
        <ele>-10.85</ele>
        <time>2019-12-15T11:38:15.000Z</time>
      </trkpt>
      <trkpt lat="47.26611" lon="-1.75005">
        <ele>-10.32</ele>
        <time>2019-12-15T11:38:20.000Z</time>
      </trkpt>
      <trkpt lat="47.26604" lon="-1.74979">
        <ele>-9</ele>
        <time>2019-12-15T11:38:24.000Z</time>
      </trkpt>
      <trkpt lat="47.26597" lon="-1.74954">
        <ele>-9.6</ele>
        <time>2019-12-15T11:38:28.000Z</time>
      </trkpt>
      <trkpt lat="47.26596" lon="-1.74928">
        <ele>-9.2</ele>
        <time>2019-12-15T11:38:32.000Z</time>
      </trkpt>
      <trkpt lat="47.26607" lon="-1.74903">
        <ele>-9.83</ele>
        <time>2019-12-15T11:38:37.000Z</time>
      </trkpt>
      <trkpt lat="47.26626" lon="-1.74888">
        <ele>-8.58</ele>
        <time>2019-12-15T11:38:43.000Z</time>
      </trkpt>
      <trkpt lat="47.26643" lon="-1.74874">
        <ele>-7.58</ele>
        <time>2019-12-15T11:38:49.000Z</time>
      </trkpt>
      <trkpt lat="47.26661" lon="-1.74858">
        <ele>-6.14</ele>
        <time>2019-12-15T11:38:55.000Z</time>
      </trkpt>
      <trkpt lat="47.2668" lon="-1.74843">
        <ele>-5.11</ele>
        <time>2019-12-15T11:39:01.000Z</time>
      </trkpt>
      <trkpt lat="47.26697" lon="-1.74827">
        <ele>-4.8</ele>
        <time>2019-12-15T11:39:07.000Z</time>
      </trkpt>
      <trkpt lat="47.26714" lon="-1.74811">
        <ele>-3.85</ele>
        <time>2019-12-15T11:39:13.000Z</time>
      </trkpt>
      <trkpt lat="47.26732" lon="-1.74795">
        <ele>-1.93</ele>
        <time>2019-12-15T11:39:19.000Z</time>
      </trkpt>
      <trkpt lat="47.26749" lon="-1.7478">
        <ele>-0.82</ele>
        <time>2019-12-15T11:39:25.000Z</time>
      </trkpt>
      <trkpt lat="47.26765" lon="-1.74767">
        <ele>0.78</ele>
        <time>2019-12-15T11:39:31.000Z</time>
      </trkpt>
      <trkpt lat="47.26785" lon="-1.7476">
        <ele>5.02</ele>
        <time>2019-12-15T11:39:37.000Z</time>
      </trkpt>
      <trkpt lat="47.26805" lon="-1.74761">
        <ele>8.03</ele>
        <time>2019-12-15T11:39:43.000Z</time>
      </trkpt>
      <trkpt lat="47.26824" lon="-1.74762">
        <ele>8.97</ele>
        <time>2019-12-15T11:39:49.000Z</time>
      </trkpt>
      <trkpt lat="47.26845" lon="-1.74759">
        <ele>10.37</ele>
        <time>2019-12-15T11:39:55.000Z</time>
      </trkpt>
      <trkpt lat="47.26865" lon="-1.74757">
        <ele>8</ele>
        <time>2019-12-15T11:40:00.000Z</time>
      </trkpt>
      <trkpt lat="47.26885" lon="-1.74755">
        <ele>7.24</ele>
        <time>2019-12-15T11:40:05.000Z</time>
      </trkpt>
      <trkpt lat="47.26905" lon="-1.74751">
        <ele>9.17</ele>
        <time>2019-12-15T11:40:10.000Z</time>
      </trkpt>
      <trkpt lat="47.2692" lon="-1.74738">
        <ele>10.43</ele>
        <time>2019-12-15T11:40:15.000Z</time>
      </trkpt>
      <trkpt lat="47.26927" lon="-1.74711">
        <ele>11.01</ele>
        <time>2019-12-15T11:40:20.000Z</time>
      </trkpt>
      <trkpt lat="47.26927" lon="-1.74682">
        <ele>12.03</ele>
        <time>2019-12-15T11:40:25.000Z</time>
      </trkpt>
      <trkpt lat="47.26925" lon="-1.74654">
        <ele>12.45</ele>
        <time>2019-12-15T11:40:30.000Z</time>
      </trkpt>
      <trkpt lat="47.26921" lon="-1.74627">
        <ele>13.2</ele>
        <time>2019-12-15T11:40:35.000Z</time>
      </trkpt>
      <trkpt lat="47.26914" lon="-1.74598">
        <ele>13.47</ele>
        <time>2019-12-15T11:40:40.000Z</time>
      </trkpt>
      <trkpt lat="47.26906" lon="-1.7457">
        <ele>14.87</ele>
        <time>2019-12-15T11:40:45.000Z</time>
      </trkpt>
      <trkpt lat="47.26895" lon="-1.74543">
        <ele>17.15</ele>
        <time>2019-12-15T11:40:50.000Z</time>
      </trkpt>
      <trkpt lat="47.26885" lon="-1.7452">
        <ele>16.83</ele>
        <time>2019-12-15T11:40:54.000Z</time>
      </trkpt>
      <trkpt lat="47.26878" lon="-1.74494">
        <ele>16.34</ele>
        <time>2019-12-15T11:40:58.000Z</time>
      </trkpt>
      <trkpt lat="47.26876" lon="-1.74467">
        <ele>15.92</ele>
        <time>2019-12-15T11:41:02.000Z</time>
      </trkpt>
      <trkpt lat="47.26881" lon="-1.74439">
        <ele>14.8</ele>
        <time>2019-12-15T11:41:06.000Z</time>
      </trkpt>
      <trkpt lat="47.26885" lon="-1.74409">
        <ele>13.62</ele>
        <time>2019-12-15T11:41:10.000Z</time>
      </trkpt>
      <trkpt lat="47.26885" lon="-1.7438">
        <ele>14.46</ele>
        <time>2019-12-15T11:41:14.000Z</time>
      </trkpt>
      <trkpt lat="47.26888" lon="-1.74349">
        <ele>14.64</ele>
        <time>2019-12-15T11:41:18.000Z</time>
      </trkpt>
      <trkpt lat="47.26895" lon="-1.74321">
        <ele>15.6</ele>
        <time>2019-12-15T11:41:22.000Z</time>
      </trkpt>
      <trkpt lat="47.26909" lon="-1.74298">
        <ele>16.13</ele>
        <time>2019-12-15T11:41:26.000Z</time>
      </trkpt>
      <trkpt lat="47.26926" lon="-1.74279">
        <ele>17.17</ele>
        <time>2019-12-15T11:41:30.000Z</time>
      </trkpt>
      <trkpt lat="47.26946" lon="-1.74263">
        <ele>17.37</ele>
        <time>2019-12-15T11:41:34.000Z</time>
      </trkpt>
      <trkpt lat="47.26964" lon="-1.74249">
        <ele>17.13</ele>
        <time>2019-12-15T11:41:38.000Z</time>
      </trkpt>
      <trkpt lat="47.26983" lon="-1.74235">
        <ele>16.64</ele>
        <time>2019-12-15T11:41:42.000Z</time>
      </trkpt>
      <trkpt lat="47.27003" lon="-1.74225">
        <ele>18.33</ele>
        <time>2019-12-15T11:41:46.000Z</time>
      </trkpt>
      <trkpt lat="47.27024" lon="-1.74218">
        <ele>19.59</ele>
        <time>2019-12-15T11:41:50.000Z</time>
      </trkpt>
      <trkpt lat="47.27047" lon="-1.74212">
        <ele>20.17</ele>
        <time>2019-12-15T11:41:54.000Z</time>
      </trkpt>
      <trkpt lat="47.27069" lon="-1.74205">
        <ele>21.17</ele>
        <time>2019-12-15T11:41:58.000Z</time>
      </trkpt>
      <trkpt lat="47.27088" lon="-1.74192">
        <ele>21.7</ele>
        <time>2019-12-15T11:42:02.000Z</time>
      </trkpt>
      <trkpt lat="47.27105" lon="-1.74173">
        <ele>23.19</ele>
        <time>2019-12-15T11:42:06.000Z</time>
      </trkpt>
      <trkpt lat="47.27122" lon="-1.74153">
        <ele>24.04</ele>
        <time>2019-12-15T11:42:10.000Z</time>
      </trkpt>
      <trkpt lat="47.27138" lon="-1.74131">
        <ele>23.69</ele>
        <time>2019-12-15T11:42:14.000Z</time>
      </trkpt>
      <trkpt lat="47.27154" lon="-1.7411">
        <ele>23.11</ele>
        <time>2019-12-15T11:42:18.000Z</time>
      </trkpt>
      <trkpt lat="47.27173" lon="-1.74092">
        <ele>22.51</ele>
        <time>2019-12-15T11:42:22.000Z</time>
      </trkpt>
      <trkpt lat="47.27192" lon="-1.74075">
        <ele>22.16</ele>
        <time>2019-12-15T11:42:26.000Z</time>
      </trkpt>
      <trkpt lat="47.27202" lon="-1.74046">
        <ele>21.39</ele>
        <time>2019-12-15T11:42:30.000Z</time>
      </trkpt>
      <trkpt lat="47.27199" lon="-1.74011">
        <ele>21.98</ele>
        <time>2019-12-15T11:42:34.000Z</time>
      </trkpt>
      <trkpt lat="47.27196" lon="-1.73977">
        <ele>23.13</ele>
        <time>2019-12-15T11:42:38.000Z</time>
      </trkpt>
      <trkpt lat="47.2719" lon="-1.73946">
        <ele>24.71</ele>
        <time>2019-12-15T11:42:42.000Z</time>
      </trkpt>
      <trkpt lat="47.27181" lon="-1.73916">
        <ele>24.51</ele>
        <time>2019-12-15T11:42:46.000Z</time>
      </trkpt>
      <trkpt lat="47.27172" lon="-1.73887">
        <ele>24.71</ele>
        <time>2019-12-15T11:42:50.000Z</time>
      </trkpt>
      <trkpt lat="47.2716" lon="-1.73856">
        <ele>25.1</ele>
        <time>2019-12-15T11:42:54.000Z</time>
      </trkpt>
      <trkpt lat="47.27149" lon="-1.73825">
        <ele>25.37</ele>
        <time>2019-12-15T11:42:58.000Z</time>
      </trkpt>
      <trkpt lat="47.2714" lon="-1.73803">
        <ele>25.28</ele>
        <time>2019-12-15T11:43:01.000Z</time>
      </trkpt>
      <trkpt lat="47.27129" lon="-1.73781">
        <ele>24.86</ele>
        <time>2019-12-15T11:43:04.000Z</time>
      </trkpt>
      <trkpt lat="47.27117" lon="-1.7376">
        <ele>25.53</ele>
        <time>2019-12-15T11:43:07.000Z</time>
      </trkpt>
      <trkpt lat="47.27101" lon="-1.73734">
        <ele>27.21</ele>
        <time>2019-12-15T11:43:11.000Z</time>
      </trkpt>
      <trkpt lat="47.27087" lon="-1.73708">
        <ele>27.96</ele>
        <time>2019-12-15T11:43:15.000Z</time>
      </trkpt>
      <trkpt lat="47.27075" lon="-1.73686">
        <ele>27.29</ele>
        <time>2019-12-15T11:43:18.000Z</time>
      </trkpt>
      <trkpt lat="47.27062" lon="-1.73664">
        <ele>26.03</ele>
        <time>2019-12-15T11:43:21.000Z</time>
      </trkpt>
      <trkpt lat="47.27048" lon="-1.73644">
        <ele>24.97</ele>
        <time>2019-12-15T11:43:24.000Z</time>
      </trkpt>
      <trkpt lat="47.27032" lon="-1.73625">
        <ele>23.99</ele>
        <time>2019-12-15T11:43:27.000Z</time>
      </trkpt>
      <trkpt lat="47.27017" lon="-1.73605">
        <ele>23.17</ele>
        <time>2019-12-15T11:43:30.000Z</time>
      </trkpt>
      <trkpt lat="47.27001" lon="-1.73585">
        <ele>21.89</ele>
        <time>2019-12-15T11:43:33.000Z</time>
      </trkpt>
      <trkpt lat="47.26985" lon="-1.73565">
        <ele>20.96</ele>
        <time>2019-12-15T11:43:36.000Z</time>
      </trkpt>
      <trkpt lat="47.26969" lon="-1.73544">
        <ele>21.06</ele>
        <time>2019-12-15T11:43:39.000Z</time>
      </trkpt>
      <trkpt lat="47.26953" lon="-1.73524">
        <ele>22</ele>
        <time>2019-12-15T11:43:42.000Z</time>
      </trkpt>
      <trkpt lat="47.26936" lon="-1.73505">
        <ele>22.45</ele>
        <time>2019-12-15T11:43:45.000Z</time>
      </trkpt>
      <trkpt lat="47.26919" lon="-1.73485">
        <ele>22.8</ele>
        <time>2019-12-15T11:43:48.000Z</time>
      </trkpt>
      <trkpt lat="47.26903" lon="-1.73466">
        <ele>22.2</ele>
        <time>2019-12-15T11:43:51.000Z</time>
      </trkpt>
      <trkpt lat="47.26886" lon="-1.73447">
        <ele>21.36</ele>
        <time>2019-12-15T11:43:54.000Z</time>
      </trkpt>
      <trkpt lat="47.26869" lon="-1.7343">
        <ele>20.95</ele>
        <time>2019-12-15T11:43:57.000Z</time>
      </trkpt>
      <trkpt lat="47.26853" lon="-1.73414">
        <ele>21.48</ele>
        <time>2019-12-15T11:44:00.000Z</time>
      </trkpt>
      <trkpt lat="47.26834" lon="-1.73395">
        <ele>22.9</ele>
        <time>2019-12-15T11:44:04.000Z</time>
      </trkpt>
      <trkpt lat="47.26818" lon="-1.7338">
        <ele>23.53</ele>
        <time>2019-12-15T11:44:07.000Z</time>
      </trkpt>
      <trkpt lat="47.268" lon="-1.73362">
        <ele>24.44</ele>
        <time>2019-12-15T11:44:11.000Z</time>
      </trkpt>
      <trkpt lat="47.26781" lon="-1.73343">
        <ele>25.28</ele>
        <time>2019-12-15T11:44:15.000Z</time>
      </trkpt>
      <trkpt lat="47.26764" lon="-1.73325">
        <ele>26.15</ele>
        <time>2019-12-15T11:44:19.000Z</time>
      </trkpt>
      <trkpt lat="47.26767" lon="-1.73298">
        <ele>26.2</ele>
        <time>2019-12-15T11:44:24.000Z</time>
      </trkpt>
      <trkpt lat="47.26781" lon="-1.73277">
        <ele>26.22</ele>
        <time>2019-12-15T11:44:28.000Z</time>
      </trkpt>
      <trkpt lat="47.26779" lon="-1.73247">
        <ele>27.15</ele>
        <time>2019-12-15T11:44:32.000Z</time>
      </trkpt>
      <trkpt lat="47.26772" lon="-1.73217">
        <ele>27.78</ele>
        <time>2019-12-15T11:44:36.000Z</time>
      </trkpt>
      <trkpt lat="47.26765" lon="-1.73185">
        <ele>27.47</ele>
        <time>2019-12-15T11:44:40.000Z</time>
      </trkpt>
      <trkpt lat="47.26761" lon="-1.73159">
        <ele>27.32</ele>
        <time>2019-12-15T11:44:43.000Z</time>
      </trkpt>
      <trkpt lat="47.26757" lon="-1.73133">
        <ele>27.52</ele>
        <time>2019-12-15T11:44:46.000Z</time>
      </trkpt>
      <trkpt lat="47.26753" lon="-1.73105">
        <ele>27.02</ele>
        <time>2019-12-15T11:44:49.000Z</time>
      </trkpt>
      <trkpt lat="47.2675" lon="-1.73079">
        <ele>26.84</ele>
        <time>2019-12-15T11:44:52.000Z</time>
      </trkpt>
      <trkpt lat="47.26744" lon="-1.73052">
        <ele>26.8</ele>
        <time>2019-12-15T11:44:55.000Z</time>
      </trkpt>
      <trkpt lat="47.2674" lon="-1.73024">
        <ele>26.06</ele>
        <time>2019-12-15T11:44:58.000Z</time>
      </trkpt>
      <trkpt lat="47.26734" lon="-1.72998">
        <ele>26.58</ele>
        <time>2019-12-15T11:45:01.000Z</time>
      </trkpt>
      <trkpt lat="47.26727" lon="-1.72974">
        <ele>26.7</ele>
        <time>2019-12-15T11:45:04.000Z</time>
      </trkpt>
      <trkpt lat="47.26717" lon="-1.72951">
        <ele>27.28</ele>
        <time>2019-12-15T11:45:07.000Z</time>
      </trkpt>
      <trkpt lat="47.26707" lon="-1.72929">
        <ele>28.6</ele>
        <time>2019-12-15T11:45:10.000Z</time>
      </trkpt>
      <trkpt lat="47.26694" lon="-1.72899">
        <ele>29.66</ele>
        <time>2019-12-15T11:45:14.000Z</time>
      </trkpt>
      <trkpt lat="47.26682" lon="-1.72878">
        <ele>28.2</ele>
        <time>2019-12-15T11:45:17.000Z</time>
      </trkpt>
      <trkpt lat="47.26667" lon="-1.72851">
        <ele>27.69</ele>
        <time>2019-12-15T11:45:21.000Z</time>
      </trkpt>
      <trkpt lat="47.26657" lon="-1.72828">
        <ele>26.99</ele>
        <time>2019-12-15T11:45:24.000Z</time>
      </trkpt>
      <trkpt lat="47.26648" lon="-1.72802">
        <ele>25.65</ele>
        <time>2019-12-15T11:45:27.000Z</time>
      </trkpt>
      <trkpt lat="47.2664" lon="-1.72776">
        <ele>25.45</ele>
        <time>2019-12-15T11:45:30.000Z</time>
      </trkpt>
      <trkpt lat="47.26631" lon="-1.72751">
        <ele>26.85</ele>
        <time>2019-12-15T11:45:33.000Z</time>
      </trkpt>
      <trkpt lat="47.26612" lon="-1.72745">
        <ele>27.86</ele>
        <time>2019-12-15T11:45:37.000Z</time>
      </trkpt>
      <trkpt lat="47.26593" lon="-1.72759">
        <ele>28.3</ele>
        <time>2019-12-15T11:45:41.000Z</time>
      </trkpt>
      <trkpt lat="47.26576" lon="-1.72777">
        <ele>28.76</ele>
        <time>2019-12-15T11:45:45.000Z</time>
      </trkpt>
      <trkpt lat="47.26557" lon="-1.72773">
        <ele>29.16</ele>
        <time>2019-12-15T11:45:50.000Z</time>
      </trkpt>
      <trkpt lat="47.26551" lon="-1.72741">
        <ele>29.13</ele>
        <time>2019-12-15T11:45:54.000Z</time>
      </trkpt>
      <trkpt lat="47.26545" lon="-1.72714">
        <ele>28.6</ele>
        <time>2019-12-15T11:45:57.000Z</time>
      </trkpt>
      <trkpt lat="47.2654" lon="-1.72687">
        <ele>26.32</ele>
        <time>2019-12-15T11:46:00.000Z</time>
      </trkpt>
      <trkpt lat="47.26533" lon="-1.72659">
        <ele>25.09</ele>
        <time>2019-12-15T11:46:03.000Z</time>
      </trkpt>
      <trkpt lat="47.26523" lon="-1.72634">
        <ele>25.04</ele>
        <time>2019-12-15T11:46:06.000Z</time>
      </trkpt>
      <trkpt lat="47.2651" lon="-1.72611">
        <ele>23.68</ele>
        <time>2019-12-15T11:46:09.000Z</time>
      </trkpt>
      <trkpt lat="47.26498" lon="-1.72592">
        <ele>22.92</ele>
        <time>2019-12-15T11:46:12.000Z</time>
      </trkpt>
      <trkpt lat="47.26487" lon="-1.72569">
        <ele>22.82</ele>
        <time>2019-12-15T11:46:15.000Z</time>
      </trkpt>
      <trkpt lat="47.26476" lon="-1.72546">
        <ele>23.96</ele>
        <time>2019-12-15T11:46:18.000Z</time>
      </trkpt>
      <trkpt lat="47.26465" lon="-1.72523">
        <ele>24.58</ele>
        <time>2019-12-15T11:46:21.000Z</time>
      </trkpt>
      <trkpt lat="47.26455" lon="-1.72501">
        <ele>24.44</ele>
        <time>2019-12-15T11:46:24.000Z</time>
      </trkpt>
      <trkpt lat="47.26441" lon="-1.72473">
        <ele>24.21</ele>
        <time>2019-12-15T11:46:28.000Z</time>
      </trkpt>
      <trkpt lat="47.26424" lon="-1.72466">
        <ele>23.55</ele>
        <time>2019-12-15T11:46:32.000Z</time>
      </trkpt>
      <trkpt lat="47.26408" lon="-1.72444">
        <ele>25.03</ele>
        <time>2019-12-15T11:46:39.000Z</time>
      </trkpt>
      <trkpt lat="47.26392" lon="-1.72422">
        <ele>25.39</ele>
        <time>2019-12-15T11:46:43.000Z</time>
      </trkpt>
      <trkpt lat="47.26377" lon="-1.72405">
        <ele>25.07</ele>
        <time>2019-12-15T11:46:46.000Z</time>
      </trkpt>
      <trkpt lat="47.26362" lon="-1.72391">
        <ele>24.15</ele>
        <time>2019-12-15T11:46:49.000Z</time>
      </trkpt>
      <trkpt lat="47.26342" lon="-1.7239">
        <ele>22.27</ele>
        <time>2019-12-15T11:46:52.000Z</time>
      </trkpt>
      <trkpt lat="47.26323" lon="-1.724">
        <ele>21.72</ele>
        <time>2019-12-15T11:46:55.000Z</time>
      </trkpt>
      <trkpt lat="47.26305" lon="-1.72408">
        <ele>19.84</ele>
        <time>2019-12-15T11:46:58.000Z</time>
      </trkpt>
      <trkpt lat="47.26283" lon="-1.72419">
        <ele>18.59</ele>
        <time>2019-12-15T11:47:02.000Z</time>
      </trkpt>
      <trkpt lat="47.26265" lon="-1.72428">
        <ele>19.13</ele>
        <time>2019-12-15T11:47:05.000Z</time>
      </trkpt>
      <trkpt lat="47.26246" lon="-1.72438">
        <ele>18.92</ele>
        <time>2019-12-15T11:47:08.000Z</time>
      </trkpt>
      <trkpt lat="47.26229" lon="-1.72449">
        <ele>17.85</ele>
        <time>2019-12-15T11:47:11.000Z</time>
      </trkpt>
      <trkpt lat="47.26212" lon="-1.72466">
        <ele>16.63</ele>
        <time>2019-12-15T11:47:14.000Z</time>
      </trkpt>
      <trkpt lat="47.26196" lon="-1.72484">
        <ele>16.47</ele>
        <time>2019-12-15T11:47:17.000Z</time>
      </trkpt>
      <trkpt lat="47.26179" lon="-1.72496">
        <ele>15.88</ele>
        <time>2019-12-15T11:47:20.000Z</time>
      </trkpt>
      <trkpt lat="47.26162" lon="-1.72504">
        <ele>15.41</ele>
        <time>2019-12-15T11:47:23.000Z</time>
      </trkpt>
      <trkpt lat="47.26144" lon="-1.72512">
        <ele>15.55</ele>
        <time>2019-12-15T11:47:26.000Z</time>
      </trkpt>
      <trkpt lat="47.26124" lon="-1.72523">
        <ele>14.32</ele>
        <time>2019-12-15T11:47:29.000Z</time>
      </trkpt>
      <trkpt lat="47.26104" lon="-1.72536">
        <ele>12.91</ele>
        <time>2019-12-15T11:47:32.000Z</time>
      </trkpt>
      <trkpt lat="47.26083" lon="-1.72549">
        <ele>12.34</ele>
        <time>2019-12-15T11:47:35.000Z</time>
      </trkpt>
      <trkpt lat="47.26062" lon="-1.72562">
        <ele>11.26</ele>
        <time>2019-12-15T11:47:38.000Z</time>
      </trkpt>
      <trkpt lat="47.2604" lon="-1.72573">
        <ele>9.85</ele>
        <time>2019-12-15T11:47:41.000Z</time>
      </trkpt>
      <trkpt lat="47.26018" lon="-1.72585">
        <ele>9.74</ele>
        <time>2019-12-15T11:47:44.000Z</time>
      </trkpt>
      <trkpt lat="47.25996" lon="-1.72598">
        <ele>9.34</ele>
        <time>2019-12-15T11:47:47.000Z</time>
      </trkpt>
      <trkpt lat="47.25975" lon="-1.7261">
        <ele>8.84</ele>
        <time>2019-12-15T11:47:50.000Z</time>
      </trkpt>
      <trkpt lat="47.25955" lon="-1.72619">
        <ele>8.73</ele>
        <time>2019-12-15T11:47:53.000Z</time>
      </trkpt>
      <trkpt lat="47.25934" lon="-1.72624">
        <ele>7.95</ele>
        <time>2019-12-15T11:47:56.000Z</time>
      </trkpt>
      <trkpt lat="47.25912" lon="-1.72626">
        <ele>6.67</ele>
        <time>2019-12-15T11:47:59.000Z</time>
      </trkpt>
      <trkpt lat="47.25892" lon="-1.72628">
        <ele>5.74</ele>
        <time>2019-12-15T11:48:02.000Z</time>
      </trkpt>
      <trkpt lat="47.25874" lon="-1.72622">
        <ele>4.4</ele>
        <time>2019-12-15T11:48:05.000Z</time>
      </trkpt>
      <trkpt lat="47.25856" lon="-1.72601">
        <ele>3.89</ele>
        <time>2019-12-15T11:48:09.000Z</time>
      </trkpt>
      <trkpt lat="47.25844" lon="-1.72581">
        <ele>5.59</ele>
        <time>2019-12-15T11:48:13.000Z</time>
      </trkpt>
      <trkpt lat="47.25825" lon="-1.7259">
        <ele>8.28</ele>
        <time>2019-12-15T11:48:17.000Z</time>
      </trkpt>
      <trkpt lat="47.25809" lon="-1.72605">
        <ele>7.8</ele>
        <time>2019-12-15T11:48:20.000Z</time>
      </trkpt>
      <trkpt lat="47.25791" lon="-1.72621">
        <ele>6.53</ele>
        <time>2019-12-15T11:48:23.000Z</time>
      </trkpt>
      <trkpt lat="47.2577" lon="-1.72635">
        <ele>4.54</ele>
        <time>2019-12-15T11:48:26.000Z</time>
      </trkpt>
      <trkpt lat="47.2575" lon="-1.7265">
        <ele>3.17</ele>
        <time>2019-12-15T11:48:29.000Z</time>
      </trkpt>
      <trkpt lat="47.25732" lon="-1.72666">
        <ele>2.34</ele>
        <time>2019-12-15T11:48:32.000Z</time>
      </trkpt>
      <trkpt lat="47.25716" lon="-1.72684">
        <ele>1</ele>
        <time>2019-12-15T11:48:35.000Z</time>
      </trkpt>
      <trkpt lat="47.25701" lon="-1.72704">
        <ele>1.66</ele>
        <time>2019-12-15T11:48:38.000Z</time>
      </trkpt>
      <trkpt lat="47.25684" lon="-1.72727">
        <ele>0.77</ele>
        <time>2019-12-15T11:48:41.000Z</time>
      </trkpt>
      <trkpt lat="47.25666" lon="-1.72752">
        <ele>-0.05</ele>
        <time>2019-12-15T11:48:44.000Z</time>
      </trkpt>
      <trkpt lat="47.25647" lon="-1.72779">
        <ele>-1.44</ele>
        <time>2019-12-15T11:48:47.000Z</time>
      </trkpt>
      <trkpt lat="47.25633" lon="-1.72798">
        <ele>-2.89</ele>
        <time>2019-12-15T11:48:49.000Z</time>
      </trkpt>
      <trkpt lat="47.25617" lon="-1.72817">
        <ele>-4.7</ele>
        <time>2019-12-15T11:48:51.000Z</time>
      </trkpt>
      <trkpt lat="47.25604" lon="-1.72836">
        <ele>-6.67</ele>
        <time>2019-12-15T11:48:53.000Z</time>
      </trkpt>
      <trkpt lat="47.25588" lon="-1.7285">
        <ele>-9.51</ele>
        <time>2019-12-15T11:48:55.000Z</time>
      </trkpt>
      <trkpt lat="47.25571" lon="-1.72859">
        <ele>-10.87</ele>
        <time>2019-12-15T11:48:57.000Z</time>
      </trkpt>
      <trkpt lat="47.25553" lon="-1.72867">
        <ele>-12.67</ele>
        <time>2019-12-15T11:48:59.000Z</time>
      </trkpt>
      <trkpt lat="47.25528" lon="-1.7287">
        <ele>-11.95</ele>
        <time>2019-12-15T11:49:02.000Z</time>
      </trkpt>
      <trkpt lat="47.25506" lon="-1.72867">
        <ele>-11.74</ele>
        <time>2019-12-15T11:49:05.000Z</time>
      </trkpt>
      <trkpt lat="47.25485" lon="-1.72858">
        <ele>-12.07</ele>
        <time>2019-12-15T11:49:08.000Z</time>
      </trkpt>
      <trkpt lat="47.25465" lon="-1.72845">
        <ele>-12.75</ele>
        <time>2019-12-15T11:49:11.000Z</time>
      </trkpt>
      <trkpt lat="47.25448" lon="-1.72825">
        <ele>-12.66</ele>
        <time>2019-12-15T11:49:14.000Z</time>
      </trkpt>
      <trkpt lat="47.25432" lon="-1.72804">
        <ele>-11.86</ele>
        <time>2019-12-15T11:49:17.000Z</time>
      </trkpt>
      <trkpt lat="47.25416" lon="-1.72784">
        <ele>-10.09</ele>
        <time>2019-12-15T11:49:20.000Z</time>
      </trkpt>
      <trkpt lat="47.25401" lon="-1.72764">
        <ele>-8.82</ele>
        <time>2019-12-15T11:49:23.000Z</time>
      </trkpt>
      <trkpt lat="47.25387" lon="-1.72745">
        <ele>-7.9</ele>
        <time>2019-12-15T11:49:26.000Z</time>
      </trkpt>
      <trkpt lat="47.25372" lon="-1.72728">
        <ele>-7.6</ele>
        <time>2019-12-15T11:49:29.000Z</time>
      </trkpt>
      <trkpt lat="47.25357" lon="-1.72713">
        <ele>-7.97</ele>
        <time>2019-12-15T11:49:32.000Z</time>
      </trkpt>
      <trkpt lat="47.25338" lon="-1.72706">
        <ele>-9.19</ele>
        <time>2019-12-15T11:49:35.000Z</time>
      </trkpt>
      <trkpt lat="47.25317" lon="-1.72706">
        <ele>-12.01</ele>
        <time>2019-12-15T11:49:38.000Z</time>
      </trkpt>
      <trkpt lat="47.25295" lon="-1.72704">
        <ele>-14.6</ele>
        <time>2019-12-15T11:49:41.000Z</time>
      </trkpt>
      <trkpt lat="47.25273" lon="-1.72694">
        <ele>-18.08</ele>
        <time>2019-12-15T11:49:44.000Z</time>
      </trkpt>
      <trkpt lat="47.25252" lon="-1.72681">
        <ele>-20.53</ele>
        <time>2019-12-15T11:49:47.000Z</time>
      </trkpt>
      <trkpt lat="47.25233" lon="-1.72665">
        <ele>-21.34</ele>
        <time>2019-12-15T11:49:50.000Z</time>
      </trkpt>
      <trkpt lat="47.25213" lon="-1.72647">
        <ele>-23</ele>
        <time>2019-12-15T11:49:53.000Z</time>
      </trkpt>
      <trkpt lat="47.25193" lon="-1.7263">
        <ele>-23.66</ele>
        <time>2019-12-15T11:49:56.000Z</time>
      </trkpt>
      <trkpt lat="47.25174" lon="-1.72614">
        <ele>-24.19</ele>
        <time>2019-12-15T11:49:59.000Z</time>
      </trkpt>
      <trkpt lat="47.25157" lon="-1.72601">
        <ele>-24.49</ele>
        <time>2019-12-15T11:50:02.000Z</time>
      </trkpt>
      <trkpt lat="47.2514" lon="-1.72581">
        <ele>-22.39</ele>
        <time>2019-12-15T11:50:06.000Z</time>
      </trkpt>
      <trkpt lat="47.25129" lon="-1.72554">
        <ele>-21.19</ele>
        <time>2019-12-15T11:50:10.000Z</time>
      </trkpt>
      <trkpt lat="47.25123" lon="-1.72523">
        <ele>-21.98</ele>
        <time>2019-12-15T11:50:14.000Z</time>
      </trkpt>
      <trkpt lat="47.25122" lon="-1.7249">
        <ele>-23.69</ele>
        <time>2019-12-15T11:50:18.000Z</time>
      </trkpt>
      <trkpt lat="47.25121" lon="-1.72462">
        <ele>-23.66</ele>
        <time>2019-12-15T11:50:21.000Z</time>
      </trkpt>
      <trkpt lat="47.25119" lon="-1.72434">
        <ele>-24.22</ele>
        <time>2019-12-15T11:50:24.000Z</time>
      </trkpt>
      <trkpt lat="47.2512" lon="-1.72407">
        <ele>-24.1</ele>
        <time>2019-12-15T11:50:27.000Z</time>
      </trkpt>
      <trkpt lat="47.25123" lon="-1.72375">
        <ele>-22.54</ele>
        <time>2019-12-15T11:50:31.000Z</time>
      </trkpt>
      <trkpt lat="47.25136" lon="-1.72351">
        <ele>-21.62</ele>
        <time>2019-12-15T11:50:35.000Z</time>
      </trkpt>
      <trkpt lat="47.25151" lon="-1.72333">
        <ele>-20.49</ele>
        <time>2019-12-15T11:50:39.000Z</time>
      </trkpt>
      <trkpt lat="47.25165" lon="-1.72315">
        <ele>-19.03</ele>
        <time>2019-12-15T11:50:43.000Z</time>
      </trkpt>
      <trkpt lat="47.25182" lon="-1.72302">
        <ele>-18.27</ele>
        <time>2019-12-15T11:50:47.000Z</time>
      </trkpt>
      <trkpt lat="47.25202" lon="-1.72289">
        <ele>-16.96</ele>
        <time>2019-12-15T11:50:52.000Z</time>
      </trkpt>
      <trkpt lat="47.25224" lon="-1.72281">
        <ele>-15.65</ele>
        <time>2019-12-15T11:50:57.000Z</time>
      </trkpt>
      <trkpt lat="47.25244" lon="-1.72274">
        <ele>-14.02</ele>
        <time>2019-12-15T11:51:02.000Z</time>
      </trkpt>
      <trkpt lat="47.25264" lon="-1.72268">
        <ele>-14.22</ele>
        <time>2019-12-15T11:51:07.000Z</time>
      </trkpt>
      <trkpt lat="47.25284" lon="-1.7226">
        <ele>-13.64</ele>
        <time>2019-12-15T11:51:12.000Z</time>
      </trkpt>
      <trkpt lat="47.25305" lon="-1.72251">
        <ele>-13.45</ele>
        <time>2019-12-15T11:51:17.000Z</time>
      </trkpt>
      <trkpt lat="47.25325" lon="-1.72244">
        <ele>-11.68</ele>
        <time>2019-12-15T11:51:22.000Z</time>
      </trkpt>
      <trkpt lat="47.25343" lon="-1.72238">
        <ele>-8.08</ele>
        <time>2019-12-15T11:51:27.000Z</time>
      </trkpt>
      <trkpt lat="47.25363" lon="-1.72232">
        <ele>-7.28</ele>
        <time>2019-12-15T11:51:32.000Z</time>
      </trkpt>
      <trkpt lat="47.25383" lon="-1.72225">
        <ele>-4.99</ele>
        <time>2019-12-15T11:51:37.000Z</time>
      </trkpt>
      <trkpt lat="47.25403" lon="-1.72218">
        <ele>-4.36</ele>
        <time>2019-12-15T11:51:42.000Z</time>
      </trkpt>
      <trkpt lat="47.25421" lon="-1.72213">
        <ele>-3.56</ele>
        <time>2019-12-15T11:51:47.000Z</time>
      </trkpt>
      <trkpt lat="47.25439" lon="-1.72207">
        <ele>-2.63</ele>
        <time>2019-12-15T11:51:52.000Z</time>
      </trkpt>
      <trkpt lat="47.25458" lon="-1.722">
        <ele>-1.64</ele>
        <time>2019-12-15T11:51:57.000Z</time>
      </trkpt>
      <trkpt lat="47.25477" lon="-1.72195">
        <ele>0.81</ele>
        <time>2019-12-15T11:52:02.000Z</time>
      </trkpt>
      <trkpt lat="47.25495" lon="-1.72187">
        <ele>2.68</ele>
        <time>2019-12-15T11:52:07.000Z</time>
      </trkpt>
      <trkpt lat="47.25514" lon="-1.7218">
        <ele>5.35</ele>
        <time>2019-12-15T11:52:12.000Z</time>
      </trkpt>
      <trkpt lat="47.25534" lon="-1.72171">
        <ele>9.22</ele>
        <time>2019-12-15T11:52:17.000Z</time>
      </trkpt>
      <trkpt lat="47.25554" lon="-1.72165">
        <ele>11.14</ele>
        <time>2019-12-15T11:52:22.000Z</time>
      </trkpt>
      <trkpt lat="47.25574" lon="-1.72159">
        <ele>9.73</ele>
        <time>2019-12-15T11:52:27.000Z</time>
      </trkpt>
      <trkpt lat="47.25591" lon="-1.72152">
        <ele>6.22</ele>
        <time>2019-12-15T11:52:31.000Z</time>
      </trkpt>
      <trkpt lat="47.2561" lon="-1.72146">
        <ele>5.26</ele>
        <time>2019-12-15T11:52:35.000Z</time>
      </trkpt>
      <trkpt lat="47.25631" lon="-1.72138">
        <ele>6.18</ele>
        <time>2019-12-15T11:52:40.000Z</time>
      </trkpt>
      <trkpt lat="47.25649" lon="-1.72131">
        <ele>6.84</ele>
        <time>2019-12-15T11:52:44.000Z</time>
      </trkpt>
      <trkpt lat="47.25671" lon="-1.72124">
        <ele>8.42</ele>
        <time>2019-12-15T11:52:49.000Z</time>
      </trkpt>
      <trkpt lat="47.25692" lon="-1.72115">
        <ele>10.49</ele>
        <time>2019-12-15T11:52:54.000Z</time>
      </trkpt>
      <trkpt lat="47.2571" lon="-1.72107">
        <ele>10.76</ele>
        <time>2019-12-15T11:52:58.000Z</time>
      </trkpt>
      <trkpt lat="47.25727" lon="-1.72097">
        <ele>11.76</ele>
        <time>2019-12-15T11:53:02.000Z</time>
      </trkpt>
      <trkpt lat="47.25745" lon="-1.72085">
        <ele>13.14</ele>
        <time>2019-12-15T11:53:06.000Z</time>
      </trkpt>
      <trkpt lat="47.25763" lon="-1.72072">
        <ele>12.92</ele>
        <time>2019-12-15T11:53:10.000Z</time>
      </trkpt>
      <trkpt lat="47.25781" lon="-1.72059">
        <ele>12.4</ele>
        <time>2019-12-15T11:53:14.000Z</time>
      </trkpt>
      <trkpt lat="47.25799" lon="-1.72045">
        <ele>13.71</ele>
        <time>2019-12-15T11:53:18.000Z</time>
      </trkpt>
      <trkpt lat="47.25817" lon="-1.72033">
        <ele>15.26</ele>
        <time>2019-12-15T11:53:22.000Z</time>
      </trkpt>
      <trkpt lat="47.25834" lon="-1.72019">
        <ele>16.25</ele>
        <time>2019-12-15T11:53:26.000Z</time>
      </trkpt>
      <trkpt lat="47.25853" lon="-1.72006">
        <ele>17.51</ele>
        <time>2019-12-15T11:53:30.000Z</time>
      </trkpt>
      <trkpt lat="47.25872" lon="-1.71992">
        <ele>18.35</ele>
        <time>2019-12-15T11:53:34.000Z</time>
      </trkpt>
      <trkpt lat="47.25893" lon="-1.71978">
        <ele>19.41</ele>
        <time>2019-12-15T11:53:38.000Z</time>
      </trkpt>
      <trkpt lat="47.25913" lon="-1.71964">
        <ele>18.88</ele>
        <time>2019-12-15T11:53:42.000Z</time>
      </trkpt>
      <trkpt lat="47.25932" lon="-1.71949">
        <ele>18.69</ele>
        <time>2019-12-15T11:53:46.000Z</time>
      </trkpt>
      <trkpt lat="47.25952" lon="-1.71937">
        <ele>19.26</ele>
        <time>2019-12-15T11:53:50.000Z</time>
      </trkpt>
      <trkpt lat="47.2597" lon="-1.71923">
        <ele>20.93</ele>
        <time>2019-12-15T11:53:54.000Z</time>
      </trkpt>
      <trkpt lat="47.25987" lon="-1.71909">
        <ele>22.26</ele>
        <time>2019-12-15T11:53:58.000Z</time>
      </trkpt>
      <trkpt lat="47.26004" lon="-1.71895">
        <ele>23.37</ele>
        <time>2019-12-15T11:54:02.000Z</time>
      </trkpt>
      <trkpt lat="47.26023" lon="-1.71881">
        <ele>23.9</ele>
        <time>2019-12-15T11:54:06.000Z</time>
      </trkpt>
      <trkpt lat="47.26042" lon="-1.71866">
        <ele>24.31</ele>
        <time>2019-12-15T11:54:10.000Z</time>
      </trkpt>
      <trkpt lat="47.26061" lon="-1.71852">
        <ele>25.59</ele>
        <time>2019-12-15T11:54:14.000Z</time>
      </trkpt>
      <trkpt lat="47.26081" lon="-1.71838">
        <ele>25.63</ele>
        <time>2019-12-15T11:54:18.000Z</time>
      </trkpt>
      <trkpt lat="47.26099" lon="-1.71824">
        <ele>25.56</ele>
        <time>2019-12-15T11:54:22.000Z</time>
      </trkpt>
      <trkpt lat="47.26119" lon="-1.71809">
        <ele>25.32</ele>
        <time>2019-12-15T11:54:26.000Z</time>
      </trkpt>
      <trkpt lat="47.2614" lon="-1.71794">
        <ele>24.48</ele>
        <time>2019-12-15T11:54:30.000Z</time>
      </trkpt>
      <trkpt lat="47.26158" lon="-1.7178">
        <ele>24.45</ele>
        <time>2019-12-15T11:54:34.000Z</time>
      </trkpt>
      <trkpt lat="47.26175" lon="-1.71769">
        <ele>23.84</ele>
        <time>2019-12-15T11:54:38.000Z</time>
      </trkpt>
      <trkpt lat="47.26175" lon="-1.71742">
        <ele>25.01</ele>
        <time>2019-12-15T11:54:42.000Z</time>
      </trkpt>
      <trkpt lat="47.26163" lon="-1.71715">
        <ele>26.58</ele>
        <time>2019-12-15T11:54:46.000Z</time>
      </trkpt>
      <trkpt lat="47.26152" lon="-1.71687">
        <ele>27.3</ele>
        <time>2019-12-15T11:54:50.000Z</time>
      </trkpt>
      <trkpt lat="47.26141" lon="-1.71658">
        <ele>27.34</ele>
        <time>2019-12-15T11:54:54.000Z</time>
      </trkpt>
      <trkpt lat="47.26132" lon="-1.71629">
        <ele>29.09</ele>
        <time>2019-12-15T11:54:58.000Z</time>
      </trkpt>
      <trkpt lat="47.26128" lon="-1.71597">
        <ele>30.26</ele>
        <time>2019-12-15T11:55:02.000Z</time>
      </trkpt>
      <trkpt lat="47.26138" lon="-1.71566">
        <ele>29.11</ele>
        <time>2019-12-15T11:55:06.000Z</time>
      </trkpt>
      <trkpt lat="47.26151" lon="-1.71547">
        <ele>27.89</ele>
        <time>2019-12-15T11:55:09.000Z</time>
      </trkpt>
      <trkpt lat="47.2617" lon="-1.71525">
        <ele>28.04</ele>
        <time>2019-12-15T11:55:13.000Z</time>
      </trkpt>
      <trkpt lat="47.26184" lon="-1.71508">
        <ele>27.23</ele>
        <time>2019-12-15T11:55:16.000Z</time>
      </trkpt>
      <trkpt lat="47.26199" lon="-1.71486">
        <ele>24.63</ele>
        <time>2019-12-15T11:55:19.000Z</time>
      </trkpt>
      <trkpt lat="47.26213" lon="-1.71458">
        <ele>22.28</ele>
        <time>2019-12-15T11:55:22.000Z</time>
      </trkpt>
      <trkpt lat="47.26222" lon="-1.71424">
        <ele>21.02</ele>
        <time>2019-12-15T11:55:25.000Z</time>
      </trkpt>
      <trkpt lat="47.26227" lon="-1.71398">
        <ele>18.81</ele>
        <time>2019-12-15T11:55:27.000Z</time>
      </trkpt>
      <trkpt lat="47.26229" lon="-1.71367">
        <ele>16.52</ele>
        <time>2019-12-15T11:55:29.000Z</time>
      </trkpt>
      <trkpt lat="47.26234" lon="-1.71338">
        <ele>15.5</ele>
        <time>2019-12-15T11:55:31.000Z</time>
      </trkpt>
      <trkpt lat="47.26239" lon="-1.71308">
        <ele>15.21</ele>
        <time>2019-12-15T11:55:33.000Z</time>
      </trkpt>
      <trkpt lat="47.26244" lon="-1.71278">
        <ele>14.43</ele>
        <time>2019-12-15T11:55:35.000Z</time>
      </trkpt>
      <trkpt lat="47.2625" lon="-1.7125">
        <ele>14.63</ele>
        <time>2019-12-15T11:55:37.000Z</time>
      </trkpt>
      <trkpt lat="47.26255" lon="-1.71222">
        <ele>14.1</ele>
        <time>2019-12-15T11:55:39.000Z</time>
      </trkpt>
      <trkpt lat="47.26261" lon="-1.71196">
        <ele>13.83</ele>
        <time>2019-12-15T11:55:41.000Z</time>
      </trkpt>
      <trkpt lat="47.26265" lon="-1.7117">
        <ele>12.84</ele>
        <time>2019-12-15T11:55:43.000Z</time>
      </trkpt>
      <trkpt lat="47.26271" lon="-1.71135">
        <ele>11.99</ele>
        <time>2019-12-15T11:55:46.000Z</time>
      </trkpt>
      <trkpt lat="47.26276" lon="-1.71098">
        <ele>11.46</ele>
        <time>2019-12-15T11:55:49.000Z</time>
      </trkpt>
      <trkpt lat="47.26282" lon="-1.71062">
        <ele>10.37</ele>
        <time>2019-12-15T11:55:52.000Z</time>
      </trkpt>
      <trkpt lat="47.26289" lon="-1.71026">
        <ele>8</ele>
        <time>2019-12-15T11:55:55.000Z</time>
      </trkpt>
      <trkpt lat="47.26295" lon="-1.70991">
        <ele>7.38</ele>
        <time>2019-12-15T11:55:58.000Z</time>
      </trkpt>
      <trkpt lat="47.263" lon="-1.70957">
        <ele>7.05</ele>
        <time>2019-12-15T11:56:01.000Z</time>
      </trkpt>
      <trkpt lat="47.26306" lon="-1.70924">
        <ele>6.87</ele>
        <time>2019-12-15T11:56:04.000Z</time>
      </trkpt>
      <trkpt lat="47.26311" lon="-1.70892">
        <ele>6.94</ele>
        <time>2019-12-15T11:56:07.000Z</time>
      </trkpt>
      <trkpt lat="47.26317" lon="-1.7086">
        <ele>7.06</ele>
        <time>2019-12-15T11:56:10.000Z</time>
      </trkpt>
      <trkpt lat="47.26322" lon="-1.70829">
        <ele>7.06</ele>
        <time>2019-12-15T11:56:13.000Z</time>
      </trkpt>
      <trkpt lat="47.26327" lon="-1.70796">
        <ele>6.55</ele>
        <time>2019-12-15T11:56:16.000Z</time>
      </trkpt>
      <trkpt lat="47.2633" lon="-1.70761">
        <ele>6.15</ele>
        <time>2019-12-15T11:56:19.000Z</time>
      </trkpt>
      <trkpt lat="47.26329" lon="-1.70727">
        <ele>6</ele>
        <time>2019-12-15T11:56:22.000Z</time>
      </trkpt>
      <trkpt lat="47.26324" lon="-1.70696">
        <ele>5.99</ele>
        <time>2019-12-15T11:56:25.000Z</time>
      </trkpt>
      <trkpt lat="47.26318" lon="-1.70664">
        <ele>7.36</ele>
        <time>2019-12-15T11:56:29.000Z</time>
      </trkpt>
      <trkpt lat="47.26311" lon="-1.70634">
        <ele>10.47</ele>
        <time>2019-12-15T11:56:33.000Z</time>
      </trkpt>
      <trkpt lat="47.26305" lon="-1.70606">
        <ele>14.71</ele>
        <time>2019-12-15T11:56:37.000Z</time>
      </trkpt>
      <trkpt lat="47.26299" lon="-1.70576">
        <ele>16.36</ele>
        <time>2019-12-15T11:56:41.000Z</time>
      </trkpt>
      <trkpt lat="47.26292" lon="-1.70546">
        <ele>16.67</ele>
        <time>2019-12-15T11:56:45.000Z</time>
      </trkpt>
      <trkpt lat="47.26285" lon="-1.70521">
        <ele>15.9</ele>
        <time>2019-12-15T11:56:48.000Z</time>
      </trkpt>
      <trkpt lat="47.26276" lon="-1.70497">
        <ele>15.67</ele>
        <time>2019-12-15T11:56:51.000Z</time>
      </trkpt>
      <trkpt lat="47.26266" lon="-1.70474">
        <ele>15.38</ele>
        <time>2019-12-15T11:56:54.000Z</time>
      </trkpt>
      <trkpt lat="47.26252" lon="-1.70446">
        <ele>16.31</ele>
        <time>2019-12-15T11:56:58.000Z</time>
      </trkpt>
      <trkpt lat="47.26239" lon="-1.70421">
        <ele>17.19</ele>
        <time>2019-12-15T11:57:02.000Z</time>
      </trkpt>
      <trkpt lat="47.26228" lon="-1.70398">
        <ele>18.16</ele>
        <time>2019-12-15T11:57:06.000Z</time>
      </trkpt>
      <trkpt lat="47.26217" lon="-1.70376">
        <ele>16.58</ele>
        <time>2019-12-15T11:57:10.000Z</time>
      </trkpt>
      <trkpt lat="47.26199" lon="-1.7038">
        <ele>16.49</ele>
        <time>2019-12-15T11:57:14.000Z</time>
      </trkpt>
      <trkpt lat="47.26182" lon="-1.70394">
        <ele>15.94</ele>
        <time>2019-12-15T11:57:17.000Z</time>
      </trkpt>
      <trkpt lat="47.26166" lon="-1.70409">
        <ele>15.86</ele>
        <time>2019-12-15T11:57:20.000Z</time>
      </trkpt>
      <trkpt lat="47.26148" lon="-1.70423">
        <ele>15.01</ele>
        <time>2019-12-15T11:57:23.000Z</time>
      </trkpt>
      <trkpt lat="47.2613" lon="-1.70439">
        <ele>13.77</ele>
        <time>2019-12-15T11:57:26.000Z</time>
      </trkpt>
      <trkpt lat="47.2611" lon="-1.70456">
        <ele>12.22</ele>
        <time>2019-12-15T11:57:29.000Z</time>
      </trkpt>
      <trkpt lat="47.26088" lon="-1.70473">
        <ele>9.69</ele>
        <time>2019-12-15T11:57:32.000Z</time>
      </trkpt>
      <trkpt lat="47.26066" lon="-1.70491">
        <ele>7.53</ele>
        <time>2019-12-15T11:57:35.000Z</time>
      </trkpt>
      <trkpt lat="47.26045" lon="-1.70507">
        <ele>6.24</ele>
        <time>2019-12-15T11:57:38.000Z</time>
      </trkpt>
      <trkpt lat="47.26028" lon="-1.70521">
        <ele>4.61</ele>
        <time>2019-12-15T11:57:41.000Z</time>
      </trkpt>
      <trkpt lat="47.26012" lon="-1.70535">
        <ele>4.78</ele>
        <time>2019-12-15T11:57:44.000Z</time>
      </trkpt>
      <trkpt lat="47.25996" lon="-1.70549">
        <ele>5.34</ele>
        <time>2019-12-15T11:57:47.000Z</time>
      </trkpt>
      <trkpt lat="47.25977" lon="-1.70566">
        <ele>4.81</ele>
        <time>2019-12-15T11:57:51.000Z</time>
      </trkpt>
      <trkpt lat="47.2596" lon="-1.70583">
        <ele>4.43</ele>
        <time>2019-12-15T11:57:55.000Z</time>
      </trkpt>
      <trkpt lat="47.25944" lon="-1.70601">
        <ele>4.09</ele>
        <time>2019-12-15T11:57:59.000Z</time>
      </trkpt>
      <trkpt lat="47.25929" lon="-1.70617">
        <ele>4.1</ele>
        <time>2019-12-15T11:58:03.000Z</time>
      </trkpt>
      <trkpt lat="47.25913" lon="-1.7064">
        <ele>5.56</ele>
        <time>2019-12-15T11:58:08.000Z</time>
      </trkpt>
      <trkpt lat="47.25897" lon="-1.70658">
        <ele>6.55</ele>
        <time>2019-12-15T11:58:12.000Z</time>
      </trkpt>
      <trkpt lat="47.25879" lon="-1.70675">
        <ele>7.88</ele>
        <time>2019-12-15T11:58:16.000Z</time>
      </trkpt>
      <trkpt lat="47.25859" lon="-1.70691">
        <ele>9.14</ele>
        <time>2019-12-15T11:58:20.000Z</time>
      </trkpt>
      <trkpt lat="47.2584" lon="-1.70708">
        <ele>9.56</ele>
        <time>2019-12-15T11:58:24.000Z</time>
      </trkpt>
      <trkpt lat="47.25821" lon="-1.70724">
        <ele>10.97</ele>
        <time>2019-12-15T11:58:28.000Z</time>
      </trkpt>
      <trkpt lat="47.25802" lon="-1.7074">
        <ele>11.14</ele>
        <time>2019-12-15T11:58:32.000Z</time>
      </trkpt>
      <trkpt lat="47.25782" lon="-1.70753">
        <ele>10.26</ele>
        <time>2019-12-15T11:58:36.000Z</time>
      </trkpt>
      <trkpt lat="47.2576" lon="-1.7076">
        <ele>11.04</ele>
        <time>2019-12-15T11:58:40.000Z</time>
      </trkpt>
      <trkpt lat="47.25738" lon="-1.70759">
        <ele>12.57</ele>
        <time>2019-12-15T11:58:44.000Z</time>
      </trkpt>
      <trkpt lat="47.25715" lon="-1.70758">
        <ele>13.93</ele>
        <time>2019-12-15T11:58:48.000Z</time>
      </trkpt>
      <trkpt lat="47.25692" lon="-1.70756">
        <ele>15.03</ele>
        <time>2019-12-15T11:58:52.000Z</time>
      </trkpt>
      <trkpt lat="47.25669" lon="-1.70755">
        <ele>16.83</ele>
        <time>2019-12-15T11:58:56.000Z</time>
      </trkpt>
      <trkpt lat="47.25647" lon="-1.70753">
        <ele>18.72</ele>
        <time>2019-12-15T11:59:00.000Z</time>
      </trkpt>
      <trkpt lat="47.25625" lon="-1.70751">
        <ele>19.04</ele>
        <time>2019-12-15T11:59:04.000Z</time>
      </trkpt>
      <trkpt lat="47.25607" lon="-1.70748">
        <ele>19.07</ele>
        <time>2019-12-15T11:59:07.000Z</time>
      </trkpt>
      <trkpt lat="47.25589" lon="-1.70746">
        <ele>19.22</ele>
        <time>2019-12-15T11:59:10.000Z</time>
      </trkpt>
      <trkpt lat="47.25565" lon="-1.70744">
        <ele>20.06</ele>
        <time>2019-12-15T11:59:14.000Z</time>
      </trkpt>
      <trkpt lat="47.25542" lon="-1.70742">
        <ele>18.5</ele>
        <time>2019-12-15T11:59:18.000Z</time>
      </trkpt>
      <trkpt lat="47.25518" lon="-1.70743">
        <ele>17.17</ele>
        <time>2019-12-15T11:59:22.000Z</time>
      </trkpt>
      <trkpt lat="47.25499" lon="-1.70742">
        <ele>17.16</ele>
        <time>2019-12-15T11:59:25.000Z</time>
      </trkpt>
      <trkpt lat="47.25481" lon="-1.7074">
        <ele>17.13</ele>
        <time>2019-12-15T11:59:28.000Z</time>
      </trkpt>
      <trkpt lat="47.25462" lon="-1.70739">
        <ele>17.7</ele>
        <time>2019-12-15T11:59:31.000Z</time>
      </trkpt>
      <trkpt lat="47.25443" lon="-1.70738">
        <ele>17.98</ele>
        <time>2019-12-15T11:59:34.000Z</time>
      </trkpt>
      <trkpt lat="47.25421" lon="-1.70738">
        <ele>18.23</ele>
        <time>2019-12-15T11:59:38.000Z</time>
      </trkpt>
      <trkpt lat="47.25403" lon="-1.70739">
        <ele>18.21</ele>
        <time>2019-12-15T11:59:41.000Z</time>
      </trkpt>
      <trkpt lat="47.25385" lon="-1.70741">
        <ele>17.73</ele>
        <time>2019-12-15T11:59:44.000Z</time>
      </trkpt>
      <trkpt lat="47.25365" lon="-1.70744">
        <ele>18.19</ele>
        <time>2019-12-15T11:59:47.000Z</time>
      </trkpt>
      <trkpt lat="47.25345" lon="-1.70746">
        <ele>19.11</ele>
        <time>2019-12-15T11:59:50.000Z</time>
      </trkpt>
      <trkpt lat="47.25325" lon="-1.70747">
        <ele>18.98</ele>
        <time>2019-12-15T11:59:53.000Z</time>
      </trkpt>
      <trkpt lat="47.25304" lon="-1.70751">
        <ele>18.52</ele>
        <time>2019-12-15T11:59:56.000Z</time>
      </trkpt>
      <trkpt lat="47.25283" lon="-1.70755">
        <ele>18.07</ele>
        <time>2019-12-15T11:59:59.000Z</time>
      </trkpt>
      <trkpt lat="47.25264" lon="-1.70761">
        <ele>18.42</ele>
        <time>2019-12-15T12:00:02.000Z</time>
      </trkpt>
      <trkpt lat="47.25246" lon="-1.7077">
        <ele>17.96</ele>
        <time>2019-12-15T12:00:05.000Z</time>
      </trkpt>
      <trkpt lat="47.25229" lon="-1.70781">
        <ele>17.84</ele>
        <time>2019-12-15T12:00:08.000Z</time>
      </trkpt>
      <trkpt lat="47.25208" lon="-1.70794">
        <ele>17.03</ele>
        <time>2019-12-15T12:00:12.000Z</time>
      </trkpt>
      <trkpt lat="47.25189" lon="-1.70794">
        <ele>16.57</ele>
        <time>2019-12-15T12:00:16.000Z</time>
      </trkpt>
      <trkpt lat="47.2517" lon="-1.70788">
        <ele>16.05</ele>
        <time>2019-12-15T12:00:19.000Z</time>
      </trkpt>
      <trkpt lat="47.2515" lon="-1.70779">
        <ele>15.89</ele>
        <time>2019-12-15T12:00:22.000Z</time>
      </trkpt>
      <trkpt lat="47.2513" lon="-1.7077">
        <ele>15.26</ele>
        <time>2019-12-15T12:00:25.000Z</time>
      </trkpt>
      <trkpt lat="47.2511" lon="-1.70761">
        <ele>15.11</ele>
        <time>2019-12-15T12:00:28.000Z</time>
      </trkpt>
      <trkpt lat="47.25087" lon="-1.70752">
        <ele>15.32</ele>
        <time>2019-12-15T12:00:31.000Z</time>
      </trkpt>
      <trkpt lat="47.25061" lon="-1.70741">
        <ele>15.11</ele>
        <time>2019-12-15T12:00:34.000Z</time>
      </trkpt>
      <trkpt lat="47.25036" lon="-1.7073">
        <ele>14.32</ele>
        <time>2019-12-15T12:00:37.000Z</time>
      </trkpt>
      <trkpt lat="47.25018" lon="-1.70723">
        <ele>13.14</ele>
        <time>2019-12-15T12:00:39.000Z</time>
      </trkpt>
      <trkpt lat="47.25001" lon="-1.70717">
        <ele>11.94</ele>
        <time>2019-12-15T12:00:41.000Z</time>
      </trkpt>
      <trkpt lat="47.24983" lon="-1.70709">
        <ele>11.3</ele>
        <time>2019-12-15T12:00:43.000Z</time>
      </trkpt>
      <trkpt lat="47.24962" lon="-1.70701">
        <ele>9.65</ele>
        <time>2019-12-15T12:00:45.000Z</time>
      </trkpt>
      <trkpt lat="47.24941" lon="-1.70694">
        <ele>6.65</ele>
        <time>2019-12-15T12:00:47.000Z</time>
      </trkpt>
      <trkpt lat="47.24924" lon="-1.70687">
        <ele>4.02</ele>
        <time>2019-12-15T12:00:49.000Z</time>
      </trkpt>
      <trkpt lat="47.24906" lon="-1.70675">
        <ele>2.51</ele>
        <time>2019-12-15T12:00:51.000Z</time>
      </trkpt>
      <trkpt lat="47.24887" lon="-1.70668">
        <ele>0.42</ele>
        <time>2019-12-15T12:00:53.000Z</time>
      </trkpt>
      <trkpt lat="47.24868" lon="-1.7066">
        <ele>0.03</ele>
        <time>2019-12-15T12:00:55.000Z</time>
      </trkpt>
      <trkpt lat="47.2485" lon="-1.70652">
        <ele>-0.11</ele>
        <time>2019-12-15T12:00:57.000Z</time>
      </trkpt>
      <trkpt lat="47.24825" lon="-1.7064">
        <ele>-1.27</ele>
        <time>2019-12-15T12:01:00.000Z</time>
      </trkpt>
      <trkpt lat="47.24799" lon="-1.70629">
        <ele>-3.12</ele>
        <time>2019-12-15T12:01:03.000Z</time>
      </trkpt>
      <trkpt lat="47.24774" lon="-1.70618">
        <ele>-4.64</ele>
        <time>2019-12-15T12:01:06.000Z</time>
      </trkpt>
      <trkpt lat="47.24755" lon="-1.70608">
        <ele>-4.81</ele>
        <time>2019-12-15T12:01:09.000Z</time>
      </trkpt>
      <trkpt lat="47.24732" lon="-1.70604">
        <ele>-3.26</ele>
        <time>2019-12-15T12:01:13.000Z</time>
      </trkpt>
      <trkpt lat="47.24714" lon="-1.70602">
        <ele>-3.57</ele>
        <time>2019-12-15T12:01:16.000Z</time>
      </trkpt>
      <trkpt lat="47.24696" lon="-1.70607">
        <ele>-3.15</ele>
        <time>2019-12-15T12:01:19.000Z</time>
      </trkpt>
      <trkpt lat="47.24678" lon="-1.70616">
        <ele>-2.77</ele>
        <time>2019-12-15T12:01:22.000Z</time>
      </trkpt>
      <trkpt lat="47.24662" lon="-1.7063">
        <ele>-3.04</ele>
        <time>2019-12-15T12:01:25.000Z</time>
      </trkpt>
      <trkpt lat="47.24646" lon="-1.70644">
        <ele>-3.82</ele>
        <time>2019-12-15T12:01:28.000Z</time>
      </trkpt>
      <trkpt lat="47.24628" lon="-1.7066">
        <ele>-4.72</ele>
        <time>2019-12-15T12:01:31.000Z</time>
      </trkpt>
      <trkpt lat="47.24609" lon="-1.70674">
        <ele>-4.32</ele>
        <time>2019-12-15T12:01:34.000Z</time>
      </trkpt>
      <trkpt lat="47.2459" lon="-1.70685">
        <ele>-4.34</ele>
        <time>2019-12-15T12:01:37.000Z</time>
      </trkpt>
      <trkpt lat="47.24571" lon="-1.70696">
        <ele>-5.68</ele>
        <time>2019-12-15T12:01:40.000Z</time>
      </trkpt>
      <trkpt lat="47.24553" lon="-1.70707">
        <ele>-7.19</ele>
        <time>2019-12-15T12:01:43.000Z</time>
      </trkpt>
      <trkpt lat="47.24535" lon="-1.70717">
        <ele>-8.66</ele>
        <time>2019-12-15T12:01:46.000Z</time>
      </trkpt>
      <trkpt lat="47.24514" lon="-1.70727">
        <ele>-9.24</ele>
        <time>2019-12-15T12:01:50.000Z</time>
      </trkpt>
      <trkpt lat="47.24506" lon="-1.70699">
        <ele>-6.95</ele>
        <time>2019-12-15T12:01:55.000Z</time>
      </trkpt>
      <trkpt lat="47.24505" lon="-1.70668">
        <ele>-5.36</ele>
        <time>2019-12-15T12:01:59.000Z</time>
      </trkpt>
      <trkpt lat="47.24505" lon="-1.70634">
        <ele>-4.65</ele>
        <time>2019-12-15T12:02:03.000Z</time>
      </trkpt>
      <trkpt lat="47.24505" lon="-1.70606">
        <ele>-4.91</ele>
        <time>2019-12-15T12:02:06.000Z</time>
      </trkpt>
      <trkpt lat="47.24505" lon="-1.70579">
        <ele>-5.22</ele>
        <time>2019-12-15T12:02:09.000Z</time>
      </trkpt>
      <trkpt lat="47.24506" lon="-1.70544">
        <ele>-4.83</ele>
        <time>2019-12-15T12:02:13.000Z</time>
      </trkpt>
      <trkpt lat="47.24507" lon="-1.70517">
        <ele>-4.17</ele>
        <time>2019-12-15T12:02:16.000Z</time>
      </trkpt>
      <trkpt lat="47.24508" lon="-1.70489">
        <ele>-2.84</ele>
        <time>2019-12-15T12:02:19.000Z</time>
      </trkpt>
      <trkpt lat="47.24508" lon="-1.70461">
        <ele>-2.25</ele>
        <time>2019-12-15T12:02:22.000Z</time>
      </trkpt>
      <trkpt lat="47.24509" lon="-1.70433">
        <ele>-3.24</ele>
        <time>2019-12-15T12:02:25.000Z</time>
      </trkpt>
      <trkpt lat="47.24509" lon="-1.70405">
        <ele>-4.09</ele>
        <time>2019-12-15T12:02:28.000Z</time>
      </trkpt>
      <trkpt lat="47.24509" lon="-1.70377">
        <ele>-3.96</ele>
        <time>2019-12-15T12:02:31.000Z</time>
      </trkpt>
      <trkpt lat="47.2451" lon="-1.70348">
        <ele>-3.28</ele>
        <time>2019-12-15T12:02:34.000Z</time>
      </trkpt>
      <trkpt lat="47.24511" lon="-1.70318">
        <ele>-3.74</ele>
        <time>2019-12-15T12:02:37.000Z</time>
      </trkpt>
      <trkpt lat="47.2451" lon="-1.70289">
        <ele>-2.6</ele>
        <time>2019-12-15T12:02:40.000Z</time>
      </trkpt>
      <trkpt lat="47.24508" lon="-1.70257">
        <ele>-2.33</ele>
        <time>2019-12-15T12:02:43.000Z</time>
      </trkpt>
      <trkpt lat="47.24507" lon="-1.70227">
        <ele>-1.74</ele>
        <time>2019-12-15T12:02:46.000Z</time>
      </trkpt>
      <trkpt lat="47.24505" lon="-1.70197">
        <ele>-1.18</ele>
        <time>2019-12-15T12:02:49.000Z</time>
      </trkpt>
      <trkpt lat="47.24504" lon="-1.70166">
        <ele>-0.77</ele>
        <time>2019-12-15T12:02:52.000Z</time>
      </trkpt>
      <trkpt lat="47.24502" lon="-1.70136">
        <ele>-0.51</ele>
        <time>2019-12-15T12:02:55.000Z</time>
      </trkpt>
      <trkpt lat="47.245" lon="-1.70107">
        <ele>-0.64</ele>
        <time>2019-12-15T12:02:58.000Z</time>
      </trkpt>
      <trkpt lat="47.24498" lon="-1.70077">
        <ele>-0.44</ele>
        <time>2019-12-15T12:03:01.000Z</time>
      </trkpt>
      <trkpt lat="47.24497" lon="-1.70047">
        <ele>-0.21</ele>
        <time>2019-12-15T12:03:04.000Z</time>
      </trkpt>
      <trkpt lat="47.24495" lon="-1.70018">
        <ele>0.15</ele>
        <time>2019-12-15T12:03:07.000Z</time>
      </trkpt>
      <trkpt lat="47.24494" lon="-1.69989">
        <ele>0.39</ele>
        <time>2019-12-15T12:03:10.000Z</time>
      </trkpt>
      <trkpt lat="47.24493" lon="-1.69961">
        <ele>0.87</ele>
        <time>2019-12-15T12:03:13.000Z</time>
      </trkpt>
      <trkpt lat="47.24491" lon="-1.69933">
        <ele>1.35</ele>
        <time>2019-12-15T12:03:16.000Z</time>
      </trkpt>
      <trkpt lat="47.24489" lon="-1.69905">
        <ele>1.92</ele>
        <time>2019-12-15T12:03:19.000Z</time>
      </trkpt>
      <trkpt lat="47.24487" lon="-1.69876">
        <ele>1.35</ele>
        <time>2019-12-15T12:03:22.000Z</time>
      </trkpt>
      <trkpt lat="47.24485" lon="-1.69848">
        <ele>1.71</ele>
        <time>2019-12-15T12:03:25.000Z</time>
      </trkpt>
      <trkpt lat="47.24484" lon="-1.69821">
        <ele>2.46</ele>
        <time>2019-12-15T12:03:28.000Z</time>
      </trkpt>
      <trkpt lat="47.24482" lon="-1.69794">
        <ele>2.43</ele>
        <time>2019-12-15T12:03:31.000Z</time>
      </trkpt>
      <trkpt lat="47.24482" lon="-1.69767">
        <ele>2.4</ele>
        <time>2019-12-15T12:03:34.000Z</time>
      </trkpt>
      <trkpt lat="47.24481" lon="-1.69733">
        <ele>2.79</ele>
        <time>2019-12-15T12:03:38.000Z</time>
      </trkpt>
      <trkpt lat="47.2448" lon="-1.69698">
        <ele>2.6</ele>
        <time>2019-12-15T12:03:42.000Z</time>
      </trkpt>
      <trkpt lat="47.24478" lon="-1.69671">
        <ele>2.14</ele>
        <time>2019-12-15T12:03:45.000Z</time>
      </trkpt>
      <trkpt lat="47.24475" lon="-1.69644">
        <ele>1.43</ele>
        <time>2019-12-15T12:03:48.000Z</time>
      </trkpt>
      <trkpt lat="47.24474" lon="-1.69609">
        <ele>1.17</ele>
        <time>2019-12-15T12:03:52.000Z</time>
      </trkpt>
      <trkpt lat="47.24473" lon="-1.69574">
        <ele>0.89</ele>
        <time>2019-12-15T12:03:56.000Z</time>
      </trkpt>
      <trkpt lat="47.24471" lon="-1.69547">
        <ele>1.34</ele>
        <time>2019-12-15T12:03:59.000Z</time>
      </trkpt>
      <trkpt lat="47.2447" lon="-1.69519">
        <ele>1.48</ele>
        <time>2019-12-15T12:04:02.000Z</time>
      </trkpt>
      <trkpt lat="47.24468" lon="-1.6949">
        <ele>1.32</ele>
        <time>2019-12-15T12:04:05.000Z</time>
      </trkpt>
      <trkpt lat="47.24468" lon="-1.6946">
        <ele>2.38</ele>
        <time>2019-12-15T12:04:08.000Z</time>
      </trkpt>
      <trkpt lat="47.24467" lon="-1.69431">
        <ele>2.76</ele>
        <time>2019-12-15T12:04:11.000Z</time>
      </trkpt>
      <trkpt lat="47.24466" lon="-1.69401">
        <ele>2.5</ele>
        <time>2019-12-15T12:04:14.000Z</time>
      </trkpt>
      <trkpt lat="47.24465" lon="-1.69372">
        <ele>1.69</ele>
        <time>2019-12-15T12:04:17.000Z</time>
      </trkpt>
      <trkpt lat="47.24464" lon="-1.69343">
        <ele>2.47</ele>
        <time>2019-12-15T12:04:20.000Z</time>
      </trkpt>
      <trkpt lat="47.24464" lon="-1.69302">
        <ele>4.1</ele>
        <time>2019-12-15T12:04:24.000Z</time>
      </trkpt>
      <trkpt lat="47.24465" lon="-1.69273">
        <ele>6.54</ele>
        <time>2019-12-15T12:04:27.000Z</time>
      </trkpt>
      <trkpt lat="47.24466" lon="-1.69244">
        <ele>7.04</ele>
        <time>2019-12-15T12:04:30.000Z</time>
      </trkpt>
      <trkpt lat="47.24468" lon="-1.69217">
        <ele>7.28</ele>
        <time>2019-12-15T12:04:33.000Z</time>
      </trkpt>
      <trkpt lat="47.24469" lon="-1.69182">
        <ele>8.47</ele>
        <time>2019-12-15T12:04:37.000Z</time>
      </trkpt>
      <trkpt lat="47.24471" lon="-1.69149">
        <ele>9.24</ele>
        <time>2019-12-15T12:04:41.000Z</time>
      </trkpt>
      <trkpt lat="47.2447" lon="-1.69118">
        <ele>9.72</ele>
        <time>2019-12-15T12:04:45.000Z</time>
      </trkpt>
      <trkpt lat="47.24491" lon="-1.6911">
        <ele>10.87</ele>
        <time>2019-12-15T12:04:50.000Z</time>
      </trkpt>
      <trkpt lat="47.24513" lon="-1.69109">
        <ele>10.65</ele>
        <time>2019-12-15T12:04:54.000Z</time>
      </trkpt>
      <trkpt lat="47.24532" lon="-1.69093">
        <ele>8.9</ele>
        <time>2019-12-15T12:04:58.000Z</time>
      </trkpt>
      <trkpt lat="47.24549" lon="-1.69074">
        <ele>9.08</ele>
        <time>2019-12-15T12:05:02.000Z</time>
      </trkpt>
      <trkpt lat="47.24568" lon="-1.69061">
        <ele>9.66</ele>
        <time>2019-12-15T12:05:06.000Z</time>
      </trkpt>
      <trkpt lat="47.24589" lon="-1.6905">
        <ele>10.77</ele>
        <time>2019-12-15T12:05:10.000Z</time>
      </trkpt>
      <trkpt lat="47.24611" lon="-1.69038">
        <ele>11.69</ele>
        <time>2019-12-15T12:05:14.000Z</time>
      </trkpt>
      <trkpt lat="47.24628" lon="-1.69031">
        <ele>12.23</ele>
        <time>2019-12-15T12:05:17.000Z</time>
      </trkpt>
      <trkpt lat="47.24646" lon="-1.69028">
        <ele>12.55</ele>
        <time>2019-12-15T12:05:20.000Z</time>
      </trkpt>
      <trkpt lat="47.24664" lon="-1.69032">
        <ele>12.33</ele>
        <time>2019-12-15T12:05:23.000Z</time>
      </trkpt>
      <trkpt lat="47.24646" lon="-1.69025">
        <ele>15.03</ele>
        <time>2019-12-15T12:05:34.000Z</time>
      </trkpt>
      <trkpt lat="47.24659" lon="-1.69006">
        <ele>14.71</ele>
        <time>2019-12-15T12:05:39.000Z</time>
      </trkpt>
      <trkpt lat="47.24675" lon="-1.68994">
        <ele>14.73</ele>
        <time>2019-12-15T12:05:43.000Z</time>
      </trkpt>
      <trkpt lat="47.24692" lon="-1.68983">
        <ele>14.8</ele>
        <time>2019-12-15T12:05:47.000Z</time>
      </trkpt>
      <trkpt lat="47.24711" lon="-1.68969">
        <ele>15.26</ele>
        <time>2019-12-15T12:05:51.000Z</time>
      </trkpt>
      <trkpt lat="47.24732" lon="-1.68954">
        <ele>15.8</ele>
        <time>2019-12-15T12:05:55.000Z</time>
      </trkpt>
      <trkpt lat="47.24751" lon="-1.68941">
        <ele>16.03</ele>
        <time>2019-12-15T12:05:59.000Z</time>
      </trkpt>
      <trkpt lat="47.24773" lon="-1.68926">
        <ele>15.85</ele>
        <time>2019-12-15T12:06:03.000Z</time>
      </trkpt>
      <trkpt lat="47.2479" lon="-1.68913">
        <ele>15.5</ele>
        <time>2019-12-15T12:06:06.000Z</time>
      </trkpt>
      <trkpt lat="47.24807" lon="-1.68901">
        <ele>15.38</ele>
        <time>2019-12-15T12:06:09.000Z</time>
      </trkpt>
      <trkpt lat="47.24825" lon="-1.68889">
        <ele>15.84</ele>
        <time>2019-12-15T12:06:12.000Z</time>
      </trkpt>
      <trkpt lat="47.24842" lon="-1.68879">
        <ele>16.71</ele>
        <time>2019-12-15T12:06:15.000Z</time>
      </trkpt>
      <trkpt lat="47.2486" lon="-1.68871">
        <ele>17.22</ele>
        <time>2019-12-15T12:06:18.000Z</time>
      </trkpt>
      <trkpt lat="47.24879" lon="-1.68867">
        <ele>17.69</ele>
        <time>2019-12-15T12:06:21.000Z</time>
      </trkpt>
      <trkpt lat="47.24899" lon="-1.68862">
        <ele>18.14</ele>
        <time>2019-12-15T12:06:24.000Z</time>
      </trkpt>
      <trkpt lat="47.24919" lon="-1.68858">
        <ele>18.63</ele>
        <time>2019-12-15T12:06:27.000Z</time>
      </trkpt>
      <trkpt lat="47.24939" lon="-1.68856">
        <ele>18.38</ele>
        <time>2019-12-15T12:06:30.000Z</time>
      </trkpt>
      <trkpt lat="47.24959" lon="-1.68852">
        <ele>17.21</ele>
        <time>2019-12-15T12:06:33.000Z</time>
      </trkpt>
      <trkpt lat="47.24978" lon="-1.68846">
        <ele>15.7</ele>
        <time>2019-12-15T12:06:36.000Z</time>
      </trkpt>
      <trkpt lat="47.24998" lon="-1.68835">
        <ele>14.48</ele>
        <time>2019-12-15T12:06:39.000Z</time>
      </trkpt>
      <trkpt lat="47.25018" lon="-1.68821">
        <ele>13.55</ele>
        <time>2019-12-15T12:06:42.000Z</time>
      </trkpt>
      <trkpt lat="47.25035" lon="-1.68806">
        <ele>13.03</ele>
        <time>2019-12-15T12:06:45.000Z</time>
      </trkpt>
      <trkpt lat="47.25053" lon="-1.68794">
        <ele>12.54</ele>
        <time>2019-12-15T12:06:48.000Z</time>
      </trkpt>
      <trkpt lat="47.25072" lon="-1.68786">
        <ele>11.32</ele>
        <time>2019-12-15T12:06:51.000Z</time>
      </trkpt>
      <trkpt lat="47.25091" lon="-1.68778">
        <ele>10.29</ele>
        <time>2019-12-15T12:06:54.000Z</time>
      </trkpt>
      <trkpt lat="47.25109" lon="-1.68769">
        <ele>10.57</ele>
        <time>2019-12-15T12:06:57.000Z</time>
      </trkpt>
      <trkpt lat="47.25125" lon="-1.68757">
        <ele>11.95</ele>
        <time>2019-12-15T12:07:00.000Z</time>
      </trkpt>
      <trkpt lat="47.25144" lon="-1.68741">
        <ele>13.51</ele>
        <time>2019-12-15T12:07:04.000Z</time>
      </trkpt>
      <trkpt lat="47.25167" lon="-1.68747">
        <ele>15.59</ele>
        <time>2019-12-15T12:07:08.000Z</time>
      </trkpt>
      <trkpt lat="47.25188" lon="-1.68761">
        <ele>14.97</ele>
        <time>2019-12-15T12:07:12.000Z</time>
      </trkpt>
      <trkpt lat="47.25209" lon="-1.6877">
        <ele>12.92</ele>
        <time>2019-12-15T12:07:16.000Z</time>
      </trkpt>
      <trkpt lat="47.25232" lon="-1.68774">
        <ele>11.34</ele>
        <time>2019-12-15T12:07:20.000Z</time>
      </trkpt>
      <trkpt lat="47.25253" lon="-1.68774">
        <ele>10.51</ele>
        <time>2019-12-15T12:07:23.000Z</time>
      </trkpt>
      <trkpt lat="47.25277" lon="-1.68779">
        <ele>9.58</ele>
        <time>2019-12-15T12:07:26.000Z</time>
      </trkpt>
      <trkpt lat="47.25296" lon="-1.68783">
        <ele>9.54</ele>
        <time>2019-12-15T12:07:28.000Z</time>
      </trkpt>
      <trkpt lat="47.25317" lon="-1.68793">
        <ele>9.36</ele>
        <time>2019-12-15T12:07:30.000Z</time>
      </trkpt>
      <trkpt lat="47.25337" lon="-1.68802">
        <ele>7.75</ele>
        <time>2019-12-15T12:07:32.000Z</time>
      </trkpt>
      <trkpt lat="47.25356" lon="-1.68809">
        <ele>6.07</ele>
        <time>2019-12-15T12:07:34.000Z</time>
      </trkpt>
      <trkpt lat="47.25375" lon="-1.6881">
        <ele>5.5</ele>
        <time>2019-12-15T12:07:36.000Z</time>
      </trkpt>
      <trkpt lat="47.25393" lon="-1.68806">
        <ele>4.89</ele>
        <time>2019-12-15T12:07:38.000Z</time>
      </trkpt>
      <trkpt lat="47.25412" lon="-1.68797">
        <ele>4.96</ele>
        <time>2019-12-15T12:07:40.000Z</time>
      </trkpt>
      <trkpt lat="47.25433" lon="-1.68792">
        <ele>4.18</ele>
        <time>2019-12-15T12:07:43.000Z</time>
      </trkpt>
      <trkpt lat="47.25448" lon="-1.68817">
        <ele>2.6</ele>
        <time>2019-12-15T12:07:47.000Z</time>
      </trkpt>
      <trkpt lat="47.2546" lon="-1.68847">
        <ele>1.91</ele>
        <time>2019-12-15T12:07:51.000Z</time>
      </trkpt>
      <trkpt lat="47.25475" lon="-1.68864">
        <ele>0.45</ele>
        <time>2019-12-15T12:07:54.000Z</time>
      </trkpt>
      <trkpt lat="47.25491" lon="-1.68879">
        <ele>-1.44</ele>
        <time>2019-12-15T12:07:57.000Z</time>
      </trkpt>
      <trkpt lat="47.25507" lon="-1.68897">
        <ele>-3.21</ele>
        <time>2019-12-15T12:08:00.000Z</time>
      </trkpt>
      <trkpt lat="47.25519" lon="-1.68921">
        <ele>-3.24</ele>
        <time>2019-12-15T12:08:03.000Z</time>
      </trkpt>
      <trkpt lat="47.25529" lon="-1.68943">
        <ele>-2.74</ele>
        <time>2019-12-15T12:08:06.000Z</time>
      </trkpt>
      <trkpt lat="47.25538" lon="-1.68967">
        <ele>-4.23</ele>
        <time>2019-12-15T12:08:09.000Z</time>
      </trkpt>
      <trkpt lat="47.25546" lon="-1.68992">
        <ele>-4.36</ele>
        <time>2019-12-15T12:08:12.000Z</time>
      </trkpt>
      <trkpt lat="47.25562" lon="-1.69012">
        <ele>-2.86</ele>
        <time>2019-12-15T12:08:16.000Z</time>
      </trkpt>
      <trkpt lat="47.25579" lon="-1.68996">
        <ele>-2.45</ele>
        <time>2019-12-15T12:08:20.000Z</time>
      </trkpt>
      <trkpt lat="47.25598" lon="-1.68976">
        <ele>-1.22</ele>
        <time>2019-12-15T12:08:24.000Z</time>
      </trkpt>
      <trkpt lat="47.25614" lon="-1.68961">
        <ele>-0.48</ele>
        <time>2019-12-15T12:08:27.000Z</time>
      </trkpt>
      <trkpt lat="47.25631" lon="-1.68945">
        <ele>-1.76</ele>
        <time>2019-12-15T12:08:30.000Z</time>
      </trkpt>
      <trkpt lat="47.25649" lon="-1.68929">
        <ele>-3.27</ele>
        <time>2019-12-15T12:08:33.000Z</time>
      </trkpt>
      <trkpt lat="47.25666" lon="-1.68913">
        <ele>-2.97</ele>
        <time>2019-12-15T12:08:36.000Z</time>
      </trkpt>
      <trkpt lat="47.25683" lon="-1.68897">
        <ele>-2.58</ele>
        <time>2019-12-15T12:08:39.000Z</time>
      </trkpt>
      <trkpt lat="47.25702" lon="-1.68879">
        <ele>-2.8</ele>
        <time>2019-12-15T12:08:42.000Z</time>
      </trkpt>
      <trkpt lat="47.25716" lon="-1.68856">
        <ele>-2.86</ele>
        <time>2019-12-15T12:08:45.000Z</time>
      </trkpt>
      <trkpt lat="47.25734" lon="-1.68845">
        <ele>-2.08</ele>
        <time>2019-12-15T12:08:48.000Z</time>
      </trkpt>
      <trkpt lat="47.25756" lon="-1.6883">
        <ele>-1.07</ele>
        <time>2019-12-15T12:08:52.000Z</time>
      </trkpt>
      <trkpt lat="47.25773" lon="-1.68815">
        <ele>-0.53</ele>
        <time>2019-12-15T12:08:56.000Z</time>
      </trkpt>
      <trkpt lat="47.2579" lon="-1.68802">
        <ele>-1.26</ele>
        <time>2019-12-15T12:09:00.000Z</time>
      </trkpt>
      <trkpt lat="47.25807" lon="-1.68786">
        <ele>-1.12</ele>
        <time>2019-12-15T12:09:04.000Z</time>
      </trkpt>
      <trkpt lat="47.25824" lon="-1.6877">
        <ele>-0.56</ele>
        <time>2019-12-15T12:09:08.000Z</time>
      </trkpt>
      <trkpt lat="47.25842" lon="-1.68752">
        <ele>-1.86</ele>
        <time>2019-12-15T12:09:12.000Z</time>
      </trkpt>
      <trkpt lat="47.25858" lon="-1.68739">
        <ele>-1.4</ele>
        <time>2019-12-15T12:09:15.000Z</time>
      </trkpt>
      <trkpt lat="47.25878" lon="-1.68722">
        <ele>-0.12</ele>
        <time>2019-12-15T12:09:19.000Z</time>
      </trkpt>
      <trkpt lat="47.25897" lon="-1.68704">
        <ele>-0.38</ele>
        <time>2019-12-15T12:09:23.000Z</time>
      </trkpt>
      <trkpt lat="47.25917" lon="-1.68686">
        <ele>-0.1</ele>
        <time>2019-12-15T12:09:27.000Z</time>
      </trkpt>
      <trkpt lat="47.25933" lon="-1.68671">
        <ele>0.47</ele>
        <time>2019-12-15T12:09:30.000Z</time>
      </trkpt>
      <trkpt lat="47.25951" lon="-1.68654">
        <ele>0.74</ele>
        <time>2019-12-15T12:09:33.000Z</time>
      </trkpt>
      <trkpt lat="47.2597" lon="-1.68636">
        <ele>0.52</ele>
        <time>2019-12-15T12:09:36.000Z</time>
      </trkpt>
      <trkpt lat="47.25986" lon="-1.68617">
        <ele>0.04</ele>
        <time>2019-12-15T12:09:39.000Z</time>
      </trkpt>
      <trkpt lat="47.26001" lon="-1.68595">
        <ele>-0.5</ele>
        <time>2019-12-15T12:09:42.000Z</time>
      </trkpt>
      <trkpt lat="47.26014" lon="-1.68571">
        <ele>-0.18</ele>
        <time>2019-12-15T12:09:45.000Z</time>
      </trkpt>
      <trkpt lat="47.26026" lon="-1.68545">
        <ele>0.8</ele>
        <time>2019-12-15T12:09:48.000Z</time>
      </trkpt>
      <trkpt lat="47.26038" lon="-1.68519">
        <ele>1.84</ele>
        <time>2019-12-15T12:09:51.000Z</time>
      </trkpt>
      <trkpt lat="47.26047" lon="-1.68492">
        <ele>3.16</ele>
        <time>2019-12-15T12:09:54.000Z</time>
      </trkpt>
      <trkpt lat="47.26057" lon="-1.68467">
        <ele>4.33</ele>
        <time>2019-12-15T12:09:57.000Z</time>
      </trkpt>
      <trkpt lat="47.26065" lon="-1.68443">
        <ele>5.47</ele>
        <time>2019-12-15T12:10:00.000Z</time>
      </trkpt>
      <trkpt lat="47.26075" lon="-1.68411">
        <ele>6.97</ele>
        <time>2019-12-15T12:10:04.000Z</time>
      </trkpt>
      <trkpt lat="47.26086" lon="-1.68381">
        <ele>7.48</ele>
        <time>2019-12-15T12:10:08.000Z</time>
      </trkpt>
      <trkpt lat="47.26096" lon="-1.6835">
        <ele>7.85</ele>
        <time>2019-12-15T12:10:12.000Z</time>
      </trkpt>
      <trkpt lat="47.26107" lon="-1.68322">
        <ele>8.35</ele>
        <time>2019-12-15T12:10:16.000Z</time>
      </trkpt>
      <trkpt lat="47.26116" lon="-1.68293">
        <ele>8.91</ele>
        <time>2019-12-15T12:10:20.000Z</time>
      </trkpt>
      <trkpt lat="47.26126" lon="-1.68262">
        <ele>8.98</ele>
        <time>2019-12-15T12:10:24.000Z</time>
      </trkpt>
      <trkpt lat="47.26137" lon="-1.68232">
        <ele>9.01</ele>
        <time>2019-12-15T12:10:28.000Z</time>
      </trkpt>
      <trkpt lat="47.26147" lon="-1.68201">
        <ele>9.65</ele>
        <time>2019-12-15T12:10:32.000Z</time>
      </trkpt>
      <trkpt lat="47.26159" lon="-1.6817">
        <ele>10.12</ele>
        <time>2019-12-15T12:10:36.000Z</time>
      </trkpt>
      <trkpt lat="47.26172" lon="-1.68142">
        <ele>11.62</ele>
        <time>2019-12-15T12:10:40.000Z</time>
      </trkpt>
      <trkpt lat="47.26183" lon="-1.68115">
        <ele>13.02</ele>
        <time>2019-12-15T12:10:44.000Z</time>
      </trkpt>
      <trkpt lat="47.26194" lon="-1.68084">
        <ele>13.66</ele>
        <time>2019-12-15T12:10:48.000Z</time>
      </trkpt>
      <trkpt lat="47.26208" lon="-1.68055">
        <ele>14.36</ele>
        <time>2019-12-15T12:10:52.000Z</time>
      </trkpt>
      <trkpt lat="47.26218" lon="-1.68032">
        <ele>15.08</ele>
        <time>2019-12-15T12:10:55.000Z</time>
      </trkpt>
      <trkpt lat="47.26229" lon="-1.6801">
        <ele>15.29</ele>
        <time>2019-12-15T12:10:58.000Z</time>
      </trkpt>
      <trkpt lat="47.2624" lon="-1.67986">
        <ele>15.26</ele>
        <time>2019-12-15T12:11:01.000Z</time>
      </trkpt>
      <trkpt lat="47.26251" lon="-1.67962">
        <ele>15.99</ele>
        <time>2019-12-15T12:11:04.000Z</time>
      </trkpt>
      <trkpt lat="47.26262" lon="-1.67938">
        <ele>17.06</ele>
        <time>2019-12-15T12:11:07.000Z</time>
      </trkpt>
      <trkpt lat="47.26273" lon="-1.67915">
        <ele>15.68</ele>
        <time>2019-12-15T12:11:10.000Z</time>
      </trkpt>
      <trkpt lat="47.26285" lon="-1.67892">
        <ele>16.18</ele>
        <time>2019-12-15T12:11:13.000Z</time>
      </trkpt>
      <trkpt lat="47.26299" lon="-1.67871">
        <ele>16.3</ele>
        <time>2019-12-15T12:11:16.000Z</time>
      </trkpt>
      <trkpt lat="47.26313" lon="-1.67853">
        <ele>15.82</ele>
        <time>2019-12-15T12:11:19.000Z</time>
      </trkpt>
      <trkpt lat="47.26329" lon="-1.67839">
        <ele>15.38</ele>
        <time>2019-12-15T12:11:22.000Z</time>
      </trkpt>
      <trkpt lat="47.26349" lon="-1.67825">
        <ele>13.25</ele>
        <time>2019-12-15T12:11:26.000Z</time>
      </trkpt>
      <trkpt lat="47.26356" lon="-1.67796">
        <ele>13.05</ele>
        <time>2019-12-15T12:11:30.000Z</time>
      </trkpt>
      <trkpt lat="47.2635" lon="-1.6777">
        <ele>11.98</ele>
        <time>2019-12-15T12:11:33.000Z</time>
      </trkpt>
      <trkpt lat="47.26343" lon="-1.67741">
        <ele>11.9</ele>
        <time>2019-12-15T12:11:36.000Z</time>
      </trkpt>
      <trkpt lat="47.26337" lon="-1.67713">
        <ele>12.78</ele>
        <time>2019-12-15T12:11:39.000Z</time>
      </trkpt>
      <trkpt lat="47.2633" lon="-1.67685">
        <ele>12.81</ele>
        <time>2019-12-15T12:11:42.000Z</time>
      </trkpt>
      <trkpt lat="47.26323" lon="-1.67658">
        <ele>11.31</ele>
        <time>2019-12-15T12:11:45.000Z</time>
      </trkpt>
      <trkpt lat="47.26312" lon="-1.67634">
        <ele>11.24</ele>
        <time>2019-12-15T12:11:48.000Z</time>
      </trkpt>
      <trkpt lat="47.26305" lon="-1.67607">
        <ele>12.29</ele>
        <time>2019-12-15T12:11:52.000Z</time>
      </trkpt>
      <trkpt lat="47.26326" lon="-1.67595">
        <ele>14.09</ele>
        <time>2019-12-15T12:11:57.000Z</time>
      </trkpt>
      <trkpt lat="47.26343" lon="-1.6757">
        <ele>16.31</ele>
        <time>2019-12-15T12:12:01.000Z</time>
      </trkpt>
      <trkpt lat="47.26355" lon="-1.67549">
        <ele>17.98</ele>
        <time>2019-12-15T12:12:04.000Z</time>
      </trkpt>
      <trkpt lat="47.26365" lon="-1.67526">
        <ele>18.36</ele>
        <time>2019-12-15T12:12:07.000Z</time>
      </trkpt>
      <trkpt lat="47.26376" lon="-1.67503">
        <ele>18.29</ele>
        <time>2019-12-15T12:12:10.000Z</time>
      </trkpt>
      <trkpt lat="47.26388" lon="-1.6748">
        <ele>18.67</ele>
        <time>2019-12-15T12:12:13.000Z</time>
      </trkpt>
      <trkpt lat="47.26398" lon="-1.67457">
        <ele>17.95</ele>
        <time>2019-12-15T12:12:16.000Z</time>
      </trkpt>
      <trkpt lat="47.26409" lon="-1.67427">
        <ele>18.94</ele>
        <time>2019-12-15T12:12:20.000Z</time>
      </trkpt>
      <trkpt lat="47.26417" lon="-1.67403">
        <ele>19.46</ele>
        <time>2019-12-15T12:12:23.000Z</time>
      </trkpt>
      <trkpt lat="47.26427" lon="-1.6738">
        <ele>18.26</ele>
        <time>2019-12-15T12:12:26.000Z</time>
      </trkpt>
      <trkpt lat="47.26439" lon="-1.6735">
        <ele>16.99</ele>
        <time>2019-12-15T12:12:30.000Z</time>
      </trkpt>
      <trkpt lat="47.26448" lon="-1.67326">
        <ele>15.72</ele>
        <time>2019-12-15T12:12:33.000Z</time>
      </trkpt>
      <trkpt lat="47.26461" lon="-1.67296">
        <ele>15.55</ele>
        <time>2019-12-15T12:12:37.000Z</time>
      </trkpt>
      <trkpt lat="47.26472" lon="-1.67273">
        <ele>15.23</ele>
        <time>2019-12-15T12:12:40.000Z</time>
      </trkpt>
      <trkpt lat="47.26482" lon="-1.67248">
        <ele>15.51</ele>
        <time>2019-12-15T12:12:43.000Z</time>
      </trkpt>
      <trkpt lat="47.26494" lon="-1.67222">
        <ele>14.95</ele>
        <time>2019-12-15T12:12:46.000Z</time>
      </trkpt>
      <trkpt lat="47.26507" lon="-1.67194">
        <ele>13.53</ele>
        <time>2019-12-15T12:12:49.000Z</time>
      </trkpt>
      <trkpt lat="47.26524" lon="-1.67167">
        <ele>11.63</ele>
        <time>2019-12-15T12:12:52.000Z</time>
      </trkpt>
      <trkpt lat="47.26545" lon="-1.67143">
        <ele>9.79</ele>
        <time>2019-12-15T12:12:55.000Z</time>
      </trkpt>
      <trkpt lat="47.26562" lon="-1.67131">
        <ele>10.23</ele>
        <time>2019-12-15T12:12:57.000Z</time>
      </trkpt>
      <trkpt lat="47.26578" lon="-1.67117">
        <ele>8.12</ele>
        <time>2019-12-15T12:12:59.000Z</time>
      </trkpt>
      <trkpt lat="47.26602" lon="-1.67098">
        <ele>9.13</ele>
        <time>2019-12-15T12:13:02.000Z</time>
      </trkpt>
      <trkpt lat="47.26621" lon="-1.67091">
        <ele>8.51</ele>
        <time>2019-12-15T12:13:04.000Z</time>
      </trkpt>
      <trkpt lat="47.26639" lon="-1.6708">
        <ele>8.29</ele>
        <time>2019-12-15T12:13:06.000Z</time>
      </trkpt>
      <trkpt lat="47.26658" lon="-1.67067">
        <ele>6.87</ele>
        <time>2019-12-15T12:13:08.000Z</time>
      </trkpt>
      <trkpt lat="47.26676" lon="-1.67053">
        <ele>5.64</ele>
        <time>2019-12-15T12:13:10.000Z</time>
      </trkpt>
      <trkpt lat="47.26694" lon="-1.67039">
        <ele>2.87</ele>
        <time>2019-12-15T12:13:12.000Z</time>
      </trkpt>
      <trkpt lat="47.26713" lon="-1.67025">
        <ele>0.45</ele>
        <time>2019-12-15T12:13:14.000Z</time>
      </trkpt>
      <trkpt lat="47.26733" lon="-1.67014">
        <ele>-1.37</ele>
        <time>2019-12-15T12:13:16.000Z</time>
      </trkpt>
      <trkpt lat="47.26756" lon="-1.67013">
        <ele>-1.52</ele>
        <time>2019-12-15T12:13:18.000Z</time>
      </trkpt>
      <trkpt lat="47.2678" lon="-1.67023">
        <ele>-1.11</ele>
        <time>2019-12-15T12:13:20.000Z</time>
      </trkpt>
      <trkpt lat="47.268" lon="-1.6704">
        <ele>-1.66</ele>
        <time>2019-12-15T12:13:22.000Z</time>
      </trkpt>
      <trkpt lat="47.26815" lon="-1.67062">
        <ele>-2.76</ele>
        <time>2019-12-15T12:13:24.000Z</time>
      </trkpt>
      <trkpt lat="47.26826" lon="-1.67089">
        <ele>-5.13</ele>
        <time>2019-12-15T12:13:26.000Z</time>
      </trkpt>
      <trkpt lat="47.26842" lon="-1.6711">
        <ele>-8.48</ele>
        <time>2019-12-15T12:13:28.000Z</time>
      </trkpt>
      <trkpt lat="47.26859" lon="-1.67126">
        <ele>-11.57</ele>
        <time>2019-12-15T12:13:30.000Z</time>
      </trkpt>
      <trkpt lat="47.26873" lon="-1.67146">
        <ele>-12.14</ele>
        <time>2019-12-15T12:13:32.000Z</time>
      </trkpt>
      <trkpt lat="47.2689" lon="-1.67164">
        <ele>-12.87</ele>
        <time>2019-12-15T12:13:34.000Z</time>
      </trkpt>
      <trkpt lat="47.26913" lon="-1.67171">
        <ele>-11.58</ele>
        <time>2019-12-15T12:13:37.000Z</time>
      </trkpt>
      <trkpt lat="47.26935" lon="-1.67163">
        <ele>-9.86</ele>
        <time>2019-12-15T12:13:41.000Z</time>
      </trkpt>
      <trkpt lat="47.26952" lon="-1.67156">
        <ele>-8.4</ele>
        <time>2019-12-15T12:13:45.000Z</time>
      </trkpt>
      <trkpt lat="47.26971" lon="-1.67146">
        <ele>-7.85</ele>
        <time>2019-12-15T12:13:50.000Z</time>
      </trkpt>
      <trkpt lat="47.26989" lon="-1.67133">
        <ele>-7.25</ele>
        <time>2019-12-15T12:13:55.000Z</time>
      </trkpt>
      <trkpt lat="47.27007" lon="-1.67128">
        <ele>-5.31</ele>
        <time>2019-12-15T12:13:59.000Z</time>
      </trkpt>
      <trkpt lat="47.27028" lon="-1.67124">
        <ele>-3.42</ele>
        <time>2019-12-15T12:14:04.000Z</time>
      </trkpt>
      <trkpt lat="47.27046" lon="-1.67123">
        <ele>-1.87</ele>
        <time>2019-12-15T12:14:08.000Z</time>
      </trkpt>
      <trkpt lat="47.27065" lon="-1.67124">
        <ele>-0.34</ele>
        <time>2019-12-15T12:14:12.000Z</time>
      </trkpt>
      <trkpt lat="47.27085" lon="-1.67128">
        <ele>1.33</ele>
        <time>2019-12-15T12:14:17.000Z</time>
      </trkpt>
      <trkpt lat="47.27106" lon="-1.67134">
        <ele>2.68</ele>
        <time>2019-12-15T12:14:22.000Z</time>
      </trkpt>
      <trkpt lat="47.27126" lon="-1.6714">
        <ele>4.1</ele>
        <time>2019-12-15T12:14:27.000Z</time>
      </trkpt>
      <trkpt lat="47.27145" lon="-1.67146">
        <ele>5.29</ele>
        <time>2019-12-15T12:14:32.000Z</time>
      </trkpt>
      <trkpt lat="47.27167" lon="-1.67152">
        <ele>3.41</ele>
        <time>2019-12-15T12:14:37.000Z</time>
      </trkpt>
      <trkpt lat="47.27186" lon="-1.67158">
        <ele>3.55</ele>
        <time>2019-12-15T12:14:41.000Z</time>
      </trkpt>
      <trkpt lat="47.27204" lon="-1.67166">
        <ele>3.63</ele>
        <time>2019-12-15T12:14:45.000Z</time>
      </trkpt>
      <trkpt lat="47.27221" lon="-1.67174">
        <ele>4.13</ele>
        <time>2019-12-15T12:14:49.000Z</time>
      </trkpt>
      <trkpt lat="47.27239" lon="-1.67182">
        <ele>6.66</ele>
        <time>2019-12-15T12:14:53.000Z</time>
      </trkpt>
      <trkpt lat="47.27257" lon="-1.67189">
        <ele>8.81</ele>
        <time>2019-12-15T12:14:57.000Z</time>
      </trkpt>
      <trkpt lat="47.27275" lon="-1.67196">
        <ele>11.55</ele>
        <time>2019-12-15T12:15:01.000Z</time>
      </trkpt>
      <trkpt lat="47.27292" lon="-1.67204">
        <ele>12.1</ele>
        <time>2019-12-15T12:15:05.000Z</time>
      </trkpt>
      <trkpt lat="47.27313" lon="-1.67211">
        <ele>13.05</ele>
        <time>2019-12-15T12:15:09.000Z</time>
      </trkpt>
      <trkpt lat="47.27333" lon="-1.67214">
        <ele>15.1</ele>
        <time>2019-12-15T12:15:13.000Z</time>
      </trkpt>
      <trkpt lat="47.27352" lon="-1.67212">
        <ele>17.19</ele>
        <time>2019-12-15T12:15:17.000Z</time>
      </trkpt>
      <trkpt lat="47.27372" lon="-1.67205">
        <ele>19.46</ele>
        <time>2019-12-15T12:15:21.000Z</time>
      </trkpt>
      <trkpt lat="47.27393" lon="-1.67192">
        <ele>20.83</ele>
        <time>2019-12-15T12:15:25.000Z</time>
      </trkpt>
      <trkpt lat="47.27411" lon="-1.67176">
        <ele>21.94</ele>
        <time>2019-12-15T12:15:29.000Z</time>
      </trkpt>
      <trkpt lat="47.27429" lon="-1.67159">
        <ele>21.15</ele>
        <time>2019-12-15T12:15:33.000Z</time>
      </trkpt>
      <trkpt lat="47.27448" lon="-1.67141">
        <ele>19.77</ele>
        <time>2019-12-15T12:15:37.000Z</time>
      </trkpt>
      <trkpt lat="47.27463" lon="-1.67126">
        <ele>18.51</ele>
        <time>2019-12-15T12:15:40.000Z</time>
      </trkpt>
      <trkpt lat="47.27479" lon="-1.67112">
        <ele>18.51</ele>
        <time>2019-12-15T12:15:43.000Z</time>
      </trkpt>
      <trkpt lat="47.27496" lon="-1.67098">
        <ele>18.59</ele>
        <time>2019-12-15T12:15:46.000Z</time>
      </trkpt>
      <trkpt lat="47.27515" lon="-1.67079">
        <ele>17.98</ele>
        <time>2019-12-15T12:15:50.000Z</time>
      </trkpt>
      <trkpt lat="47.27524" lon="-1.67053">
        <ele>17.56</ele>
        <time>2019-12-15T12:15:54.000Z</time>
      </trkpt>
      <trkpt lat="47.27515" lon="-1.67029">
        <ele>17.05</ele>
        <time>2019-12-15T12:15:57.000Z</time>
      </trkpt>
      <trkpt lat="47.27506" lon="-1.67003">
        <ele>16.8</ele>
        <time>2019-12-15T12:16:00.000Z</time>
      </trkpt>
      <trkpt lat="47.27496" lon="-1.66977">
        <ele>16.42</ele>
        <time>2019-12-15T12:16:03.000Z</time>
      </trkpt>
      <trkpt lat="47.27485" lon="-1.66948">
        <ele>15.59</ele>
        <time>2019-12-15T12:16:06.000Z</time>
      </trkpt>
      <trkpt lat="47.27476" lon="-1.6692">
        <ele>14.94</ele>
        <time>2019-12-15T12:16:09.000Z</time>
      </trkpt>
      <trkpt lat="47.27466" lon="-1.66895">
        <ele>16.07</ele>
        <time>2019-12-15T12:16:12.000Z</time>
      </trkpt>
      <trkpt lat="47.27453" lon="-1.66871">
        <ele>17.44</ele>
        <time>2019-12-15T12:16:15.000Z</time>
      </trkpt>
      <trkpt lat="47.27438" lon="-1.66846">
        <ele>16.69</ele>
        <time>2019-12-15T12:16:18.000Z</time>
      </trkpt>
      <trkpt lat="47.27426" lon="-1.66824">
        <ele>15.06</ele>
        <time>2019-12-15T12:16:21.000Z</time>
      </trkpt>
      <trkpt lat="47.27413" lon="-1.66802">
        <ele>13.57</ele>
        <time>2019-12-15T12:16:24.000Z</time>
      </trkpt>
      <trkpt lat="47.274" lon="-1.66782">
        <ele>13.26</ele>
        <time>2019-12-15T12:16:27.000Z</time>
      </trkpt>
      <trkpt lat="47.27386" lon="-1.66764">
        <ele>14.47</ele>
        <time>2019-12-15T12:16:30.000Z</time>
      </trkpt>
      <trkpt lat="47.2737" lon="-1.66742">
        <ele>15.18</ele>
        <time>2019-12-15T12:16:33.000Z</time>
      </trkpt>
      <trkpt lat="47.27355" lon="-1.66721">
        <ele>16.13</ele>
        <time>2019-12-15T12:16:36.000Z</time>
      </trkpt>
      <trkpt lat="47.27342" lon="-1.66701">
        <ele>17.76</ele>
        <time>2019-12-15T12:16:39.000Z</time>
      </trkpt>
      <trkpt lat="47.27329" lon="-1.6668">
        <ele>17.57</ele>
        <time>2019-12-15T12:16:42.000Z</time>
      </trkpt>
      <trkpt lat="47.27318" lon="-1.66656">
        <ele>17</ele>
        <time>2019-12-15T12:16:45.000Z</time>
      </trkpt>
      <trkpt lat="47.27312" lon="-1.66629">
        <ele>17.28</ele>
        <time>2019-12-15T12:16:48.000Z</time>
      </trkpt>
      <trkpt lat="47.27309" lon="-1.666">
        <ele>16.83</ele>
        <time>2019-12-15T12:16:51.000Z</time>
      </trkpt>
      <trkpt lat="47.27312" lon="-1.66572">
        <ele>16.73</ele>
        <time>2019-12-15T12:16:54.000Z</time>
      </trkpt>
      <trkpt lat="47.27315" lon="-1.66543">
        <ele>15.64</ele>
        <time>2019-12-15T12:16:57.000Z</time>
      </trkpt>
      <trkpt lat="47.27317" lon="-1.66513">
        <ele>14.3</ele>
        <time>2019-12-15T12:17:00.000Z</time>
      </trkpt>
      <trkpt lat="47.27321" lon="-1.66484">
        <ele>13.66</ele>
        <time>2019-12-15T12:17:03.000Z</time>
      </trkpt>
      <trkpt lat="47.2732" lon="-1.66455">
        <ele>13.62</ele>
        <time>2019-12-15T12:17:06.000Z</time>
      </trkpt>
      <trkpt lat="47.27322" lon="-1.66426">
        <ele>13.59</ele>
        <time>2019-12-15T12:17:09.000Z</time>
      </trkpt>
      <trkpt lat="47.27325" lon="-1.66399">
        <ele>13.65</ele>
        <time>2019-12-15T12:17:12.000Z</time>
      </trkpt>
      <trkpt lat="47.27327" lon="-1.66365">
        <ele>15.04</ele>
        <time>2019-12-15T12:17:16.000Z</time>
      </trkpt>
      <trkpt lat="47.27331" lon="-1.66337">
        <ele>16.78</ele>
        <time>2019-12-15T12:17:19.000Z</time>
      </trkpt>
      <trkpt lat="47.27334" lon="-1.66306">
        <ele>16.29</ele>
        <time>2019-12-15T12:17:22.000Z</time>
      </trkpt>
      <trkpt lat="47.27338" lon="-1.66276">
        <ele>15.28</ele>
        <time>2019-12-15T12:17:25.000Z</time>
      </trkpt>
      <trkpt lat="47.27342" lon="-1.66246">
        <ele>15.17</ele>
        <time>2019-12-15T12:17:28.000Z</time>
      </trkpt>
      <trkpt lat="47.2735" lon="-1.66216">
        <ele>15.29</ele>
        <time>2019-12-15T12:17:31.000Z</time>
      </trkpt>
      <trkpt lat="47.2736" lon="-1.66186">
        <ele>14.92</ele>
        <time>2019-12-15T12:17:34.000Z</time>
      </trkpt>
      <trkpt lat="47.2737" lon="-1.66154">
        <ele>13.31</ele>
        <time>2019-12-15T12:17:37.000Z</time>
      </trkpt>
      <trkpt lat="47.27381" lon="-1.6612">
        <ele>12.07</ele>
        <time>2019-12-15T12:17:40.000Z</time>
      </trkpt>
      <trkpt lat="47.27392" lon="-1.66087">
        <ele>11</ele>
        <time>2019-12-15T12:17:43.000Z</time>
      </trkpt>
      <trkpt lat="47.27405" lon="-1.66056">
        <ele>11.64</ele>
        <time>2019-12-15T12:17:46.000Z</time>
      </trkpt>
      <trkpt lat="47.27417" lon="-1.66026">
        <ele>12.21</ele>
        <time>2019-12-15T12:17:49.000Z</time>
      </trkpt>
      <trkpt lat="47.27428" lon="-1.65996">
        <ele>12.05</ele>
        <time>2019-12-15T12:17:52.000Z</time>
      </trkpt>
      <trkpt lat="47.27438" lon="-1.65966">
        <ele>11.7</ele>
        <time>2019-12-15T12:17:55.000Z</time>
      </trkpt>
      <trkpt lat="47.27451" lon="-1.65942">
        <ele>12.35</ele>
        <time>2019-12-15T12:17:58.000Z</time>
      </trkpt>
      <trkpt lat="47.27466" lon="-1.65924">
        <ele>12.74</ele>
        <time>2019-12-15T12:18:01.000Z</time>
      </trkpt>
      <trkpt lat="47.27483" lon="-1.6591">
        <ele>13.27</ele>
        <time>2019-12-15T12:18:04.000Z</time>
      </trkpt>
      <trkpt lat="47.27505" lon="-1.65901">
        <ele>14.19</ele>
        <time>2019-12-15T12:18:07.000Z</time>
      </trkpt>
      <trkpt lat="47.27525" lon="-1.65892">
        <ele>14.32</ele>
        <time>2019-12-15T12:18:10.000Z</time>
      </trkpt>
      <trkpt lat="47.27542" lon="-1.65884">
        <ele>14.72</ele>
        <time>2019-12-15T12:18:13.000Z</time>
      </trkpt>
      <trkpt lat="47.27561" lon="-1.65873">
        <ele>14.71</ele>
        <time>2019-12-15T12:18:17.000Z</time>
      </trkpt>
      <trkpt lat="47.27583" lon="-1.65862">
        <ele>14.54</ele>
        <time>2019-12-15T12:18:21.000Z</time>
      </trkpt>
      <trkpt lat="47.27599" lon="-1.6585">
        <ele>13.97</ele>
        <time>2019-12-15T12:18:24.000Z</time>
      </trkpt>
      <trkpt lat="47.27612" lon="-1.65829">
        <ele>13.3</ele>
        <time>2019-12-15T12:18:27.000Z</time>
      </trkpt>
      <trkpt lat="47.27617" lon="-1.65797">
        <ele>12.87</ele>
        <time>2019-12-15T12:18:30.000Z</time>
      </trkpt>
      <trkpt lat="47.27619" lon="-1.65764">
        <ele>12</ele>
        <time>2019-12-15T12:18:33.000Z</time>
      </trkpt>
      <trkpt lat="47.27621" lon="-1.65733">
        <ele>10.25</ele>
        <time>2019-12-15T12:18:36.000Z</time>
      </trkpt>
      <trkpt lat="47.27619" lon="-1.65702">
        <ele>9.18</ele>
        <time>2019-12-15T12:18:39.000Z</time>
      </trkpt>
      <trkpt lat="47.27613" lon="-1.65671">
        <ele>9.53</ele>
        <time>2019-12-15T12:18:42.000Z</time>
      </trkpt>
      <trkpt lat="47.27604" lon="-1.65643">
        <ele>9.21</ele>
        <time>2019-12-15T12:18:45.000Z</time>
      </trkpt>
      <trkpt lat="47.27594" lon="-1.65614">
        <ele>9.71</ele>
        <time>2019-12-15T12:18:48.000Z</time>
      </trkpt>
      <trkpt lat="47.27585" lon="-1.65585">
        <ele>10.2</ele>
        <time>2019-12-15T12:18:51.000Z</time>
      </trkpt>
      <trkpt lat="47.27577" lon="-1.65553">
        <ele>9.14</ele>
        <time>2019-12-15T12:18:54.000Z</time>
      </trkpt>
      <trkpt lat="47.27573" lon="-1.65521">
        <ele>8.41</ele>
        <time>2019-12-15T12:18:57.000Z</time>
      </trkpt>
      <trkpt lat="47.27569" lon="-1.65487">
        <ele>9.77</ele>
        <time>2019-12-15T12:19:00.000Z</time>
      </trkpt>
      <trkpt lat="47.27564" lon="-1.65451">
        <ele>9.08</ele>
        <time>2019-12-15T12:19:03.000Z</time>
      </trkpt>
      <trkpt lat="47.27551" lon="-1.65419">
        <ele>8.66</ele>
        <time>2019-12-15T12:19:06.000Z</time>
      </trkpt>
      <trkpt lat="47.27536" lon="-1.65395">
        <ele>8.08</ele>
        <time>2019-12-15T12:19:09.000Z</time>
      </trkpt>
      <trkpt lat="47.27525" lon="-1.65373">
        <ele>8.07</ele>
        <time>2019-12-15T12:19:12.000Z</time>
      </trkpt>
      <trkpt lat="47.27515" lon="-1.65348">
        <ele>7.6</ele>
        <time>2019-12-15T12:19:16.000Z</time>
      </trkpt>
      <trkpt lat="47.2751" lon="-1.65316">
        <ele>8.51</ele>
        <time>2019-12-15T12:19:21.000Z</time>
      </trkpt>
      <trkpt lat="47.27511" lon="-1.65285">
        <ele>8.89</ele>
        <time>2019-12-15T12:19:25.000Z</time>
      </trkpt>
      <trkpt lat="47.27517" lon="-1.65253">
        <ele>8.28</ele>
        <time>2019-12-15T12:19:29.000Z</time>
      </trkpt>
      <trkpt lat="47.27527" lon="-1.65223">
        <ele>8.61</ele>
        <time>2019-12-15T12:19:33.000Z</time>
      </trkpt>
      <trkpt lat="47.27539" lon="-1.65193">
        <ele>9.33</ele>
        <time>2019-12-15T12:19:37.000Z</time>
      </trkpt>
      <trkpt lat="47.2755" lon="-1.65164">
        <ele>9.91</ele>
        <time>2019-12-15T12:19:41.000Z</time>
      </trkpt>
      <trkpt lat="47.27556" lon="-1.65133">
        <ele>9.93</ele>
        <time>2019-12-15T12:19:45.000Z</time>
      </trkpt>
      <trkpt lat="47.27556" lon="-1.65102">
        <ele>10.16</ele>
        <time>2019-12-15T12:19:49.000Z</time>
      </trkpt>
      <trkpt lat="47.27552" lon="-1.65072">
        <ele>11.22</ele>
        <time>2019-12-15T12:19:53.000Z</time>
      </trkpt>
      <trkpt lat="47.27545" lon="-1.6504">
        <ele>11.96</ele>
        <time>2019-12-15T12:19:57.000Z</time>
      </trkpt>
      <trkpt lat="47.27537" lon="-1.65009">
        <ele>13.58</ele>
        <time>2019-12-15T12:20:01.000Z</time>
      </trkpt>
      <trkpt lat="47.27533" lon="-1.64976">
        <ele>13.84</ele>
        <time>2019-12-15T12:20:05.000Z</time>
      </trkpt>
      <trkpt lat="47.27534" lon="-1.64941">
        <ele>12.47</ele>
        <time>2019-12-15T12:20:09.000Z</time>
      </trkpt>
      <trkpt lat="47.27533" lon="-1.64906">
        <ele>12.4</ele>
        <time>2019-12-15T12:20:13.000Z</time>
      </trkpt>
      <trkpt lat="47.27529" lon="-1.64872">
        <ele>12.66</ele>
        <time>2019-12-15T12:20:17.000Z</time>
      </trkpt>
      <trkpt lat="47.27526" lon="-1.64845">
        <ele>10.84</ele>
        <time>2019-12-15T12:20:20.000Z</time>
      </trkpt>
      <trkpt lat="47.27529" lon="-1.64816">
        <ele>9.72</ele>
        <time>2019-12-15T12:20:23.000Z</time>
      </trkpt>
      <trkpt lat="47.27537" lon="-1.64788">
        <ele>9.13</ele>
        <time>2019-12-15T12:20:26.000Z</time>
      </trkpt>
      <trkpt lat="47.27543" lon="-1.64759">
        <ele>9.06</ele>
        <time>2019-12-15T12:20:29.000Z</time>
      </trkpt>
      <trkpt lat="47.27547" lon="-1.64727">
        <ele>9.61</ele>
        <time>2019-12-15T12:20:32.000Z</time>
      </trkpt>
      <trkpt lat="47.27549" lon="-1.64694">
        <ele>10.5</ele>
        <time>2019-12-15T12:20:35.000Z</time>
      </trkpt>
      <trkpt lat="47.27551" lon="-1.6466">
        <ele>10.33</ele>
        <time>2019-12-15T12:20:38.000Z</time>
      </trkpt>
      <trkpt lat="47.27558" lon="-1.64624">
        <ele>8.69</ele>
        <time>2019-12-15T12:20:41.000Z</time>
      </trkpt>
      <trkpt lat="47.27563" lon="-1.64586">
        <ele>7.99</ele>
        <time>2019-12-15T12:20:44.000Z</time>
      </trkpt>
      <trkpt lat="47.27566" lon="-1.64549">
        <ele>7.98</ele>
        <time>2019-12-15T12:20:47.000Z</time>
      </trkpt>
      <trkpt lat="47.27566" lon="-1.64516">
        <ele>7.38</ele>
        <time>2019-12-15T12:20:50.000Z</time>
      </trkpt>
      <trkpt lat="47.27562" lon="-1.64487">
        <ele>6.44</ele>
        <time>2019-12-15T12:20:53.000Z</time>
      </trkpt>
      <trkpt lat="47.27559" lon="-1.6446">
        <ele>6.57</ele>
        <time>2019-12-15T12:20:56.000Z</time>
      </trkpt>
      <trkpt lat="47.27556" lon="-1.64433">
        <ele>7.11</ele>
        <time>2019-12-15T12:20:59.000Z</time>
      </trkpt>
      <trkpt lat="47.27553" lon="-1.64406">
        <ele>7.36</ele>
        <time>2019-12-15T12:21:02.000Z</time>
      </trkpt>
      <trkpt lat="47.27547" lon="-1.64378">
        <ele>7.71</ele>
        <time>2019-12-15T12:21:05.000Z</time>
      </trkpt>
      <trkpt lat="47.27538" lon="-1.64353">
        <ele>8.54</ele>
        <time>2019-12-15T12:21:08.000Z</time>
      </trkpt>
      <trkpt lat="47.27525" lon="-1.6433">
        <ele>9.7</ele>
        <time>2019-12-15T12:21:11.000Z</time>
      </trkpt>
      <trkpt lat="47.27512" lon="-1.64305">
        <ele>10.65</ele>
        <time>2019-12-15T12:21:14.000Z</time>
      </trkpt>
      <trkpt lat="47.275" lon="-1.64277">
        <ele>11.21</ele>
        <time>2019-12-15T12:21:17.000Z</time>
      </trkpt>
      <trkpt lat="47.27495" lon="-1.64248">
        <ele>11.05</ele>
        <time>2019-12-15T12:21:20.000Z</time>
      </trkpt>
      <trkpt lat="47.27495" lon="-1.64218">
        <ele>8.96</ele>
        <time>2019-12-15T12:21:23.000Z</time>
      </trkpt>
      <trkpt lat="47.27496" lon="-1.64189">
        <ele>8.68</ele>
        <time>2019-12-15T12:21:26.000Z</time>
      </trkpt>
      <trkpt lat="47.27497" lon="-1.6416">
        <ele>9.75</ele>
        <time>2019-12-15T12:21:29.000Z</time>
      </trkpt>
      <trkpt lat="47.27498" lon="-1.64131">
        <ele>10.67</ele>
        <time>2019-12-15T12:21:32.000Z</time>
      </trkpt>
      <trkpt lat="47.27499" lon="-1.64103">
        <ele>11.13</ele>
        <time>2019-12-15T12:21:35.000Z</time>
      </trkpt>
      <trkpt lat="47.275" lon="-1.64076">
        <ele>11.15</ele>
        <time>2019-12-15T12:21:38.000Z</time>
      </trkpt>
      <trkpt lat="47.27502" lon="-1.64041">
        <ele>10.65</ele>
        <time>2019-12-15T12:21:42.000Z</time>
      </trkpt>
      <trkpt lat="47.27504" lon="-1.64014">
        <ele>10.95</ele>
        <time>2019-12-15T12:21:45.000Z</time>
      </trkpt>
      <trkpt lat="47.27507" lon="-1.63985">
        <ele>11.46</ele>
        <time>2019-12-15T12:21:48.000Z</time>
      </trkpt>
      <trkpt lat="47.2751" lon="-1.63956">
        <ele>12.01</ele>
        <time>2019-12-15T12:21:51.000Z</time>
      </trkpt>
      <trkpt lat="47.27509" lon="-1.63928">
        <ele>11.75</ele>
        <time>2019-12-15T12:21:54.000Z</time>
      </trkpt>
      <trkpt lat="47.2751" lon="-1.63901">
        <ele>11.49</ele>
        <time>2019-12-15T12:21:57.000Z</time>
      </trkpt>
      <trkpt lat="47.27509" lon="-1.63873">
        <ele>11.33</ele>
        <time>2019-12-15T12:22:00.000Z</time>
      </trkpt>
      <trkpt lat="47.27509" lon="-1.63846">
        <ele>11.68</ele>
        <time>2019-12-15T12:22:03.000Z</time>
      </trkpt>
      <trkpt lat="47.27507" lon="-1.63811">
        <ele>12.58</ele>
        <time>2019-12-15T12:22:07.000Z</time>
      </trkpt>
      <trkpt lat="47.27503" lon="-1.63784">
        <ele>12.8</ele>
        <time>2019-12-15T12:22:10.000Z</time>
      </trkpt>
      <trkpt lat="47.27497" lon="-1.63758">
        <ele>12.35</ele>
        <time>2019-12-15T12:22:13.000Z</time>
      </trkpt>
      <trkpt lat="47.27492" lon="-1.63728">
        <ele>12.2</ele>
        <time>2019-12-15T12:22:17.000Z</time>
      </trkpt>
      <trkpt lat="47.27494" lon="-1.63699">
        <ele>12.21</ele>
        <time>2019-12-15T12:22:21.000Z</time>
      </trkpt>
      <trkpt lat="47.27487" lon="-1.63672">
        <ele>10.4</ele>
        <time>2019-12-15T12:22:25.000Z</time>
      </trkpt>
      <trkpt lat="47.27477" lon="-1.63648">
        <ele>10.43</ele>
        <time>2019-12-15T12:22:28.000Z</time>
      </trkpt>
      <trkpt lat="47.27465" lon="-1.63623">
        <ele>10.66</ele>
        <time>2019-12-15T12:22:31.000Z</time>
      </trkpt>
      <trkpt lat="47.27451" lon="-1.63597">
        <ele>10.32</ele>
        <time>2019-12-15T12:22:34.000Z</time>
      </trkpt>
      <trkpt lat="47.27439" lon="-1.63571">
        <ele>9.62</ele>
        <time>2019-12-15T12:22:37.000Z</time>
      </trkpt>
      <trkpt lat="47.27428" lon="-1.63544">
        <ele>9.28</ele>
        <time>2019-12-15T12:22:40.000Z</time>
      </trkpt>
      <trkpt lat="47.27418" lon="-1.63516">
        <ele>7.7</ele>
        <time>2019-12-15T12:22:43.000Z</time>
      </trkpt>
      <trkpt lat="47.27405" lon="-1.63495">
        <ele>7</ele>
        <time>2019-12-15T12:22:47.000Z</time>
      </trkpt>
      <trkpt lat="47.27385" lon="-1.63483">
        <ele>5.27</ele>
        <time>2019-12-15T12:22:51.000Z</time>
      </trkpt>
      <trkpt lat="47.27367" lon="-1.63463">
        <ele>5.39</ele>
        <time>2019-12-15T12:22:55.000Z</time>
      </trkpt>
      <trkpt lat="47.27347" lon="-1.63463">
        <ele>5.91</ele>
        <time>2019-12-15T12:22:59.000Z</time>
      </trkpt>
      <trkpt lat="47.27331" lon="-1.63488">
        <ele>6.54</ele>
        <time>2019-12-15T12:23:03.000Z</time>
      </trkpt>
      <trkpt lat="47.27315" lon="-1.63512">
        <ele>8.23</ele>
        <time>2019-12-15T12:23:07.000Z</time>
      </trkpt>
      <trkpt lat="47.27299" lon="-1.63536">
        <ele>9.05</ele>
        <time>2019-12-15T12:23:11.000Z</time>
      </trkpt>
      <trkpt lat="47.2728" lon="-1.63556">
        <ele>9.42</ele>
        <time>2019-12-15T12:23:15.000Z</time>
      </trkpt>
      <trkpt lat="47.27263" lon="-1.63566">
        <ele>8.86</ele>
        <time>2019-12-15T12:23:18.000Z</time>
      </trkpt>
      <trkpt lat="47.27244" lon="-1.63572">
        <ele>8.22</ele>
        <time>2019-12-15T12:23:21.000Z</time>
      </trkpt>
      <trkpt lat="47.27225" lon="-1.63578">
        <ele>8.52</ele>
        <time>2019-12-15T12:23:24.000Z</time>
      </trkpt>
      <trkpt lat="47.27205" lon="-1.63581">
        <ele>8.02</ele>
        <time>2019-12-15T12:23:27.000Z</time>
      </trkpt>
      <trkpt lat="47.27186" lon="-1.63583">
        <ele>6.85</ele>
        <time>2019-12-15T12:23:30.000Z</time>
      </trkpt>
      <trkpt lat="47.27168" lon="-1.63582">
        <ele>6.51</ele>
        <time>2019-12-15T12:23:33.000Z</time>
      </trkpt>
      <trkpt lat="47.27149" lon="-1.63581">
        <ele>6.59</ele>
        <time>2019-12-15T12:23:36.000Z</time>
      </trkpt>
      <trkpt lat="47.27131" lon="-1.63576">
        <ele>6.37</ele>
        <time>2019-12-15T12:23:39.000Z</time>
      </trkpt>
      <trkpt lat="47.27113" lon="-1.63571">
        <ele>5.5</ele>
        <time>2019-12-15T12:23:42.000Z</time>
      </trkpt>
      <trkpt lat="47.27093" lon="-1.63558">
        <ele>5.42</ele>
        <time>2019-12-15T12:23:46.000Z</time>
      </trkpt>
      <trkpt lat="47.27091" lon="-1.63521">
        <ele>4.94</ele>
        <time>2019-12-15T12:23:50.000Z</time>
      </trkpt>
      <trkpt lat="47.27089" lon="-1.63487">
        <ele>4.11</ele>
        <time>2019-12-15T12:23:53.000Z</time>
      </trkpt>
      <trkpt lat="47.27086" lon="-1.63453">
        <ele>2.74</ele>
        <time>2019-12-15T12:23:56.000Z</time>
      </trkpt>
      <trkpt lat="47.27077" lon="-1.63429">
        <ele>0.98</ele>
        <time>2019-12-15T12:23:59.000Z</time>
      </trkpt>
      <trkpt lat="47.27058" lon="-1.63423">
        <ele>-1.44</ele>
        <time>2019-12-15T12:24:02.000Z</time>
      </trkpt>
      <trkpt lat="47.2704" lon="-1.63426">
        <ele>-3.93</ele>
        <time>2019-12-15T12:24:06.000Z</time>
      </trkpt>
    </trkseg>
  </trk>
</gpx>